<?xml version="1.0" encoding="UTF-8" standalone="no" ?>
<gpx xmlns="http://www.topografix.com/GPX/1/1" xmlns:xsi="http://www.w3.org/2001/XMLSchema-instance" xsi:schemaLocation="http://www.topografix.com/GPX/1/1 http://www.topografix.com/GPX/1/1/gpx.xsd" version="1.1" creator="VisuGPX - https://www.visugpx.com">
  <metadata>
    <name>M R T EVAUX LES BAINS</name>
    <desc><![CDATA[depart du camping]]></desc>
  </metadata>
  <trk>
    <name><![CDATA[M R T EVAUX LES BAINS_1]]></name>
    <trkseg>
      <trkpt lat="46.17863" lon="2.48929">
        <ele>467</ele>
        <time>2015-04-05T13:41:31Z</time>
      </trkpt>
      <trkpt lat="46.17871" lon="2.48967">
        <ele>465</ele>
        <time>2015-04-05T13:41:53Z</time>
      </trkpt>
      <trkpt lat="46.1787" lon="2.4897">
        <ele>464</ele>
        <time>2015-04-05T13:41:55Z</time>
      </trkpt>
      <trkpt lat="46.17868" lon="2.48974">
        <ele>463</ele>
        <time>2015-04-05T13:41:58Z</time>
      </trkpt>
      <trkpt lat="46.17866" lon="2.48979">
        <ele>463</ele>
        <time>2015-04-05T13:42:00Z</time>
      </trkpt>
      <trkpt lat="46.17864" lon="2.48984">
        <ele>463</ele>
        <time>2015-04-05T13:42:02Z</time>
      </trkpt>
      <trkpt lat="46.17861" lon="2.48986">
        <ele>463</ele>
        <time>2015-04-05T13:42:04Z</time>
      </trkpt>
      <trkpt lat="46.17859" lon="2.48989">
        <ele>463</ele>
        <time>2015-04-05T13:42:06Z</time>
      </trkpt>
      <trkpt lat="46.17857" lon="2.48992">
        <ele>463</ele>
        <time>2015-04-05T13:42:08Z</time>
      </trkpt>
      <trkpt lat="46.17854" lon="2.48996">
        <ele>463</ele>
        <time>2015-04-05T13:42:11Z</time>
      </trkpt>
      <trkpt lat="46.17851" lon="2.48999">
        <ele>462</ele>
        <time>2015-04-05T13:42:13Z</time>
      </trkpt>
      <trkpt lat="46.17849" lon="2.49002">
        <ele>462</ele>
        <time>2015-04-05T13:42:15Z</time>
      </trkpt>
      <trkpt lat="46.17846" lon="2.49005">
        <ele>461</ele>
        <time>2015-04-05T13:42:17Z</time>
      </trkpt>
      <trkpt lat="46.17844" lon="2.49008">
        <ele>461</ele>
        <time>2015-04-05T13:42:19Z</time>
      </trkpt>
      <trkpt lat="46.17841" lon="2.4901">
        <ele>460</ele>
        <time>2015-04-05T13:42:21Z</time>
      </trkpt>
      <trkpt lat="46.17839" lon="2.49012">
        <ele>460</ele>
        <time>2015-04-05T13:42:23Z</time>
      </trkpt>
      <trkpt lat="46.17836" lon="2.49013">
        <ele>459</ele>
        <time>2015-04-05T13:42:25Z</time>
      </trkpt>
      <trkpt lat="46.17833" lon="2.49014">
        <ele>458</ele>
        <time>2015-04-05T13:42:27Z</time>
      </trkpt>
      <trkpt lat="46.17831" lon="2.49014">
        <ele>457</ele>
        <time>2015-04-05T13:42:29Z</time>
      </trkpt>
      <trkpt lat="46.17828" lon="2.49013">
        <ele>456</ele>
        <time>2015-04-05T13:42:31Z</time>
      </trkpt>
      <trkpt lat="46.17825" lon="2.49013">
        <ele>456</ele>
        <time>2015-04-05T13:42:33Z</time>
      </trkpt>
      <trkpt lat="46.17822" lon="2.49012">
        <ele>455</ele>
        <time>2015-04-05T13:42:35Z</time>
      </trkpt>
      <trkpt lat="46.17818" lon="2.49011">
        <ele>455</ele>
        <time>2015-04-05T13:42:37Z</time>
      </trkpt>
      <trkpt lat="46.17815" lon="2.49009">
        <ele>455</ele>
        <time>2015-04-05T13:42:39Z</time>
      </trkpt>
      <trkpt lat="46.17812" lon="2.49008">
        <ele>455</ele>
        <time>2015-04-05T13:42:41Z</time>
      </trkpt>
      <trkpt lat="46.1781" lon="2.49007">
        <ele>455</ele>
        <time>2015-04-05T13:42:43Z</time>
      </trkpt>
      <trkpt lat="46.17807" lon="2.49005">
        <ele>455</ele>
        <time>2015-04-05T13:42:46Z</time>
      </trkpt>
      <trkpt lat="46.17804" lon="2.49003">
        <ele>455</ele>
        <time>2015-04-05T13:42:48Z</time>
      </trkpt>
      <trkpt lat="46.17802" lon="2.49001">
        <ele>454</ele>
        <time>2015-04-05T13:42:50Z</time>
      </trkpt>
      <trkpt lat="46.178" lon="2.49">
        <ele>453</ele>
        <time>2015-04-05T13:42:52Z</time>
      </trkpt>
      <trkpt lat="46.17797" lon="2.48999">
        <ele>452</ele>
        <time>2015-04-05T13:42:54Z</time>
      </trkpt>
      <trkpt lat="46.17794" lon="2.48998">
        <ele>452</ele>
        <time>2015-04-05T13:42:56Z</time>
      </trkpt>
      <trkpt lat="46.17791" lon="2.48997">
        <ele>452</ele>
        <time>2015-04-05T13:42:58Z</time>
      </trkpt>
      <trkpt lat="46.17788" lon="2.49">
        <ele>452</ele>
        <time>2015-04-05T13:43:01Z</time>
      </trkpt>
      <trkpt lat="46.17786" lon="2.49002">
        <ele>452</ele>
        <time>2015-04-05T13:43:03Z</time>
      </trkpt>
      <trkpt lat="46.17785" lon="2.49005">
        <ele>452</ele>
        <time>2015-04-05T13:43:05Z</time>
      </trkpt>
      <trkpt lat="46.17784" lon="2.49007">
        <ele>452</ele>
        <time>2015-04-05T13:43:14Z</time>
      </trkpt>
      <trkpt lat="46.17784" lon="2.49009">
        <ele>452</ele>
        <time>2015-04-05T13:43:16Z</time>
      </trkpt>
      <trkpt lat="46.17783" lon="2.49012">
        <ele>452</ele>
        <time>2015-04-05T13:43:18Z</time>
      </trkpt>
      <trkpt lat="46.17781" lon="2.49014">
        <ele>452</ele>
        <time>2015-04-05T13:43:20Z</time>
      </trkpt>
      <trkpt lat="46.1778" lon="2.49016">
        <ele>452</ele>
        <time>2015-04-05T13:43:22Z</time>
      </trkpt>
      <trkpt lat="46.17779" lon="2.49019">
        <ele>452</ele>
        <time>2015-04-05T13:43:24Z</time>
      </trkpt>
      <trkpt lat="46.17778" lon="2.49021">
        <ele>452</ele>
        <time>2015-04-05T13:43:26Z</time>
      </trkpt>
      <trkpt lat="46.17778" lon="2.49024">
        <ele>452</ele>
        <time>2015-04-05T13:43:28Z</time>
      </trkpt>
      <trkpt lat="46.17777" lon="2.49026">
        <ele>452</ele>
        <time>2015-04-05T13:43:30Z</time>
      </trkpt>
      <trkpt lat="46.17776" lon="2.49029">
        <ele>452</ele>
        <time>2015-04-05T13:43:32Z</time>
      </trkpt>
      <trkpt lat="46.17775" lon="2.49032">
        <ele>452</ele>
        <time>2015-04-05T13:43:34Z</time>
      </trkpt>
      <trkpt lat="46.17774" lon="2.49034">
        <ele>452</ele>
        <time>2015-04-05T13:43:36Z</time>
      </trkpt>
      <trkpt lat="46.17773" lon="2.49037">
        <ele>452</ele>
        <time>2015-04-05T13:43:38Z</time>
      </trkpt>
      <trkpt lat="46.17772" lon="2.49039">
        <ele>452</ele>
        <time>2015-04-05T13:43:40Z</time>
      </trkpt>
      <trkpt lat="46.17771" lon="2.49042">
        <ele>452</ele>
        <time>2015-04-05T13:43:42Z</time>
      </trkpt>
      <trkpt lat="46.1777" lon="2.49044">
        <ele>452</ele>
        <time>2015-04-05T13:43:44Z</time>
      </trkpt>
      <trkpt lat="46.17769" lon="2.49046">
        <ele>452</ele>
        <time>2015-04-05T13:43:46Z</time>
      </trkpt>
      <trkpt lat="46.17767" lon="2.49048">
        <ele>452</ele>
        <time>2015-04-05T13:43:48Z</time>
      </trkpt>
      <trkpt lat="46.17766" lon="2.4905">
        <ele>452</ele>
        <time>2015-04-05T13:43:50Z</time>
      </trkpt>
      <trkpt lat="46.17763" lon="2.49054">
        <ele>452</ele>
        <time>2015-04-05T13:43:53Z</time>
      </trkpt>
      <trkpt lat="46.17762" lon="2.49056">
        <ele>452</ele>
        <time>2015-04-05T13:43:55Z</time>
      </trkpt>
      <trkpt lat="46.1776" lon="2.49058">
        <ele>452</ele>
        <time>2015-04-05T13:43:57Z</time>
      </trkpt>
      <trkpt lat="46.17758" lon="2.4906">
        <ele>452</ele>
        <time>2015-04-05T13:43:59Z</time>
      </trkpt>
      <trkpt lat="46.17757" lon="2.49063">
        <ele>452</ele>
        <time>2015-04-05T13:44:01Z</time>
      </trkpt>
      <trkpt lat="46.17756" lon="2.49065">
        <ele>452</ele>
        <time>2015-04-05T13:44:03Z</time>
      </trkpt>
      <trkpt lat="46.17755" lon="2.49067">
        <ele>452</ele>
        <time>2015-04-05T13:44:05Z</time>
      </trkpt>
      <trkpt lat="46.17754" lon="2.49069">
        <ele>452</ele>
        <time>2015-04-05T13:44:07Z</time>
      </trkpt>
      <trkpt lat="46.17753" lon="2.49072">
        <ele>452</ele>
        <time>2015-04-05T13:44:09Z</time>
      </trkpt>
      <trkpt lat="46.17752" lon="2.49073">
        <ele>452</ele>
        <time>2015-04-05T13:44:11Z</time>
      </trkpt>
      <trkpt lat="46.1775" lon="2.49075">
        <ele>452</ele>
        <time>2015-04-05T13:44:13Z</time>
      </trkpt>
      <trkpt lat="46.17749" lon="2.49077">
        <ele>452</ele>
        <time>2015-04-05T13:44:18Z</time>
      </trkpt>
      <trkpt lat="46.17748" lon="2.49078">
        <ele>452</ele>
        <time>2015-04-05T13:44:20Z</time>
      </trkpt>
      <trkpt lat="46.17747" lon="2.49079">
        <ele>452</ele>
        <time>2015-04-05T13:44:22Z</time>
      </trkpt>
      <trkpt lat="46.17745" lon="2.49081">
        <ele>452</ele>
        <time>2015-04-05T13:44:24Z</time>
      </trkpt>
      <trkpt lat="46.17744" lon="2.49082">
        <ele>452</ele>
        <time>2015-04-05T13:44:26Z</time>
      </trkpt>
      <trkpt lat="46.17743" lon="2.49085">
        <ele>452</ele>
        <time>2015-04-05T13:44:28Z</time>
      </trkpt>
      <trkpt lat="46.17742" lon="2.49087">
        <ele>452</ele>
        <time>2015-04-05T13:44:30Z</time>
      </trkpt>
      <trkpt lat="46.1774" lon="2.49089">
        <ele>452</ele>
        <time>2015-04-05T13:44:32Z</time>
      </trkpt>
      <trkpt lat="46.17739" lon="2.49091">
        <ele>452</ele>
        <time>2015-04-05T13:44:34Z</time>
      </trkpt>
      <trkpt lat="46.17738" lon="2.49093">
        <ele>452</ele>
        <time>2015-04-05T13:44:36Z</time>
      </trkpt>
      <trkpt lat="46.17737" lon="2.49095">
        <ele>452</ele>
        <time>2015-04-05T13:44:38Z</time>
      </trkpt>
      <trkpt lat="46.17735" lon="2.49099">
        <ele>452</ele>
        <time>2015-04-05T13:44:42Z</time>
      </trkpt>
      <trkpt lat="46.17733" lon="2.49101">
        <ele>452</ele>
        <time>2015-04-05T13:44:44Z</time>
      </trkpt>
      <trkpt lat="46.17732" lon="2.49104">
        <ele>452</ele>
        <time>2015-04-05T13:44:46Z</time>
      </trkpt>
      <trkpt lat="46.1773" lon="2.49107">
        <ele>452</ele>
        <time>2015-04-05T13:44:49Z</time>
      </trkpt>
      <trkpt lat="46.17728" lon="2.49109">
        <ele>452</ele>
        <time>2015-04-05T13:44:51Z</time>
      </trkpt>
      <trkpt lat="46.17727" lon="2.49111">
        <ele>452</ele>
        <time>2015-04-05T13:44:53Z</time>
      </trkpt>
      <trkpt lat="46.17726" lon="2.49114">
        <ele>452</ele>
        <time>2015-04-05T13:44:55Z</time>
      </trkpt>
      <trkpt lat="46.17723" lon="2.49118">
        <ele>452</ele>
        <time>2015-04-05T13:44:58Z</time>
      </trkpt>
      <trkpt lat="46.17722" lon="2.4912">
        <ele>452</ele>
        <time>2015-04-05T13:45:00Z</time>
      </trkpt>
      <trkpt lat="46.17721" lon="2.49123">
        <ele>452</ele>
        <time>2015-04-05T13:45:02Z</time>
      </trkpt>
      <trkpt lat="46.1772" lon="2.49127">
        <ele>452</ele>
        <time>2015-04-05T13:45:05Z</time>
      </trkpt>
      <trkpt lat="46.17717" lon="2.49132">
        <ele>452</ele>
        <time>2015-04-05T13:45:09Z</time>
      </trkpt>
      <trkpt lat="46.17716" lon="2.49135">
        <ele>452</ele>
        <time>2015-04-05T13:45:11Z</time>
      </trkpt>
      <trkpt lat="46.17715" lon="2.49139">
        <ele>452</ele>
        <time>2015-04-05T13:45:14Z</time>
      </trkpt>
      <trkpt lat="46.17714" lon="2.49142">
        <ele>452</ele>
        <time>2015-04-05T13:45:16Z</time>
      </trkpt>
      <trkpt lat="46.17712" lon="2.49144">
        <ele>453</ele>
        <time>2015-04-05T13:45:18Z</time>
      </trkpt>
      <trkpt lat="46.1771" lon="2.49148">
        <ele>453</ele>
        <time>2015-04-05T13:45:22Z</time>
      </trkpt>
      <trkpt lat="46.17707" lon="2.49152">
        <ele>453</ele>
        <time>2015-04-05T13:45:26Z</time>
      </trkpt>
      <trkpt lat="46.17706" lon="2.49154">
        <ele>453</ele>
        <time>2015-04-05T13:45:28Z</time>
      </trkpt>
      <trkpt lat="46.17703" lon="2.49159">
        <ele>453</ele>
        <time>2015-04-05T13:45:32Z</time>
      </trkpt>
      <trkpt lat="46.17702" lon="2.49161">
        <ele>453</ele>
        <time>2015-04-05T13:45:34Z</time>
      </trkpt>
      <trkpt lat="46.177" lon="2.49165">
        <ele>453</ele>
        <time>2015-04-05T13:45:37Z</time>
      </trkpt>
      <trkpt lat="46.17698" lon="2.49169">
        <ele>453</ele>
        <time>2015-04-05T13:45:40Z</time>
      </trkpt>
      <trkpt lat="46.17696" lon="2.49174">
        <ele>453</ele>
        <time>2015-04-05T13:45:44Z</time>
      </trkpt>
      <trkpt lat="46.17695" lon="2.49177">
        <ele>453</ele>
        <time>2015-04-05T13:45:46Z</time>
      </trkpt>
      <trkpt lat="46.17693" lon="2.49181">
        <ele>453</ele>
        <time>2015-04-05T13:45:49Z</time>
      </trkpt>
      <trkpt lat="46.17692" lon="2.49185">
        <ele>453</ele>
        <time>2015-04-05T13:45:52Z</time>
      </trkpt>
      <trkpt lat="46.1769" lon="2.4919">
        <ele>453</ele>
        <time>2015-04-05T13:45:56Z</time>
      </trkpt>
      <trkpt lat="46.17689" lon="2.49193">
        <ele>453</ele>
        <time>2015-04-05T13:45:58Z</time>
      </trkpt>
      <trkpt lat="46.17687" lon="2.49198">
        <ele>453</ele>
        <time>2015-04-05T13:46:02Z</time>
      </trkpt>
      <trkpt lat="46.17686" lon="2.49201">
        <ele>453</ele>
        <time>2015-04-05T13:46:04Z</time>
      </trkpt>
      <trkpt lat="46.17685" lon="2.49203">
        <ele>453</ele>
        <time>2015-04-05T13:46:06Z</time>
      </trkpt>
      <trkpt lat="46.17683" lon="2.49207">
        <ele>453</ele>
        <time>2015-04-05T13:46:10Z</time>
      </trkpt>
      <trkpt lat="46.17681" lon="2.49212">
        <ele>453</ele>
        <time>2015-04-05T13:46:14Z</time>
      </trkpt>
      <trkpt lat="46.1768" lon="2.49215">
        <ele>453</ele>
        <time>2015-04-05T13:46:16Z</time>
      </trkpt>
      <trkpt lat="46.17679" lon="2.49218">
        <ele>453</ele>
        <time>2015-04-05T13:46:18Z</time>
      </trkpt>
      <trkpt lat="46.17678" lon="2.49222">
        <ele>453</ele>
        <time>2015-04-05T13:46:22Z</time>
      </trkpt>
      <trkpt lat="46.17677" lon="2.49226">
        <ele>453</ele>
        <time>2015-04-05T13:46:25Z</time>
      </trkpt>
      <trkpt lat="46.17676" lon="2.4923">
        <ele>453</ele>
        <time>2015-04-05T13:46:28Z</time>
      </trkpt>
      <trkpt lat="46.17673" lon="2.49233">
        <ele>453</ele>
        <time>2015-04-05T13:46:32Z</time>
      </trkpt>
      <trkpt lat="46.17672" lon="2.49235">
        <ele>453</ele>
        <time>2015-04-05T13:46:34Z</time>
      </trkpt>
      <trkpt lat="46.17669" lon="2.49236">
        <ele>453</ele>
        <time>2015-04-05T13:46:38Z</time>
      </trkpt>
      <trkpt lat="46.17667" lon="2.49236">
        <ele>453</ele>
        <time>2015-04-05T13:46:40Z</time>
      </trkpt>
      <trkpt lat="46.17665" lon="2.49237">
        <ele>452</ele>
        <time>2015-04-05T13:46:42Z</time>
      </trkpt>
      <trkpt lat="46.17664" lon="2.49241">
        <ele>450</ele>
        <time>2015-04-05T13:46:46Z</time>
      </trkpt>
      <trkpt lat="46.17662" lon="2.49243">
        <ele>449</ele>
        <time>2015-04-05T13:46:49Z</time>
      </trkpt>
      <trkpt lat="46.17659" lon="2.49245">
        <ele>447</ele>
        <time>2015-04-05T13:46:53Z</time>
      </trkpt>
      <trkpt lat="46.17656" lon="2.49246">
        <ele>446</ele>
        <time>2015-04-05T13:46:57Z</time>
      </trkpt>
      <trkpt lat="46.17654" lon="2.49246">
        <ele>446</ele>
        <time>2015-04-05T13:46:59Z</time>
      </trkpt>
      <trkpt lat="46.17651" lon="2.49244">
        <ele>445</ele>
        <time>2015-04-05T13:47:02Z</time>
      </trkpt>
      <trkpt lat="46.17649" lon="2.49245">
        <ele>445</ele>
        <time>2015-04-05T13:47:05Z</time>
      </trkpt>
      <trkpt lat="46.17646" lon="2.49246">
        <ele>445</ele>
        <time>2015-04-05T13:47:09Z</time>
      </trkpt>
      <trkpt lat="46.17644" lon="2.49246">
        <ele>445</ele>
        <time>2015-04-05T13:47:11Z</time>
      </trkpt>
      <trkpt lat="46.17641" lon="2.49245">
        <ele>445</ele>
        <time>2015-04-05T13:47:15Z</time>
      </trkpt>
      <trkpt lat="46.17639" lon="2.49244">
        <ele>445</ele>
        <time>2015-04-05T13:47:17Z</time>
      </trkpt>
      <trkpt lat="46.17638" lon="2.49244">
        <ele>445</ele>
        <time>2015-04-05T13:47:20Z</time>
      </trkpt>
      <trkpt lat="46.17636" lon="2.49245">
        <ele>445</ele>
        <time>2015-04-05T13:47:24Z</time>
      </trkpt>
      <trkpt lat="46.17633" lon="2.49246">
        <ele>445</ele>
        <time>2015-04-05T13:47:27Z</time>
      </trkpt>
      <trkpt lat="46.17632" lon="2.49246">
        <ele>445</ele>
        <time>2015-04-05T13:47:29Z</time>
      </trkpt>
      <trkpt lat="46.17632" lon="2.49248">
        <ele>444</ele>
        <time>2015-04-05T13:47:32Z</time>
      </trkpt>
      <trkpt lat="46.17632" lon="2.49249">
        <ele>444</ele>
        <time>2015-04-05T13:47:34Z</time>
      </trkpt>
      <trkpt lat="46.1763" lon="2.49248">
        <ele>444</ele>
        <time>2015-04-05T13:47:37Z</time>
      </trkpt>
      <trkpt lat="46.17628" lon="2.49248">
        <ele>444</ele>
        <time>2015-04-05T13:47:40Z</time>
      </trkpt>
      <trkpt lat="46.17625" lon="2.49247">
        <ele>444</ele>
        <time>2015-04-05T13:47:44Z</time>
      </trkpt>
      <trkpt lat="46.17624" lon="2.49247">
        <ele>444</ele>
        <time>2015-04-05T13:47:46Z</time>
      </trkpt>
      <trkpt lat="46.17621" lon="2.49246">
        <ele>442</ele>
        <time>2015-04-05T13:47:50Z</time>
      </trkpt>
      <trkpt lat="46.17619" lon="2.49246">
        <ele>442</ele>
        <time>2015-04-05T13:47:52Z</time>
      </trkpt>
      <trkpt lat="46.17616" lon="2.49246">
        <ele>440</ele>
        <time>2015-04-05T13:47:56Z</time>
      </trkpt>
      <trkpt lat="46.17614" lon="2.49246">
        <ele>440</ele>
        <time>2015-04-05T13:47:58Z</time>
      </trkpt>
      <trkpt lat="46.17611" lon="2.49246">
        <ele>440</ele>
        <time>2015-04-05T13:48:02Z</time>
      </trkpt>
      <trkpt lat="46.17609" lon="2.49246">
        <ele>439</ele>
        <time>2015-04-05T13:48:04Z</time>
      </trkpt>
      <trkpt lat="46.17605" lon="2.49246">
        <ele>439</ele>
        <time>2015-04-05T13:48:09Z</time>
      </trkpt>
      <trkpt lat="46.17602" lon="2.49247">
        <ele>438</ele>
        <time>2015-04-05T13:48:13Z</time>
      </trkpt>
      <trkpt lat="46.176" lon="2.49247">
        <ele>437</ele>
        <time>2015-04-05T13:48:15Z</time>
      </trkpt>
      <trkpt lat="46.17597" lon="2.49247">
        <ele>437</ele>
        <time>2015-04-05T13:48:19Z</time>
      </trkpt>
      <trkpt lat="46.17596" lon="2.49247">
        <ele>437</ele>
        <time>2015-04-05T13:48:21Z</time>
      </trkpt>
      <trkpt lat="46.17592" lon="2.49248">
        <ele>437</ele>
        <time>2015-04-05T13:48:25Z</time>
      </trkpt>
      <trkpt lat="46.17591" lon="2.49249">
        <ele>436</ele>
        <time>2015-04-05T13:48:27Z</time>
      </trkpt>
      <trkpt lat="46.17588" lon="2.4925">
        <ele>436</ele>
        <time>2015-04-05T13:48:31Z</time>
      </trkpt>
      <trkpt lat="46.17587" lon="2.4925">
        <ele>436</ele>
        <time>2015-04-05T13:48:34Z</time>
      </trkpt>
      <trkpt lat="46.17584" lon="2.49253">
        <ele>436</ele>
        <time>2015-04-05T13:48:38Z</time>
      </trkpt>
      <trkpt lat="46.17583" lon="2.49255">
        <ele>436</ele>
        <time>2015-04-05T13:48:41Z</time>
      </trkpt>
      <trkpt lat="46.17582" lon="2.49257">
        <ele>436</ele>
        <time>2015-04-05T13:48:44Z</time>
      </trkpt>
      <trkpt lat="46.1758" lon="2.49257">
        <ele>436</ele>
        <time>2015-04-05T13:48:53Z</time>
      </trkpt>
      <trkpt lat="46.17579" lon="2.49259">
        <ele>436</ele>
        <time>2015-04-05T13:49:01Z</time>
      </trkpt>
      <trkpt lat="46.17578" lon="2.49264">
        <ele>436</ele>
        <time>2015-04-05T13:49:05Z</time>
      </trkpt>
      <trkpt lat="46.17578" lon="2.49266">
        <ele>436</ele>
        <time>2015-04-05T13:49:07Z</time>
      </trkpt>
      <trkpt lat="46.17578" lon="2.49268">
        <ele>436</ele>
        <time>2015-04-05T13:49:09Z</time>
      </trkpt>
      <trkpt lat="46.17578" lon="2.4927">
        <ele>436</ele>
        <time>2015-04-05T13:49:12Z</time>
      </trkpt>
      <trkpt lat="46.17578" lon="2.49275">
        <ele>436</ele>
        <time>2015-04-05T13:49:16Z</time>
      </trkpt>
      <trkpt lat="46.17578" lon="2.49277">
        <ele>436</ele>
        <time>2015-04-05T13:49:18Z</time>
      </trkpt>
      <trkpt lat="46.17578" lon="2.49281">
        <ele>436</ele>
        <time>2015-04-05T13:49:22Z</time>
      </trkpt>
      <trkpt lat="46.17578" lon="2.49283">
        <ele>436</ele>
        <time>2015-04-05T13:49:24Z</time>
      </trkpt>
      <trkpt lat="46.17578" lon="2.49288">
        <ele>436</ele>
        <time>2015-04-05T13:49:28Z</time>
      </trkpt>
      <trkpt lat="46.17578" lon="2.4929">
        <ele>436</ele>
        <time>2015-04-05T13:49:30Z</time>
      </trkpt>
      <trkpt lat="46.17577" lon="2.49295">
        <ele>436</ele>
        <time>2015-04-05T13:49:34Z</time>
      </trkpt>
      <trkpt lat="46.17577" lon="2.49298">
        <ele>436</ele>
        <time>2015-04-05T13:49:36Z</time>
      </trkpt>
      <trkpt lat="46.17577" lon="2.49302">
        <ele>436</ele>
        <time>2015-04-05T13:49:40Z</time>
      </trkpt>
      <trkpt lat="46.17577" lon="2.49304">
        <ele>435</ele>
        <time>2015-04-05T13:49:42Z</time>
      </trkpt>
      <trkpt lat="46.17577" lon="2.49308">
        <ele>435</ele>
        <time>2015-04-05T13:49:46Z</time>
      </trkpt>
      <trkpt lat="46.17578" lon="2.4931">
        <ele>435</ele>
        <time>2015-04-05T13:49:48Z</time>
      </trkpt>
      <trkpt lat="46.17577" lon="2.49312">
        <ele>435</ele>
        <time>2015-04-05T13:49:57Z</time>
      </trkpt>
      <trkpt lat="46.17577" lon="2.49316">
        <ele>435</ele>
        <time>2015-04-05T13:50:00Z</time>
      </trkpt>
      <trkpt lat="46.17577" lon="2.49318">
        <ele>435</ele>
        <time>2015-04-05T13:50:02Z</time>
      </trkpt>
      <trkpt lat="46.17578" lon="2.49323">
        <ele>435</ele>
        <time>2015-04-05T13:50:06Z</time>
      </trkpt>
      <trkpt lat="46.17579" lon="2.49325">
        <ele>435</ele>
        <time>2015-04-05T13:50:08Z</time>
      </trkpt>
      <trkpt lat="46.17579" lon="2.49329">
        <ele>434</ele>
        <time>2015-04-05T13:50:12Z</time>
      </trkpt>
      <trkpt lat="46.17579" lon="2.49332">
        <ele>434</ele>
        <time>2015-04-05T13:50:14Z</time>
      </trkpt>
      <trkpt lat="46.17582" lon="2.49335">
        <ele>433</ele>
        <time>2015-04-05T13:50:19Z</time>
      </trkpt>
      <trkpt lat="46.17582" lon="2.4934">
        <ele>433</ele>
        <time>2015-04-05T13:50:23Z</time>
      </trkpt>
      <trkpt lat="46.17582" lon="2.49342">
        <ele>433</ele>
        <time>2015-04-05T13:50:25Z</time>
      </trkpt>
      <trkpt lat="46.17581" lon="2.49347">
        <ele>432</ele>
        <time>2015-04-05T13:50:29Z</time>
      </trkpt>
      <trkpt lat="46.17581" lon="2.49351">
        <ele>431</ele>
        <time>2015-04-05T13:50:32Z</time>
      </trkpt>
      <trkpt lat="46.17581" lon="2.49353">
        <ele>430</ele>
        <time>2015-04-05T13:50:34Z</time>
      </trkpt>
      <trkpt lat="46.17582" lon="2.49355">
        <ele>430</ele>
        <time>2015-04-05T13:50:36Z</time>
      </trkpt>
      <trkpt lat="46.17582" lon="2.49359">
        <ele>429</ele>
        <time>2015-04-05T13:50:39Z</time>
      </trkpt>
      <trkpt lat="46.17582" lon="2.49361">
        <ele>429</ele>
        <time>2015-04-05T13:50:41Z</time>
      </trkpt>
      <trkpt lat="46.17583" lon="2.49365">
        <ele>429</ele>
        <time>2015-04-05T13:50:44Z</time>
      </trkpt>
      <trkpt lat="46.17583" lon="2.49367">
        <ele>429</ele>
        <time>2015-04-05T13:50:46Z</time>
      </trkpt>
      <trkpt lat="46.17585" lon="2.49372">
        <ele>428</ele>
        <time>2015-04-05T13:50:50Z</time>
      </trkpt>
      <trkpt lat="46.17586" lon="2.49375">
        <ele>427</ele>
        <time>2015-04-05T13:50:53Z</time>
      </trkpt>
      <trkpt lat="46.17587" lon="2.49376">
        <ele>427</ele>
        <time>2015-04-05T13:50:55Z</time>
      </trkpt>
      <trkpt lat="46.17589" lon="2.49378">
        <ele>427</ele>
        <time>2015-04-05T13:50:57Z</time>
      </trkpt>
      <trkpt lat="46.17592" lon="2.49382">
        <ele>427</ele>
        <time>2015-04-05T13:51:01Z</time>
      </trkpt>
      <trkpt lat="46.17593" lon="2.49384">
        <ele>427</ele>
        <time>2015-04-05T13:51:03Z</time>
      </trkpt>
      <trkpt lat="46.17595" lon="2.49386">
        <ele>427</ele>
        <time>2015-04-05T13:51:05Z</time>
      </trkpt>
      <trkpt lat="46.17596" lon="2.49388">
        <ele>427</ele>
        <time>2015-04-05T13:51:07Z</time>
      </trkpt>
      <trkpt lat="46.17598" lon="2.4939">
        <ele>427</ele>
        <time>2015-04-05T13:51:09Z</time>
      </trkpt>
      <trkpt lat="46.17599" lon="2.49391">
        <ele>427</ele>
        <time>2015-04-05T13:51:11Z</time>
      </trkpt>
      <trkpt lat="46.176" lon="2.49394">
        <ele>427</ele>
        <time>2015-04-05T13:51:13Z</time>
      </trkpt>
      <trkpt lat="46.17602" lon="2.49396">
        <ele>427</ele>
        <time>2015-04-05T13:51:15Z</time>
      </trkpt>
      <trkpt lat="46.17604" lon="2.49399">
        <ele>427</ele>
        <time>2015-04-05T13:51:19Z</time>
      </trkpt>
      <trkpt lat="46.17605" lon="2.494">
        <ele>427</ele>
        <time>2015-04-05T13:51:21Z</time>
      </trkpt>
      <trkpt lat="46.17606" lon="2.49402">
        <ele>427</ele>
        <time>2015-04-05T13:51:24Z</time>
      </trkpt>
      <trkpt lat="46.17606" lon="2.49404">
        <ele>427</ele>
        <time>2015-04-05T13:51:26Z</time>
      </trkpt>
      <trkpt lat="46.17609" lon="2.49408">
        <ele>427</ele>
        <time>2015-04-05T13:51:30Z</time>
      </trkpt>
      <trkpt lat="46.17609" lon="2.49411">
        <ele>427</ele>
        <time>2015-04-05T13:51:32Z</time>
      </trkpt>
      <trkpt lat="46.17611" lon="2.49415">
        <ele>427</ele>
        <time>2015-04-05T13:51:35Z</time>
      </trkpt>
      <trkpt lat="46.17612" lon="2.49418">
        <ele>427</ele>
        <time>2015-04-05T13:51:37Z</time>
      </trkpt>
      <trkpt lat="46.17614" lon="2.4942">
        <ele>427</ele>
        <time>2015-04-05T13:51:39Z</time>
      </trkpt>
      <trkpt lat="46.17616" lon="2.49423">
        <ele>427</ele>
        <time>2015-04-05T13:51:42Z</time>
      </trkpt>
      <trkpt lat="46.17619" lon="2.49427">
        <ele>427</ele>
        <time>2015-04-05T13:51:46Z</time>
      </trkpt>
      <trkpt lat="46.17621" lon="2.49429">
        <ele>427</ele>
        <time>2015-04-05T13:51:48Z</time>
      </trkpt>
      <trkpt lat="46.17622" lon="2.49432">
        <ele>427</ele>
        <time>2015-04-05T13:51:50Z</time>
      </trkpt>
      <trkpt lat="46.17625" lon="2.49436">
        <ele>427</ele>
        <time>2015-04-05T13:51:53Z</time>
      </trkpt>
      <trkpt lat="46.17627" lon="2.49438">
        <ele>427</ele>
        <time>2015-04-05T13:51:57Z</time>
      </trkpt>
      <trkpt lat="46.17628" lon="2.4944">
        <ele>427</ele>
        <time>2015-04-05T13:51:59Z</time>
      </trkpt>
      <trkpt lat="46.17629" lon="2.49442">
        <ele>427</ele>
        <time>2015-04-05T13:52:03Z</time>
      </trkpt>
      <trkpt lat="46.17629" lon="2.49444">
        <ele>426</ele>
        <time>2015-04-05T13:52:06Z</time>
      </trkpt>
      <trkpt lat="46.17628" lon="2.49444">
        <ele>425</ele>
        <time>2015-04-05T13:52:09Z</time>
      </trkpt>
      <trkpt lat="46.17626" lon="2.49443">
        <ele>424</ele>
        <time>2015-04-05T13:52:11Z</time>
      </trkpt>
      <trkpt lat="46.17625" lon="2.49442">
        <ele>423</ele>
        <time>2015-04-05T13:52:13Z</time>
      </trkpt>
      <trkpt lat="46.17623" lon="2.49441">
        <ele>422</ele>
        <time>2015-04-05T13:52:15Z</time>
      </trkpt>
      <trkpt lat="46.17623" lon="2.4944">
        <ele>421</ele>
        <time>2015-04-05T13:52:19Z</time>
      </trkpt>
      <trkpt lat="46.17624" lon="2.49438">
        <ele>420</ele>
        <time>2015-04-05T13:52:25Z</time>
      </trkpt>
      <trkpt lat="46.17624" lon="2.49436">
        <ele>418</ele>
        <time>2015-04-05T13:52:30Z</time>
      </trkpt>
      <trkpt lat="46.17623" lon="2.49436">
        <ele>418</ele>
        <time>2015-04-05T13:52:33Z</time>
      </trkpt>
      <trkpt lat="46.17623" lon="2.49435">
        <ele>418</ele>
        <time>2015-04-05T13:52:35Z</time>
      </trkpt>
      <trkpt lat="46.17621" lon="2.49433">
        <ele>418</ele>
        <time>2015-04-05T13:52:38Z</time>
      </trkpt>
      <trkpt lat="46.17619" lon="2.49432">
        <ele>418</ele>
        <time>2015-04-05T13:52:40Z</time>
      </trkpt>
      <trkpt lat="46.17618" lon="2.4943">
        <ele>418</ele>
        <time>2015-04-05T13:52:42Z</time>
      </trkpt>
      <trkpt lat="46.17617" lon="2.49429">
        <ele>418</ele>
        <time>2015-04-05T13:52:44Z</time>
      </trkpt>
      <trkpt lat="46.17615" lon="2.49428">
        <ele>418</ele>
        <time>2015-04-05T13:52:46Z</time>
      </trkpt>
      <trkpt lat="46.17614" lon="2.49426">
        <ele>418</ele>
        <time>2015-04-05T13:52:48Z</time>
      </trkpt>
      <trkpt lat="46.17612" lon="2.49424">
        <ele>418</ele>
        <time>2015-04-05T13:52:50Z</time>
      </trkpt>
      <trkpt lat="46.17611" lon="2.49423">
        <ele>418</ele>
        <time>2015-04-05T13:52:52Z</time>
      </trkpt>
      <trkpt lat="46.17609" lon="2.49422">
        <ele>418</ele>
        <time>2015-04-05T13:52:54Z</time>
      </trkpt>
      <trkpt lat="46.17608" lon="2.49422">
        <ele>418</ele>
        <time>2015-04-05T13:52:56Z</time>
      </trkpt>
      <trkpt lat="46.17607" lon="2.49421">
        <ele>418</ele>
        <time>2015-04-05T13:52:58Z</time>
      </trkpt>
      <trkpt lat="46.17605" lon="2.4942">
        <ele>418</ele>
        <time>2015-04-05T13:53:00Z</time>
      </trkpt>
      <trkpt lat="46.17604" lon="2.49419">
        <ele>418</ele>
        <time>2015-04-05T13:53:02Z</time>
      </trkpt>
      <trkpt lat="46.17603" lon="2.49418">
        <ele>418</ele>
        <time>2015-04-05T13:53:04Z</time>
      </trkpt>
      <trkpt lat="46.17601" lon="2.49416">
        <ele>418</ele>
        <time>2015-04-05T13:53:07Z</time>
      </trkpt>
      <trkpt lat="46.176" lon="2.49415">
        <ele>418</ele>
        <time>2015-04-05T13:53:10Z</time>
      </trkpt>
      <trkpt lat="46.17598" lon="2.49414">
        <ele>418</ele>
        <time>2015-04-05T13:53:12Z</time>
      </trkpt>
      <trkpt lat="46.17597" lon="2.49413">
        <ele>418</ele>
        <time>2015-04-05T13:53:14Z</time>
      </trkpt>
      <trkpt lat="46.17596" lon="2.49412">
        <ele>418</ele>
        <time>2015-04-05T13:53:16Z</time>
      </trkpt>
      <trkpt lat="46.17594" lon="2.49411">
        <ele>418</ele>
        <time>2015-04-05T13:53:18Z</time>
      </trkpt>
      <trkpt lat="46.17593" lon="2.4941">
        <ele>418</ele>
        <time>2015-04-05T13:53:20Z</time>
      </trkpt>
      <trkpt lat="46.17591" lon="2.49409">
        <ele>418</ele>
        <time>2015-04-05T13:53:22Z</time>
      </trkpt>
      <trkpt lat="46.1759" lon="2.49408">
        <ele>418</ele>
        <time>2015-04-05T13:53:24Z</time>
      </trkpt>
      <trkpt lat="46.17588" lon="2.49407">
        <ele>418</ele>
        <time>2015-04-05T13:53:26Z</time>
      </trkpt>
      <trkpt lat="46.17587" lon="2.49406">
        <ele>418</ele>
        <time>2015-04-05T13:53:28Z</time>
      </trkpt>
      <trkpt lat="46.17584" lon="2.49404">
        <ele>418</ele>
        <time>2015-04-05T13:53:33Z</time>
      </trkpt>
      <trkpt lat="46.17582" lon="2.49402">
        <ele>418</ele>
        <time>2015-04-05T13:53:37Z</time>
      </trkpt>
      <trkpt lat="46.1758" lon="2.49402">
        <ele>418</ele>
        <time>2015-04-05T13:53:39Z</time>
      </trkpt>
      <trkpt lat="46.17579" lon="2.494">
        <ele>418</ele>
        <time>2015-04-05T13:53:42Z</time>
      </trkpt>
      <trkpt lat="46.17577" lon="2.49399">
        <ele>418</ele>
        <time>2015-04-05T13:53:44Z</time>
      </trkpt>
      <trkpt lat="46.17576" lon="2.49398">
        <ele>418</ele>
        <time>2015-04-05T13:53:46Z</time>
      </trkpt>
      <trkpt lat="46.17575" lon="2.49397">
        <ele>418</ele>
        <time>2015-04-05T13:53:48Z</time>
      </trkpt>
      <trkpt lat="46.17574" lon="2.49395">
        <ele>418</ele>
        <time>2015-04-05T13:53:50Z</time>
      </trkpt>
      <trkpt lat="46.17572" lon="2.49395">
        <ele>418</ele>
        <time>2015-04-05T13:53:52Z</time>
      </trkpt>
      <trkpt lat="46.17571" lon="2.49394">
        <ele>418</ele>
        <time>2015-04-05T13:53:54Z</time>
      </trkpt>
      <trkpt lat="46.17569" lon="2.49393">
        <ele>418</ele>
        <time>2015-04-05T13:53:56Z</time>
      </trkpt>
      <trkpt lat="46.17568" lon="2.49392">
        <ele>418</ele>
        <time>2015-04-05T13:53:58Z</time>
      </trkpt>
      <trkpt lat="46.17567" lon="2.4939">
        <ele>418</ele>
        <time>2015-04-05T13:54:00Z</time>
      </trkpt>
      <trkpt lat="46.17565" lon="2.49389">
        <ele>418</ele>
        <time>2015-04-05T13:54:02Z</time>
      </trkpt>
      <trkpt lat="46.17564" lon="2.49388">
        <ele>418</ele>
        <time>2015-04-05T13:54:04Z</time>
      </trkpt>
      <trkpt lat="46.17562" lon="2.49387">
        <ele>418</ele>
        <time>2015-04-05T13:54:06Z</time>
      </trkpt>
      <trkpt lat="46.1756" lon="2.49385">
        <ele>418</ele>
        <time>2015-04-05T13:54:08Z</time>
      </trkpt>
      <trkpt lat="46.17559" lon="2.49385">
        <ele>418</ele>
        <time>2015-04-05T13:54:10Z</time>
      </trkpt>
      <trkpt lat="46.17558" lon="2.49384">
        <ele>418</ele>
        <time>2015-04-05T13:54:12Z</time>
      </trkpt>
      <trkpt lat="46.17556" lon="2.49382">
        <ele>418</ele>
        <time>2015-04-05T13:54:14Z</time>
      </trkpt>
      <trkpt lat="46.17555" lon="2.4938">
        <ele>418</ele>
        <time>2015-04-05T13:54:17Z</time>
      </trkpt>
      <trkpt lat="46.17553" lon="2.49379">
        <ele>418</ele>
        <time>2015-04-05T13:54:19Z</time>
      </trkpt>
      <trkpt lat="46.17551" lon="2.49378">
        <ele>418</ele>
        <time>2015-04-05T13:54:21Z</time>
      </trkpt>
      <trkpt lat="46.1755" lon="2.49379">
        <ele>418</ele>
        <time>2015-04-05T13:54:23Z</time>
      </trkpt>
      <trkpt lat="46.17549" lon="2.49379">
        <ele>417</ele>
        <time>2015-04-05T13:54:25Z</time>
      </trkpt>
      <trkpt lat="46.17547" lon="2.49379">
        <ele>417</ele>
        <time>2015-04-05T13:54:27Z</time>
      </trkpt>
      <trkpt lat="46.17545" lon="2.4938">
        <ele>417</ele>
        <time>2015-04-05T13:54:29Z</time>
      </trkpt>
      <trkpt lat="46.17543" lon="2.49381">
        <ele>416</ele>
        <time>2015-04-05T13:54:31Z</time>
      </trkpt>
      <trkpt lat="46.17542" lon="2.49382">
        <ele>416</ele>
        <time>2015-04-05T13:54:33Z</time>
      </trkpt>
      <trkpt lat="46.1754" lon="2.49383">
        <ele>416</ele>
        <time>2015-04-05T13:54:35Z</time>
      </trkpt>
      <trkpt lat="46.17539" lon="2.49384">
        <ele>416</ele>
        <time>2015-04-05T13:54:37Z</time>
      </trkpt>
      <trkpt lat="46.17538" lon="2.49386">
        <ele>416</ele>
        <time>2015-04-05T13:54:39Z</time>
      </trkpt>
      <trkpt lat="46.17537" lon="2.49386">
        <ele>416</ele>
        <time>2015-04-05T13:54:45Z</time>
      </trkpt>
      <trkpt lat="46.17535" lon="2.49385">
        <ele>416</ele>
        <time>2015-04-05T13:55:02Z</time>
      </trkpt>
      <trkpt lat="46.17534" lon="2.49384">
        <ele>415</ele>
        <time>2015-04-05T13:55:05Z</time>
      </trkpt>
      <trkpt lat="46.17532" lon="2.49384">
        <ele>414</ele>
        <time>2015-04-05T13:55:08Z</time>
      </trkpt>
      <trkpt lat="46.17531" lon="2.49385">
        <ele>413</ele>
        <time>2015-04-05T13:55:10Z</time>
      </trkpt>
      <trkpt lat="46.1753" lon="2.49385">
        <ele>413</ele>
        <time>2015-04-05T13:55:12Z</time>
      </trkpt>
      <trkpt lat="46.17528" lon="2.49386">
        <ele>412</ele>
        <time>2015-04-05T13:55:14Z</time>
      </trkpt>
      <trkpt lat="46.17527" lon="2.49386">
        <ele>412</ele>
        <time>2015-04-05T13:55:16Z</time>
      </trkpt>
      <trkpt lat="46.17526" lon="2.49386">
        <ele>412</ele>
        <time>2015-04-05T13:55:18Z</time>
      </trkpt>
      <trkpt lat="46.17524" lon="2.49387">
        <ele>411</ele>
        <time>2015-04-05T13:55:20Z</time>
      </trkpt>
      <trkpt lat="46.17522" lon="2.49387">
        <ele>411</ele>
        <time>2015-04-05T13:55:22Z</time>
      </trkpt>
      <trkpt lat="46.17521" lon="2.49388">
        <ele>411</ele>
        <time>2015-04-05T13:55:24Z</time>
      </trkpt>
      <trkpt lat="46.17519" lon="2.49388">
        <ele>411</ele>
        <time>2015-04-05T13:55:26Z</time>
      </trkpt>
      <trkpt lat="46.17518" lon="2.49388">
        <ele>411</ele>
        <time>2015-04-05T13:55:28Z</time>
      </trkpt>
      <trkpt lat="46.17516" lon="2.49388">
        <ele>410</ele>
        <time>2015-04-05T13:55:30Z</time>
      </trkpt>
      <trkpt lat="46.17514" lon="2.49388">
        <ele>410</ele>
        <time>2015-04-05T13:55:32Z</time>
      </trkpt>
      <trkpt lat="46.17512" lon="2.49389">
        <ele>410</ele>
        <time>2015-04-05T13:55:34Z</time>
      </trkpt>
      <trkpt lat="46.1751" lon="2.4939">
        <ele>410</ele>
        <time>2015-04-05T13:55:36Z</time>
      </trkpt>
      <trkpt lat="46.17508" lon="2.4939">
        <ele>410</ele>
        <time>2015-04-05T13:55:38Z</time>
      </trkpt>
      <trkpt lat="46.17506" lon="2.49391">
        <ele>410</ele>
        <time>2015-04-05T13:55:40Z</time>
      </trkpt>
      <trkpt lat="46.17504" lon="2.49391">
        <ele>410</ele>
        <time>2015-04-05T13:55:42Z</time>
      </trkpt>
      <trkpt lat="46.17503" lon="2.49391">
        <ele>410</ele>
        <time>2015-04-05T13:55:44Z</time>
      </trkpt>
      <trkpt lat="46.17501" lon="2.49392">
        <ele>410</ele>
        <time>2015-04-05T13:55:46Z</time>
      </trkpt>
      <trkpt lat="46.17499" lon="2.49392">
        <ele>410</ele>
        <time>2015-04-05T13:55:48Z</time>
      </trkpt>
      <trkpt lat="46.17497" lon="2.49393">
        <ele>410</ele>
        <time>2015-04-05T13:55:50Z</time>
      </trkpt>
      <trkpt lat="46.17495" lon="2.49393">
        <ele>410</ele>
        <time>2015-04-05T13:55:52Z</time>
      </trkpt>
      <trkpt lat="46.17494" lon="2.49394">
        <ele>410</ele>
        <time>2015-04-05T13:55:54Z</time>
      </trkpt>
      <trkpt lat="46.17492" lon="2.49394">
        <ele>410</ele>
        <time>2015-04-05T13:55:56Z</time>
      </trkpt>
      <trkpt lat="46.1749" lon="2.49394">
        <ele>409</ele>
        <time>2015-04-05T13:55:58Z</time>
      </trkpt>
      <trkpt lat="46.17488" lon="2.49394">
        <ele>409</ele>
        <time>2015-04-05T13:56:00Z</time>
      </trkpt>
      <trkpt lat="46.17486" lon="2.49394">
        <ele>408</ele>
        <time>2015-04-05T13:56:02Z</time>
      </trkpt>
      <trkpt lat="46.17484" lon="2.49395">
        <ele>408</ele>
        <time>2015-04-05T13:56:04Z</time>
      </trkpt>
      <trkpt lat="46.17482" lon="2.49395">
        <ele>408</ele>
        <time>2015-04-05T13:56:06Z</time>
      </trkpt>
      <trkpt lat="46.17481" lon="2.49396">
        <ele>408</ele>
        <time>2015-04-05T13:56:08Z</time>
      </trkpt>
      <trkpt lat="46.17479" lon="2.49397">
        <ele>408</ele>
        <time>2015-04-05T13:56:10Z</time>
      </trkpt>
      <trkpt lat="46.17477" lon="2.49397">
        <ele>408</ele>
        <time>2015-04-05T13:56:12Z</time>
      </trkpt>
      <trkpt lat="46.17476" lon="2.49398">
        <ele>408</ele>
        <time>2015-04-05T13:56:14Z</time>
      </trkpt>
      <trkpt lat="46.17474" lon="2.49399">
        <ele>408</ele>
        <time>2015-04-05T13:56:16Z</time>
      </trkpt>
      <trkpt lat="46.17472" lon="2.49399">
        <ele>408</ele>
        <time>2015-04-05T13:56:18Z</time>
      </trkpt>
      <trkpt lat="46.1747" lon="2.494">
        <ele>408</ele>
        <time>2015-04-05T13:56:20Z</time>
      </trkpt>
      <trkpt lat="46.17468" lon="2.494">
        <ele>408</ele>
        <time>2015-04-05T13:56:22Z</time>
      </trkpt>
      <trkpt lat="46.17466" lon="2.49401">
        <ele>408</ele>
        <time>2015-04-05T13:56:24Z</time>
      </trkpt>
      <trkpt lat="46.17465" lon="2.49401">
        <ele>408</ele>
        <time>2015-04-05T13:56:26Z</time>
      </trkpt>
      <trkpt lat="46.17463" lon="2.49402">
        <ele>408</ele>
        <time>2015-04-05T13:56:28Z</time>
      </trkpt>
      <trkpt lat="46.17461" lon="2.49403">
        <ele>408</ele>
        <time>2015-04-05T13:56:30Z</time>
      </trkpt>
      <trkpt lat="46.17459" lon="2.49404">
        <ele>408</ele>
        <time>2015-04-05T13:56:32Z</time>
      </trkpt>
      <trkpt lat="46.17458" lon="2.49404">
        <ele>408</ele>
        <time>2015-04-05T13:56:34Z</time>
      </trkpt>
      <trkpt lat="46.17456" lon="2.49405">
        <ele>408</ele>
        <time>2015-04-05T13:56:36Z</time>
      </trkpt>
      <trkpt lat="46.17455" lon="2.49406">
        <ele>408</ele>
        <time>2015-04-05T13:56:38Z</time>
      </trkpt>
      <trkpt lat="46.17453" lon="2.49407">
        <ele>408</ele>
        <time>2015-04-05T13:56:40Z</time>
      </trkpt>
      <trkpt lat="46.17451" lon="2.49407">
        <ele>408</ele>
        <time>2015-04-05T13:56:42Z</time>
      </trkpt>
      <trkpt lat="46.1745" lon="2.49408">
        <ele>408</ele>
        <time>2015-04-05T13:56:44Z</time>
      </trkpt>
      <trkpt lat="46.17448" lon="2.4941">
        <ele>408</ele>
        <time>2015-04-05T13:56:46Z</time>
      </trkpt>
      <trkpt lat="46.17447" lon="2.49411">
        <ele>408</ele>
        <time>2015-04-05T13:56:48Z</time>
      </trkpt>
      <trkpt lat="46.17445" lon="2.49412">
        <ele>408</ele>
        <time>2015-04-05T13:56:50Z</time>
      </trkpt>
      <trkpt lat="46.17444" lon="2.49413">
        <ele>408</ele>
        <time>2015-04-05T13:56:52Z</time>
      </trkpt>
      <trkpt lat="46.17443" lon="2.49414">
        <ele>408</ele>
        <time>2015-04-05T13:56:54Z</time>
      </trkpt>
      <trkpt lat="46.17442" lon="2.49415">
        <ele>408</ele>
        <time>2015-04-05T13:56:56Z</time>
      </trkpt>
      <trkpt lat="46.1744" lon="2.49417">
        <ele>408</ele>
        <time>2015-04-05T13:56:58Z</time>
      </trkpt>
      <trkpt lat="46.17439" lon="2.49418">
        <ele>408</ele>
        <time>2015-04-05T13:57:00Z</time>
      </trkpt>
      <trkpt lat="46.17438" lon="2.49419">
        <ele>408</ele>
        <time>2015-04-05T13:57:02Z</time>
      </trkpt>
      <trkpt lat="46.17436" lon="2.4942">
        <ele>408</ele>
        <time>2015-04-05T13:57:04Z</time>
      </trkpt>
      <trkpt lat="46.17435" lon="2.49422">
        <ele>408</ele>
        <time>2015-04-05T13:57:06Z</time>
      </trkpt>
      <trkpt lat="46.17434" lon="2.49423">
        <ele>408</ele>
        <time>2015-04-05T13:57:08Z</time>
      </trkpt>
      <trkpt lat="46.17432" lon="2.49425">
        <ele>408</ele>
        <time>2015-04-05T13:57:10Z</time>
      </trkpt>
      <trkpt lat="46.17431" lon="2.49426">
        <ele>408</ele>
        <time>2015-04-05T13:57:12Z</time>
      </trkpt>
      <trkpt lat="46.1743" lon="2.49428">
        <ele>408</ele>
        <time>2015-04-05T13:57:14Z</time>
      </trkpt>
      <trkpt lat="46.17429" lon="2.49429">
        <ele>408</ele>
        <time>2015-04-05T13:57:17Z</time>
      </trkpt>
      <trkpt lat="46.17428" lon="2.49431">
        <ele>408</ele>
        <time>2015-04-05T13:57:29Z</time>
      </trkpt>
      <trkpt lat="46.17427" lon="2.49431">
        <ele>408</ele>
        <time>2015-04-05T13:57:51Z</time>
      </trkpt>
      <trkpt lat="46.17426" lon="2.49433">
        <ele>408</ele>
        <time>2015-04-05T13:57:54Z</time>
      </trkpt>
      <trkpt lat="46.17425" lon="2.49434">
        <ele>408</ele>
        <time>2015-04-05T13:57:58Z</time>
      </trkpt>
      <trkpt lat="46.17425" lon="2.49436">
        <ele>408</ele>
        <time>2015-04-05T13:58:00Z</time>
      </trkpt>
      <trkpt lat="46.17423" lon="2.49434">
        <ele>408</ele>
        <time>2015-04-05T13:58:27Z</time>
      </trkpt>
      <trkpt lat="46.17422" lon="2.49436">
        <ele>408</ele>
        <time>2015-04-05T13:58:29Z</time>
      </trkpt>
      <trkpt lat="46.17421" lon="2.49436">
        <ele>408</ele>
        <time>2015-04-05T13:58:31Z</time>
      </trkpt>
      <trkpt lat="46.1742" lon="2.49437">
        <ele>408</ele>
        <time>2015-04-05T13:58:33Z</time>
      </trkpt>
      <trkpt lat="46.17418" lon="2.49439">
        <ele>408</ele>
        <time>2015-04-05T13:58:35Z</time>
      </trkpt>
      <trkpt lat="46.17417" lon="2.49441">
        <ele>408</ele>
        <time>2015-04-05T13:58:37Z</time>
      </trkpt>
      <trkpt lat="46.17416" lon="2.49442">
        <ele>408</ele>
        <time>2015-04-05T13:58:39Z</time>
      </trkpt>
      <trkpt lat="46.17414" lon="2.49443">
        <ele>408</ele>
        <time>2015-04-05T13:58:41Z</time>
      </trkpt>
      <trkpt lat="46.17413" lon="2.49445">
        <ele>408</ele>
        <time>2015-04-05T13:58:43Z</time>
      </trkpt>
      <trkpt lat="46.17412" lon="2.49447">
        <ele>408</ele>
        <time>2015-04-05T13:58:45Z</time>
      </trkpt>
      <trkpt lat="46.1741" lon="2.49448">
        <ele>408</ele>
        <time>2015-04-05T13:58:47Z</time>
      </trkpt>
      <trkpt lat="46.17409" lon="2.4945">
        <ele>408</ele>
        <time>2015-04-05T13:58:49Z</time>
      </trkpt>
      <trkpt lat="46.17407" lon="2.49452">
        <ele>408</ele>
        <time>2015-04-05T13:58:51Z</time>
      </trkpt>
      <trkpt lat="46.17406" lon="2.49453">
        <ele>408</ele>
        <time>2015-04-05T13:58:53Z</time>
      </trkpt>
      <trkpt lat="46.17405" lon="2.49454">
        <ele>408</ele>
        <time>2015-04-05T13:58:55Z</time>
      </trkpt>
      <trkpt lat="46.17403" lon="2.49456">
        <ele>408</ele>
        <time>2015-04-05T13:58:57Z</time>
      </trkpt>
      <trkpt lat="46.17402" lon="2.49458">
        <ele>408</ele>
        <time>2015-04-05T13:58:59Z</time>
      </trkpt>
      <trkpt lat="46.17401" lon="2.49459">
        <ele>408</ele>
        <time>2015-04-05T13:59:01Z</time>
      </trkpt>
      <trkpt lat="46.174" lon="2.4946">
        <ele>408</ele>
        <time>2015-04-05T13:59:03Z</time>
      </trkpt>
      <trkpt lat="46.17398" lon="2.49462">
        <ele>408</ele>
        <time>2015-04-05T13:59:05Z</time>
      </trkpt>
      <trkpt lat="46.17397" lon="2.49463">
        <ele>408</ele>
        <time>2015-04-05T13:59:07Z</time>
      </trkpt>
      <trkpt lat="46.17396" lon="2.49464">
        <ele>408</ele>
        <time>2015-04-05T13:59:09Z</time>
      </trkpt>
      <trkpt lat="46.17394" lon="2.49465">
        <ele>408</ele>
        <time>2015-04-05T13:59:11Z</time>
      </trkpt>
      <trkpt lat="46.17393" lon="2.49466">
        <ele>408</ele>
        <time>2015-04-05T13:59:13Z</time>
      </trkpt>
      <trkpt lat="46.17391" lon="2.49468">
        <ele>408</ele>
        <time>2015-04-05T13:59:15Z</time>
      </trkpt>
      <trkpt lat="46.1739" lon="2.49469">
        <ele>408</ele>
        <time>2015-04-05T13:59:17Z</time>
      </trkpt>
      <trkpt lat="46.17389" lon="2.4947">
        <ele>408</ele>
        <time>2015-04-05T13:59:19Z</time>
      </trkpt>
      <trkpt lat="46.17387" lon="2.49472">
        <ele>408</ele>
        <time>2015-04-05T13:59:21Z</time>
      </trkpt>
      <trkpt lat="46.17386" lon="2.49473">
        <ele>408</ele>
        <time>2015-04-05T13:59:23Z</time>
      </trkpt>
      <trkpt lat="46.17384" lon="2.49474">
        <ele>408</ele>
        <time>2015-04-05T13:59:25Z</time>
      </trkpt>
      <trkpt lat="46.17383" lon="2.49474">
        <ele>408</ele>
        <time>2015-04-05T13:59:27Z</time>
      </trkpt>
      <trkpt lat="46.17382" lon="2.49475">
        <ele>408</ele>
        <time>2015-04-05T13:59:29Z</time>
      </trkpt>
      <trkpt lat="46.1738" lon="2.49476">
        <ele>408</ele>
        <time>2015-04-05T13:59:31Z</time>
      </trkpt>
      <trkpt lat="46.17378" lon="2.49477">
        <ele>408</ele>
        <time>2015-04-05T13:59:33Z</time>
      </trkpt>
      <trkpt lat="46.17376" lon="2.49477">
        <ele>408</ele>
        <time>2015-04-05T13:59:35Z</time>
      </trkpt>
      <trkpt lat="46.17375" lon="2.49477">
        <ele>408</ele>
        <time>2015-04-05T13:59:37Z</time>
      </trkpt>
      <trkpt lat="46.17374" lon="2.49478">
        <ele>408</ele>
        <time>2015-04-05T13:59:39Z</time>
      </trkpt>
      <trkpt lat="46.17372" lon="2.49478">
        <ele>408</ele>
        <time>2015-04-05T13:59:41Z</time>
      </trkpt>
      <trkpt lat="46.1737" lon="2.49479">
        <ele>408</ele>
        <time>2015-04-05T13:59:43Z</time>
      </trkpt>
      <trkpt lat="46.17369" lon="2.49479">
        <ele>408</ele>
        <time>2015-04-05T13:59:45Z</time>
      </trkpt>
      <trkpt lat="46.17367" lon="2.4948">
        <ele>408</ele>
        <time>2015-04-05T13:59:47Z</time>
      </trkpt>
      <trkpt lat="46.17366" lon="2.49481">
        <ele>408</ele>
        <time>2015-04-05T13:59:49Z</time>
      </trkpt>
      <trkpt lat="46.17364" lon="2.49483">
        <ele>408</ele>
        <time>2015-04-05T13:59:52Z</time>
      </trkpt>
      <trkpt lat="46.17363" lon="2.49484">
        <ele>408</ele>
        <time>2015-04-05T13:59:54Z</time>
      </trkpt>
      <trkpt lat="46.17362" lon="2.49487">
        <ele>408</ele>
        <time>2015-04-05T13:59:57Z</time>
      </trkpt>
      <trkpt lat="46.17361" lon="2.49489">
        <ele>408</ele>
        <time>2015-04-05T13:59:59Z</time>
      </trkpt>
      <trkpt lat="46.17361" lon="2.4949">
        <ele>408</ele>
        <time>2015-04-05T14:00:01Z</time>
      </trkpt>
      <trkpt lat="46.17361" lon="2.49493">
        <ele>408</ele>
        <time>2015-04-05T14:00:03Z</time>
      </trkpt>
      <trkpt lat="46.1736" lon="2.49494">
        <ele>408</ele>
        <time>2015-04-05T14:00:05Z</time>
      </trkpt>
      <trkpt lat="46.1736" lon="2.49496">
        <ele>408</ele>
        <time>2015-04-05T14:00:07Z</time>
      </trkpt>
      <trkpt lat="46.1736" lon="2.49498">
        <ele>408</ele>
        <time>2015-04-05T14:00:09Z</time>
      </trkpt>
      <trkpt lat="46.1736" lon="2.495">
        <ele>408</ele>
        <time>2015-04-05T14:00:11Z</time>
      </trkpt>
      <trkpt lat="46.17361" lon="2.49502">
        <ele>408</ele>
        <time>2015-04-05T14:00:13Z</time>
      </trkpt>
      <trkpt lat="46.17361" lon="2.49504">
        <ele>408</ele>
        <time>2015-04-05T14:00:15Z</time>
      </trkpt>
      <trkpt lat="46.17361" lon="2.49507">
        <ele>408</ele>
        <time>2015-04-05T14:00:17Z</time>
      </trkpt>
      <trkpt lat="46.17361" lon="2.49509">
        <ele>408</ele>
        <time>2015-04-05T14:00:19Z</time>
      </trkpt>
      <trkpt lat="46.17361" lon="2.49512">
        <ele>408</ele>
        <time>2015-04-05T14:00:21Z</time>
      </trkpt>
      <trkpt lat="46.17361" lon="2.49514">
        <ele>408</ele>
        <time>2015-04-05T14:00:23Z</time>
      </trkpt>
      <trkpt lat="46.17361" lon="2.49517">
        <ele>408</ele>
        <time>2015-04-05T14:00:25Z</time>
      </trkpt>
      <trkpt lat="46.17361" lon="2.49519">
        <ele>408</ele>
        <time>2015-04-05T14:00:27Z</time>
      </trkpt>
      <trkpt lat="46.17361" lon="2.49522">
        <ele>408</ele>
        <time>2015-04-05T14:00:29Z</time>
      </trkpt>
      <trkpt lat="46.17361" lon="2.49524">
        <ele>408</ele>
        <time>2015-04-05T14:00:31Z</time>
      </trkpt>
      <trkpt lat="46.17361" lon="2.49527">
        <ele>408</ele>
        <time>2015-04-05T14:00:33Z</time>
      </trkpt>
      <trkpt lat="46.17361" lon="2.49532">
        <ele>408</ele>
        <time>2015-04-05T14:00:37Z</time>
      </trkpt>
      <trkpt lat="46.17361" lon="2.49534">
        <ele>408</ele>
        <time>2015-04-05T14:00:39Z</time>
      </trkpt>
      <trkpt lat="46.17361" lon="2.49537">
        <ele>408</ele>
        <time>2015-04-05T14:00:41Z</time>
      </trkpt>
      <trkpt lat="46.17361" lon="2.49539">
        <ele>408</ele>
        <time>2015-04-05T14:00:43Z</time>
      </trkpt>
      <trkpt lat="46.17361" lon="2.49542">
        <ele>408</ele>
        <time>2015-04-05T14:00:45Z</time>
      </trkpt>
      <trkpt lat="46.17361" lon="2.49545">
        <ele>408</ele>
        <time>2015-04-05T14:00:47Z</time>
      </trkpt>
      <trkpt lat="46.17362" lon="2.49547">
        <ele>408</ele>
        <time>2015-04-05T14:00:49Z</time>
      </trkpt>
      <trkpt lat="46.17362" lon="2.4955">
        <ele>408</ele>
        <time>2015-04-05T14:00:51Z</time>
      </trkpt>
      <trkpt lat="46.17362" lon="2.49553">
        <ele>408</ele>
        <time>2015-04-05T14:00:53Z</time>
      </trkpt>
      <trkpt lat="46.17362" lon="2.49555">
        <ele>408</ele>
        <time>2015-04-05T14:00:55Z</time>
      </trkpt>
      <trkpt lat="46.17362" lon="2.49558">
        <ele>408</ele>
        <time>2015-04-05T14:00:57Z</time>
      </trkpt>
      <trkpt lat="46.17362" lon="2.49561">
        <ele>408</ele>
        <time>2015-04-05T14:00:59Z</time>
      </trkpt>
      <trkpt lat="46.17362" lon="2.49563">
        <ele>408</ele>
        <time>2015-04-05T14:01:01Z</time>
      </trkpt>
      <trkpt lat="46.17363" lon="2.49568">
        <ele>408</ele>
        <time>2015-04-05T14:01:04Z</time>
      </trkpt>
      <trkpt lat="46.17363" lon="2.4957">
        <ele>408</ele>
        <time>2015-04-05T14:01:06Z</time>
      </trkpt>
      <trkpt lat="46.17363" lon="2.49574">
        <ele>408</ele>
        <time>2015-04-05T14:01:09Z</time>
      </trkpt>
      <trkpt lat="46.17363" lon="2.49577">
        <ele>408</ele>
        <time>2015-04-05T14:01:11Z</time>
      </trkpt>
      <trkpt lat="46.17363" lon="2.4958">
        <ele>408</ele>
        <time>2015-04-05T14:01:13Z</time>
      </trkpt>
      <trkpt lat="46.17361" lon="2.49583">
        <ele>408</ele>
        <time>2015-04-05T14:01:15Z</time>
      </trkpt>
      <trkpt lat="46.1736" lon="2.49585">
        <ele>408</ele>
        <time>2015-04-05T14:01:17Z</time>
      </trkpt>
      <trkpt lat="46.17359" lon="2.49587">
        <ele>408</ele>
        <time>2015-04-05T14:01:19Z</time>
      </trkpt>
      <trkpt lat="46.17358" lon="2.4959">
        <ele>408</ele>
        <time>2015-04-05T14:01:21Z</time>
      </trkpt>
      <trkpt lat="46.17358" lon="2.49592">
        <ele>408</ele>
        <time>2015-04-05T14:01:23Z</time>
      </trkpt>
      <trkpt lat="46.17358" lon="2.49595">
        <ele>408</ele>
        <time>2015-04-05T14:01:25Z</time>
      </trkpt>
      <trkpt lat="46.17357" lon="2.49597">
        <ele>408</ele>
        <time>2015-04-05T14:01:27Z</time>
      </trkpt>
      <trkpt lat="46.17357" lon="2.49599">
        <ele>408</ele>
        <time>2015-04-05T14:01:29Z</time>
      </trkpt>
      <trkpt lat="46.17357" lon="2.49602">
        <ele>408</ele>
        <time>2015-04-05T14:01:31Z</time>
      </trkpt>
      <trkpt lat="46.17357" lon="2.49604">
        <ele>408</ele>
        <time>2015-04-05T14:01:33Z</time>
      </trkpt>
      <trkpt lat="46.17356" lon="2.49606">
        <ele>408</ele>
        <time>2015-04-05T14:01:35Z</time>
      </trkpt>
      <trkpt lat="46.17355" lon="2.49608">
        <ele>408</ele>
        <time>2015-04-05T14:01:37Z</time>
      </trkpt>
      <trkpt lat="46.17354" lon="2.4961">
        <ele>408</ele>
        <time>2015-04-05T14:01:39Z</time>
      </trkpt>
      <trkpt lat="46.17353" lon="2.49612">
        <ele>408</ele>
        <time>2015-04-05T14:01:41Z</time>
      </trkpt>
      <trkpt lat="46.17352" lon="2.49614">
        <ele>408</ele>
        <time>2015-04-05T14:01:43Z</time>
      </trkpt>
      <trkpt lat="46.17351" lon="2.49615">
        <ele>408</ele>
        <time>2015-04-05T14:01:45Z</time>
      </trkpt>
      <trkpt lat="46.17349" lon="2.49617">
        <ele>408</ele>
        <time>2015-04-05T14:01:47Z</time>
      </trkpt>
      <trkpt lat="46.17347" lon="2.49619">
        <ele>408</ele>
        <time>2015-04-05T14:01:49Z</time>
      </trkpt>
      <trkpt lat="46.17346" lon="2.49621">
        <ele>408</ele>
        <time>2015-04-05T14:01:51Z</time>
      </trkpt>
      <trkpt lat="46.17344" lon="2.49622">
        <ele>408</ele>
        <time>2015-04-05T14:01:53Z</time>
      </trkpt>
      <trkpt lat="46.17343" lon="2.49623">
        <ele>408</ele>
        <time>2015-04-05T14:01:55Z</time>
      </trkpt>
      <trkpt lat="46.17341" lon="2.49624">
        <ele>408</ele>
        <time>2015-04-05T14:01:57Z</time>
      </trkpt>
      <trkpt lat="46.1734" lon="2.49626">
        <ele>408</ele>
        <time>2015-04-05T14:01:59Z</time>
      </trkpt>
      <trkpt lat="46.17338" lon="2.49627">
        <ele>408</ele>
        <time>2015-04-05T14:02:01Z</time>
      </trkpt>
      <trkpt lat="46.17337" lon="2.49629">
        <ele>408</ele>
        <time>2015-04-05T14:02:03Z</time>
      </trkpt>
      <trkpt lat="46.17335" lon="2.4963">
        <ele>408</ele>
        <time>2015-04-05T14:02:05Z</time>
      </trkpt>
      <trkpt lat="46.17334" lon="2.49632">
        <ele>408</ele>
        <time>2015-04-05T14:02:07Z</time>
      </trkpt>
      <trkpt lat="46.17332" lon="2.49634">
        <ele>408</ele>
        <time>2015-04-05T14:02:09Z</time>
      </trkpt>
      <trkpt lat="46.17331" lon="2.49635">
        <ele>408</ele>
        <time>2015-04-05T14:02:11Z</time>
      </trkpt>
      <trkpt lat="46.17332" lon="2.49637">
        <ele>408</ele>
        <time>2015-04-05T14:02:14Z</time>
      </trkpt>
      <trkpt lat="46.17331" lon="2.49637">
        <ele>408</ele>
        <time>2015-04-05T14:02:21Z</time>
      </trkpt>
      <trkpt lat="46.17329" lon="2.49638">
        <ele>408</ele>
        <time>2015-04-05T14:02:23Z</time>
      </trkpt>
      <trkpt lat="46.17327" lon="2.49638">
        <ele>408</ele>
        <time>2015-04-05T14:02:25Z</time>
      </trkpt>
      <trkpt lat="46.17326" lon="2.4964">
        <ele>408</ele>
        <time>2015-04-05T14:02:27Z</time>
      </trkpt>
      <trkpt lat="46.17324" lon="2.4964">
        <ele>408</ele>
        <time>2015-04-05T14:02:29Z</time>
      </trkpt>
      <trkpt lat="46.17323" lon="2.49641">
        <ele>408</ele>
        <time>2015-04-05T14:02:31Z</time>
      </trkpt>
      <trkpt lat="46.17321" lon="2.49642">
        <ele>408</ele>
        <time>2015-04-05T14:02:33Z</time>
      </trkpt>
      <trkpt lat="46.1732" lon="2.49643">
        <ele>408</ele>
        <time>2015-04-05T14:02:35Z</time>
      </trkpt>
      <trkpt lat="46.17318" lon="2.49644">
        <ele>408</ele>
        <time>2015-04-05T14:02:37Z</time>
      </trkpt>
      <trkpt lat="46.17317" lon="2.49644">
        <ele>408</ele>
        <time>2015-04-05T14:02:46Z</time>
      </trkpt>
      <trkpt lat="46.17316" lon="2.49645">
        <ele>408</ele>
        <time>2015-04-05T14:02:48Z</time>
      </trkpt>
      <trkpt lat="46.17315" lon="2.49646">
        <ele>408</ele>
        <time>2015-04-05T14:02:50Z</time>
      </trkpt>
      <trkpt lat="46.17313" lon="2.49647">
        <ele>408</ele>
        <time>2015-04-05T14:02:52Z</time>
      </trkpt>
      <trkpt lat="46.17312" lon="2.49647">
        <ele>408</ele>
        <time>2015-04-05T14:02:56Z</time>
      </trkpt>
      <trkpt lat="46.17311" lon="2.49646">
        <ele>409</ele>
        <time>2015-04-05T14:02:59Z</time>
      </trkpt>
      <trkpt lat="46.17309" lon="2.49647">
        <ele>409</ele>
        <time>2015-04-05T14:03:01Z</time>
      </trkpt>
      <trkpt lat="46.17308" lon="2.49649">
        <ele>409</ele>
        <time>2015-04-05T14:03:03Z</time>
      </trkpt>
      <trkpt lat="46.17307" lon="2.49651">
        <ele>409</ele>
        <time>2015-04-05T14:03:05Z</time>
      </trkpt>
      <trkpt lat="46.17306" lon="2.49651">
        <ele>409</ele>
        <time>2015-04-05T14:03:07Z</time>
      </trkpt>
      <trkpt lat="46.17305" lon="2.49652">
        <ele>409</ele>
        <time>2015-04-05T14:03:09Z</time>
      </trkpt>
      <trkpt lat="46.17303" lon="2.49654">
        <ele>409</ele>
        <time>2015-04-05T14:03:11Z</time>
      </trkpt>
      <trkpt lat="46.17302" lon="2.49655">
        <ele>409</ele>
        <time>2015-04-05T14:03:13Z</time>
      </trkpt>
      <trkpt lat="46.17301" lon="2.49656">
        <ele>409</ele>
        <time>2015-04-05T14:03:15Z</time>
      </trkpt>
      <trkpt lat="46.173" lon="2.49657">
        <ele>409</ele>
        <time>2015-04-05T14:03:17Z</time>
      </trkpt>
      <trkpt lat="46.17298" lon="2.49657">
        <ele>410</ele>
        <time>2015-04-05T14:03:19Z</time>
      </trkpt>
      <trkpt lat="46.17297" lon="2.49658">
        <ele>410</ele>
        <time>2015-04-05T14:03:21Z</time>
      </trkpt>
      <trkpt lat="46.17295" lon="2.49659">
        <ele>410</ele>
        <time>2015-04-05T14:03:23Z</time>
      </trkpt>
      <trkpt lat="46.17293" lon="2.4966">
        <ele>410</ele>
        <time>2015-04-05T14:03:25Z</time>
      </trkpt>
      <trkpt lat="46.17292" lon="2.49662">
        <ele>410</ele>
        <time>2015-04-05T14:03:27Z</time>
      </trkpt>
      <trkpt lat="46.1729" lon="2.49663">
        <ele>410</ele>
        <time>2015-04-05T14:03:29Z</time>
      </trkpt>
      <trkpt lat="46.17289" lon="2.49664">
        <ele>411</ele>
        <time>2015-04-05T14:03:31Z</time>
      </trkpt>
      <trkpt lat="46.17287" lon="2.49666">
        <ele>411</ele>
        <time>2015-04-05T14:03:33Z</time>
      </trkpt>
      <trkpt lat="46.17286" lon="2.49667">
        <ele>411</ele>
        <time>2015-04-05T14:03:35Z</time>
      </trkpt>
      <trkpt lat="46.17285" lon="2.49668">
        <ele>411</ele>
        <time>2015-04-05T14:03:37Z</time>
      </trkpt>
      <trkpt lat="46.17283" lon="2.4967">
        <ele>411</ele>
        <time>2015-04-05T14:03:40Z</time>
      </trkpt>
      <trkpt lat="46.17281" lon="2.49671">
        <ele>412</ele>
        <time>2015-04-05T14:03:42Z</time>
      </trkpt>
      <trkpt lat="46.1728" lon="2.49672">
        <ele>412</ele>
        <time>2015-04-05T14:03:44Z</time>
      </trkpt>
      <trkpt lat="46.17278" lon="2.49672">
        <ele>412</ele>
        <time>2015-04-05T14:03:46Z</time>
      </trkpt>
      <trkpt lat="46.17276" lon="2.49673">
        <ele>412</ele>
        <time>2015-04-05T14:03:48Z</time>
      </trkpt>
      <trkpt lat="46.17274" lon="2.49674">
        <ele>412</ele>
        <time>2015-04-05T14:03:50Z</time>
      </trkpt>
      <trkpt lat="46.17273" lon="2.49675">
        <ele>412</ele>
        <time>2015-04-05T14:03:52Z</time>
      </trkpt>
      <trkpt lat="46.17271" lon="2.49676">
        <ele>412</ele>
        <time>2015-04-05T14:03:54Z</time>
      </trkpt>
      <trkpt lat="46.1727" lon="2.49678">
        <ele>413</ele>
        <time>2015-04-05T14:03:56Z</time>
      </trkpt>
      <trkpt lat="46.17268" lon="2.49679">
        <ele>413</ele>
        <time>2015-04-05T14:03:58Z</time>
      </trkpt>
      <trkpt lat="46.17266" lon="2.4968">
        <ele>413</ele>
        <time>2015-04-05T14:04:00Z</time>
      </trkpt>
      <trkpt lat="46.17265" lon="2.49681">
        <ele>413</ele>
        <time>2015-04-05T14:04:02Z</time>
      </trkpt>
      <trkpt lat="46.17263" lon="2.49683">
        <ele>414</ele>
        <time>2015-04-05T14:04:04Z</time>
      </trkpt>
      <trkpt lat="46.17262" lon="2.49684">
        <ele>414</ele>
        <time>2015-04-05T14:04:06Z</time>
      </trkpt>
      <trkpt lat="46.17261" lon="2.49685">
        <ele>414</ele>
        <time>2015-04-05T14:04:08Z</time>
      </trkpt>
      <trkpt lat="46.17259" lon="2.49686">
        <ele>414</ele>
        <time>2015-04-05T14:04:10Z</time>
      </trkpt>
      <trkpt lat="46.17258" lon="2.49687">
        <ele>414</ele>
        <time>2015-04-05T14:04:12Z</time>
      </trkpt>
      <trkpt lat="46.17256" lon="2.49688">
        <ele>414</ele>
        <time>2015-04-05T14:04:14Z</time>
      </trkpt>
      <trkpt lat="46.17255" lon="2.4969">
        <ele>415</ele>
        <time>2015-04-05T14:04:16Z</time>
      </trkpt>
      <trkpt lat="46.17253" lon="2.49691">
        <ele>415</ele>
        <time>2015-04-05T14:04:18Z</time>
      </trkpt>
      <trkpt lat="46.17252" lon="2.49692">
        <ele>415</ele>
        <time>2015-04-05T14:04:20Z</time>
      </trkpt>
      <trkpt lat="46.1725" lon="2.49694">
        <ele>415</ele>
        <time>2015-04-05T14:04:23Z</time>
      </trkpt>
      <trkpt lat="46.17249" lon="2.49695">
        <ele>415</ele>
        <time>2015-04-05T14:04:25Z</time>
      </trkpt>
      <trkpt lat="46.17247" lon="2.49695">
        <ele>416</ele>
        <time>2015-04-05T14:04:27Z</time>
      </trkpt>
      <trkpt lat="46.17245" lon="2.49696">
        <ele>416</ele>
        <time>2015-04-05T14:04:29Z</time>
      </trkpt>
      <trkpt lat="46.17244" lon="2.49698">
        <ele>416</ele>
        <time>2015-04-05T14:04:31Z</time>
      </trkpt>
      <trkpt lat="46.17242" lon="2.49698">
        <ele>416</ele>
        <time>2015-04-05T14:04:33Z</time>
      </trkpt>
      <trkpt lat="46.17241" lon="2.49699">
        <ele>416</ele>
        <time>2015-04-05T14:04:35Z</time>
      </trkpt>
      <trkpt lat="46.17239" lon="2.49701">
        <ele>416</ele>
        <time>2015-04-05T14:04:37Z</time>
      </trkpt>
      <trkpt lat="46.17238" lon="2.49702">
        <ele>416</ele>
        <time>2015-04-05T14:04:39Z</time>
      </trkpt>
      <trkpt lat="46.17236" lon="2.49704">
        <ele>416</ele>
        <time>2015-04-05T14:04:41Z</time>
      </trkpt>
      <trkpt lat="46.17235" lon="2.49705">
        <ele>416</ele>
        <time>2015-04-05T14:04:43Z</time>
      </trkpt>
      <trkpt lat="46.17234" lon="2.49707">
        <ele>416</ele>
        <time>2015-04-05T14:04:45Z</time>
      </trkpt>
      <trkpt lat="46.17233" lon="2.49709">
        <ele>416</ele>
        <time>2015-04-05T14:04:47Z</time>
      </trkpt>
      <trkpt lat="46.17232" lon="2.4971">
        <ele>417</ele>
        <time>2015-04-05T14:04:49Z</time>
      </trkpt>
      <trkpt lat="46.17231" lon="2.49712">
        <ele>417</ele>
        <time>2015-04-05T14:04:51Z</time>
      </trkpt>
      <trkpt lat="46.17231" lon="2.49714">
        <ele>417</ele>
        <time>2015-04-05T14:04:53Z</time>
      </trkpt>
      <trkpt lat="46.17229" lon="2.49716">
        <ele>417</ele>
        <time>2015-04-05T14:04:55Z</time>
      </trkpt>
      <trkpt lat="46.17228" lon="2.49717">
        <ele>418</ele>
        <time>2015-04-05T14:04:57Z</time>
      </trkpt>
      <trkpt lat="46.17228" lon="2.4972">
        <ele>418</ele>
        <time>2015-04-05T14:04:59Z</time>
      </trkpt>
      <trkpt lat="46.17227" lon="2.49721">
        <ele>418</ele>
        <time>2015-04-05T14:05:01Z</time>
      </trkpt>
      <trkpt lat="46.17226" lon="2.49723">
        <ele>418</ele>
        <time>2015-04-05T14:05:03Z</time>
      </trkpt>
      <trkpt lat="46.17226" lon="2.49726">
        <ele>418</ele>
        <time>2015-04-05T14:05:05Z</time>
      </trkpt>
      <trkpt lat="46.17225" lon="2.49727">
        <ele>418</ele>
        <time>2015-04-05T14:05:07Z</time>
      </trkpt>
      <trkpt lat="46.17225" lon="2.49729">
        <ele>418</ele>
        <time>2015-04-05T14:05:09Z</time>
      </trkpt>
      <trkpt lat="46.17224" lon="2.49731">
        <ele>419</ele>
        <time>2015-04-05T14:05:11Z</time>
      </trkpt>
      <trkpt lat="46.17223" lon="2.49732">
        <ele>419</ele>
        <time>2015-04-05T14:05:36Z</time>
      </trkpt>
      <trkpt lat="46.17223" lon="2.49734">
        <ele>419</ele>
        <time>2015-04-05T14:05:38Z</time>
      </trkpt>
      <trkpt lat="46.17223" lon="2.49736">
        <ele>419</ele>
        <time>2015-04-05T14:05:40Z</time>
      </trkpt>
      <trkpt lat="46.17223" lon="2.49737">
        <ele>419</ele>
        <time>2015-04-05T14:05:42Z</time>
      </trkpt>
      <trkpt lat="46.17223" lon="2.49739">
        <ele>419</ele>
        <time>2015-04-05T14:05:44Z</time>
      </trkpt>
      <trkpt lat="46.17223" lon="2.49741">
        <ele>419</ele>
        <time>2015-04-05T14:05:46Z</time>
      </trkpt>
      <trkpt lat="46.17222" lon="2.49742">
        <ele>419</ele>
        <time>2015-04-05T14:05:48Z</time>
      </trkpt>
      <trkpt lat="46.17222" lon="2.49744">
        <ele>419</ele>
        <time>2015-04-05T14:05:50Z</time>
      </trkpt>
      <trkpt lat="46.17222" lon="2.49746">
        <ele>419</ele>
        <time>2015-04-05T14:05:52Z</time>
      </trkpt>
      <trkpt lat="46.17221" lon="2.49747">
        <ele>419</ele>
        <time>2015-04-05T14:05:54Z</time>
      </trkpt>
      <trkpt lat="46.17221" lon="2.49749">
        <ele>419</ele>
        <time>2015-04-05T14:05:56Z</time>
      </trkpt>
      <trkpt lat="46.17221" lon="2.49751">
        <ele>419</ele>
        <time>2015-04-05T14:05:58Z</time>
      </trkpt>
      <trkpt lat="46.17221" lon="2.49753">
        <ele>419</ele>
        <time>2015-04-05T14:06:00Z</time>
      </trkpt>
      <trkpt lat="46.17221" lon="2.49755">
        <ele>419</ele>
        <time>2015-04-05T14:06:02Z</time>
      </trkpt>
      <trkpt lat="46.17221" lon="2.49757">
        <ele>419</ele>
        <time>2015-04-05T14:06:04Z</time>
      </trkpt>
      <trkpt lat="46.17221" lon="2.49759">
        <ele>419</ele>
        <time>2015-04-05T14:06:06Z</time>
      </trkpt>
      <trkpt lat="46.17221" lon="2.49761">
        <ele>420</ele>
        <time>2015-04-05T14:06:08Z</time>
      </trkpt>
      <trkpt lat="46.17221" lon="2.49763">
        <ele>420</ele>
        <time>2015-04-05T14:06:10Z</time>
      </trkpt>
      <trkpt lat="46.17221" lon="2.49765">
        <ele>420</ele>
        <time>2015-04-05T14:06:12Z</time>
      </trkpt>
      <trkpt lat="46.17221" lon="2.49767">
        <ele>420</ele>
        <time>2015-04-05T14:06:14Z</time>
      </trkpt>
      <trkpt lat="46.17221" lon="2.49769">
        <ele>420</ele>
        <time>2015-04-05T14:06:16Z</time>
      </trkpt>
      <trkpt lat="46.17221" lon="2.49771">
        <ele>421</ele>
        <time>2015-04-05T14:06:18Z</time>
      </trkpt>
      <trkpt lat="46.17221" lon="2.49773">
        <ele>421</ele>
        <time>2015-04-05T14:06:20Z</time>
      </trkpt>
      <trkpt lat="46.17221" lon="2.49775">
        <ele>421</ele>
        <time>2015-04-05T14:06:22Z</time>
      </trkpt>
      <trkpt lat="46.17221" lon="2.49777">
        <ele>421</ele>
        <time>2015-04-05T14:06:24Z</time>
      </trkpt>
      <trkpt lat="46.17222" lon="2.4978">
        <ele>422</ele>
        <time>2015-04-05T14:06:26Z</time>
      </trkpt>
      <trkpt lat="46.17222" lon="2.49781">
        <ele>422</ele>
        <time>2015-04-05T14:06:28Z</time>
      </trkpt>
      <trkpt lat="46.17222" lon="2.49784">
        <ele>422</ele>
        <time>2015-04-05T14:06:30Z</time>
      </trkpt>
      <trkpt lat="46.17222" lon="2.49786">
        <ele>423</ele>
        <time>2015-04-05T14:06:32Z</time>
      </trkpt>
      <trkpt lat="46.17222" lon="2.49788">
        <ele>423</ele>
        <time>2015-04-05T14:06:34Z</time>
      </trkpt>
      <trkpt lat="46.17223" lon="2.4979">
        <ele>423</ele>
        <time>2015-04-05T14:06:36Z</time>
      </trkpt>
      <trkpt lat="46.17223" lon="2.49792">
        <ele>423</ele>
        <time>2015-04-05T14:06:38Z</time>
      </trkpt>
      <trkpt lat="46.17223" lon="2.49795">
        <ele>423</ele>
        <time>2015-04-05T14:06:40Z</time>
      </trkpt>
      <trkpt lat="46.17223" lon="2.49797">
        <ele>423</ele>
        <time>2015-04-05T14:06:42Z</time>
      </trkpt>
      <trkpt lat="46.17223" lon="2.49799">
        <ele>423</ele>
        <time>2015-04-05T14:06:44Z</time>
      </trkpt>
      <trkpt lat="46.17223" lon="2.49801">
        <ele>423</ele>
        <time>2015-04-05T14:06:46Z</time>
      </trkpt>
      <trkpt lat="46.17224" lon="2.49804">
        <ele>424</ele>
        <time>2015-04-05T14:06:48Z</time>
      </trkpt>
      <trkpt lat="46.17224" lon="2.49806">
        <ele>424</ele>
        <time>2015-04-05T14:06:50Z</time>
      </trkpt>
      <trkpt lat="46.17224" lon="2.49809">
        <ele>424</ele>
        <time>2015-04-05T14:06:52Z</time>
      </trkpt>
      <trkpt lat="46.17224" lon="2.49811">
        <ele>424</ele>
        <time>2015-04-05T14:06:54Z</time>
      </trkpt>
      <trkpt lat="46.17224" lon="2.49814">
        <ele>424</ele>
        <time>2015-04-05T14:06:56Z</time>
      </trkpt>
      <trkpt lat="46.17224" lon="2.49816">
        <ele>424</ele>
        <time>2015-04-05T14:06:58Z</time>
      </trkpt>
      <trkpt lat="46.17224" lon="2.49818">
        <ele>424</ele>
        <time>2015-04-05T14:07:00Z</time>
      </trkpt>
      <trkpt lat="46.17224" lon="2.4982">
        <ele>424</ele>
        <time>2015-04-05T14:07:02Z</time>
      </trkpt>
      <trkpt lat="46.17224" lon="2.49823">
        <ele>424</ele>
        <time>2015-04-05T14:07:04Z</time>
      </trkpt>
      <trkpt lat="46.17223" lon="2.49826">
        <ele>425</ele>
        <time>2015-04-05T14:07:06Z</time>
      </trkpt>
      <trkpt lat="46.17222" lon="2.49828">
        <ele>425</ele>
        <time>2015-04-05T14:07:08Z</time>
      </trkpt>
      <trkpt lat="46.17221" lon="2.49831">
        <ele>425</ele>
        <time>2015-04-05T14:07:10Z</time>
      </trkpt>
      <trkpt lat="46.1722" lon="2.49834">
        <ele>425</ele>
        <time>2015-04-05T14:07:12Z</time>
      </trkpt>
      <trkpt lat="46.1722" lon="2.49837">
        <ele>425</ele>
        <time>2015-04-05T14:07:14Z</time>
      </trkpt>
      <trkpt lat="46.1722" lon="2.49839">
        <ele>425</ele>
        <time>2015-04-05T14:07:16Z</time>
      </trkpt>
      <trkpt lat="46.17219" lon="2.49842">
        <ele>425</ele>
        <time>2015-04-05T14:07:18Z</time>
      </trkpt>
      <trkpt lat="46.17219" lon="2.49844">
        <ele>425</ele>
        <time>2015-04-05T14:07:20Z</time>
      </trkpt>
      <trkpt lat="46.17219" lon="2.49845">
        <ele>425</ele>
        <time>2015-04-05T14:07:24Z</time>
      </trkpt>
      <trkpt lat="46.17218" lon="2.49847">
        <ele>425</ele>
        <time>2015-04-05T14:07:26Z</time>
      </trkpt>
      <trkpt lat="46.17218" lon="2.49849">
        <ele>425</ele>
        <time>2015-04-05T14:07:28Z</time>
      </trkpt>
      <trkpt lat="46.17216" lon="2.49851">
        <ele>425</ele>
        <time>2015-04-05T14:07:30Z</time>
      </trkpt>
      <trkpt lat="46.17215" lon="2.49853">
        <ele>425</ele>
        <time>2015-04-05T14:07:32Z</time>
      </trkpt>
      <trkpt lat="46.17214" lon="2.49855">
        <ele>425</ele>
        <time>2015-04-05T14:07:34Z</time>
      </trkpt>
      <trkpt lat="46.17213" lon="2.49857">
        <ele>425</ele>
        <time>2015-04-05T14:07:36Z</time>
      </trkpt>
      <trkpt lat="46.17212" lon="2.49859">
        <ele>425</ele>
        <time>2015-04-05T14:07:38Z</time>
      </trkpt>
      <trkpt lat="46.17212" lon="2.49861">
        <ele>426</ele>
        <time>2015-04-05T14:07:40Z</time>
      </trkpt>
      <trkpt lat="46.17211" lon="2.49863">
        <ele>426</ele>
        <time>2015-04-05T14:07:42Z</time>
      </trkpt>
      <trkpt lat="46.1721" lon="2.49865">
        <ele>426</ele>
        <time>2015-04-05T14:07:44Z</time>
      </trkpt>
      <trkpt lat="46.17209" lon="2.49867">
        <ele>426</ele>
        <time>2015-04-05T14:07:46Z</time>
      </trkpt>
      <trkpt lat="46.17209" lon="2.49868">
        <ele>426</ele>
        <time>2015-04-05T14:07:48Z</time>
      </trkpt>
      <trkpt lat="46.17207" lon="2.4987">
        <ele>427</ele>
        <time>2015-04-05T14:07:50Z</time>
      </trkpt>
      <trkpt lat="46.17207" lon="2.49872">
        <ele>427</ele>
        <time>2015-04-05T14:07:52Z</time>
      </trkpt>
      <trkpt lat="46.17205" lon="2.49872">
        <ele>427</ele>
        <time>2015-04-05T14:07:54Z</time>
      </trkpt>
      <trkpt lat="46.17204" lon="2.49873">
        <ele>427</ele>
        <time>2015-04-05T14:07:56Z</time>
      </trkpt>
      <trkpt lat="46.17202" lon="2.49873">
        <ele>427</ele>
        <time>2015-04-05T14:07:58Z</time>
      </trkpt>
      <trkpt lat="46.17201" lon="2.49874">
        <ele>427</ele>
        <time>2015-04-05T14:08:00Z</time>
      </trkpt>
      <trkpt lat="46.17199" lon="2.49875">
        <ele>427</ele>
        <time>2015-04-05T14:08:02Z</time>
      </trkpt>
      <trkpt lat="46.17198" lon="2.49877">
        <ele>427</ele>
        <time>2015-04-05T14:08:04Z</time>
      </trkpt>
      <trkpt lat="46.17197" lon="2.49878">
        <ele>427</ele>
        <time>2015-04-05T14:08:06Z</time>
      </trkpt>
      <trkpt lat="46.17195" lon="2.4988">
        <ele>427</ele>
        <time>2015-04-05T14:08:08Z</time>
      </trkpt>
      <trkpt lat="46.17194" lon="2.49881">
        <ele>427</ele>
        <time>2015-04-05T14:08:10Z</time>
      </trkpt>
      <trkpt lat="46.17192" lon="2.49882">
        <ele>428</ele>
        <time>2015-04-05T14:08:12Z</time>
      </trkpt>
      <trkpt lat="46.17191" lon="2.49884">
        <ele>428</ele>
        <time>2015-04-05T14:08:14Z</time>
      </trkpt>
      <trkpt lat="46.1719" lon="2.49885">
        <ele>428</ele>
        <time>2015-04-05T14:08:16Z</time>
      </trkpt>
      <trkpt lat="46.17189" lon="2.49886">
        <ele>428</ele>
        <time>2015-04-05T14:08:18Z</time>
      </trkpt>
      <trkpt lat="46.17188" lon="2.49888">
        <ele>428</ele>
        <time>2015-04-05T14:08:20Z</time>
      </trkpt>
      <trkpt lat="46.17187" lon="2.49889">
        <ele>428</ele>
        <time>2015-04-05T14:08:22Z</time>
      </trkpt>
      <trkpt lat="46.17185" lon="2.49889">
        <ele>429</ele>
        <time>2015-04-05T14:08:24Z</time>
      </trkpt>
      <trkpt lat="46.17184" lon="2.49891">
        <ele>429</ele>
        <time>2015-04-05T14:08:26Z</time>
      </trkpt>
      <trkpt lat="46.17182" lon="2.49892">
        <ele>429</ele>
        <time>2015-04-05T14:08:28Z</time>
      </trkpt>
      <trkpt lat="46.17182" lon="2.4989">
        <ele>429</ele>
        <time>2015-04-05T14:08:46Z</time>
      </trkpt>
      <trkpt lat="46.17181" lon="2.49892">
        <ele>429</ele>
        <time>2015-04-05T14:08:58Z</time>
      </trkpt>
      <trkpt lat="46.17179" lon="2.49894">
        <ele>429</ele>
        <time>2015-04-05T14:09:01Z</time>
      </trkpt>
      <trkpt lat="46.17178" lon="2.49896">
        <ele>429</ele>
        <time>2015-04-05T14:09:03Z</time>
      </trkpt>
      <trkpt lat="46.17177" lon="2.49897">
        <ele>429</ele>
        <time>2015-04-05T14:09:05Z</time>
      </trkpt>
      <trkpt lat="46.17175" lon="2.49899">
        <ele>429</ele>
        <time>2015-04-05T14:09:07Z</time>
      </trkpt>
      <trkpt lat="46.17174" lon="2.499">
        <ele>429</ele>
        <time>2015-04-05T14:09:09Z</time>
      </trkpt>
      <trkpt lat="46.17173" lon="2.49902">
        <ele>429</ele>
        <time>2015-04-05T14:09:11Z</time>
      </trkpt>
      <trkpt lat="46.17171" lon="2.49903">
        <ele>429</ele>
        <time>2015-04-05T14:09:13Z</time>
      </trkpt>
      <trkpt lat="46.1717" lon="2.49904">
        <ele>429</ele>
        <time>2015-04-05T14:09:15Z</time>
      </trkpt>
      <trkpt lat="46.17169" lon="2.49905">
        <ele>429</ele>
        <time>2015-04-05T14:09:17Z</time>
      </trkpt>
      <trkpt lat="46.17167" lon="2.49907">
        <ele>429</ele>
        <time>2015-04-05T14:09:19Z</time>
      </trkpt>
      <trkpt lat="46.17166" lon="2.49908">
        <ele>430</ele>
        <time>2015-04-05T14:09:21Z</time>
      </trkpt>
      <trkpt lat="46.17165" lon="2.49909">
        <ele>430</ele>
        <time>2015-04-05T14:09:23Z</time>
      </trkpt>
      <trkpt lat="46.17164" lon="2.4991">
        <ele>430</ele>
        <time>2015-04-05T14:09:26Z</time>
      </trkpt>
      <trkpt lat="46.17162" lon="2.49912">
        <ele>431</ele>
        <time>2015-04-05T14:09:41Z</time>
      </trkpt>
      <trkpt lat="46.17161" lon="2.49914">
        <ele>431</ele>
        <time>2015-04-05T14:09:44Z</time>
      </trkpt>
      <trkpt lat="46.1716" lon="2.49915">
        <ele>431</ele>
        <time>2015-04-05T14:09:46Z</time>
      </trkpt>
      <trkpt lat="46.17159" lon="2.49917">
        <ele>431</ele>
        <time>2015-04-05T14:09:48Z</time>
      </trkpt>
      <trkpt lat="46.17157" lon="2.49918">
        <ele>431</ele>
        <time>2015-04-05T14:09:50Z</time>
      </trkpt>
      <trkpt lat="46.17156" lon="2.49919">
        <ele>431</ele>
        <time>2015-04-05T14:09:52Z</time>
      </trkpt>
      <trkpt lat="46.17154" lon="2.49921">
        <ele>431</ele>
        <time>2015-04-05T14:09:55Z</time>
      </trkpt>
      <trkpt lat="46.17154" lon="2.49923">
        <ele>432</ele>
        <time>2015-04-05T14:09:57Z</time>
      </trkpt>
      <trkpt lat="46.17152" lon="2.49925">
        <ele>432</ele>
        <time>2015-04-05T14:09:59Z</time>
      </trkpt>
      <trkpt lat="46.17151" lon="2.49926">
        <ele>432</ele>
        <time>2015-04-05T14:10:01Z</time>
      </trkpt>
      <trkpt lat="46.1715" lon="2.49928">
        <ele>432</ele>
        <time>2015-04-05T14:10:03Z</time>
      </trkpt>
      <trkpt lat="46.17149" lon="2.4993">
        <ele>432</ele>
        <time>2015-04-05T14:10:05Z</time>
      </trkpt>
      <trkpt lat="46.17148" lon="2.49932">
        <ele>432</ele>
        <time>2015-04-05T14:10:07Z</time>
      </trkpt>
      <trkpt lat="46.17147" lon="2.49933">
        <ele>432</ele>
        <time>2015-04-05T14:10:09Z</time>
      </trkpt>
      <trkpt lat="46.17146" lon="2.49935">
        <ele>432</ele>
        <time>2015-04-05T14:10:11Z</time>
      </trkpt>
      <trkpt lat="46.17146" lon="2.49937">
        <ele>432</ele>
        <time>2015-04-05T14:10:13Z</time>
      </trkpt>
      <trkpt lat="46.17145" lon="2.49939">
        <ele>432</ele>
        <time>2015-04-05T14:10:15Z</time>
      </trkpt>
      <trkpt lat="46.17144" lon="2.49941">
        <ele>433</ele>
        <time>2015-04-05T14:10:17Z</time>
      </trkpt>
      <trkpt lat="46.17143" lon="2.49943">
        <ele>433</ele>
        <time>2015-04-05T14:10:19Z</time>
      </trkpt>
      <trkpt lat="46.17142" lon="2.49945">
        <ele>433</ele>
        <time>2015-04-05T14:10:21Z</time>
      </trkpt>
      <trkpt lat="46.17142" lon="2.49948">
        <ele>433</ele>
        <time>2015-04-05T14:10:23Z</time>
      </trkpt>
      <trkpt lat="46.17141" lon="2.4995">
        <ele>433</ele>
        <time>2015-04-05T14:10:25Z</time>
      </trkpt>
      <trkpt lat="46.17141" lon="2.49952">
        <ele>434</ele>
        <time>2015-04-05T14:10:27Z</time>
      </trkpt>
      <trkpt lat="46.1714" lon="2.49954">
        <ele>434</ele>
        <time>2015-04-05T14:10:29Z</time>
      </trkpt>
      <trkpt lat="46.1714" lon="2.49955">
        <ele>434</ele>
        <time>2015-04-05T14:10:31Z</time>
      </trkpt>
      <trkpt lat="46.1714" lon="2.49957">
        <ele>434</ele>
        <time>2015-04-05T14:10:42Z</time>
      </trkpt>
      <trkpt lat="46.17139" lon="2.49959">
        <ele>434</ele>
        <time>2015-04-05T14:10:44Z</time>
      </trkpt>
      <trkpt lat="46.17139" lon="2.49961">
        <ele>434</ele>
        <time>2015-04-05T14:10:46Z</time>
      </trkpt>
      <trkpt lat="46.17139" lon="2.49963">
        <ele>434</ele>
        <time>2015-04-05T14:10:48Z</time>
      </trkpt>
      <trkpt lat="46.17139" lon="2.49964">
        <ele>434</ele>
        <time>2015-04-05T14:10:50Z</time>
      </trkpt>
      <trkpt lat="46.17138" lon="2.49966">
        <ele>435</ele>
        <time>2015-04-05T14:10:52Z</time>
      </trkpt>
      <trkpt lat="46.17138" lon="2.49968">
        <ele>435</ele>
        <time>2015-04-05T14:10:54Z</time>
      </trkpt>
      <trkpt lat="46.17138" lon="2.4997">
        <ele>435</ele>
        <time>2015-04-05T14:10:56Z</time>
      </trkpt>
      <trkpt lat="46.17138" lon="2.49973">
        <ele>435</ele>
        <time>2015-04-05T14:10:58Z</time>
      </trkpt>
      <trkpt lat="46.17138" lon="2.49975">
        <ele>435</ele>
        <time>2015-04-05T14:11:00Z</time>
      </trkpt>
      <trkpt lat="46.17138" lon="2.49977">
        <ele>435</ele>
        <time>2015-04-05T14:11:02Z</time>
      </trkpt>
      <trkpt lat="46.17137" lon="2.49979">
        <ele>436</ele>
        <time>2015-04-05T14:11:04Z</time>
      </trkpt>
      <trkpt lat="46.17137" lon="2.49982">
        <ele>436</ele>
        <time>2015-04-05T14:11:06Z</time>
      </trkpt>
      <trkpt lat="46.17137" lon="2.49985">
        <ele>436</ele>
        <time>2015-04-05T14:11:08Z</time>
      </trkpt>
      <trkpt lat="46.17137" lon="2.49987">
        <ele>436</ele>
        <time>2015-04-05T14:11:10Z</time>
      </trkpt>
      <trkpt lat="46.17137" lon="2.49989">
        <ele>436</ele>
        <time>2015-04-05T14:11:12Z</time>
      </trkpt>
      <trkpt lat="46.17137" lon="2.49991">
        <ele>437</ele>
        <time>2015-04-05T14:11:14Z</time>
      </trkpt>
      <trkpt lat="46.17137" lon="2.49993">
        <ele>437</ele>
        <time>2015-04-05T14:11:16Z</time>
      </trkpt>
      <trkpt lat="46.17137" lon="2.49995">
        <ele>437</ele>
        <time>2015-04-05T14:11:22Z</time>
      </trkpt>
      <trkpt lat="46.17137" lon="2.49997">
        <ele>437</ele>
        <time>2015-04-05T14:11:24Z</time>
      </trkpt>
      <trkpt lat="46.17136" lon="2.49998">
        <ele>437</ele>
        <time>2015-04-05T14:11:26Z</time>
      </trkpt>
      <trkpt lat="46.17136" lon="2.50001">
        <ele>437</ele>
        <time>2015-04-05T14:11:28Z</time>
      </trkpt>
      <trkpt lat="46.17136" lon="2.50003">
        <ele>437</ele>
        <time>2015-04-05T14:11:30Z</time>
      </trkpt>
      <trkpt lat="46.17136" lon="2.50005">
        <ele>437</ele>
        <time>2015-04-05T14:11:32Z</time>
      </trkpt>
      <trkpt lat="46.17136" lon="2.50008">
        <ele>437</ele>
        <time>2015-04-05T14:11:34Z</time>
      </trkpt>
      <trkpt lat="46.17136" lon="2.5001">
        <ele>438</ele>
        <time>2015-04-05T14:11:36Z</time>
      </trkpt>
      <trkpt lat="46.17136" lon="2.50011">
        <ele>438</ele>
        <time>2015-04-05T14:11:39Z</time>
      </trkpt>
      <trkpt lat="46.17136" lon="2.50014">
        <ele>438</ele>
        <time>2015-04-05T14:11:45Z</time>
      </trkpt>
      <trkpt lat="46.17136" lon="2.50016">
        <ele>438</ele>
        <time>2015-04-05T14:11:47Z</time>
      </trkpt>
      <trkpt lat="46.17135" lon="2.50019">
        <ele>438</ele>
        <time>2015-04-05T14:11:49Z</time>
      </trkpt>
      <trkpt lat="46.17135" lon="2.50021">
        <ele>439</ele>
        <time>2015-04-05T14:11:51Z</time>
      </trkpt>
      <trkpt lat="46.17135" lon="2.50023">
        <ele>439</ele>
        <time>2015-04-05T14:11:53Z</time>
      </trkpt>
      <trkpt lat="46.17134" lon="2.50025">
        <ele>439</ele>
        <time>2015-04-05T14:11:55Z</time>
      </trkpt>
      <trkpt lat="46.17134" lon="2.50028">
        <ele>440</ele>
        <time>2015-04-05T14:11:57Z</time>
      </trkpt>
      <trkpt lat="46.17135" lon="2.5003">
        <ele>440</ele>
        <time>2015-04-05T14:11:59Z</time>
      </trkpt>
      <trkpt lat="46.17135" lon="2.50032">
        <ele>440</ele>
        <time>2015-04-05T14:12:01Z</time>
      </trkpt>
      <trkpt lat="46.17135" lon="2.50034">
        <ele>440</ele>
        <time>2015-04-05T14:12:10Z</time>
      </trkpt>
      <trkpt lat="46.17135" lon="2.50036">
        <ele>440</ele>
        <time>2015-04-05T14:12:12Z</time>
      </trkpt>
      <trkpt lat="46.17135" lon="2.50038">
        <ele>440</ele>
        <time>2015-04-05T14:12:14Z</time>
      </trkpt>
      <trkpt lat="46.17134" lon="2.5004">
        <ele>440</ele>
        <time>2015-04-05T14:12:16Z</time>
      </trkpt>
      <trkpt lat="46.17134" lon="2.50042">
        <ele>440</ele>
        <time>2015-04-05T14:12:18Z</time>
      </trkpt>
      <trkpt lat="46.17134" lon="2.50045">
        <ele>440</ele>
        <time>2015-04-05T14:12:20Z</time>
      </trkpt>
      <trkpt lat="46.17134" lon="2.50047">
        <ele>440</ele>
        <time>2015-04-05T14:12:22Z</time>
      </trkpt>
      <trkpt lat="46.17134" lon="2.5005">
        <ele>441</ele>
        <time>2015-04-05T14:12:24Z</time>
      </trkpt>
      <trkpt lat="46.17134" lon="2.50052">
        <ele>441</ele>
        <time>2015-04-05T14:12:26Z</time>
      </trkpt>
      <trkpt lat="46.17133" lon="2.50055">
        <ele>441</ele>
        <time>2015-04-05T14:12:28Z</time>
      </trkpt>
      <trkpt lat="46.17133" lon="2.50057">
        <ele>441</ele>
        <time>2015-04-05T14:12:30Z</time>
      </trkpt>
      <trkpt lat="46.17133" lon="2.50059">
        <ele>441</ele>
        <time>2015-04-05T14:12:32Z</time>
      </trkpt>
      <trkpt lat="46.17133" lon="2.50062">
        <ele>442</ele>
        <time>2015-04-05T14:12:34Z</time>
      </trkpt>
      <trkpt lat="46.17133" lon="2.50064">
        <ele>442</ele>
        <time>2015-04-05T14:12:36Z</time>
      </trkpt>
      <trkpt lat="46.17133" lon="2.50067">
        <ele>442</ele>
        <time>2015-04-05T14:12:38Z</time>
      </trkpt>
      <trkpt lat="46.17133" lon="2.50069">
        <ele>442</ele>
        <time>2015-04-05T14:12:40Z</time>
      </trkpt>
      <trkpt lat="46.17133" lon="2.50072">
        <ele>442</ele>
        <time>2015-04-05T14:12:42Z</time>
      </trkpt>
      <trkpt lat="46.17133" lon="2.50074">
        <ele>443</ele>
        <time>2015-04-05T14:12:44Z</time>
      </trkpt>
      <trkpt lat="46.17132" lon="2.50077">
        <ele>443</ele>
        <time>2015-04-05T14:12:46Z</time>
      </trkpt>
      <trkpt lat="46.17133" lon="2.50079">
        <ele>443</ele>
        <time>2015-04-05T14:12:48Z</time>
      </trkpt>
      <trkpt lat="46.17133" lon="2.50081">
        <ele>443</ele>
        <time>2015-04-05T14:12:50Z</time>
      </trkpt>
      <trkpt lat="46.17132" lon="2.50082">
        <ele>443</ele>
        <time>2015-04-05T14:12:57Z</time>
      </trkpt>
      <trkpt lat="46.17132" lon="2.50084">
        <ele>443</ele>
        <time>2015-04-05T14:13:00Z</time>
      </trkpt>
      <trkpt lat="46.17132" lon="2.50086">
        <ele>443</ele>
        <time>2015-04-05T14:13:02Z</time>
      </trkpt>
      <trkpt lat="46.17132" lon="2.50089">
        <ele>443</ele>
        <time>2015-04-05T14:13:04Z</time>
      </trkpt>
      <trkpt lat="46.17132" lon="2.50091">
        <ele>443</ele>
        <time>2015-04-05T14:13:06Z</time>
      </trkpt>
      <trkpt lat="46.17131" lon="2.50093">
        <ele>443</ele>
        <time>2015-04-05T14:13:08Z</time>
      </trkpt>
      <trkpt lat="46.17131" lon="2.50096">
        <ele>443</ele>
        <time>2015-04-05T14:13:10Z</time>
      </trkpt>
      <trkpt lat="46.17131" lon="2.50098">
        <ele>443</ele>
        <time>2015-04-05T14:13:12Z</time>
      </trkpt>
      <trkpt lat="46.17131" lon="2.50101">
        <ele>443</ele>
        <time>2015-04-05T14:13:14Z</time>
      </trkpt>
      <trkpt lat="46.17131" lon="2.50103">
        <ele>444</ele>
        <time>2015-04-05T14:13:16Z</time>
      </trkpt>
      <trkpt lat="46.17131" lon="2.50106">
        <ele>444</ele>
        <time>2015-04-05T14:13:18Z</time>
      </trkpt>
      <trkpt lat="46.17131" lon="2.50109">
        <ele>444</ele>
        <time>2015-04-05T14:13:20Z</time>
      </trkpt>
      <trkpt lat="46.17131" lon="2.50111">
        <ele>444</ele>
        <time>2015-04-05T14:13:22Z</time>
      </trkpt>
      <trkpt lat="46.1713" lon="2.50114">
        <ele>444</ele>
        <time>2015-04-05T14:13:24Z</time>
      </trkpt>
      <trkpt lat="46.1713" lon="2.50116">
        <ele>444</ele>
        <time>2015-04-05T14:13:26Z</time>
      </trkpt>
      <trkpt lat="46.1713" lon="2.50119">
        <ele>444</ele>
        <time>2015-04-05T14:13:28Z</time>
      </trkpt>
      <trkpt lat="46.1713" lon="2.50121">
        <ele>444</ele>
        <time>2015-04-05T14:13:30Z</time>
      </trkpt>
      <trkpt lat="46.1713" lon="2.50124">
        <ele>444</ele>
        <time>2015-04-05T14:13:32Z</time>
      </trkpt>
      <trkpt lat="46.1713" lon="2.50126">
        <ele>444</ele>
        <time>2015-04-05T14:13:34Z</time>
      </trkpt>
      <trkpt lat="46.17129" lon="2.50129">
        <ele>444</ele>
        <time>2015-04-05T14:13:36Z</time>
      </trkpt>
      <trkpt lat="46.17129" lon="2.50131">
        <ele>444</ele>
        <time>2015-04-05T14:13:38Z</time>
      </trkpt>
      <trkpt lat="46.17129" lon="2.50133">
        <ele>445</ele>
        <time>2015-04-05T14:13:40Z</time>
      </trkpt>
      <trkpt lat="46.17128" lon="2.50136">
        <ele>445</ele>
        <time>2015-04-05T14:13:42Z</time>
      </trkpt>
      <trkpt lat="46.17128" lon="2.50138">
        <ele>445</ele>
        <time>2015-04-05T14:13:44Z</time>
      </trkpt>
      <trkpt lat="46.17128" lon="2.50141">
        <ele>445</ele>
        <time>2015-04-05T14:13:46Z</time>
      </trkpt>
      <trkpt lat="46.17128" lon="2.50143">
        <ele>445</ele>
        <time>2015-04-05T14:13:48Z</time>
      </trkpt>
      <trkpt lat="46.17127" lon="2.50146">
        <ele>445</ele>
        <time>2015-04-05T14:13:50Z</time>
      </trkpt>
      <trkpt lat="46.17126" lon="2.50148">
        <ele>445</ele>
        <time>2015-04-05T14:13:52Z</time>
      </trkpt>
      <trkpt lat="46.17126" lon="2.5015">
        <ele>445</ele>
        <time>2015-04-05T14:13:54Z</time>
      </trkpt>
      <trkpt lat="46.17125" lon="2.50153">
        <ele>445</ele>
        <time>2015-04-05T14:13:56Z</time>
      </trkpt>
      <trkpt lat="46.17125" lon="2.50155">
        <ele>445</ele>
        <time>2015-04-05T14:13:58Z</time>
      </trkpt>
      <trkpt lat="46.17124" lon="2.50157">
        <ele>445</ele>
        <time>2015-04-05T14:14:00Z</time>
      </trkpt>
      <trkpt lat="46.17123" lon="2.50159">
        <ele>445</ele>
        <time>2015-04-05T14:14:02Z</time>
      </trkpt>
      <trkpt lat="46.17123" lon="2.50162">
        <ele>445</ele>
        <time>2015-04-05T14:14:04Z</time>
      </trkpt>
      <trkpt lat="46.17122" lon="2.50164">
        <ele>445</ele>
        <time>2015-04-05T14:14:06Z</time>
      </trkpt>
      <trkpt lat="46.17121" lon="2.50167">
        <ele>445</ele>
        <time>2015-04-05T14:14:08Z</time>
      </trkpt>
      <trkpt lat="46.1712" lon="2.50169">
        <ele>445</ele>
        <time>2015-04-05T14:14:10Z</time>
      </trkpt>
      <trkpt lat="46.17119" lon="2.50171">
        <ele>445</ele>
        <time>2015-04-05T14:14:12Z</time>
      </trkpt>
      <trkpt lat="46.17118" lon="2.50173">
        <ele>445</ele>
        <time>2015-04-05T14:14:14Z</time>
      </trkpt>
      <trkpt lat="46.17117" lon="2.50176">
        <ele>445</ele>
        <time>2015-04-05T14:14:16Z</time>
      </trkpt>
      <trkpt lat="46.17116" lon="2.50178">
        <ele>445</ele>
        <time>2015-04-05T14:14:18Z</time>
      </trkpt>
      <trkpt lat="46.17115" lon="2.50181">
        <ele>445</ele>
        <time>2015-04-05T14:14:20Z</time>
      </trkpt>
      <trkpt lat="46.17114" lon="2.50183">
        <ele>445</ele>
        <time>2015-04-05T14:14:22Z</time>
      </trkpt>
      <trkpt lat="46.17113" lon="2.50185">
        <ele>445</ele>
        <time>2015-04-05T14:14:24Z</time>
      </trkpt>
      <trkpt lat="46.17112" lon="2.50187">
        <ele>445</ele>
        <time>2015-04-05T14:14:26Z</time>
      </trkpt>
      <trkpt lat="46.17111" lon="2.50189">
        <ele>445</ele>
        <time>2015-04-05T14:14:28Z</time>
      </trkpt>
      <trkpt lat="46.1711" lon="2.50192">
        <ele>445</ele>
        <time>2015-04-05T14:14:30Z</time>
      </trkpt>
      <trkpt lat="46.17109" lon="2.50194">
        <ele>445</ele>
        <time>2015-04-05T14:14:32Z</time>
      </trkpt>
      <trkpt lat="46.17109" lon="2.50196">
        <ele>445</ele>
        <time>2015-04-05T14:14:34Z</time>
      </trkpt>
      <trkpt lat="46.17108" lon="2.50198">
        <ele>445</ele>
        <time>2015-04-05T14:14:36Z</time>
      </trkpt>
      <trkpt lat="46.17107" lon="2.50201">
        <ele>445</ele>
        <time>2015-04-05T14:14:38Z</time>
      </trkpt>
      <trkpt lat="46.17106" lon="2.50203">
        <ele>445</ele>
        <time>2015-04-05T14:14:40Z</time>
      </trkpt>
      <trkpt lat="46.17105" lon="2.50205">
        <ele>445</ele>
        <time>2015-04-05T14:14:42Z</time>
      </trkpt>
      <trkpt lat="46.17104" lon="2.50207">
        <ele>445</ele>
        <time>2015-04-05T14:14:44Z</time>
      </trkpt>
      <trkpt lat="46.17103" lon="2.50209">
        <ele>445</ele>
        <time>2015-04-05T14:14:46Z</time>
      </trkpt>
      <trkpt lat="46.17102" lon="2.50212">
        <ele>445</ele>
        <time>2015-04-05T14:14:48Z</time>
      </trkpt>
      <trkpt lat="46.17102" lon="2.50214">
        <ele>445</ele>
        <time>2015-04-05T14:14:50Z</time>
      </trkpt>
      <trkpt lat="46.17101" lon="2.50216">
        <ele>445</ele>
        <time>2015-04-05T14:14:52Z</time>
      </trkpt>
      <trkpt lat="46.17099" lon="2.50218">
        <ele>445</ele>
        <time>2015-04-05T14:14:54Z</time>
      </trkpt>
      <trkpt lat="46.17099" lon="2.5022">
        <ele>445</ele>
        <time>2015-04-05T14:14:56Z</time>
      </trkpt>
      <trkpt lat="46.17098" lon="2.50222">
        <ele>445</ele>
        <time>2015-04-05T14:14:58Z</time>
      </trkpt>
      <trkpt lat="46.17097" lon="2.50225">
        <ele>445</ele>
        <time>2015-04-05T14:15:00Z</time>
      </trkpt>
      <trkpt lat="46.17096" lon="2.50227">
        <ele>445</ele>
        <time>2015-04-05T14:15:02Z</time>
      </trkpt>
      <trkpt lat="46.17095" lon="2.50229">
        <ele>445</ele>
        <time>2015-04-05T14:15:04Z</time>
      </trkpt>
      <trkpt lat="46.17094" lon="2.50231">
        <ele>445</ele>
        <time>2015-04-05T14:15:06Z</time>
      </trkpt>
      <trkpt lat="46.17094" lon="2.50233">
        <ele>445</ele>
        <time>2015-04-05T14:15:08Z</time>
      </trkpt>
      <trkpt lat="46.17093" lon="2.50235">
        <ele>445</ele>
        <time>2015-04-05T14:15:10Z</time>
      </trkpt>
      <trkpt lat="46.17092" lon="2.50237">
        <ele>445</ele>
        <time>2015-04-05T14:15:12Z</time>
      </trkpt>
      <trkpt lat="46.17091" lon="2.50239">
        <ele>445</ele>
        <time>2015-04-05T14:15:14Z</time>
      </trkpt>
      <trkpt lat="46.1709" lon="2.50241">
        <ele>445</ele>
        <time>2015-04-05T14:15:16Z</time>
      </trkpt>
      <trkpt lat="46.17089" lon="2.50245">
        <ele>445</ele>
        <time>2015-04-05T14:15:19Z</time>
      </trkpt>
      <trkpt lat="46.17088" lon="2.50248">
        <ele>445</ele>
        <time>2015-04-05T14:15:21Z</time>
      </trkpt>
      <trkpt lat="46.17087" lon="2.5025">
        <ele>445</ele>
        <time>2015-04-05T14:15:23Z</time>
      </trkpt>
      <trkpt lat="46.17086" lon="2.50253">
        <ele>445</ele>
        <time>2015-04-05T14:15:25Z</time>
      </trkpt>
      <trkpt lat="46.17085" lon="2.50255">
        <ele>445</ele>
        <time>2015-04-05T14:15:27Z</time>
      </trkpt>
      <trkpt lat="46.17084" lon="2.50257">
        <ele>446</ele>
        <time>2015-04-05T14:15:29Z</time>
      </trkpt>
      <trkpt lat="46.17083" lon="2.50259">
        <ele>446</ele>
        <time>2015-04-05T14:15:31Z</time>
      </trkpt>
      <trkpt lat="46.17083" lon="2.50262">
        <ele>446</ele>
        <time>2015-04-05T14:15:33Z</time>
      </trkpt>
      <trkpt lat="46.17082" lon="2.50264">
        <ele>446</ele>
        <time>2015-04-05T14:15:35Z</time>
      </trkpt>
      <trkpt lat="46.17081" lon="2.50266">
        <ele>446</ele>
        <time>2015-04-05T14:15:37Z</time>
      </trkpt>
      <trkpt lat="46.1708" lon="2.50268">
        <ele>446</ele>
        <time>2015-04-05T14:15:39Z</time>
      </trkpt>
      <trkpt lat="46.17079" lon="2.5027">
        <ele>446</ele>
        <time>2015-04-05T14:15:41Z</time>
      </trkpt>
      <trkpt lat="46.17078" lon="2.50272">
        <ele>446</ele>
        <time>2015-04-05T14:15:43Z</time>
      </trkpt>
      <trkpt lat="46.17077" lon="2.50274">
        <ele>446</ele>
        <time>2015-04-05T14:15:45Z</time>
      </trkpt>
      <trkpt lat="46.17076" lon="2.50276">
        <ele>446</ele>
        <time>2015-04-05T14:15:47Z</time>
      </trkpt>
      <trkpt lat="46.17075" lon="2.50279">
        <ele>446</ele>
        <time>2015-04-05T14:15:49Z</time>
      </trkpt>
      <trkpt lat="46.17074" lon="2.50281">
        <ele>446</ele>
        <time>2015-04-05T14:15:51Z</time>
      </trkpt>
      <trkpt lat="46.17073" lon="2.50283">
        <ele>446</ele>
        <time>2015-04-05T14:15:53Z</time>
      </trkpt>
      <trkpt lat="46.17072" lon="2.50285">
        <ele>447</ele>
        <time>2015-04-05T14:15:55Z</time>
      </trkpt>
      <trkpt lat="46.17072" lon="2.50287">
        <ele>447</ele>
        <time>2015-04-05T14:15:57Z</time>
      </trkpt>
      <trkpt lat="46.17071" lon="2.50289">
        <ele>447</ele>
        <time>2015-04-05T14:15:59Z</time>
      </trkpt>
      <trkpt lat="46.1707" lon="2.50291">
        <ele>447</ele>
        <time>2015-04-05T14:16:01Z</time>
      </trkpt>
      <trkpt lat="46.17069" lon="2.50294">
        <ele>447</ele>
        <time>2015-04-05T14:16:03Z</time>
      </trkpt>
      <trkpt lat="46.17068" lon="2.50296">
        <ele>447</ele>
        <time>2015-04-05T14:16:05Z</time>
      </trkpt>
      <trkpt lat="46.17067" lon="2.50298">
        <ele>447</ele>
        <time>2015-04-05T14:16:07Z</time>
      </trkpt>
      <trkpt lat="46.17067" lon="2.503">
        <ele>447</ele>
        <time>2015-04-05T14:16:09Z</time>
      </trkpt>
      <trkpt lat="46.17066" lon="2.50302">
        <ele>447</ele>
        <time>2015-04-05T14:16:11Z</time>
      </trkpt>
      <trkpt lat="46.17065" lon="2.50304">
        <ele>447</ele>
        <time>2015-04-05T14:16:13Z</time>
      </trkpt>
      <trkpt lat="46.17064" lon="2.50306">
        <ele>447</ele>
        <time>2015-04-05T14:16:15Z</time>
      </trkpt>
      <trkpt lat="46.17063" lon="2.50308">
        <ele>447</ele>
        <time>2015-04-05T14:16:17Z</time>
      </trkpt>
      <trkpt lat="46.17062" lon="2.50311">
        <ele>447</ele>
        <time>2015-04-05T14:16:19Z</time>
      </trkpt>
      <trkpt lat="46.17061" lon="2.50313">
        <ele>447</ele>
        <time>2015-04-05T14:16:21Z</time>
      </trkpt>
      <trkpt lat="46.1706" lon="2.50315">
        <ele>447</ele>
        <time>2015-04-05T14:16:23Z</time>
      </trkpt>
      <trkpt lat="46.17059" lon="2.50318">
        <ele>447</ele>
        <time>2015-04-05T14:16:25Z</time>
      </trkpt>
      <trkpt lat="46.17059" lon="2.5032">
        <ele>448</ele>
        <time>2015-04-05T14:16:27Z</time>
      </trkpt>
      <trkpt lat="46.17058" lon="2.50322">
        <ele>448</ele>
        <time>2015-04-05T14:16:29Z</time>
      </trkpt>
      <trkpt lat="46.17057" lon="2.50325">
        <ele>448</ele>
        <time>2015-04-05T14:16:31Z</time>
      </trkpt>
      <trkpt lat="46.17056" lon="2.50327">
        <ele>448</ele>
        <time>2015-04-05T14:16:33Z</time>
      </trkpt>
      <trkpt lat="46.17055" lon="2.50329">
        <ele>448</ele>
        <time>2015-04-05T14:16:35Z</time>
      </trkpt>
      <trkpt lat="46.17054" lon="2.50331">
        <ele>448</ele>
        <time>2015-04-05T14:16:37Z</time>
      </trkpt>
      <trkpt lat="46.17053" lon="2.50333">
        <ele>448</ele>
        <time>2015-04-05T14:16:39Z</time>
      </trkpt>
      <trkpt lat="46.17052" lon="2.50336">
        <ele>448</ele>
        <time>2015-04-05T14:16:41Z</time>
      </trkpt>
      <trkpt lat="46.17051" lon="2.50338">
        <ele>448</ele>
        <time>2015-04-05T14:16:43Z</time>
      </trkpt>
      <trkpt lat="46.1705" lon="2.5034">
        <ele>448</ele>
        <time>2015-04-05T14:16:45Z</time>
      </trkpt>
      <trkpt lat="46.17049" lon="2.50342">
        <ele>448</ele>
        <time>2015-04-05T14:16:47Z</time>
      </trkpt>
      <trkpt lat="46.17048" lon="2.50345">
        <ele>448</ele>
        <time>2015-04-05T14:16:49Z</time>
      </trkpt>
      <trkpt lat="46.17048" lon="2.50347">
        <ele>448</ele>
        <time>2015-04-05T14:16:51Z</time>
      </trkpt>
      <trkpt lat="46.17046" lon="2.50349">
        <ele>448</ele>
        <time>2015-04-05T14:16:53Z</time>
      </trkpt>
      <trkpt lat="46.17046" lon="2.50352">
        <ele>448</ele>
        <time>2015-04-05T14:16:55Z</time>
      </trkpt>
      <trkpt lat="46.17045" lon="2.50354">
        <ele>449</ele>
        <time>2015-04-05T14:16:57Z</time>
      </trkpt>
      <trkpt lat="46.17044" lon="2.50356">
        <ele>449</ele>
        <time>2015-04-05T14:16:59Z</time>
      </trkpt>
      <trkpt lat="46.17043" lon="2.50358">
        <ele>449</ele>
        <time>2015-04-05T14:17:01Z</time>
      </trkpt>
      <trkpt lat="46.17042" lon="2.5036">
        <ele>449</ele>
        <time>2015-04-05T14:17:03Z</time>
      </trkpt>
      <trkpt lat="46.17041" lon="2.50363">
        <ele>449</ele>
        <time>2015-04-05T14:17:05Z</time>
      </trkpt>
      <trkpt lat="46.17041" lon="2.50365">
        <ele>449</ele>
        <time>2015-04-05T14:17:07Z</time>
      </trkpt>
      <trkpt lat="46.1704" lon="2.50367">
        <ele>449</ele>
        <time>2015-04-05T14:17:09Z</time>
      </trkpt>
      <trkpt lat="46.17039" lon="2.50369">
        <ele>449</ele>
        <time>2015-04-05T14:17:11Z</time>
      </trkpt>
      <trkpt lat="46.17038" lon="2.50372">
        <ele>449</ele>
        <time>2015-04-05T14:17:13Z</time>
      </trkpt>
      <trkpt lat="46.17037" lon="2.50374">
        <ele>449</ele>
        <time>2015-04-05T14:17:15Z</time>
      </trkpt>
      <trkpt lat="46.17036" lon="2.50376">
        <ele>449</ele>
        <time>2015-04-05T14:17:17Z</time>
      </trkpt>
      <trkpt lat="46.17035" lon="2.50378">
        <ele>449</ele>
        <time>2015-04-05T14:17:19Z</time>
      </trkpt>
      <trkpt lat="46.17035" lon="2.5038">
        <ele>449</ele>
        <time>2015-04-05T14:17:21Z</time>
      </trkpt>
      <trkpt lat="46.17033" lon="2.50382">
        <ele>449</ele>
        <time>2015-04-05T14:17:23Z</time>
      </trkpt>
      <trkpt lat="46.17033" lon="2.50385">
        <ele>449</ele>
        <time>2015-04-05T14:17:25Z</time>
      </trkpt>
      <trkpt lat="46.17032" lon="2.50386">
        <ele>449</ele>
        <time>2015-04-05T14:17:27Z</time>
      </trkpt>
      <trkpt lat="46.17031" lon="2.50388">
        <ele>449</ele>
        <time>2015-04-05T14:17:29Z</time>
      </trkpt>
      <trkpt lat="46.17031" lon="2.5039">
        <ele>449</ele>
        <time>2015-04-05T14:17:32Z</time>
      </trkpt>
      <trkpt lat="46.1703" lon="2.50392">
        <ele>449</ele>
        <time>2015-04-05T14:17:36Z</time>
      </trkpt>
      <trkpt lat="46.17029" lon="2.50393">
        <ele>449</ele>
        <time>2015-04-05T14:17:38Z</time>
      </trkpt>
      <trkpt lat="46.17028" lon="2.50395">
        <ele>449</ele>
        <time>2015-04-05T14:17:40Z</time>
      </trkpt>
      <trkpt lat="46.17028" lon="2.50397">
        <ele>449</ele>
        <time>2015-04-05T14:17:43Z</time>
      </trkpt>
      <trkpt lat="46.17027" lon="2.50398">
        <ele>449</ele>
        <time>2015-04-05T14:17:45Z</time>
      </trkpt>
      <trkpt lat="46.17026" lon="2.504">
        <ele>449</ele>
        <time>2015-04-05T14:17:47Z</time>
      </trkpt>
      <trkpt lat="46.17025" lon="2.50402">
        <ele>449</ele>
        <time>2015-04-05T14:17:49Z</time>
      </trkpt>
      <trkpt lat="46.17024" lon="2.50404">
        <ele>449</ele>
        <time>2015-04-05T14:17:51Z</time>
      </trkpt>
      <trkpt lat="46.17023" lon="2.50406">
        <ele>449</ele>
        <time>2015-04-05T14:17:53Z</time>
      </trkpt>
      <trkpt lat="46.17022" lon="2.50408">
        <ele>449</ele>
        <time>2015-04-05T14:17:55Z</time>
      </trkpt>
      <trkpt lat="46.17022" lon="2.5041">
        <ele>449</ele>
        <time>2015-04-05T14:17:57Z</time>
      </trkpt>
      <trkpt lat="46.17021" lon="2.50411">
        <ele>449</ele>
        <time>2015-04-05T14:17:59Z</time>
      </trkpt>
      <trkpt lat="46.1702" lon="2.50413">
        <ele>449</ele>
        <time>2015-04-05T14:18:01Z</time>
      </trkpt>
      <trkpt lat="46.17019" lon="2.50416">
        <ele>449</ele>
        <time>2015-04-05T14:18:03Z</time>
      </trkpt>
      <trkpt lat="46.17018" lon="2.50418">
        <ele>450</ele>
        <time>2015-04-05T14:18:05Z</time>
      </trkpt>
      <trkpt lat="46.17017" lon="2.5042">
        <ele>450</ele>
        <time>2015-04-05T14:18:07Z</time>
      </trkpt>
      <trkpt lat="46.17016" lon="2.50422">
        <ele>450</ele>
        <time>2015-04-05T14:18:09Z</time>
      </trkpt>
      <trkpt lat="46.17015" lon="2.50424">
        <ele>450</ele>
        <time>2015-04-05T14:18:11Z</time>
      </trkpt>
      <trkpt lat="46.17014" lon="2.50427">
        <ele>450</ele>
        <time>2015-04-05T14:18:13Z</time>
      </trkpt>
      <trkpt lat="46.17013" lon="2.50429">
        <ele>450</ele>
        <time>2015-04-05T14:18:15Z</time>
      </trkpt>
      <trkpt lat="46.17012" lon="2.50431">
        <ele>450</ele>
        <time>2015-04-05T14:18:17Z</time>
      </trkpt>
      <trkpt lat="46.17011" lon="2.50433">
        <ele>450</ele>
        <time>2015-04-05T14:18:19Z</time>
      </trkpt>
      <trkpt lat="46.1701" lon="2.50435">
        <ele>450</ele>
        <time>2015-04-05T14:18:21Z</time>
      </trkpt>
      <trkpt lat="46.1701" lon="2.50437">
        <ele>450</ele>
        <time>2015-04-05T14:18:23Z</time>
      </trkpt>
      <trkpt lat="46.17009" lon="2.5044">
        <ele>450</ele>
        <time>2015-04-05T14:18:25Z</time>
      </trkpt>
      <trkpt lat="46.17009" lon="2.50442">
        <ele>450</ele>
        <time>2015-04-05T14:18:27Z</time>
      </trkpt>
      <trkpt lat="46.17008" lon="2.50445">
        <ele>450</ele>
        <time>2015-04-05T14:18:29Z</time>
      </trkpt>
      <trkpt lat="46.17007" lon="2.50447">
        <ele>450</ele>
        <time>2015-04-05T14:18:31Z</time>
      </trkpt>
      <trkpt lat="46.17006" lon="2.50449">
        <ele>450</ele>
        <time>2015-04-05T14:18:33Z</time>
      </trkpt>
      <trkpt lat="46.17006" lon="2.50451">
        <ele>450</ele>
        <time>2015-04-05T14:18:35Z</time>
      </trkpt>
      <trkpt lat="46.17005" lon="2.50453">
        <ele>450</ele>
        <time>2015-04-05T14:18:37Z</time>
      </trkpt>
      <trkpt lat="46.17004" lon="2.50455">
        <ele>450</ele>
        <time>2015-04-05T14:18:39Z</time>
      </trkpt>
      <trkpt lat="46.17003" lon="2.50457">
        <ele>450</ele>
        <time>2015-04-05T14:18:41Z</time>
      </trkpt>
      <trkpt lat="46.17002" lon="2.5046">
        <ele>450</ele>
        <time>2015-04-05T14:18:43Z</time>
      </trkpt>
      <trkpt lat="46.17002" lon="2.50462">
        <ele>450</ele>
        <time>2015-04-05T14:18:45Z</time>
      </trkpt>
      <trkpt lat="46.17001" lon="2.50464">
        <ele>450</ele>
        <time>2015-04-05T14:18:47Z</time>
      </trkpt>
      <trkpt lat="46.17" lon="2.50466">
        <ele>450</ele>
        <time>2015-04-05T14:18:49Z</time>
      </trkpt>
      <trkpt lat="46.16999" lon="2.50468">
        <ele>450</ele>
        <time>2015-04-05T14:18:51Z</time>
      </trkpt>
      <trkpt lat="46.16999" lon="2.5047">
        <ele>450</ele>
        <time>2015-04-05T14:18:53Z</time>
      </trkpt>
      <trkpt lat="46.16998" lon="2.50472">
        <ele>451</ele>
        <time>2015-04-05T14:18:55Z</time>
      </trkpt>
      <trkpt lat="46.16997" lon="2.50474">
        <ele>451</ele>
        <time>2015-04-05T14:18:57Z</time>
      </trkpt>
      <trkpt lat="46.16996" lon="2.50476">
        <ele>451</ele>
        <time>2015-04-05T14:18:59Z</time>
      </trkpt>
      <trkpt lat="46.16996" lon="2.50478">
        <ele>451</ele>
        <time>2015-04-05T14:19:01Z</time>
      </trkpt>
      <trkpt lat="46.16995" lon="2.5048">
        <ele>451</ele>
        <time>2015-04-05T14:19:03Z</time>
      </trkpt>
      <trkpt lat="46.16994" lon="2.50482">
        <ele>451</ele>
        <time>2015-04-05T14:19:05Z</time>
      </trkpt>
      <trkpt lat="46.16993" lon="2.50484">
        <ele>451</ele>
        <time>2015-04-05T14:19:07Z</time>
      </trkpt>
      <trkpt lat="46.16993" lon="2.50486">
        <ele>451</ele>
        <time>2015-04-05T14:19:09Z</time>
      </trkpt>
      <trkpt lat="46.16992" lon="2.50488">
        <ele>451</ele>
        <time>2015-04-05T14:19:11Z</time>
      </trkpt>
      <trkpt lat="46.16991" lon="2.5049">
        <ele>451</ele>
        <time>2015-04-05T14:19:13Z</time>
      </trkpt>
      <trkpt lat="46.16991" lon="2.50492">
        <ele>451</ele>
        <time>2015-04-05T14:19:15Z</time>
      </trkpt>
      <trkpt lat="46.1699" lon="2.50494">
        <ele>451</ele>
        <time>2015-04-05T14:19:17Z</time>
      </trkpt>
      <trkpt lat="46.16989" lon="2.50496">
        <ele>451</ele>
        <time>2015-04-05T14:19:19Z</time>
      </trkpt>
      <trkpt lat="46.16989" lon="2.50498">
        <ele>451</ele>
        <time>2015-04-05T14:19:21Z</time>
      </trkpt>
      <trkpt lat="46.16988" lon="2.505">
        <ele>452</ele>
        <time>2015-04-05T14:19:23Z</time>
      </trkpt>
      <trkpt lat="46.16987" lon="2.50502">
        <ele>452</ele>
        <time>2015-04-05T14:19:25Z</time>
      </trkpt>
      <trkpt lat="46.16986" lon="2.50504">
        <ele>452</ele>
        <time>2015-04-05T14:19:27Z</time>
      </trkpt>
      <trkpt lat="46.16985" lon="2.50507">
        <ele>452</ele>
        <time>2015-04-05T14:19:29Z</time>
      </trkpt>
      <trkpt lat="46.16985" lon="2.50509">
        <ele>452</ele>
        <time>2015-04-05T14:19:31Z</time>
      </trkpt>
      <trkpt lat="46.16984" lon="2.50511">
        <ele>452</ele>
        <time>2015-04-05T14:19:33Z</time>
      </trkpt>
      <trkpt lat="46.16983" lon="2.50514">
        <ele>453</ele>
        <time>2015-04-05T14:19:35Z</time>
      </trkpt>
      <trkpt lat="46.16983" lon="2.50516">
        <ele>453</ele>
        <time>2015-04-05T14:19:37Z</time>
      </trkpt>
      <trkpt lat="46.16982" lon="2.50518">
        <ele>453</ele>
        <time>2015-04-05T14:19:39Z</time>
      </trkpt>
      <trkpt lat="46.16981" lon="2.5052">
        <ele>453</ele>
        <time>2015-04-05T14:19:50Z</time>
      </trkpt>
      <trkpt lat="46.1698" lon="2.50522">
        <ele>453</ele>
        <time>2015-04-05T14:19:52Z</time>
      </trkpt>
      <trkpt lat="46.16979" lon="2.50524">
        <ele>453</ele>
        <time>2015-04-05T14:19:54Z</time>
      </trkpt>
      <trkpt lat="46.16979" lon="2.50527">
        <ele>453</ele>
        <time>2015-04-05T14:19:56Z</time>
      </trkpt>
      <trkpt lat="46.16979" lon="2.50529">
        <ele>453</ele>
        <time>2015-04-05T14:19:58Z</time>
      </trkpt>
      <trkpt lat="46.16978" lon="2.50532">
        <ele>453</ele>
        <time>2015-04-05T14:20:00Z</time>
      </trkpt>
      <trkpt lat="46.16977" lon="2.50534">
        <ele>453</ele>
        <time>2015-04-05T14:20:02Z</time>
      </trkpt>
      <trkpt lat="46.16977" lon="2.50536">
        <ele>453</ele>
        <time>2015-04-05T14:20:04Z</time>
      </trkpt>
      <trkpt lat="46.16976" lon="2.50538">
        <ele>453</ele>
        <time>2015-04-05T14:20:06Z</time>
      </trkpt>
      <trkpt lat="46.16975" lon="2.5054">
        <ele>453</ele>
        <time>2015-04-05T14:20:08Z</time>
      </trkpt>
      <trkpt lat="46.16975" lon="2.50543">
        <ele>454</ele>
        <time>2015-04-05T14:20:10Z</time>
      </trkpt>
      <trkpt lat="46.16974" lon="2.50545">
        <ele>454</ele>
        <time>2015-04-05T14:20:12Z</time>
      </trkpt>
      <trkpt lat="46.16974" lon="2.50547">
        <ele>454</ele>
        <time>2015-04-05T14:20:14Z</time>
      </trkpt>
      <trkpt lat="46.16973" lon="2.50549">
        <ele>454</ele>
        <time>2015-04-05T14:20:16Z</time>
      </trkpt>
      <trkpt lat="46.16972" lon="2.50551">
        <ele>454</ele>
        <time>2015-04-05T14:20:18Z</time>
      </trkpt>
      <trkpt lat="46.16972" lon="2.50553">
        <ele>454</ele>
        <time>2015-04-05T14:20:20Z</time>
      </trkpt>
      <trkpt lat="46.16971" lon="2.50555">
        <ele>454</ele>
        <time>2015-04-05T14:20:22Z</time>
      </trkpt>
      <trkpt lat="46.16971" lon="2.50558">
        <ele>454</ele>
        <time>2015-04-05T14:20:24Z</time>
      </trkpt>
      <trkpt lat="46.1697" lon="2.5056">
        <ele>454</ele>
        <time>2015-04-05T14:20:26Z</time>
      </trkpt>
      <trkpt lat="46.1697" lon="2.50562">
        <ele>454</ele>
        <time>2015-04-05T14:20:28Z</time>
      </trkpt>
      <trkpt lat="46.16969" lon="2.50563">
        <ele>454</ele>
        <time>2015-04-05T14:20:38Z</time>
      </trkpt>
      <trkpt lat="46.16969" lon="2.50565">
        <ele>454</ele>
        <time>2015-04-05T14:20:40Z</time>
      </trkpt>
      <trkpt lat="46.16969" lon="2.50567">
        <ele>454</ele>
        <time>2015-04-05T14:20:42Z</time>
      </trkpt>
      <trkpt lat="46.16968" lon="2.50569">
        <ele>454</ele>
        <time>2015-04-05T14:20:44Z</time>
      </trkpt>
      <trkpt lat="46.16967" lon="2.50571">
        <ele>454</ele>
        <time>2015-04-05T14:20:46Z</time>
      </trkpt>
      <trkpt lat="46.16967" lon="2.50574">
        <ele>454</ele>
        <time>2015-04-05T14:20:48Z</time>
      </trkpt>
      <trkpt lat="46.16967" lon="2.50576">
        <ele>454</ele>
        <time>2015-04-05T14:20:50Z</time>
      </trkpt>
      <trkpt lat="46.16966" lon="2.50578">
        <ele>454</ele>
        <time>2015-04-05T14:21:03Z</time>
      </trkpt>
      <trkpt lat="46.16965" lon="2.5058">
        <ele>454</ele>
        <time>2015-04-05T14:21:10Z</time>
      </trkpt>
      <trkpt lat="46.16965" lon="2.50582">
        <ele>454</ele>
        <time>2015-04-05T14:21:12Z</time>
      </trkpt>
      <trkpt lat="46.16965" lon="2.50584">
        <ele>454</ele>
        <time>2015-04-05T14:21:14Z</time>
      </trkpt>
      <trkpt lat="46.16964" lon="2.50586">
        <ele>454</ele>
        <time>2015-04-05T14:21:16Z</time>
      </trkpt>
      <trkpt lat="46.16964" lon="2.50589">
        <ele>454</ele>
        <time>2015-04-05T14:21:18Z</time>
      </trkpt>
      <trkpt lat="46.16964" lon="2.50592">
        <ele>454</ele>
        <time>2015-04-05T14:21:20Z</time>
      </trkpt>
      <trkpt lat="46.16964" lon="2.50594">
        <ele>454</ele>
        <time>2015-04-05T14:21:22Z</time>
      </trkpt>
      <trkpt lat="46.16963" lon="2.50596">
        <ele>454</ele>
        <time>2015-04-05T14:21:24Z</time>
      </trkpt>
      <trkpt lat="46.16962" lon="2.50601">
        <ele>454</ele>
        <time>2015-04-05T14:21:27Z</time>
      </trkpt>
      <trkpt lat="46.16962" lon="2.50603">
        <ele>454</ele>
        <time>2015-04-05T14:21:29Z</time>
      </trkpt>
      <trkpt lat="46.16961" lon="2.50606">
        <ele>454</ele>
        <time>2015-04-05T14:21:31Z</time>
      </trkpt>
      <trkpt lat="46.16961" lon="2.50608">
        <ele>454</ele>
        <time>2015-04-05T14:21:33Z</time>
      </trkpt>
      <trkpt lat="46.1696" lon="2.50611">
        <ele>454</ele>
        <time>2015-04-05T14:21:35Z</time>
      </trkpt>
      <trkpt lat="46.1696" lon="2.50613">
        <ele>454</ele>
        <time>2015-04-05T14:21:37Z</time>
      </trkpt>
      <trkpt lat="46.16959" lon="2.50616">
        <ele>454</ele>
        <time>2015-04-05T14:21:39Z</time>
      </trkpt>
      <trkpt lat="46.16959" lon="2.50619">
        <ele>454</ele>
        <time>2015-04-05T14:21:41Z</time>
      </trkpt>
      <trkpt lat="46.16959" lon="2.50621">
        <ele>454</ele>
        <time>2015-04-05T14:21:43Z</time>
      </trkpt>
      <trkpt lat="46.16958" lon="2.50625">
        <ele>454</ele>
        <time>2015-04-05T14:21:46Z</time>
      </trkpt>
      <trkpt lat="46.16957" lon="2.50628">
        <ele>454</ele>
        <time>2015-04-05T14:21:48Z</time>
      </trkpt>
      <trkpt lat="46.16957" lon="2.50632">
        <ele>454</ele>
        <time>2015-04-05T14:21:51Z</time>
      </trkpt>
      <trkpt lat="46.16956" lon="2.50635">
        <ele>454</ele>
        <time>2015-04-05T14:21:53Z</time>
      </trkpt>
      <trkpt lat="46.16956" lon="2.50637">
        <ele>454</ele>
        <time>2015-04-05T14:21:55Z</time>
      </trkpt>
      <trkpt lat="46.16955" lon="2.5064">
        <ele>454</ele>
        <time>2015-04-05T14:21:57Z</time>
      </trkpt>
      <trkpt lat="46.16954" lon="2.50642">
        <ele>454</ele>
        <time>2015-04-05T14:21:59Z</time>
      </trkpt>
      <trkpt lat="46.16954" lon="2.50645">
        <ele>454</ele>
        <time>2015-04-05T14:22:01Z</time>
      </trkpt>
      <trkpt lat="46.16954" lon="2.50647">
        <ele>454</ele>
        <time>2015-04-05T14:22:03Z</time>
      </trkpt>
      <trkpt lat="46.16953" lon="2.5065">
        <ele>454</ele>
        <time>2015-04-05T14:22:05Z</time>
      </trkpt>
      <trkpt lat="46.16953" lon="2.50653">
        <ele>454</ele>
        <time>2015-04-05T14:22:07Z</time>
      </trkpt>
      <trkpt lat="46.16952" lon="2.50655">
        <ele>454</ele>
        <time>2015-04-05T14:22:09Z</time>
      </trkpt>
      <trkpt lat="46.16951" lon="2.50658">
        <ele>454</ele>
        <time>2015-04-05T14:22:11Z</time>
      </trkpt>
      <trkpt lat="46.16951" lon="2.5066">
        <ele>454</ele>
        <time>2015-04-05T14:22:13Z</time>
      </trkpt>
      <trkpt lat="46.1695" lon="2.50662">
        <ele>454</ele>
        <time>2015-04-05T14:22:15Z</time>
      </trkpt>
      <trkpt lat="46.1695" lon="2.50664">
        <ele>454</ele>
        <time>2015-04-05T14:22:17Z</time>
      </trkpt>
      <trkpt lat="46.16949" lon="2.50667">
        <ele>454</ele>
        <time>2015-04-05T14:22:19Z</time>
      </trkpt>
      <trkpt lat="46.16948" lon="2.50671">
        <ele>454</ele>
        <time>2015-04-05T14:22:22Z</time>
      </trkpt>
      <trkpt lat="46.16948" lon="2.50674">
        <ele>454</ele>
        <time>2015-04-05T14:22:24Z</time>
      </trkpt>
      <trkpt lat="46.16947" lon="2.50676">
        <ele>454</ele>
        <time>2015-04-05T14:22:26Z</time>
      </trkpt>
      <trkpt lat="46.16946" lon="2.50679">
        <ele>454</ele>
        <time>2015-04-05T14:22:28Z</time>
      </trkpt>
      <trkpt lat="46.16946" lon="2.50681">
        <ele>454</ele>
        <time>2015-04-05T14:22:30Z</time>
      </trkpt>
      <trkpt lat="46.16945" lon="2.50684">
        <ele>454</ele>
        <time>2015-04-05T14:22:32Z</time>
      </trkpt>
      <trkpt lat="46.16945" lon="2.50686">
        <ele>454</ele>
        <time>2015-04-05T14:22:34Z</time>
      </trkpt>
      <trkpt lat="46.16944" lon="2.50689">
        <ele>454</ele>
        <time>2015-04-05T14:22:36Z</time>
      </trkpt>
      <trkpt lat="46.16943" lon="2.50691">
        <ele>454</ele>
        <time>2015-04-05T14:22:38Z</time>
      </trkpt>
      <trkpt lat="46.16942" lon="2.50693">
        <ele>454</ele>
        <time>2015-04-05T14:22:40Z</time>
      </trkpt>
      <trkpt lat="46.16941" lon="2.50696">
        <ele>454</ele>
        <time>2015-04-05T14:22:42Z</time>
      </trkpt>
      <trkpt lat="46.16941" lon="2.50698">
        <ele>454</ele>
        <time>2015-04-05T14:22:44Z</time>
      </trkpt>
      <trkpt lat="46.1694" lon="2.50701">
        <ele>454</ele>
        <time>2015-04-05T14:22:46Z</time>
      </trkpt>
      <trkpt lat="46.16939" lon="2.50703">
        <ele>454</ele>
        <time>2015-04-05T14:22:48Z</time>
      </trkpt>
      <trkpt lat="46.16938" lon="2.50706">
        <ele>454</ele>
        <time>2015-04-05T14:22:50Z</time>
      </trkpt>
      <trkpt lat="46.16938" lon="2.50708">
        <ele>454</ele>
        <time>2015-04-05T14:22:52Z</time>
      </trkpt>
      <trkpt lat="46.16937" lon="2.50711">
        <ele>454</ele>
        <time>2015-04-05T14:22:54Z</time>
      </trkpt>
      <trkpt lat="46.16936" lon="2.50713">
        <ele>454</ele>
        <time>2015-04-05T14:22:56Z</time>
      </trkpt>
      <trkpt lat="46.16936" lon="2.50715">
        <ele>454</ele>
        <time>2015-04-05T14:22:58Z</time>
      </trkpt>
      <trkpt lat="46.16935" lon="2.50718">
        <ele>454</ele>
        <time>2015-04-05T14:23:00Z</time>
      </trkpt>
      <trkpt lat="46.16934" lon="2.5072">
        <ele>454</ele>
        <time>2015-04-05T14:23:02Z</time>
      </trkpt>
      <trkpt lat="46.16933" lon="2.50722">
        <ele>454</ele>
        <time>2015-04-05T14:23:04Z</time>
      </trkpt>
      <trkpt lat="46.16932" lon="2.50725">
        <ele>454</ele>
        <time>2015-04-05T14:23:06Z</time>
      </trkpt>
      <trkpt lat="46.16931" lon="2.50727">
        <ele>454</ele>
        <time>2015-04-05T14:23:08Z</time>
      </trkpt>
      <trkpt lat="46.1693" lon="2.50729">
        <ele>454</ele>
        <time>2015-04-05T14:23:10Z</time>
      </trkpt>
      <trkpt lat="46.16929" lon="2.50731">
        <ele>454</ele>
        <time>2015-04-05T14:23:12Z</time>
      </trkpt>
      <trkpt lat="46.16928" lon="2.50733">
        <ele>454</ele>
        <time>2015-04-05T14:23:14Z</time>
      </trkpt>
      <trkpt lat="46.16928" lon="2.50736">
        <ele>454</ele>
        <time>2015-04-05T14:23:16Z</time>
      </trkpt>
      <trkpt lat="46.16927" lon="2.50738">
        <ele>454</ele>
        <time>2015-04-05T14:23:18Z</time>
      </trkpt>
      <trkpt lat="46.16926" lon="2.5074">
        <ele>454</ele>
        <time>2015-04-05T14:23:20Z</time>
      </trkpt>
      <trkpt lat="46.16925" lon="2.50743">
        <ele>454</ele>
        <time>2015-04-05T14:23:22Z</time>
      </trkpt>
      <trkpt lat="46.16925" lon="2.50745">
        <ele>454</ele>
        <time>2015-04-05T14:23:24Z</time>
      </trkpt>
      <trkpt lat="46.16924" lon="2.50747">
        <ele>454</ele>
        <time>2015-04-05T14:23:26Z</time>
      </trkpt>
      <trkpt lat="46.16923" lon="2.50749">
        <ele>454</ele>
        <time>2015-04-05T14:23:28Z</time>
      </trkpt>
      <trkpt lat="46.16922" lon="2.50751">
        <ele>454</ele>
        <time>2015-04-05T14:23:30Z</time>
      </trkpt>
      <trkpt lat="46.16922" lon="2.50753">
        <ele>454</ele>
        <time>2015-04-05T14:23:32Z</time>
      </trkpt>
      <trkpt lat="46.1692" lon="2.50756">
        <ele>454</ele>
        <time>2015-04-05T14:23:34Z</time>
      </trkpt>
      <trkpt lat="46.16919" lon="2.50758">
        <ele>454</ele>
        <time>2015-04-05T14:23:36Z</time>
      </trkpt>
      <trkpt lat="46.16919" lon="2.5076">
        <ele>454</ele>
        <time>2015-04-05T14:23:38Z</time>
      </trkpt>
      <trkpt lat="46.16918" lon="2.50762">
        <ele>454</ele>
        <time>2015-04-05T14:23:40Z</time>
      </trkpt>
      <trkpt lat="46.16917" lon="2.50764">
        <ele>454</ele>
        <time>2015-04-05T14:23:42Z</time>
      </trkpt>
      <trkpt lat="46.16916" lon="2.50767">
        <ele>454</ele>
        <time>2015-04-05T14:23:44Z</time>
      </trkpt>
      <trkpt lat="46.16915" lon="2.50769">
        <ele>454</ele>
        <time>2015-04-05T14:23:46Z</time>
      </trkpt>
      <trkpt lat="46.16914" lon="2.50771">
        <ele>454</ele>
        <time>2015-04-05T14:23:48Z</time>
      </trkpt>
      <trkpt lat="46.16913" lon="2.50773">
        <ele>454</ele>
        <time>2015-04-05T14:23:50Z</time>
      </trkpt>
      <trkpt lat="46.16912" lon="2.50775">
        <ele>454</ele>
        <time>2015-04-05T14:23:52Z</time>
      </trkpt>
      <trkpt lat="46.16911" lon="2.50778">
        <ele>454</ele>
        <time>2015-04-05T14:23:54Z</time>
      </trkpt>
      <trkpt lat="46.1691" lon="2.5078">
        <ele>454</ele>
        <time>2015-04-05T14:23:56Z</time>
      </trkpt>
      <trkpt lat="46.16909" lon="2.50782">
        <ele>454</ele>
        <time>2015-04-05T14:23:58Z</time>
      </trkpt>
      <trkpt lat="46.16908" lon="2.50784">
        <ele>454</ele>
        <time>2015-04-05T14:24:00Z</time>
      </trkpt>
      <trkpt lat="46.16907" lon="2.50787">
        <ele>454</ele>
        <time>2015-04-05T14:24:02Z</time>
      </trkpt>
      <trkpt lat="46.16906" lon="2.50789">
        <ele>454</ele>
        <time>2015-04-05T14:24:04Z</time>
      </trkpt>
      <trkpt lat="46.16905" lon="2.50791">
        <ele>454</ele>
        <time>2015-04-05T14:24:06Z</time>
      </trkpt>
      <trkpt lat="46.16904" lon="2.50794">
        <ele>454</ele>
        <time>2015-04-05T14:24:08Z</time>
      </trkpt>
      <trkpt lat="46.16903" lon="2.50796">
        <ele>454</ele>
        <time>2015-04-05T14:24:10Z</time>
      </trkpt>
      <trkpt lat="46.16902" lon="2.50798">
        <ele>454</ele>
        <time>2015-04-05T14:24:12Z</time>
      </trkpt>
      <trkpt lat="46.16901" lon="2.508">
        <ele>454</ele>
        <time>2015-04-05T14:24:14Z</time>
      </trkpt>
      <trkpt lat="46.169" lon="2.50803">
        <ele>454</ele>
        <time>2015-04-05T14:24:16Z</time>
      </trkpt>
      <trkpt lat="46.16899" lon="2.50805">
        <ele>454</ele>
        <time>2015-04-05T14:24:18Z</time>
      </trkpt>
      <trkpt lat="46.16898" lon="2.50807">
        <ele>454</ele>
        <time>2015-04-05T14:24:20Z</time>
      </trkpt>
      <trkpt lat="46.16898" lon="2.5081">
        <ele>454</ele>
        <time>2015-04-05T14:24:22Z</time>
      </trkpt>
      <trkpt lat="46.16897" lon="2.50812">
        <ele>454</ele>
        <time>2015-04-05T14:24:24Z</time>
      </trkpt>
      <trkpt lat="46.16896" lon="2.50814">
        <ele>454</ele>
        <time>2015-04-05T14:24:26Z</time>
      </trkpt>
      <trkpt lat="46.16895" lon="2.50816">
        <ele>454</ele>
        <time>2015-04-05T14:24:28Z</time>
      </trkpt>
      <trkpt lat="46.16894" lon="2.50818">
        <ele>454</ele>
        <time>2015-04-05T14:24:30Z</time>
      </trkpt>
      <trkpt lat="46.16893" lon="2.5082">
        <ele>454</ele>
        <time>2015-04-05T14:24:32Z</time>
      </trkpt>
      <trkpt lat="46.16892" lon="2.50823">
        <ele>454</ele>
        <time>2015-04-05T14:24:34Z</time>
      </trkpt>
      <trkpt lat="46.16891" lon="2.50825">
        <ele>454</ele>
        <time>2015-04-05T14:24:36Z</time>
      </trkpt>
      <trkpt lat="46.1689" lon="2.50827">
        <ele>454</ele>
        <time>2015-04-05T14:24:38Z</time>
      </trkpt>
      <trkpt lat="46.16889" lon="2.50829">
        <ele>454</ele>
        <time>2015-04-05T14:24:40Z</time>
      </trkpt>
      <trkpt lat="46.16888" lon="2.50831">
        <ele>454</ele>
        <time>2015-04-05T14:24:42Z</time>
      </trkpt>
      <trkpt lat="46.16887" lon="2.50834">
        <ele>454</ele>
        <time>2015-04-05T14:24:44Z</time>
      </trkpt>
      <trkpt lat="46.16886" lon="2.50836">
        <ele>454</ele>
        <time>2015-04-05T14:24:46Z</time>
      </trkpt>
      <trkpt lat="46.16885" lon="2.50838">
        <ele>454</ele>
        <time>2015-04-05T14:24:48Z</time>
      </trkpt>
      <trkpt lat="46.16885" lon="2.5084">
        <ele>454</ele>
        <time>2015-04-05T14:24:50Z</time>
      </trkpt>
      <trkpt lat="46.16883" lon="2.50842">
        <ele>454</ele>
        <time>2015-04-05T14:24:52Z</time>
      </trkpt>
      <trkpt lat="46.16882" lon="2.50844">
        <ele>454</ele>
        <time>2015-04-05T14:24:54Z</time>
      </trkpt>
      <trkpt lat="46.16881" lon="2.50847">
        <ele>454</ele>
        <time>2015-04-05T14:24:56Z</time>
      </trkpt>
      <trkpt lat="46.1688" lon="2.50849">
        <ele>454</ele>
        <time>2015-04-05T14:24:58Z</time>
      </trkpt>
      <trkpt lat="46.16879" lon="2.50851">
        <ele>454</ele>
        <time>2015-04-05T14:25:00Z</time>
      </trkpt>
      <trkpt lat="46.16879" lon="2.50853">
        <ele>454</ele>
        <time>2015-04-05T14:25:02Z</time>
      </trkpt>
      <trkpt lat="46.16878" lon="2.50855">
        <ele>454</ele>
        <time>2015-04-05T14:25:04Z</time>
      </trkpt>
      <trkpt lat="46.16877" lon="2.50858">
        <ele>454</ele>
        <time>2015-04-05T14:25:06Z</time>
      </trkpt>
      <trkpt lat="46.16876" lon="2.5086">
        <ele>454</ele>
        <time>2015-04-05T14:25:08Z</time>
      </trkpt>
      <trkpt lat="46.16875" lon="2.50862">
        <ele>454</ele>
        <time>2015-04-05T14:25:10Z</time>
      </trkpt>
      <trkpt lat="46.16874" lon="2.50864">
        <ele>454</ele>
        <time>2015-04-05T14:25:12Z</time>
      </trkpt>
      <trkpt lat="46.16873" lon="2.50867">
        <ele>454</ele>
        <time>2015-04-05T14:25:14Z</time>
      </trkpt>
      <trkpt lat="46.16872" lon="2.50869">
        <ele>454</ele>
        <time>2015-04-05T14:25:16Z</time>
      </trkpt>
      <trkpt lat="46.16872" lon="2.50871">
        <ele>454</ele>
        <time>2015-04-05T14:25:18Z</time>
      </trkpt>
      <trkpt lat="46.16871" lon="2.50874">
        <ele>454</ele>
        <time>2015-04-05T14:25:20Z</time>
      </trkpt>
      <trkpt lat="46.1687" lon="2.50876">
        <ele>453</ele>
        <time>2015-04-05T14:25:22Z</time>
      </trkpt>
      <trkpt lat="46.16869" lon="2.50878">
        <ele>453</ele>
        <time>2015-04-05T14:25:24Z</time>
      </trkpt>
      <trkpt lat="46.16868" lon="2.5088">
        <ele>453</ele>
        <time>2015-04-05T14:25:26Z</time>
      </trkpt>
      <trkpt lat="46.16867" lon="2.50883">
        <ele>453</ele>
        <time>2015-04-05T14:25:28Z</time>
      </trkpt>
      <trkpt lat="46.16866" lon="2.50885">
        <ele>453</ele>
        <time>2015-04-05T14:25:30Z</time>
      </trkpt>
      <trkpt lat="46.16865" lon="2.50887">
        <ele>453</ele>
        <time>2015-04-05T14:25:32Z</time>
      </trkpt>
      <trkpt lat="46.16864" lon="2.50889">
        <ele>453</ele>
        <time>2015-04-05T14:25:34Z</time>
      </trkpt>
      <trkpt lat="46.16864" lon="2.50891">
        <ele>453</ele>
        <time>2015-04-05T14:25:36Z</time>
      </trkpt>
      <trkpt lat="46.16863" lon="2.50893">
        <ele>452</ele>
        <time>2015-04-05T14:25:38Z</time>
      </trkpt>
      <trkpt lat="46.16862" lon="2.50895">
        <ele>452</ele>
        <time>2015-04-05T14:25:40Z</time>
      </trkpt>
      <trkpt lat="46.16862" lon="2.50897">
        <ele>452</ele>
        <time>2015-04-05T14:25:42Z</time>
      </trkpt>
      <trkpt lat="46.16861" lon="2.509">
        <ele>452</ele>
        <time>2015-04-05T14:25:44Z</time>
      </trkpt>
      <trkpt lat="46.1686" lon="2.50902">
        <ele>452</ele>
        <time>2015-04-05T14:25:46Z</time>
      </trkpt>
      <trkpt lat="46.16859" lon="2.50904">
        <ele>452</ele>
        <time>2015-04-05T14:25:48Z</time>
      </trkpt>
      <trkpt lat="46.16859" lon="2.50906">
        <ele>452</ele>
        <time>2015-04-05T14:25:50Z</time>
      </trkpt>
      <trkpt lat="46.16858" lon="2.50908">
        <ele>452</ele>
        <time>2015-04-05T14:25:52Z</time>
      </trkpt>
      <trkpt lat="46.16857" lon="2.5091">
        <ele>452</ele>
        <time>2015-04-05T14:25:54Z</time>
      </trkpt>
      <trkpt lat="46.16856" lon="2.50912">
        <ele>452</ele>
        <time>2015-04-05T14:25:56Z</time>
      </trkpt>
      <trkpt lat="46.16856" lon="2.50915">
        <ele>452</ele>
        <time>2015-04-05T14:25:58Z</time>
      </trkpt>
      <trkpt lat="46.16854" lon="2.50917">
        <ele>452</ele>
        <time>2015-04-05T14:26:00Z</time>
      </trkpt>
      <trkpt lat="46.16854" lon="2.5092">
        <ele>452</ele>
        <time>2015-04-05T14:26:02Z</time>
      </trkpt>
      <trkpt lat="46.16853" lon="2.50922">
        <ele>452</ele>
        <time>2015-04-05T14:26:04Z</time>
      </trkpt>
      <trkpt lat="46.16852" lon="2.50925">
        <ele>452</ele>
        <time>2015-04-05T14:26:06Z</time>
      </trkpt>
      <trkpt lat="46.16851" lon="2.50927">
        <ele>452</ele>
        <time>2015-04-05T14:26:08Z</time>
      </trkpt>
      <trkpt lat="46.1685" lon="2.50929">
        <ele>452</ele>
        <time>2015-04-05T14:26:10Z</time>
      </trkpt>
      <trkpt lat="46.16849" lon="2.50931">
        <ele>452</ele>
        <time>2015-04-05T14:26:12Z</time>
      </trkpt>
      <trkpt lat="46.16849" lon="2.50932">
        <ele>452</ele>
        <time>2015-04-05T14:26:15Z</time>
      </trkpt>
      <trkpt lat="46.16848" lon="2.50935">
        <ele>452</ele>
        <time>2015-04-05T14:26:24Z</time>
      </trkpt>
      <trkpt lat="46.16847" lon="2.50937">
        <ele>452</ele>
        <time>2015-04-05T14:26:26Z</time>
      </trkpt>
      <trkpt lat="46.16846" lon="2.50939">
        <ele>451</ele>
        <time>2015-04-05T14:26:28Z</time>
      </trkpt>
      <trkpt lat="46.16845" lon="2.50942">
        <ele>451</ele>
        <time>2015-04-05T14:26:30Z</time>
      </trkpt>
      <trkpt lat="46.16845" lon="2.50944">
        <ele>451</ele>
        <time>2015-04-05T14:26:32Z</time>
      </trkpt>
      <trkpt lat="46.16844" lon="2.50947">
        <ele>451</ele>
        <time>2015-04-05T14:26:34Z</time>
      </trkpt>
      <trkpt lat="46.16843" lon="2.50949">
        <ele>450</ele>
        <time>2015-04-05T14:26:36Z</time>
      </trkpt>
      <trkpt lat="46.16843" lon="2.50951">
        <ele>450</ele>
        <time>2015-04-05T14:26:38Z</time>
      </trkpt>
      <trkpt lat="46.16842" lon="2.50954">
        <ele>450</ele>
        <time>2015-04-05T14:26:40Z</time>
      </trkpt>
      <trkpt lat="46.16841" lon="2.50956">
        <ele>450</ele>
        <time>2015-04-05T14:26:42Z</time>
      </trkpt>
      <trkpt lat="46.1684" lon="2.50958">
        <ele>449</ele>
        <time>2015-04-05T14:26:44Z</time>
      </trkpt>
      <trkpt lat="46.16839" lon="2.50961">
        <ele>449</ele>
        <time>2015-04-05T14:26:46Z</time>
      </trkpt>
      <trkpt lat="46.16838" lon="2.50963">
        <ele>449</ele>
        <time>2015-04-05T14:26:48Z</time>
      </trkpt>
      <trkpt lat="46.16837" lon="2.50965">
        <ele>449</ele>
        <time>2015-04-05T14:26:50Z</time>
      </trkpt>
      <trkpt lat="46.16837" lon="2.50968">
        <ele>449</ele>
        <time>2015-04-05T14:26:52Z</time>
      </trkpt>
      <trkpt lat="46.16836" lon="2.5097">
        <ele>449</ele>
        <time>2015-04-05T14:26:54Z</time>
      </trkpt>
      <trkpt lat="46.16835" lon="2.50973">
        <ele>449</ele>
        <time>2015-04-05T14:26:56Z</time>
      </trkpt>
      <trkpt lat="46.16834" lon="2.50975">
        <ele>449</ele>
        <time>2015-04-05T14:26:58Z</time>
      </trkpt>
      <trkpt lat="46.16833" lon="2.50978">
        <ele>449</ele>
        <time>2015-04-05T14:27:00Z</time>
      </trkpt>
      <trkpt lat="46.16832" lon="2.5098">
        <ele>448</ele>
        <time>2015-04-05T14:27:02Z</time>
      </trkpt>
      <trkpt lat="46.16832" lon="2.50983">
        <ele>448</ele>
        <time>2015-04-05T14:27:04Z</time>
      </trkpt>
      <trkpt lat="46.16831" lon="2.50985">
        <ele>448</ele>
        <time>2015-04-05T14:27:06Z</time>
      </trkpt>
      <trkpt lat="46.1683" lon="2.50988">
        <ele>448</ele>
        <time>2015-04-05T14:27:08Z</time>
      </trkpt>
      <trkpt lat="46.16829" lon="2.5099">
        <ele>448</ele>
        <time>2015-04-05T14:27:10Z</time>
      </trkpt>
      <trkpt lat="46.16828" lon="2.50993">
        <ele>448</ele>
        <time>2015-04-05T14:27:12Z</time>
      </trkpt>
      <trkpt lat="46.16827" lon="2.50995">
        <ele>448</ele>
        <time>2015-04-05T14:27:14Z</time>
      </trkpt>
      <trkpt lat="46.16827" lon="2.50998">
        <ele>448</ele>
        <time>2015-04-05T14:27:16Z</time>
      </trkpt>
      <trkpt lat="46.16825" lon="2.51001">
        <ele>448</ele>
        <time>2015-04-05T14:27:18Z</time>
      </trkpt>
      <trkpt lat="46.16825" lon="2.51003">
        <ele>448</ele>
        <time>2015-04-05T14:27:20Z</time>
      </trkpt>
      <trkpt lat="46.16824" lon="2.51006">
        <ele>448</ele>
        <time>2015-04-05T14:27:22Z</time>
      </trkpt>
      <trkpt lat="46.16823" lon="2.51008">
        <ele>448</ele>
        <time>2015-04-05T14:27:24Z</time>
      </trkpt>
      <trkpt lat="46.16822" lon="2.51011">
        <ele>448</ele>
        <time>2015-04-05T14:27:26Z</time>
      </trkpt>
      <trkpt lat="46.16822" lon="2.51013">
        <ele>447</ele>
        <time>2015-04-05T14:27:28Z</time>
      </trkpt>
      <trkpt lat="46.16821" lon="2.51015">
        <ele>447</ele>
        <time>2015-04-05T14:27:30Z</time>
      </trkpt>
      <trkpt lat="46.1682" lon="2.51018">
        <ele>447</ele>
        <time>2015-04-05T14:27:32Z</time>
      </trkpt>
      <trkpt lat="46.16819" lon="2.5102">
        <ele>447</ele>
        <time>2015-04-05T14:27:34Z</time>
      </trkpt>
      <trkpt lat="46.16818" lon="2.51022">
        <ele>447</ele>
        <time>2015-04-05T14:27:36Z</time>
      </trkpt>
      <trkpt lat="46.16817" lon="2.51025">
        <ele>447</ele>
        <time>2015-04-05T14:27:38Z</time>
      </trkpt>
      <trkpt lat="46.16816" lon="2.51027">
        <ele>447</ele>
        <time>2015-04-05T14:27:40Z</time>
      </trkpt>
      <trkpt lat="46.16816" lon="2.51029">
        <ele>447</ele>
        <time>2015-04-05T14:27:42Z</time>
      </trkpt>
      <trkpt lat="46.16815" lon="2.51031">
        <ele>447</ele>
        <time>2015-04-05T14:27:44Z</time>
      </trkpt>
      <trkpt lat="46.16814" lon="2.51034">
        <ele>446</ele>
        <time>2015-04-05T14:27:46Z</time>
      </trkpt>
      <trkpt lat="46.16813" lon="2.51036">
        <ele>446</ele>
        <time>2015-04-05T14:27:48Z</time>
      </trkpt>
      <trkpt lat="46.16811" lon="2.51038">
        <ele>446</ele>
        <time>2015-04-05T14:27:50Z</time>
      </trkpt>
      <trkpt lat="46.1681" lon="2.5104">
        <ele>446</ele>
        <time>2015-04-05T14:27:52Z</time>
      </trkpt>
      <trkpt lat="46.16809" lon="2.51042">
        <ele>446</ele>
        <time>2015-04-05T14:27:54Z</time>
      </trkpt>
      <trkpt lat="46.16808" lon="2.51044">
        <ele>446</ele>
        <time>2015-04-05T14:27:56Z</time>
      </trkpt>
      <trkpt lat="46.16806" lon="2.51046">
        <ele>446</ele>
        <time>2015-04-05T14:27:58Z</time>
      </trkpt>
      <trkpt lat="46.16805" lon="2.51048">
        <ele>446</ele>
        <time>2015-04-05T14:28:00Z</time>
      </trkpt>
      <trkpt lat="46.16804" lon="2.5105">
        <ele>446</ele>
        <time>2015-04-05T14:28:02Z</time>
      </trkpt>
      <trkpt lat="46.16803" lon="2.51052">
        <ele>445</ele>
        <time>2015-04-05T14:28:04Z</time>
      </trkpt>
      <trkpt lat="46.16801" lon="2.51054">
        <ele>445</ele>
        <time>2015-04-05T14:28:06Z</time>
      </trkpt>
      <trkpt lat="46.168" lon="2.51056">
        <ele>445</ele>
        <time>2015-04-05T14:28:08Z</time>
      </trkpt>
      <trkpt lat="46.16799" lon="2.51058">
        <ele>445</ele>
        <time>2015-04-05T14:28:10Z</time>
      </trkpt>
      <trkpt lat="46.16798" lon="2.5106">
        <ele>445</ele>
        <time>2015-04-05T14:28:12Z</time>
      </trkpt>
      <trkpt lat="46.16796" lon="2.51062">
        <ele>445</ele>
        <time>2015-04-05T14:28:14Z</time>
      </trkpt>
      <trkpt lat="46.16795" lon="2.51064">
        <ele>445</ele>
        <time>2015-04-05T14:28:16Z</time>
      </trkpt>
      <trkpt lat="46.16793" lon="2.51066">
        <ele>445</ele>
        <time>2015-04-05T14:28:18Z</time>
      </trkpt>
      <trkpt lat="46.16792" lon="2.51068">
        <ele>445</ele>
        <time>2015-04-05T14:28:20Z</time>
      </trkpt>
      <trkpt lat="46.1679" lon="2.5107">
        <ele>445</ele>
        <time>2015-04-05T14:28:22Z</time>
      </trkpt>
      <trkpt lat="46.16789" lon="2.51072">
        <ele>445</ele>
        <time>2015-04-05T14:28:24Z</time>
      </trkpt>
      <trkpt lat="46.16787" lon="2.51074">
        <ele>445</ele>
        <time>2015-04-05T14:28:26Z</time>
      </trkpt>
      <trkpt lat="46.16786" lon="2.51075">
        <ele>445</ele>
        <time>2015-04-05T14:28:28Z</time>
      </trkpt>
      <trkpt lat="46.16785" lon="2.51077">
        <ele>445</ele>
        <time>2015-04-05T14:28:30Z</time>
      </trkpt>
      <trkpt lat="46.16783" lon="2.5108">
        <ele>445</ele>
        <time>2015-04-05T14:28:32Z</time>
      </trkpt>
      <trkpt lat="46.16782" lon="2.51081">
        <ele>445</ele>
        <time>2015-04-05T14:28:34Z</time>
      </trkpt>
      <trkpt lat="46.16781" lon="2.51083">
        <ele>445</ele>
        <time>2015-04-05T14:28:36Z</time>
      </trkpt>
      <trkpt lat="46.1678" lon="2.51085">
        <ele>445</ele>
        <time>2015-04-05T14:28:38Z</time>
      </trkpt>
      <trkpt lat="46.16778" lon="2.51087">
        <ele>445</ele>
        <time>2015-04-05T14:28:40Z</time>
      </trkpt>
      <trkpt lat="46.16777" lon="2.51089">
        <ele>445</ele>
        <time>2015-04-05T14:28:42Z</time>
      </trkpt>
      <trkpt lat="46.16776" lon="2.51091">
        <ele>445</ele>
        <time>2015-04-05T14:28:44Z</time>
      </trkpt>
      <trkpt lat="46.16775" lon="2.51093">
        <ele>445</ele>
        <time>2015-04-05T14:28:46Z</time>
      </trkpt>
      <trkpt lat="46.16774" lon="2.51095">
        <ele>445</ele>
        <time>2015-04-05T14:28:48Z</time>
      </trkpt>
      <trkpt lat="46.16772" lon="2.51096">
        <ele>445</ele>
        <time>2015-04-05T14:28:50Z</time>
      </trkpt>
      <trkpt lat="46.16771" lon="2.51098">
        <ele>445</ele>
        <time>2015-04-05T14:28:52Z</time>
      </trkpt>
      <trkpt lat="46.16769" lon="2.511">
        <ele>445</ele>
        <time>2015-04-05T14:28:54Z</time>
      </trkpt>
      <trkpt lat="46.16768" lon="2.51102">
        <ele>445</ele>
        <time>2015-04-05T14:28:56Z</time>
      </trkpt>
      <trkpt lat="46.16767" lon="2.51104">
        <ele>445</ele>
        <time>2015-04-05T14:28:58Z</time>
      </trkpt>
      <trkpt lat="46.16765" lon="2.51106">
        <ele>445</ele>
        <time>2015-04-05T14:29:00Z</time>
      </trkpt>
      <trkpt lat="46.16764" lon="2.51108">
        <ele>445</ele>
        <time>2015-04-05T14:29:02Z</time>
      </trkpt>
      <trkpt lat="46.16763" lon="2.5111">
        <ele>445</ele>
        <time>2015-04-05T14:29:04Z</time>
      </trkpt>
      <trkpt lat="46.16761" lon="2.51112">
        <ele>445</ele>
        <time>2015-04-05T14:29:06Z</time>
      </trkpt>
      <trkpt lat="46.1676" lon="2.51114">
        <ele>445</ele>
        <time>2015-04-05T14:29:08Z</time>
      </trkpt>
      <trkpt lat="46.16758" lon="2.51115">
        <ele>445</ele>
        <time>2015-04-05T14:29:10Z</time>
      </trkpt>
      <trkpt lat="46.16757" lon="2.51117">
        <ele>445</ele>
        <time>2015-04-05T14:29:12Z</time>
      </trkpt>
      <trkpt lat="46.16756" lon="2.51119">
        <ele>445</ele>
        <time>2015-04-05T14:29:14Z</time>
      </trkpt>
      <trkpt lat="46.16754" lon="2.51121">
        <ele>445</ele>
        <time>2015-04-05T14:29:16Z</time>
      </trkpt>
      <trkpt lat="46.16753" lon="2.51123">
        <ele>445</ele>
        <time>2015-04-05T14:29:18Z</time>
      </trkpt>
      <trkpt lat="46.16751" lon="2.51125">
        <ele>444</ele>
        <time>2015-04-05T14:29:20Z</time>
      </trkpt>
      <trkpt lat="46.1675" lon="2.51127">
        <ele>444</ele>
        <time>2015-04-05T14:29:22Z</time>
      </trkpt>
      <trkpt lat="46.16749" lon="2.51128">
        <ele>444</ele>
        <time>2015-04-05T14:29:24Z</time>
      </trkpt>
      <trkpt lat="46.16748" lon="2.5113">
        <ele>444</ele>
        <time>2015-04-05T14:29:26Z</time>
      </trkpt>
      <trkpt lat="46.16746" lon="2.51132">
        <ele>444</ele>
        <time>2015-04-05T14:29:28Z</time>
      </trkpt>
      <trkpt lat="46.16745" lon="2.51133">
        <ele>444</ele>
        <time>2015-04-05T14:29:30Z</time>
      </trkpt>
      <trkpt lat="46.16743" lon="2.51135">
        <ele>444</ele>
        <time>2015-04-05T14:29:32Z</time>
      </trkpt>
      <trkpt lat="46.16742" lon="2.51136">
        <ele>444</ele>
        <time>2015-04-05T14:29:34Z</time>
      </trkpt>
      <trkpt lat="46.1674" lon="2.51138">
        <ele>444</ele>
        <time>2015-04-05T14:29:36Z</time>
      </trkpt>
      <trkpt lat="46.16739" lon="2.5114">
        <ele>444</ele>
        <time>2015-04-05T14:29:38Z</time>
      </trkpt>
      <trkpt lat="46.16738" lon="2.51142">
        <ele>444</ele>
        <time>2015-04-05T14:29:40Z</time>
      </trkpt>
      <trkpt lat="46.16736" lon="2.51143">
        <ele>444</ele>
        <time>2015-04-05T14:29:42Z</time>
      </trkpt>
      <trkpt lat="46.16734" lon="2.51145">
        <ele>444</ele>
        <time>2015-04-05T14:29:44Z</time>
      </trkpt>
      <trkpt lat="46.16733" lon="2.51147">
        <ele>444</ele>
        <time>2015-04-05T14:29:46Z</time>
      </trkpt>
      <trkpt lat="46.16732" lon="2.51149">
        <ele>444</ele>
        <time>2015-04-05T14:29:48Z</time>
      </trkpt>
      <trkpt lat="46.1673" lon="2.51151">
        <ele>444</ele>
        <time>2015-04-05T14:29:50Z</time>
      </trkpt>
      <trkpt lat="46.16729" lon="2.51153">
        <ele>444</ele>
        <time>2015-04-05T14:29:52Z</time>
      </trkpt>
      <trkpt lat="46.16728" lon="2.51154">
        <ele>444</ele>
        <time>2015-04-05T14:29:54Z</time>
      </trkpt>
      <trkpt lat="46.16727" lon="2.51156">
        <ele>444</ele>
        <time>2015-04-05T14:29:56Z</time>
      </trkpt>
      <trkpt lat="46.16726" lon="2.51158">
        <ele>444</ele>
        <time>2015-04-05T14:29:58Z</time>
      </trkpt>
      <trkpt lat="46.16724" lon="2.5116">
        <ele>444</ele>
        <time>2015-04-05T14:30:00Z</time>
      </trkpt>
      <trkpt lat="46.16723" lon="2.51162">
        <ele>444</ele>
        <time>2015-04-05T14:30:02Z</time>
      </trkpt>
      <trkpt lat="46.16722" lon="2.51164">
        <ele>444</ele>
        <time>2015-04-05T14:30:04Z</time>
      </trkpt>
      <trkpt lat="46.16721" lon="2.51165">
        <ele>444</ele>
        <time>2015-04-05T14:30:06Z</time>
      </trkpt>
      <trkpt lat="46.16719" lon="2.51167">
        <ele>444</ele>
        <time>2015-04-05T14:30:08Z</time>
      </trkpt>
      <trkpt lat="46.16718" lon="2.51169">
        <ele>443</ele>
        <time>2015-04-05T14:30:10Z</time>
      </trkpt>
      <trkpt lat="46.16717" lon="2.51171">
        <ele>443</ele>
        <time>2015-04-05T14:30:12Z</time>
      </trkpt>
      <trkpt lat="46.16715" lon="2.51173">
        <ele>443</ele>
        <time>2015-04-05T14:30:14Z</time>
      </trkpt>
      <trkpt lat="46.16714" lon="2.51175">
        <ele>443</ele>
        <time>2015-04-05T14:30:16Z</time>
      </trkpt>
      <trkpt lat="46.16713" lon="2.51177">
        <ele>443</ele>
        <time>2015-04-05T14:30:18Z</time>
      </trkpt>
      <trkpt lat="46.16711" lon="2.51179">
        <ele>443</ele>
        <time>2015-04-05T14:30:20Z</time>
      </trkpt>
      <trkpt lat="46.1671" lon="2.51181">
        <ele>443</ele>
        <time>2015-04-05T14:30:22Z</time>
      </trkpt>
      <trkpt lat="46.16708" lon="2.51183">
        <ele>443</ele>
        <time>2015-04-05T14:30:24Z</time>
      </trkpt>
      <trkpt lat="46.16707" lon="2.51184">
        <ele>443</ele>
        <time>2015-04-05T14:30:26Z</time>
      </trkpt>
      <trkpt lat="46.16706" lon="2.51186">
        <ele>443</ele>
        <time>2015-04-05T14:30:28Z</time>
      </trkpt>
      <trkpt lat="46.16705" lon="2.51188">
        <ele>443</ele>
        <time>2015-04-05T14:30:30Z</time>
      </trkpt>
      <trkpt lat="46.16703" lon="2.5119">
        <ele>443</ele>
        <time>2015-04-05T14:30:32Z</time>
      </trkpt>
      <trkpt lat="46.16702" lon="2.51192">
        <ele>443</ele>
        <time>2015-04-05T14:30:34Z</time>
      </trkpt>
      <trkpt lat="46.16701" lon="2.51194">
        <ele>443</ele>
        <time>2015-04-05T14:30:36Z</time>
      </trkpt>
      <trkpt lat="46.167" lon="2.51196">
        <ele>443</ele>
        <time>2015-04-05T14:30:38Z</time>
      </trkpt>
      <trkpt lat="46.16698" lon="2.51197">
        <ele>443</ele>
        <time>2015-04-05T14:30:40Z</time>
      </trkpt>
      <trkpt lat="46.16697" lon="2.51199">
        <ele>443</ele>
        <time>2015-04-05T14:30:42Z</time>
      </trkpt>
      <trkpt lat="46.16696" lon="2.512">
        <ele>443</ele>
        <time>2015-04-05T14:30:44Z</time>
      </trkpt>
      <trkpt lat="46.16695" lon="2.51202">
        <ele>443</ele>
        <time>2015-04-05T14:30:46Z</time>
      </trkpt>
      <trkpt lat="46.16694" lon="2.51204">
        <ele>443</ele>
        <time>2015-04-05T14:30:48Z</time>
      </trkpt>
      <trkpt lat="46.16693" lon="2.51206">
        <ele>443</ele>
        <time>2015-04-05T14:30:50Z</time>
      </trkpt>
      <trkpt lat="46.16692" lon="2.51206">
        <ele>443</ele>
        <time>2015-04-05T14:30:55Z</time>
      </trkpt>
      <trkpt lat="46.16691" lon="2.51205">
        <ele>443</ele>
        <time>2015-04-05T14:31:02Z</time>
      </trkpt>
      <trkpt lat="46.1669" lon="2.51206">
        <ele>443</ele>
        <time>2015-04-05T14:31:08Z</time>
      </trkpt>
      <trkpt lat="46.16688" lon="2.51209">
        <ele>443</ele>
        <time>2015-04-05T14:31:11Z</time>
      </trkpt>
      <trkpt lat="46.16687" lon="2.51211">
        <ele>443</ele>
        <time>2015-04-05T14:31:13Z</time>
      </trkpt>
      <trkpt lat="46.16686" lon="2.51212">
        <ele>443</ele>
        <time>2015-04-05T14:31:15Z</time>
      </trkpt>
      <trkpt lat="46.16684" lon="2.51214">
        <ele>443</ele>
        <time>2015-04-05T14:31:17Z</time>
      </trkpt>
      <trkpt lat="46.16684" lon="2.51216">
        <ele>443</ele>
        <time>2015-04-05T14:31:19Z</time>
      </trkpt>
      <trkpt lat="46.16682" lon="2.51218">
        <ele>443</ele>
        <time>2015-04-05T14:31:21Z</time>
      </trkpt>
      <trkpt lat="46.16681" lon="2.51219">
        <ele>443</ele>
        <time>2015-04-05T14:31:23Z</time>
      </trkpt>
      <trkpt lat="46.1668" lon="2.51221">
        <ele>443</ele>
        <time>2015-04-05T14:31:25Z</time>
      </trkpt>
      <trkpt lat="46.16679" lon="2.51223">
        <ele>443</ele>
        <time>2015-04-05T14:31:27Z</time>
      </trkpt>
      <trkpt lat="46.16678" lon="2.51225">
        <ele>443</ele>
        <time>2015-04-05T14:31:29Z</time>
      </trkpt>
      <trkpt lat="46.16676" lon="2.51226">
        <ele>443</ele>
        <time>2015-04-05T14:31:31Z</time>
      </trkpt>
      <trkpt lat="46.16675" lon="2.51227">
        <ele>443</ele>
        <time>2015-04-05T14:31:33Z</time>
      </trkpt>
      <trkpt lat="46.16674" lon="2.51229">
        <ele>443</ele>
        <time>2015-04-05T14:31:35Z</time>
      </trkpt>
      <trkpt lat="46.16673" lon="2.51231">
        <ele>443</ele>
        <time>2015-04-05T14:31:37Z</time>
      </trkpt>
      <trkpt lat="46.16671" lon="2.51232">
        <ele>443</ele>
        <time>2015-04-05T14:31:39Z</time>
      </trkpt>
      <trkpt lat="46.1667" lon="2.51234">
        <ele>443</ele>
        <time>2015-04-05T14:31:41Z</time>
      </trkpt>
      <trkpt lat="46.16669" lon="2.51236">
        <ele>443</ele>
        <time>2015-04-05T14:31:43Z</time>
      </trkpt>
      <trkpt lat="46.16668" lon="2.51238">
        <ele>443</ele>
        <time>2015-04-05T14:31:45Z</time>
      </trkpt>
      <trkpt lat="46.16666" lon="2.51239">
        <ele>443</ele>
        <time>2015-04-05T14:31:47Z</time>
      </trkpt>
      <trkpt lat="46.16665" lon="2.51241">
        <ele>443</ele>
        <time>2015-04-05T14:31:49Z</time>
      </trkpt>
      <trkpt lat="46.16664" lon="2.51243">
        <ele>443</ele>
        <time>2015-04-05T14:31:51Z</time>
      </trkpt>
      <trkpt lat="46.16663" lon="2.51244">
        <ele>443</ele>
        <time>2015-04-05T14:31:53Z</time>
      </trkpt>
      <trkpt lat="46.16661" lon="2.51246">
        <ele>443</ele>
        <time>2015-04-05T14:31:55Z</time>
      </trkpt>
      <trkpt lat="46.1666" lon="2.51248">
        <ele>443</ele>
        <time>2015-04-05T14:31:57Z</time>
      </trkpt>
      <trkpt lat="46.16658" lon="2.5125">
        <ele>443</ele>
        <time>2015-04-05T14:31:59Z</time>
      </trkpt>
      <trkpt lat="46.16657" lon="2.51251">
        <ele>443</ele>
        <time>2015-04-05T14:32:01Z</time>
      </trkpt>
      <trkpt lat="46.16656" lon="2.51252">
        <ele>443</ele>
        <time>2015-04-05T14:32:03Z</time>
      </trkpt>
      <trkpt lat="46.16655" lon="2.51254">
        <ele>443</ele>
        <time>2015-04-05T14:32:05Z</time>
      </trkpt>
      <trkpt lat="46.16653" lon="2.51254">
        <ele>443</ele>
        <time>2015-04-05T14:32:07Z</time>
      </trkpt>
      <trkpt lat="46.16652" lon="2.51254">
        <ele>443</ele>
        <time>2015-04-05T14:32:09Z</time>
      </trkpt>
      <trkpt lat="46.1665" lon="2.51254">
        <ele>443</ele>
        <time>2015-04-05T14:32:11Z</time>
      </trkpt>
      <trkpt lat="46.16649" lon="2.51254">
        <ele>443</ele>
        <time>2015-04-05T14:32:13Z</time>
      </trkpt>
      <trkpt lat="46.16647" lon="2.51252">
        <ele>443</ele>
        <time>2015-04-05T14:32:15Z</time>
      </trkpt>
      <trkpt lat="46.16646" lon="2.51251">
        <ele>443</ele>
        <time>2015-04-05T14:32:17Z</time>
      </trkpt>
      <trkpt lat="46.16644" lon="2.5125">
        <ele>443</ele>
        <time>2015-04-05T14:32:19Z</time>
      </trkpt>
      <trkpt lat="46.16642" lon="2.51249">
        <ele>443</ele>
        <time>2015-04-05T14:32:21Z</time>
      </trkpt>
      <trkpt lat="46.16641" lon="2.51247">
        <ele>443</ele>
        <time>2015-04-05T14:32:23Z</time>
      </trkpt>
      <trkpt lat="46.1664" lon="2.51245">
        <ele>443</ele>
        <time>2015-04-05T14:32:25Z</time>
      </trkpt>
      <trkpt lat="46.16639" lon="2.51243">
        <ele>443</ele>
        <time>2015-04-05T14:32:27Z</time>
      </trkpt>
      <trkpt lat="46.16638" lon="2.51241">
        <ele>443</ele>
        <time>2015-04-05T14:32:29Z</time>
      </trkpt>
      <trkpt lat="46.16637" lon="2.51239">
        <ele>443</ele>
        <time>2015-04-05T14:32:31Z</time>
      </trkpt>
      <trkpt lat="46.16636" lon="2.51237">
        <ele>443</ele>
        <time>2015-04-05T14:32:33Z</time>
      </trkpt>
      <trkpt lat="46.16634" lon="2.51235">
        <ele>443</ele>
        <time>2015-04-05T14:32:35Z</time>
      </trkpt>
      <trkpt lat="46.16633" lon="2.51233">
        <ele>443</ele>
        <time>2015-04-05T14:32:37Z</time>
      </trkpt>
      <trkpt lat="46.16632" lon="2.51231">
        <ele>443</ele>
        <time>2015-04-05T14:32:39Z</time>
      </trkpt>
      <trkpt lat="46.16631" lon="2.51229">
        <ele>443</ele>
        <time>2015-04-05T14:32:41Z</time>
      </trkpt>
      <trkpt lat="46.1663" lon="2.51227">
        <ele>443</ele>
        <time>2015-04-05T14:32:43Z</time>
      </trkpt>
      <trkpt lat="46.16629" lon="2.51225">
        <ele>443</ele>
        <time>2015-04-05T14:32:45Z</time>
      </trkpt>
      <trkpt lat="46.16628" lon="2.51223">
        <ele>443</ele>
        <time>2015-04-05T14:32:48Z</time>
      </trkpt>
      <trkpt lat="46.16627" lon="2.51222">
        <ele>443</ele>
        <time>2015-04-05T14:32:50Z</time>
      </trkpt>
      <trkpt lat="46.16626" lon="2.5122">
        <ele>443</ele>
        <time>2015-04-05T14:32:52Z</time>
      </trkpt>
      <trkpt lat="46.16625" lon="2.51219">
        <ele>443</ele>
        <time>2015-04-05T14:32:55Z</time>
      </trkpt>
      <trkpt lat="46.16624" lon="2.51217">
        <ele>443</ele>
        <time>2015-04-05T14:32:58Z</time>
      </trkpt>
      <trkpt lat="46.16623" lon="2.51215">
        <ele>443</ele>
        <time>2015-04-05T14:33:01Z</time>
      </trkpt>
      <trkpt lat="46.16622" lon="2.51213">
        <ele>443</ele>
        <time>2015-04-05T14:33:03Z</time>
      </trkpt>
      <trkpt lat="46.16621" lon="2.51211">
        <ele>443</ele>
        <time>2015-04-05T14:33:06Z</time>
      </trkpt>
      <trkpt lat="46.16621" lon="2.51209">
        <ele>443</ele>
        <time>2015-04-05T14:33:08Z</time>
      </trkpt>
      <trkpt lat="46.16619" lon="2.51207">
        <ele>443</ele>
        <time>2015-04-05T14:33:11Z</time>
      </trkpt>
      <trkpt lat="46.16618" lon="2.51206">
        <ele>443</ele>
        <time>2015-04-05T14:33:13Z</time>
      </trkpt>
      <trkpt lat="46.16617" lon="2.51204">
        <ele>443</ele>
        <time>2015-04-05T14:33:15Z</time>
      </trkpt>
      <trkpt lat="46.16616" lon="2.51202">
        <ele>443</ele>
        <time>2015-04-05T14:33:17Z</time>
      </trkpt>
      <trkpt lat="46.16615" lon="2.512">
        <ele>443</ele>
        <time>2015-04-05T14:33:19Z</time>
      </trkpt>
      <trkpt lat="46.16614" lon="2.51198">
        <ele>443</ele>
        <time>2015-04-05T14:33:21Z</time>
      </trkpt>
      <trkpt lat="46.16613" lon="2.51195">
        <ele>443</ele>
        <time>2015-04-05T14:33:23Z</time>
      </trkpt>
      <trkpt lat="46.16612" lon="2.51193">
        <ele>443</ele>
        <time>2015-04-05T14:33:25Z</time>
      </trkpt>
      <trkpt lat="46.16611" lon="2.51191">
        <ele>443</ele>
        <time>2015-04-05T14:33:27Z</time>
      </trkpt>
      <trkpt lat="46.1661" lon="2.5119">
        <ele>443</ele>
        <time>2015-04-05T14:33:29Z</time>
      </trkpt>
      <trkpt lat="46.16608" lon="2.51188">
        <ele>443</ele>
        <time>2015-04-05T14:33:31Z</time>
      </trkpt>
      <trkpt lat="46.16607" lon="2.51186">
        <ele>443</ele>
        <time>2015-04-05T14:33:33Z</time>
      </trkpt>
      <trkpt lat="46.16606" lon="2.51184">
        <ele>443</ele>
        <time>2015-04-05T14:33:35Z</time>
      </trkpt>
      <trkpt lat="46.16605" lon="2.51181">
        <ele>443</ele>
        <time>2015-04-05T14:33:37Z</time>
      </trkpt>
      <trkpt lat="46.16604" lon="2.5118">
        <ele>443</ele>
        <time>2015-04-05T14:33:39Z</time>
      </trkpt>
      <trkpt lat="46.16603" lon="2.51178">
        <ele>443</ele>
        <time>2015-04-05T14:33:41Z</time>
      </trkpt>
      <trkpt lat="46.16602" lon="2.51175">
        <ele>443</ele>
        <time>2015-04-05T14:33:43Z</time>
      </trkpt>
      <trkpt lat="46.166" lon="2.51173">
        <ele>443</ele>
        <time>2015-04-05T14:33:45Z</time>
      </trkpt>
      <trkpt lat="46.16599" lon="2.51171">
        <ele>443</ele>
        <time>2015-04-05T14:33:47Z</time>
      </trkpt>
      <trkpt lat="46.16598" lon="2.51169">
        <ele>443</ele>
        <time>2015-04-05T14:33:49Z</time>
      </trkpt>
      <trkpt lat="46.16597" lon="2.51167">
        <ele>443</ele>
        <time>2015-04-05T14:33:51Z</time>
      </trkpt>
      <trkpt lat="46.16596" lon="2.51165">
        <ele>443</ele>
        <time>2015-04-05T14:33:53Z</time>
      </trkpt>
      <trkpt lat="46.16595" lon="2.51163">
        <ele>443</ele>
        <time>2015-04-05T14:33:55Z</time>
      </trkpt>
      <trkpt lat="46.16594" lon="2.51161">
        <ele>443</ele>
        <time>2015-04-05T14:33:57Z</time>
      </trkpt>
      <trkpt lat="46.16593" lon="2.51159">
        <ele>443</ele>
        <time>2015-04-05T14:33:59Z</time>
      </trkpt>
      <trkpt lat="46.16592" lon="2.51157">
        <ele>443</ele>
        <time>2015-04-05T14:34:01Z</time>
      </trkpt>
      <trkpt lat="46.16591" lon="2.51155">
        <ele>443</ele>
        <time>2015-04-05T14:34:03Z</time>
      </trkpt>
      <trkpt lat="46.1659" lon="2.51154">
        <ele>443</ele>
        <time>2015-04-05T14:34:05Z</time>
      </trkpt>
      <trkpt lat="46.16589" lon="2.51151">
        <ele>443</ele>
        <time>2015-04-05T14:34:07Z</time>
      </trkpt>
      <trkpt lat="46.16587" lon="2.5115">
        <ele>443</ele>
        <time>2015-04-05T14:34:09Z</time>
      </trkpt>
      <trkpt lat="46.16586" lon="2.51148">
        <ele>443</ele>
        <time>2015-04-05T14:34:11Z</time>
      </trkpt>
      <trkpt lat="46.16585" lon="2.51146">
        <ele>443</ele>
        <time>2015-04-05T14:34:13Z</time>
      </trkpt>
      <trkpt lat="46.16584" lon="2.51144">
        <ele>443</ele>
        <time>2015-04-05T14:34:15Z</time>
      </trkpt>
      <trkpt lat="46.16583" lon="2.51142">
        <ele>443</ele>
        <time>2015-04-05T14:34:17Z</time>
      </trkpt>
      <trkpt lat="46.16582" lon="2.5114">
        <ele>443</ele>
        <time>2015-04-05T14:34:19Z</time>
      </trkpt>
      <trkpt lat="46.16581" lon="2.51138">
        <ele>443</ele>
        <time>2015-04-05T14:34:21Z</time>
      </trkpt>
      <trkpt lat="46.16579" lon="2.51135">
        <ele>443</ele>
        <time>2015-04-05T14:34:23Z</time>
      </trkpt>
      <trkpt lat="46.16579" lon="2.51134">
        <ele>443</ele>
        <time>2015-04-05T14:34:25Z</time>
      </trkpt>
      <trkpt lat="46.16578" lon="2.51132">
        <ele>443</ele>
        <time>2015-04-05T14:34:27Z</time>
      </trkpt>
      <trkpt lat="46.16577" lon="2.51131">
        <ele>443</ele>
        <time>2015-04-05T14:34:36Z</time>
      </trkpt>
      <trkpt lat="46.16576" lon="2.51129">
        <ele>443</ele>
        <time>2015-04-05T14:34:39Z</time>
      </trkpt>
      <trkpt lat="46.16576" lon="2.51128">
        <ele>443</ele>
        <time>2015-04-05T14:34:41Z</time>
      </trkpt>
      <trkpt lat="46.16574" lon="2.51126">
        <ele>443</ele>
        <time>2015-04-05T14:34:43Z</time>
      </trkpt>
      <trkpt lat="46.16573" lon="2.51124">
        <ele>443</ele>
        <time>2015-04-05T14:34:45Z</time>
      </trkpt>
      <trkpt lat="46.16572" lon="2.51122">
        <ele>443</ele>
        <time>2015-04-05T14:34:47Z</time>
      </trkpt>
      <trkpt lat="46.16571" lon="2.5112">
        <ele>443</ele>
        <time>2015-04-05T14:34:49Z</time>
      </trkpt>
      <trkpt lat="46.1657" lon="2.51118">
        <ele>443</ele>
        <time>2015-04-05T14:34:51Z</time>
      </trkpt>
      <trkpt lat="46.16569" lon="2.51116">
        <ele>443</ele>
        <time>2015-04-05T14:34:53Z</time>
      </trkpt>
      <trkpt lat="46.16568" lon="2.51114">
        <ele>443</ele>
        <time>2015-04-05T14:34:55Z</time>
      </trkpt>
      <trkpt lat="46.16567" lon="2.51112">
        <ele>443</ele>
        <time>2015-04-05T14:34:57Z</time>
      </trkpt>
      <trkpt lat="46.16566" lon="2.5111">
        <ele>443</ele>
        <time>2015-04-05T14:34:59Z</time>
      </trkpt>
      <trkpt lat="46.16565" lon="2.51107">
        <ele>443</ele>
        <time>2015-04-05T14:35:01Z</time>
      </trkpt>
      <trkpt lat="46.16564" lon="2.51105">
        <ele>443</ele>
        <time>2015-04-05T14:35:03Z</time>
      </trkpt>
      <trkpt lat="46.16563" lon="2.51103">
        <ele>443</ele>
        <time>2015-04-05T14:35:05Z</time>
      </trkpt>
      <trkpt lat="46.16563" lon="2.511">
        <ele>443</ele>
        <time>2015-04-05T14:35:07Z</time>
      </trkpt>
      <trkpt lat="46.16562" lon="2.51098">
        <ele>443</ele>
        <time>2015-04-05T14:35:09Z</time>
      </trkpt>
      <trkpt lat="46.16561" lon="2.51096">
        <ele>443</ele>
        <time>2015-04-05T14:35:11Z</time>
      </trkpt>
      <trkpt lat="46.16561" lon="2.51093">
        <ele>443</ele>
        <time>2015-04-05T14:35:13Z</time>
      </trkpt>
      <trkpt lat="46.1656" lon="2.5109">
        <ele>443</ele>
        <time>2015-04-05T14:35:15Z</time>
      </trkpt>
      <trkpt lat="46.1656" lon="2.51088">
        <ele>443</ele>
        <time>2015-04-05T14:35:17Z</time>
      </trkpt>
      <trkpt lat="46.1656" lon="2.51085">
        <ele>443</ele>
        <time>2015-04-05T14:35:19Z</time>
      </trkpt>
      <trkpt lat="46.16559" lon="2.51083">
        <ele>443</ele>
        <time>2015-04-05T14:35:21Z</time>
      </trkpt>
      <trkpt lat="46.16559" lon="2.5108">
        <ele>443</ele>
        <time>2015-04-05T14:35:23Z</time>
      </trkpt>
      <trkpt lat="46.16558" lon="2.51078">
        <ele>443</ele>
        <time>2015-04-05T14:35:25Z</time>
      </trkpt>
      <trkpt lat="46.16558" lon="2.51076">
        <ele>443</ele>
        <time>2015-04-05T14:35:27Z</time>
      </trkpt>
      <trkpt lat="46.16557" lon="2.51074">
        <ele>443</ele>
        <time>2015-04-05T14:35:29Z</time>
      </trkpt>
      <trkpt lat="46.16557" lon="2.51071">
        <ele>443</ele>
        <time>2015-04-05T14:35:31Z</time>
      </trkpt>
      <trkpt lat="46.16557" lon="2.51069">
        <ele>443</ele>
        <time>2015-04-05T14:35:33Z</time>
      </trkpt>
      <trkpt lat="46.16556" lon="2.51067">
        <ele>443</ele>
        <time>2015-04-05T14:35:35Z</time>
      </trkpt>
      <trkpt lat="46.16555" lon="2.51065">
        <ele>443</ele>
        <time>2015-04-05T14:35:37Z</time>
      </trkpt>
      <trkpt lat="46.16555" lon="2.51063">
        <ele>443</ele>
        <time>2015-04-05T14:35:40Z</time>
      </trkpt>
      <trkpt lat="46.16555" lon="2.51061">
        <ele>443</ele>
        <time>2015-04-05T14:35:42Z</time>
      </trkpt>
      <trkpt lat="46.16554" lon="2.51059">
        <ele>443</ele>
        <time>2015-04-05T14:35:44Z</time>
      </trkpt>
      <trkpt lat="46.16553" lon="2.51057">
        <ele>443</ele>
        <time>2015-04-05T14:35:46Z</time>
      </trkpt>
      <trkpt lat="46.16552" lon="2.51054">
        <ele>443</ele>
        <time>2015-04-05T14:35:48Z</time>
      </trkpt>
      <trkpt lat="46.16552" lon="2.51052">
        <ele>443</ele>
        <time>2015-04-05T14:35:50Z</time>
      </trkpt>
      <trkpt lat="46.1655" lon="2.5105">
        <ele>443</ele>
        <time>2015-04-05T14:35:52Z</time>
      </trkpt>
      <trkpt lat="46.16549" lon="2.51048">
        <ele>443</ele>
        <time>2015-04-05T14:35:54Z</time>
      </trkpt>
      <trkpt lat="46.16548" lon="2.51046">
        <ele>443</ele>
        <time>2015-04-05T14:35:56Z</time>
      </trkpt>
      <trkpt lat="46.16547" lon="2.51045">
        <ele>443</ele>
        <time>2015-04-05T14:35:58Z</time>
      </trkpt>
      <trkpt lat="46.16545" lon="2.51043">
        <ele>443</ele>
        <time>2015-04-05T14:36:00Z</time>
      </trkpt>
      <trkpt lat="46.16544" lon="2.51042">
        <ele>443</ele>
        <time>2015-04-05T14:36:02Z</time>
      </trkpt>
      <trkpt lat="46.16542" lon="2.51041">
        <ele>443</ele>
        <time>2015-04-05T14:36:04Z</time>
      </trkpt>
      <trkpt lat="46.16541" lon="2.5104">
        <ele>443</ele>
        <time>2015-04-05T14:36:06Z</time>
      </trkpt>
      <trkpt lat="46.16539" lon="2.51039">
        <ele>443</ele>
        <time>2015-04-05T14:36:08Z</time>
      </trkpt>
      <trkpt lat="46.16537" lon="2.51038">
        <ele>443</ele>
        <time>2015-04-05T14:36:10Z</time>
      </trkpt>
      <trkpt lat="46.16536" lon="2.51038">
        <ele>444</ele>
        <time>2015-04-05T14:36:12Z</time>
      </trkpt>
      <trkpt lat="46.16534" lon="2.51037">
        <ele>444</ele>
        <time>2015-04-05T14:36:14Z</time>
      </trkpt>
      <trkpt lat="46.16533" lon="2.51036">
        <ele>444</ele>
        <time>2015-04-05T14:36:16Z</time>
      </trkpt>
      <trkpt lat="46.16531" lon="2.51035">
        <ele>445</ele>
        <time>2015-04-05T14:36:18Z</time>
      </trkpt>
      <trkpt lat="46.1653" lon="2.51034">
        <ele>445</ele>
        <time>2015-04-05T14:36:20Z</time>
      </trkpt>
      <trkpt lat="46.16528" lon="2.51033">
        <ele>445</ele>
        <time>2015-04-05T14:36:22Z</time>
      </trkpt>
      <trkpt lat="46.16526" lon="2.51032">
        <ele>445</ele>
        <time>2015-04-05T14:36:24Z</time>
      </trkpt>
      <trkpt lat="46.16525" lon="2.5103">
        <ele>446</ele>
        <time>2015-04-05T14:36:26Z</time>
      </trkpt>
      <trkpt lat="46.16524" lon="2.51029">
        <ele>446</ele>
        <time>2015-04-05T14:36:28Z</time>
      </trkpt>
      <trkpt lat="46.16522" lon="2.51027">
        <ele>446</ele>
        <time>2015-04-05T14:36:30Z</time>
      </trkpt>
      <trkpt lat="46.16521" lon="2.51025">
        <ele>446</ele>
        <time>2015-04-05T14:36:32Z</time>
      </trkpt>
      <trkpt lat="46.1652" lon="2.51024">
        <ele>446</ele>
        <time>2015-04-05T14:36:34Z</time>
      </trkpt>
      <trkpt lat="46.16518" lon="2.51022">
        <ele>446</ele>
        <time>2015-04-05T14:36:36Z</time>
      </trkpt>
      <trkpt lat="46.16517" lon="2.5102">
        <ele>446</ele>
        <time>2015-04-05T14:36:38Z</time>
      </trkpt>
      <trkpt lat="46.16516" lon="2.51018">
        <ele>446</ele>
        <time>2015-04-05T14:36:40Z</time>
      </trkpt>
      <trkpt lat="46.16514" lon="2.51017">
        <ele>446</ele>
        <time>2015-04-05T14:36:42Z</time>
      </trkpt>
      <trkpt lat="46.16513" lon="2.51015">
        <ele>446</ele>
        <time>2015-04-05T14:36:44Z</time>
      </trkpt>
      <trkpt lat="46.16512" lon="2.51014">
        <ele>446</ele>
        <time>2015-04-05T14:36:46Z</time>
      </trkpt>
      <trkpt lat="46.1651" lon="2.51012">
        <ele>446</ele>
        <time>2015-04-05T14:36:48Z</time>
      </trkpt>
      <trkpt lat="46.16508" lon="2.51011">
        <ele>446</ele>
        <time>2015-04-05T14:36:50Z</time>
      </trkpt>
      <trkpt lat="46.16507" lon="2.5101">
        <ele>446</ele>
        <time>2015-04-05T14:36:52Z</time>
      </trkpt>
      <trkpt lat="46.16505" lon="2.51008">
        <ele>446</ele>
        <time>2015-04-05T14:36:54Z</time>
      </trkpt>
      <trkpt lat="46.16504" lon="2.51007">
        <ele>446</ele>
        <time>2015-04-05T14:36:56Z</time>
      </trkpt>
      <trkpt lat="46.16503" lon="2.51005">
        <ele>446</ele>
        <time>2015-04-05T14:36:58Z</time>
      </trkpt>
      <trkpt lat="46.16502" lon="2.51003">
        <ele>447</ele>
        <time>2015-04-05T14:37:00Z</time>
      </trkpt>
      <trkpt lat="46.16501" lon="2.51001">
        <ele>447</ele>
        <time>2015-04-05T14:37:02Z</time>
      </trkpt>
      <trkpt lat="46.16499" lon="2.50999">
        <ele>447</ele>
        <time>2015-04-05T14:37:04Z</time>
      </trkpt>
      <trkpt lat="46.16498" lon="2.50998">
        <ele>447</ele>
        <time>2015-04-05T14:37:06Z</time>
      </trkpt>
      <trkpt lat="46.16496" lon="2.50997">
        <ele>447</ele>
        <time>2015-04-05T14:37:08Z</time>
      </trkpt>
      <trkpt lat="46.16494" lon="2.50995">
        <ele>447</ele>
        <time>2015-04-05T14:37:10Z</time>
      </trkpt>
      <trkpt lat="46.16493" lon="2.50994">
        <ele>447</ele>
        <time>2015-04-05T14:37:12Z</time>
      </trkpt>
      <trkpt lat="46.16492" lon="2.50992">
        <ele>447</ele>
        <time>2015-04-05T14:37:14Z</time>
      </trkpt>
      <trkpt lat="46.16491" lon="2.5099">
        <ele>447</ele>
        <time>2015-04-05T14:37:16Z</time>
      </trkpt>
      <trkpt lat="46.16489" lon="2.50989">
        <ele>447</ele>
        <time>2015-04-05T14:37:18Z</time>
      </trkpt>
      <trkpt lat="46.16487" lon="2.50988">
        <ele>447</ele>
        <time>2015-04-05T14:37:20Z</time>
      </trkpt>
      <trkpt lat="46.16484" lon="2.50987">
        <ele>447</ele>
        <time>2015-04-05T14:37:23Z</time>
      </trkpt>
      <trkpt lat="46.16482" lon="2.50986">
        <ele>447</ele>
        <time>2015-04-05T14:37:25Z</time>
      </trkpt>
      <trkpt lat="46.1648" lon="2.50985">
        <ele>447</ele>
        <time>2015-04-05T14:37:27Z</time>
      </trkpt>
      <trkpt lat="46.16479" lon="2.50985">
        <ele>447</ele>
        <time>2015-04-05T14:37:29Z</time>
      </trkpt>
      <trkpt lat="46.16477" lon="2.50984">
        <ele>447</ele>
        <time>2015-04-05T14:37:31Z</time>
      </trkpt>
      <trkpt lat="46.16473" lon="2.50983">
        <ele>447</ele>
        <time>2015-04-05T14:37:34Z</time>
      </trkpt>
      <trkpt lat="46.16471" lon="2.50982">
        <ele>447</ele>
        <time>2015-04-05T14:37:36Z</time>
      </trkpt>
      <trkpt lat="46.16468" lon="2.50981">
        <ele>449</ele>
        <time>2015-04-05T14:37:39Z</time>
      </trkpt>
      <trkpt lat="46.16466" lon="2.50981">
        <ele>450</ele>
        <time>2015-04-05T14:37:41Z</time>
      </trkpt>
      <trkpt lat="46.16465" lon="2.5098">
        <ele>451</ele>
        <time>2015-04-05T14:37:43Z</time>
      </trkpt>
      <trkpt lat="46.16463" lon="2.5098">
        <ele>451</ele>
        <time>2015-04-05T14:37:45Z</time>
      </trkpt>
      <trkpt lat="46.16462" lon="2.50979">
        <ele>452</ele>
        <time>2015-04-05T14:37:47Z</time>
      </trkpt>
      <trkpt lat="46.1646" lon="2.50979">
        <ele>452</ele>
        <time>2015-04-05T14:37:49Z</time>
      </trkpt>
      <trkpt lat="46.16458" lon="2.50979">
        <ele>453</ele>
        <time>2015-04-05T14:37:51Z</time>
      </trkpt>
      <trkpt lat="46.16457" lon="2.50978">
        <ele>453</ele>
        <time>2015-04-05T14:37:53Z</time>
      </trkpt>
      <trkpt lat="46.16455" lon="2.50978">
        <ele>454</ele>
        <time>2015-04-05T14:37:55Z</time>
      </trkpt>
      <trkpt lat="46.16454" lon="2.50977">
        <ele>454</ele>
        <time>2015-04-05T14:37:57Z</time>
      </trkpt>
      <trkpt lat="46.16452" lon="2.50975">
        <ele>454</ele>
        <time>2015-04-05T14:37:59Z</time>
      </trkpt>
      <trkpt lat="46.16452" lon="2.50972">
        <ele>454</ele>
        <time>2015-04-05T14:38:01Z</time>
      </trkpt>
      <trkpt lat="46.16451" lon="2.50969">
        <ele>454</ele>
        <time>2015-04-05T14:38:03Z</time>
      </trkpt>
      <trkpt lat="46.16451" lon="2.50965">
        <ele>454</ele>
        <time>2015-04-05T14:38:06Z</time>
      </trkpt>
      <trkpt lat="46.1645" lon="2.50967">
        <ele>454</ele>
        <time>2015-04-05T14:38:13Z</time>
      </trkpt>
      <trkpt lat="46.16449" lon="2.50968">
        <ele>454</ele>
        <time>2015-04-05T14:38:15Z</time>
      </trkpt>
      <trkpt lat="46.16447" lon="2.50969">
        <ele>454</ele>
        <time>2015-04-05T14:38:17Z</time>
      </trkpt>
      <trkpt lat="46.16449" lon="2.50968">
        <ele>454</ele>
        <time>2015-04-05T14:38:24Z</time>
      </trkpt>
      <trkpt lat="46.1645" lon="2.50965">
        <ele>454</ele>
        <time>2015-04-05T14:38:26Z</time>
      </trkpt>
      <trkpt lat="46.16451" lon="2.50961">
        <ele>454</ele>
        <time>2015-04-05T14:38:28Z</time>
      </trkpt>
      <trkpt lat="46.16453" lon="2.50958">
        <ele>454</ele>
        <time>2015-04-05T14:38:30Z</time>
      </trkpt>
      <trkpt lat="46.16454" lon="2.50956">
        <ele>453</ele>
        <time>2015-04-05T14:38:32Z</time>
      </trkpt>
      <trkpt lat="46.16455" lon="2.50952">
        <ele>453</ele>
        <time>2015-04-05T14:38:34Z</time>
      </trkpt>
      <trkpt lat="46.16457" lon="2.50948">
        <ele>453</ele>
        <time>2015-04-05T14:38:37Z</time>
      </trkpt>
      <trkpt lat="46.1646" lon="2.50943">
        <ele>453</ele>
        <time>2015-04-05T14:38:40Z</time>
      </trkpt>
      <trkpt lat="46.16461" lon="2.5094">
        <ele>453</ele>
        <time>2015-04-05T14:38:42Z</time>
      </trkpt>
      <trkpt lat="46.16462" lon="2.50938">
        <ele>453</ele>
        <time>2015-04-05T14:38:44Z</time>
      </trkpt>
      <trkpt lat="46.16464" lon="2.50935">
        <ele>453</ele>
        <time>2015-04-05T14:38:46Z</time>
      </trkpt>
      <trkpt lat="46.16465" lon="2.50932">
        <ele>453</ele>
        <time>2015-04-05T14:38:48Z</time>
      </trkpt>
      <trkpt lat="46.16466" lon="2.5093">
        <ele>453</ele>
        <time>2015-04-05T14:38:50Z</time>
      </trkpt>
      <trkpt lat="46.16467" lon="2.50927">
        <ele>453</ele>
        <time>2015-04-05T14:38:52Z</time>
      </trkpt>
      <trkpt lat="46.16469" lon="2.50925">
        <ele>453</ele>
        <time>2015-04-05T14:38:54Z</time>
      </trkpt>
      <trkpt lat="46.1647" lon="2.50923">
        <ele>453</ele>
        <time>2015-04-05T14:38:56Z</time>
      </trkpt>
      <trkpt lat="46.16471" lon="2.50921">
        <ele>453</ele>
        <time>2015-04-05T14:39:00Z</time>
      </trkpt>
      <trkpt lat="46.16472" lon="2.50919">
        <ele>453</ele>
        <time>2015-04-05T14:39:02Z</time>
      </trkpt>
      <trkpt lat="46.16473" lon="2.50917">
        <ele>453</ele>
        <time>2015-04-05T14:39:04Z</time>
      </trkpt>
      <trkpt lat="46.16474" lon="2.50916">
        <ele>453</ele>
        <time>2015-04-05T14:39:06Z</time>
      </trkpt>
      <trkpt lat="46.16475" lon="2.50913">
        <ele>453</ele>
        <time>2015-04-05T14:39:08Z</time>
      </trkpt>
      <trkpt lat="46.16476" lon="2.50911">
        <ele>453</ele>
        <time>2015-04-05T14:39:10Z</time>
      </trkpt>
      <trkpt lat="46.16477" lon="2.50909">
        <ele>453</ele>
        <time>2015-04-05T14:39:12Z</time>
      </trkpt>
      <trkpt lat="46.16478" lon="2.50907">
        <ele>453</ele>
        <time>2015-04-05T14:39:14Z</time>
      </trkpt>
      <trkpt lat="46.16479" lon="2.50905">
        <ele>453</ele>
        <time>2015-04-05T14:39:16Z</time>
      </trkpt>
      <trkpt lat="46.1648" lon="2.50904">
        <ele>453</ele>
        <time>2015-04-05T14:39:18Z</time>
      </trkpt>
      <trkpt lat="46.16481" lon="2.50902">
        <ele>453</ele>
        <time>2015-04-05T14:39:20Z</time>
      </trkpt>
      <trkpt lat="46.16482" lon="2.509">
        <ele>453</ele>
        <time>2015-04-05T14:39:22Z</time>
      </trkpt>
      <trkpt lat="46.16483" lon="2.50898">
        <ele>453</ele>
        <time>2015-04-05T14:39:24Z</time>
      </trkpt>
      <trkpt lat="46.16484" lon="2.50896">
        <ele>453</ele>
        <time>2015-04-05T14:39:26Z</time>
      </trkpt>
      <trkpt lat="46.16485" lon="2.50894">
        <ele>453</ele>
        <time>2015-04-05T14:39:28Z</time>
      </trkpt>
      <trkpt lat="46.16486" lon="2.50892">
        <ele>453</ele>
        <time>2015-04-05T14:39:30Z</time>
      </trkpt>
      <trkpt lat="46.16487" lon="2.5089">
        <ele>453</ele>
        <time>2015-04-05T14:39:32Z</time>
      </trkpt>
      <trkpt lat="46.16488" lon="2.50888">
        <ele>452</ele>
        <time>2015-04-05T14:39:34Z</time>
      </trkpt>
      <trkpt lat="46.16489" lon="2.50887">
        <ele>452</ele>
        <time>2015-04-05T14:39:36Z</time>
      </trkpt>
      <trkpt lat="46.1649" lon="2.50885">
        <ele>452</ele>
        <time>2015-04-05T14:39:38Z</time>
      </trkpt>
      <trkpt lat="46.16491" lon="2.50883">
        <ele>452</ele>
        <time>2015-04-05T14:39:40Z</time>
      </trkpt>
      <trkpt lat="46.16492" lon="2.50881">
        <ele>452</ele>
        <time>2015-04-05T14:39:43Z</time>
      </trkpt>
      <trkpt lat="46.16493" lon="2.50879">
        <ele>452</ele>
        <time>2015-04-05T14:39:45Z</time>
      </trkpt>
      <trkpt lat="46.16494" lon="2.50877">
        <ele>452</ele>
        <time>2015-04-05T14:39:47Z</time>
      </trkpt>
      <trkpt lat="46.16495" lon="2.50876">
        <ele>452</ele>
        <time>2015-04-05T14:39:53Z</time>
      </trkpt>
      <trkpt lat="46.16496" lon="2.50873">
        <ele>452</ele>
        <time>2015-04-05T14:39:55Z</time>
      </trkpt>
      <trkpt lat="46.16497" lon="2.50872">
        <ele>452</ele>
        <time>2015-04-05T14:39:58Z</time>
      </trkpt>
      <trkpt lat="46.16498" lon="2.5087">
        <ele>452</ele>
        <time>2015-04-05T14:40:00Z</time>
      </trkpt>
      <trkpt lat="46.16499" lon="2.50869">
        <ele>452</ele>
        <time>2015-04-05T14:40:02Z</time>
      </trkpt>
      <trkpt lat="46.16499" lon="2.50867">
        <ele>452</ele>
        <time>2015-04-05T14:40:05Z</time>
      </trkpt>
      <trkpt lat="46.16499" lon="2.50866">
        <ele>452</ele>
        <time>2015-04-05T14:40:09Z</time>
      </trkpt>
      <trkpt lat="46.16501" lon="2.50864">
        <ele>452</ele>
        <time>2015-04-05T14:40:12Z</time>
      </trkpt>
      <trkpt lat="46.16501" lon="2.50863">
        <ele>452</ele>
        <time>2015-04-05T14:40:17Z</time>
      </trkpt>
      <trkpt lat="46.16502" lon="2.50861">
        <ele>452</ele>
        <time>2015-04-05T14:40:19Z</time>
      </trkpt>
      <trkpt lat="46.16503" lon="2.50859">
        <ele>452</ele>
        <time>2015-04-05T14:40:21Z</time>
      </trkpt>
      <trkpt lat="46.16504" lon="2.50857">
        <ele>452</ele>
        <time>2015-04-05T14:40:23Z</time>
      </trkpt>
      <trkpt lat="46.16505" lon="2.50854">
        <ele>452</ele>
        <time>2015-04-05T14:40:25Z</time>
      </trkpt>
      <trkpt lat="46.16506" lon="2.50852">
        <ele>452</ele>
        <time>2015-04-05T14:40:27Z</time>
      </trkpt>
      <trkpt lat="46.16507" lon="2.5085">
        <ele>452</ele>
        <time>2015-04-05T14:40:29Z</time>
      </trkpt>
      <trkpt lat="46.16508" lon="2.50848">
        <ele>452</ele>
        <time>2015-04-05T14:40:31Z</time>
      </trkpt>
      <trkpt lat="46.16509" lon="2.50846">
        <ele>452</ele>
        <time>2015-04-05T14:40:33Z</time>
      </trkpt>
      <trkpt lat="46.1651" lon="2.50844">
        <ele>452</ele>
        <time>2015-04-05T14:40:35Z</time>
      </trkpt>
      <trkpt lat="46.16511" lon="2.50842">
        <ele>452</ele>
        <time>2015-04-05T14:40:37Z</time>
      </trkpt>
      <trkpt lat="46.16512" lon="2.5084">
        <ele>452</ele>
        <time>2015-04-05T14:40:39Z</time>
      </trkpt>
      <trkpt lat="46.16513" lon="2.50837">
        <ele>452</ele>
        <time>2015-04-05T14:40:41Z</time>
      </trkpt>
      <trkpt lat="46.16514" lon="2.50835">
        <ele>452</ele>
        <time>2015-04-05T14:40:43Z</time>
      </trkpt>
      <trkpt lat="46.16515" lon="2.50833">
        <ele>452</ele>
        <time>2015-04-05T14:40:45Z</time>
      </trkpt>
      <trkpt lat="46.16516" lon="2.50831">
        <ele>452</ele>
        <time>2015-04-05T14:40:47Z</time>
      </trkpt>
      <trkpt lat="46.16517" lon="2.50829">
        <ele>452</ele>
        <time>2015-04-05T14:40:49Z</time>
      </trkpt>
      <trkpt lat="46.16518" lon="2.50827">
        <ele>452</ele>
        <time>2015-04-05T14:40:51Z</time>
      </trkpt>
      <trkpt lat="46.16519" lon="2.50825">
        <ele>452</ele>
        <time>2015-04-05T14:40:53Z</time>
      </trkpt>
      <trkpt lat="46.1652" lon="2.50823">
        <ele>452</ele>
        <time>2015-04-05T14:40:55Z</time>
      </trkpt>
      <trkpt lat="46.16521" lon="2.50821">
        <ele>452</ele>
        <time>2015-04-05T14:40:57Z</time>
      </trkpt>
      <trkpt lat="46.16522" lon="2.50819">
        <ele>452</ele>
        <time>2015-04-05T14:40:59Z</time>
      </trkpt>
      <trkpt lat="46.16523" lon="2.50817">
        <ele>452</ele>
        <time>2015-04-05T14:41:01Z</time>
      </trkpt>
      <trkpt lat="46.16524" lon="2.50815">
        <ele>452</ele>
        <time>2015-04-05T14:41:03Z</time>
      </trkpt>
      <trkpt lat="46.16525" lon="2.50813">
        <ele>452</ele>
        <time>2015-04-05T14:41:05Z</time>
      </trkpt>
      <trkpt lat="46.16526" lon="2.5081">
        <ele>452</ele>
        <time>2015-04-05T14:41:07Z</time>
      </trkpt>
      <trkpt lat="46.16527" lon="2.50808">
        <ele>452</ele>
        <time>2015-04-05T14:41:09Z</time>
      </trkpt>
      <trkpt lat="46.16528" lon="2.50805">
        <ele>452</ele>
        <time>2015-04-05T14:41:11Z</time>
      </trkpt>
      <trkpt lat="46.16528" lon="2.50803">
        <ele>452</ele>
        <time>2015-04-05T14:41:13Z</time>
      </trkpt>
      <trkpt lat="46.16529" lon="2.508">
        <ele>452</ele>
        <time>2015-04-05T14:41:15Z</time>
      </trkpt>
      <trkpt lat="46.16529" lon="2.50798">
        <ele>452</ele>
        <time>2015-04-05T14:41:17Z</time>
      </trkpt>
      <trkpt lat="46.1653" lon="2.50796">
        <ele>452</ele>
        <time>2015-04-05T14:41:19Z</time>
      </trkpt>
      <trkpt lat="46.16531" lon="2.50793">
        <ele>452</ele>
        <time>2015-04-05T14:41:21Z</time>
      </trkpt>
      <trkpt lat="46.16531" lon="2.50791">
        <ele>452</ele>
        <time>2015-04-05T14:41:23Z</time>
      </trkpt>
      <trkpt lat="46.16532" lon="2.50788">
        <ele>452</ele>
        <time>2015-04-05T14:41:25Z</time>
      </trkpt>
      <trkpt lat="46.16532" lon="2.50785">
        <ele>452</ele>
        <time>2015-04-05T14:41:27Z</time>
      </trkpt>
      <trkpt lat="46.16532" lon="2.50783">
        <ele>452</ele>
        <time>2015-04-05T14:41:29Z</time>
      </trkpt>
      <trkpt lat="46.16533" lon="2.50781">
        <ele>452</ele>
        <time>2015-04-05T14:41:31Z</time>
      </trkpt>
      <trkpt lat="46.16533" lon="2.50778">
        <ele>452</ele>
        <time>2015-04-05T14:41:33Z</time>
      </trkpt>
      <trkpt lat="46.16533" lon="2.50776">
        <ele>452</ele>
        <time>2015-04-05T14:41:35Z</time>
      </trkpt>
      <trkpt lat="46.16533" lon="2.50773">
        <ele>452</ele>
        <time>2015-04-05T14:41:37Z</time>
      </trkpt>
      <trkpt lat="46.16532" lon="2.50771">
        <ele>452</ele>
        <time>2015-04-05T14:41:39Z</time>
      </trkpt>
      <trkpt lat="46.16532" lon="2.50769">
        <ele>452</ele>
        <time>2015-04-05T14:41:41Z</time>
      </trkpt>
      <trkpt lat="46.16531" lon="2.50767">
        <ele>452</ele>
        <time>2015-04-05T14:41:43Z</time>
      </trkpt>
      <trkpt lat="46.16531" lon="2.50764">
        <ele>452</ele>
        <time>2015-04-05T14:41:45Z</time>
      </trkpt>
      <trkpt lat="46.1653" lon="2.50762">
        <ele>452</ele>
        <time>2015-04-05T14:41:47Z</time>
      </trkpt>
      <trkpt lat="46.16529" lon="2.5076">
        <ele>452</ele>
        <time>2015-04-05T14:41:49Z</time>
      </trkpt>
      <trkpt lat="46.16528" lon="2.50758">
        <ele>452</ele>
        <time>2015-04-05T14:41:51Z</time>
      </trkpt>
      <trkpt lat="46.16528" lon="2.50756">
        <ele>452</ele>
        <time>2015-04-05T14:41:53Z</time>
      </trkpt>
      <trkpt lat="46.16527" lon="2.50753">
        <ele>452</ele>
        <time>2015-04-05T14:41:55Z</time>
      </trkpt>
      <trkpt lat="46.16526" lon="2.50751">
        <ele>452</ele>
        <time>2015-04-05T14:41:57Z</time>
      </trkpt>
      <trkpt lat="46.16526" lon="2.50749">
        <ele>452</ele>
        <time>2015-04-05T14:41:59Z</time>
      </trkpt>
      <trkpt lat="46.16525" lon="2.50747">
        <ele>452</ele>
        <time>2015-04-05T14:42:01Z</time>
      </trkpt>
      <trkpt lat="46.16524" lon="2.50745">
        <ele>452</ele>
        <time>2015-04-05T14:42:03Z</time>
      </trkpt>
      <trkpt lat="46.16523" lon="2.50743">
        <ele>452</ele>
        <time>2015-04-05T14:42:05Z</time>
      </trkpt>
      <trkpt lat="46.16523" lon="2.50741">
        <ele>452</ele>
        <time>2015-04-05T14:42:07Z</time>
      </trkpt>
      <trkpt lat="46.16522" lon="2.50739">
        <ele>452</ele>
        <time>2015-04-05T14:42:09Z</time>
      </trkpt>
      <trkpt lat="46.16521" lon="2.50736">
        <ele>452</ele>
        <time>2015-04-05T14:42:11Z</time>
      </trkpt>
      <trkpt lat="46.1652" lon="2.50734">
        <ele>452</ele>
        <time>2015-04-05T14:42:13Z</time>
      </trkpt>
      <trkpt lat="46.1652" lon="2.50732">
        <ele>452</ele>
        <time>2015-04-05T14:42:15Z</time>
      </trkpt>
      <trkpt lat="46.16519" lon="2.5073">
        <ele>452</ele>
        <time>2015-04-05T14:42:17Z</time>
      </trkpt>
      <trkpt lat="46.16518" lon="2.50728">
        <ele>452</ele>
        <time>2015-04-05T14:42:19Z</time>
      </trkpt>
      <trkpt lat="46.16517" lon="2.50726">
        <ele>452</ele>
        <time>2015-04-05T14:42:21Z</time>
      </trkpt>
      <trkpt lat="46.16516" lon="2.50724">
        <ele>452</ele>
        <time>2015-04-05T14:42:23Z</time>
      </trkpt>
      <trkpt lat="46.16516" lon="2.50722">
        <ele>452</ele>
        <time>2015-04-05T14:42:25Z</time>
      </trkpt>
      <trkpt lat="46.16515" lon="2.5072">
        <ele>452</ele>
        <time>2015-04-05T14:42:27Z</time>
      </trkpt>
      <trkpt lat="46.16515" lon="2.50719">
        <ele>452</ele>
        <time>2015-04-05T14:42:33Z</time>
      </trkpt>
      <trkpt lat="46.16515" lon="2.50717">
        <ele>452</ele>
        <time>2015-04-05T14:42:43Z</time>
      </trkpt>
      <trkpt lat="46.16514" lon="2.50715">
        <ele>452</ele>
        <time>2015-04-05T14:42:49Z</time>
      </trkpt>
      <trkpt lat="46.16514" lon="2.50713">
        <ele>452</ele>
        <time>2015-04-05T14:42:57Z</time>
      </trkpt>
      <trkpt lat="46.16513" lon="2.50711">
        <ele>452</ele>
        <time>2015-04-05T14:43:00Z</time>
      </trkpt>
      <trkpt lat="46.16512" lon="2.5071">
        <ele>452</ele>
        <time>2015-04-05T14:43:02Z</time>
      </trkpt>
      <trkpt lat="46.16511" lon="2.50708">
        <ele>452</ele>
        <time>2015-04-05T14:43:05Z</time>
      </trkpt>
      <trkpt lat="46.1651" lon="2.50706">
        <ele>452</ele>
        <time>2015-04-05T14:43:08Z</time>
      </trkpt>
      <trkpt lat="46.1651" lon="2.50704">
        <ele>452</ele>
        <time>2015-04-05T14:43:10Z</time>
      </trkpt>
      <trkpt lat="46.16509" lon="2.50701">
        <ele>452</ele>
        <time>2015-04-05T14:43:12Z</time>
      </trkpt>
      <trkpt lat="46.16508" lon="2.50699">
        <ele>452</ele>
        <time>2015-04-05T14:43:14Z</time>
      </trkpt>
      <trkpt lat="46.16507" lon="2.50697">
        <ele>452</ele>
        <time>2015-04-05T14:43:16Z</time>
      </trkpt>
      <trkpt lat="46.16507" lon="2.50695">
        <ele>452</ele>
        <time>2015-04-05T14:43:18Z</time>
      </trkpt>
      <trkpt lat="46.16506" lon="2.50693">
        <ele>452</ele>
        <time>2015-04-05T14:43:20Z</time>
      </trkpt>
      <trkpt lat="46.16505" lon="2.50691">
        <ele>452</ele>
        <time>2015-04-05T14:43:22Z</time>
      </trkpt>
      <trkpt lat="46.16504" lon="2.50689">
        <ele>452</ele>
        <time>2015-04-05T14:43:24Z</time>
      </trkpt>
      <trkpt lat="46.16503" lon="2.50687">
        <ele>452</ele>
        <time>2015-04-05T14:44:23Z</time>
      </trkpt>
      <trkpt lat="46.16502" lon="2.50685">
        <ele>452</ele>
        <time>2015-04-05T14:44:27Z</time>
      </trkpt>
      <trkpt lat="46.16501" lon="2.50682">
        <ele>452</ele>
        <time>2015-04-05T14:44:29Z</time>
      </trkpt>
      <trkpt lat="46.165" lon="2.50679">
        <ele>452</ele>
        <time>2015-04-05T14:44:31Z</time>
      </trkpt>
      <trkpt lat="46.16499" lon="2.50677">
        <ele>452</ele>
        <time>2015-04-05T14:44:33Z</time>
      </trkpt>
      <trkpt lat="46.16499" lon="2.50674">
        <ele>452</ele>
        <time>2015-04-05T14:44:35Z</time>
      </trkpt>
      <trkpt lat="46.16497" lon="2.50671">
        <ele>452</ele>
        <time>2015-04-05T14:44:37Z</time>
      </trkpt>
      <trkpt lat="46.16496" lon="2.50666">
        <ele>452</ele>
        <time>2015-04-05T14:44:40Z</time>
      </trkpt>
      <trkpt lat="46.16495" lon="2.50664">
        <ele>452</ele>
        <time>2015-04-05T14:44:42Z</time>
      </trkpt>
      <trkpt lat="46.16494" lon="2.50662">
        <ele>452</ele>
        <time>2015-04-05T14:44:44Z</time>
      </trkpt>
      <trkpt lat="46.16494" lon="2.5066">
        <ele>452</ele>
        <time>2015-04-05T14:44:55Z</time>
      </trkpt>
      <trkpt lat="46.16493" lon="2.50658">
        <ele>452</ele>
        <time>2015-04-05T14:45:01Z</time>
      </trkpt>
      <trkpt lat="46.16492" lon="2.50654">
        <ele>452</ele>
        <time>2015-04-05T14:45:03Z</time>
      </trkpt>
      <trkpt lat="46.16491" lon="2.50651">
        <ele>452</ele>
        <time>2015-04-05T14:45:05Z</time>
      </trkpt>
      <trkpt lat="46.1649" lon="2.50647">
        <ele>452</ele>
        <time>2015-04-05T14:45:07Z</time>
      </trkpt>
      <trkpt lat="46.16488" lon="2.50644">
        <ele>452</ele>
        <time>2015-04-05T14:45:09Z</time>
      </trkpt>
      <trkpt lat="46.16487" lon="2.50641">
        <ele>452</ele>
        <time>2015-04-05T14:45:11Z</time>
      </trkpt>
      <trkpt lat="46.16486" lon="2.50638">
        <ele>452</ele>
        <time>2015-04-05T14:45:13Z</time>
      </trkpt>
      <trkpt lat="46.16484" lon="2.50635">
        <ele>452</ele>
        <time>2015-04-05T14:45:15Z</time>
      </trkpt>
      <trkpt lat="46.16483" lon="2.50631">
        <ele>452</ele>
        <time>2015-04-05T14:45:17Z</time>
      </trkpt>
      <trkpt lat="46.16482" lon="2.50628">
        <ele>452</ele>
        <time>2015-04-05T14:45:19Z</time>
      </trkpt>
      <trkpt lat="46.16481" lon="2.50624">
        <ele>452</ele>
        <time>2015-04-05T14:45:21Z</time>
      </trkpt>
      <trkpt lat="46.16479" lon="2.50621">
        <ele>452</ele>
        <time>2015-04-05T14:45:23Z</time>
      </trkpt>
      <trkpt lat="46.16478" lon="2.50618">
        <ele>452</ele>
        <time>2015-04-05T14:45:25Z</time>
      </trkpt>
      <trkpt lat="46.16477" lon="2.50615">
        <ele>452</ele>
        <time>2015-04-05T14:45:27Z</time>
      </trkpt>
      <trkpt lat="46.16476" lon="2.50611">
        <ele>452</ele>
        <time>2015-04-05T14:45:29Z</time>
      </trkpt>
      <trkpt lat="46.16476" lon="2.50608">
        <ele>452</ele>
        <time>2015-04-05T14:45:31Z</time>
      </trkpt>
      <trkpt lat="46.16474" lon="2.50605">
        <ele>452</ele>
        <time>2015-04-05T14:45:33Z</time>
      </trkpt>
      <trkpt lat="46.16473" lon="2.50602">
        <ele>452</ele>
        <time>2015-04-05T14:45:35Z</time>
      </trkpt>
      <trkpt lat="46.16473" lon="2.50599">
        <ele>452</ele>
        <time>2015-04-05T14:45:37Z</time>
      </trkpt>
      <trkpt lat="46.16471" lon="2.50595">
        <ele>452</ele>
        <time>2015-04-05T14:45:40Z</time>
      </trkpt>
      <trkpt lat="46.1647" lon="2.50591">
        <ele>452</ele>
        <time>2015-04-05T14:45:43Z</time>
      </trkpt>
      <trkpt lat="46.16469" lon="2.50588">
        <ele>452</ele>
        <time>2015-04-05T14:45:45Z</time>
      </trkpt>
      <trkpt lat="46.16468" lon="2.50585">
        <ele>452</ele>
        <time>2015-04-05T14:45:47Z</time>
      </trkpt>
      <trkpt lat="46.16467" lon="2.50583">
        <ele>452</ele>
        <time>2015-04-05T14:45:49Z</time>
      </trkpt>
      <trkpt lat="46.16466" lon="2.5058">
        <ele>452</ele>
        <time>2015-04-05T14:45:51Z</time>
      </trkpt>
      <trkpt lat="46.16465" lon="2.50576">
        <ele>452</ele>
        <time>2015-04-05T14:45:53Z</time>
      </trkpt>
      <trkpt lat="46.16464" lon="2.50573">
        <ele>452</ele>
        <time>2015-04-05T14:45:55Z</time>
      </trkpt>
      <trkpt lat="46.16463" lon="2.5057">
        <ele>452</ele>
        <time>2015-04-05T14:45:57Z</time>
      </trkpt>
      <trkpt lat="46.16461" lon="2.50566">
        <ele>452</ele>
        <time>2015-04-05T14:46:00Z</time>
      </trkpt>
      <trkpt lat="46.1646" lon="2.50561">
        <ele>452</ele>
        <time>2015-04-05T14:46:03Z</time>
      </trkpt>
      <trkpt lat="46.16458" lon="2.50556">
        <ele>452</ele>
        <time>2015-04-05T14:46:05Z</time>
      </trkpt>
      <trkpt lat="46.16457" lon="2.50553">
        <ele>452</ele>
        <time>2015-04-05T14:46:08Z</time>
      </trkpt>
      <trkpt lat="46.16455" lon="2.50549">
        <ele>452</ele>
        <time>2015-04-05T14:46:10Z</time>
      </trkpt>
      <trkpt lat="46.16454" lon="2.50546">
        <ele>452</ele>
        <time>2015-04-05T14:46:13Z</time>
      </trkpt>
      <trkpt lat="46.16454" lon="2.50542">
        <ele>452</ele>
        <time>2015-04-05T14:46:15Z</time>
      </trkpt>
      <trkpt lat="46.16453" lon="2.50539">
        <ele>452</ele>
        <time>2015-04-05T14:46:17Z</time>
      </trkpt>
      <trkpt lat="46.16451" lon="2.50535">
        <ele>452</ele>
        <time>2015-04-05T14:46:19Z</time>
      </trkpt>
      <trkpt lat="46.1645" lon="2.50532">
        <ele>452</ele>
        <time>2015-04-05T14:46:21Z</time>
      </trkpt>
      <trkpt lat="46.16448" lon="2.50528">
        <ele>452</ele>
        <time>2015-04-05T14:46:24Z</time>
      </trkpt>
      <trkpt lat="46.16446" lon="2.50523">
        <ele>452</ele>
        <time>2015-04-05T14:46:27Z</time>
      </trkpt>
      <trkpt lat="46.16445" lon="2.50518">
        <ele>452</ele>
        <time>2015-04-05T14:46:30Z</time>
      </trkpt>
      <trkpt lat="46.16444" lon="2.50515">
        <ele>452</ele>
        <time>2015-04-05T14:46:32Z</time>
      </trkpt>
      <trkpt lat="46.16443" lon="2.50512">
        <ele>452</ele>
        <time>2015-04-05T14:46:34Z</time>
      </trkpt>
      <trkpt lat="46.16441" lon="2.50506">
        <ele>452</ele>
        <time>2015-04-05T14:46:36Z</time>
      </trkpt>
      <trkpt lat="46.16439" lon="2.50503">
        <ele>452</ele>
        <time>2015-04-05T14:46:39Z</time>
      </trkpt>
      <trkpt lat="46.16438" lon="2.50499">
        <ele>452</ele>
        <time>2015-04-05T14:46:42Z</time>
      </trkpt>
      <trkpt lat="46.16436" lon="2.50494">
        <ele>452</ele>
        <time>2015-04-05T14:46:46Z</time>
      </trkpt>
      <trkpt lat="46.16434" lon="2.5049">
        <ele>452</ele>
        <time>2015-04-05T14:46:48Z</time>
      </trkpt>
      <trkpt lat="46.16433" lon="2.50488">
        <ele>452</ele>
        <time>2015-04-05T14:46:51Z</time>
      </trkpt>
      <trkpt lat="46.16431" lon="2.50483">
        <ele>452</ele>
        <time>2015-04-05T14:46:54Z</time>
      </trkpt>
      <trkpt lat="46.16431" lon="2.50481">
        <ele>452</ele>
        <time>2015-04-05T14:46:57Z</time>
      </trkpt>
      <trkpt lat="46.16429" lon="2.50477">
        <ele>452</ele>
        <time>2015-04-05T14:47:01Z</time>
      </trkpt>
      <trkpt lat="46.16428" lon="2.50475">
        <ele>452</ele>
        <time>2015-04-05T14:47:03Z</time>
      </trkpt>
      <trkpt lat="46.16427" lon="2.5047">
        <ele>452</ele>
        <time>2015-04-05T14:47:07Z</time>
      </trkpt>
      <trkpt lat="46.16426" lon="2.50467">
        <ele>452</ele>
        <time>2015-04-05T14:47:09Z</time>
      </trkpt>
      <trkpt lat="46.16424" lon="2.50463">
        <ele>452</ele>
        <time>2015-04-05T14:47:12Z</time>
      </trkpt>
      <trkpt lat="46.16423" lon="2.50461">
        <ele>452</ele>
        <time>2015-04-05T14:47:15Z</time>
      </trkpt>
      <trkpt lat="46.16422" lon="2.50458">
        <ele>452</ele>
        <time>2015-04-05T14:47:17Z</time>
      </trkpt>
      <trkpt lat="46.16421" lon="2.50455">
        <ele>452</ele>
        <time>2015-04-05T14:47:19Z</time>
      </trkpt>
      <trkpt lat="46.1642" lon="2.50453">
        <ele>452</ele>
        <time>2015-04-05T14:47:21Z</time>
      </trkpt>
      <trkpt lat="46.16418" lon="2.50448">
        <ele>452</ele>
        <time>2015-04-05T14:47:24Z</time>
      </trkpt>
      <trkpt lat="46.16417" lon="2.50446">
        <ele>452</ele>
        <time>2015-04-05T14:47:27Z</time>
      </trkpt>
      <trkpt lat="46.16416" lon="2.50441">
        <ele>452</ele>
        <time>2015-04-05T14:47:30Z</time>
      </trkpt>
      <trkpt lat="46.16414" lon="2.50436">
        <ele>452</ele>
        <time>2015-04-05T14:47:34Z</time>
      </trkpt>
      <trkpt lat="46.16413" lon="2.50432">
        <ele>452</ele>
        <time>2015-04-05T14:47:36Z</time>
      </trkpt>
      <trkpt lat="46.16412" lon="2.5043">
        <ele>452</ele>
        <time>2015-04-05T14:47:38Z</time>
      </trkpt>
      <trkpt lat="46.16411" lon="2.50426">
        <ele>452</ele>
        <time>2015-04-05T14:47:41Z</time>
      </trkpt>
      <trkpt lat="46.1641" lon="2.50422">
        <ele>452</ele>
        <time>2015-04-05T14:47:43Z</time>
      </trkpt>
      <trkpt lat="46.16409" lon="2.5042">
        <ele>452</ele>
        <time>2015-04-05T14:47:46Z</time>
      </trkpt>
      <trkpt lat="46.16407" lon="2.50415">
        <ele>452</ele>
        <time>2015-04-05T14:47:49Z</time>
      </trkpt>
      <trkpt lat="46.16407" lon="2.50412">
        <ele>452</ele>
        <time>2015-04-05T14:47:52Z</time>
      </trkpt>
      <trkpt lat="46.16405" lon="2.50408">
        <ele>452</ele>
        <time>2015-04-05T14:47:55Z</time>
      </trkpt>
      <trkpt lat="46.16404" lon="2.50405">
        <ele>452</ele>
        <time>2015-04-05T14:47:58Z</time>
      </trkpt>
      <trkpt lat="46.16403" lon="2.504">
        <ele>452</ele>
        <time>2015-04-05T14:48:01Z</time>
      </trkpt>
      <trkpt lat="46.16402" lon="2.50398">
        <ele>451</ele>
        <time>2015-04-05T14:48:04Z</time>
      </trkpt>
      <trkpt lat="46.164" lon="2.50394">
        <ele>451</ele>
        <time>2015-04-05T14:48:07Z</time>
      </trkpt>
      <trkpt lat="46.16399" lon="2.50391">
        <ele>451</ele>
        <time>2015-04-05T14:48:10Z</time>
      </trkpt>
      <trkpt lat="46.16397" lon="2.50386">
        <ele>451</ele>
        <time>2015-04-05T14:48:13Z</time>
      </trkpt>
      <trkpt lat="46.16396" lon="2.50384">
        <ele>451</ele>
        <time>2015-04-05T14:48:16Z</time>
      </trkpt>
      <trkpt lat="46.16394" lon="2.50379">
        <ele>451</ele>
        <time>2015-04-05T14:48:19Z</time>
      </trkpt>
      <trkpt lat="46.16394" lon="2.50377">
        <ele>451</ele>
        <time>2015-04-05T14:48:22Z</time>
      </trkpt>
      <trkpt lat="46.16392" lon="2.50372">
        <ele>451</ele>
        <time>2015-04-05T14:48:25Z</time>
      </trkpt>
      <trkpt lat="46.16391" lon="2.5037">
        <ele>450</ele>
        <time>2015-04-05T14:48:28Z</time>
      </trkpt>
      <trkpt lat="46.16388" lon="2.50365">
        <ele>450</ele>
        <time>2015-04-05T14:48:31Z</time>
      </trkpt>
      <trkpt lat="46.16388" lon="2.50363">
        <ele>450</ele>
        <time>2015-04-05T14:48:34Z</time>
      </trkpt>
      <trkpt lat="46.16385" lon="2.50358">
        <ele>450</ele>
        <time>2015-04-05T14:48:37Z</time>
      </trkpt>
      <trkpt lat="46.16384" lon="2.50356">
        <ele>450</ele>
        <time>2015-04-05T14:48:40Z</time>
      </trkpt>
      <trkpt lat="46.16382" lon="2.50351">
        <ele>450</ele>
        <time>2015-04-05T14:48:43Z</time>
      </trkpt>
      <trkpt lat="46.16381" lon="2.50349">
        <ele>450</ele>
        <time>2015-04-05T14:48:46Z</time>
      </trkpt>
      <trkpt lat="46.16379" lon="2.50345">
        <ele>450</ele>
        <time>2015-04-05T14:48:49Z</time>
      </trkpt>
      <trkpt lat="46.16378" lon="2.50343">
        <ele>450</ele>
        <time>2015-04-05T14:48:52Z</time>
      </trkpt>
      <trkpt lat="46.16376" lon="2.50338">
        <ele>450</ele>
        <time>2015-04-05T14:48:55Z</time>
      </trkpt>
      <trkpt lat="46.16375" lon="2.50336">
        <ele>450</ele>
        <time>2015-04-05T14:48:58Z</time>
      </trkpt>
      <trkpt lat="46.16372" lon="2.50332">
        <ele>450</ele>
        <time>2015-04-05T14:49:01Z</time>
      </trkpt>
      <trkpt lat="46.16371" lon="2.5033">
        <ele>450</ele>
        <time>2015-04-05T14:49:04Z</time>
      </trkpt>
      <trkpt lat="46.16369" lon="2.50325">
        <ele>449</ele>
        <time>2015-04-05T14:49:07Z</time>
      </trkpt>
      <trkpt lat="46.16367" lon="2.50324">
        <ele>449</ele>
        <time>2015-04-05T14:49:10Z</time>
      </trkpt>
      <trkpt lat="46.16365" lon="2.50319">
        <ele>449</ele>
        <time>2015-04-05T14:49:13Z</time>
      </trkpt>
      <trkpt lat="46.16364" lon="2.50317">
        <ele>449</ele>
        <time>2015-04-05T14:49:16Z</time>
      </trkpt>
      <trkpt lat="46.16362" lon="2.50312">
        <ele>448</ele>
        <time>2015-04-05T14:49:19Z</time>
      </trkpt>
      <trkpt lat="46.1636" lon="2.5031">
        <ele>448</ele>
        <time>2015-04-05T14:49:22Z</time>
      </trkpt>
      <trkpt lat="46.16358" lon="2.50306">
        <ele>448</ele>
        <time>2015-04-05T14:49:25Z</time>
      </trkpt>
      <trkpt lat="46.16357" lon="2.50305">
        <ele>447</ele>
        <time>2015-04-05T14:49:37Z</time>
      </trkpt>
      <trkpt lat="46.16355" lon="2.50301">
        <ele>447</ele>
        <time>2015-04-05T14:49:40Z</time>
      </trkpt>
      <trkpt lat="46.16354" lon="2.50299">
        <ele>447</ele>
        <time>2015-04-05T14:49:43Z</time>
      </trkpt>
      <trkpt lat="46.16353" lon="2.50297">
        <ele>447</ele>
        <time>2015-04-05T14:49:45Z</time>
      </trkpt>
      <trkpt lat="46.16351" lon="2.50293">
        <ele>447</ele>
        <time>2015-04-05T14:49:49Z</time>
      </trkpt>
      <trkpt lat="46.16349" lon="2.50289">
        <ele>447</ele>
        <time>2015-04-05T14:49:52Z</time>
      </trkpt>
      <trkpt lat="46.16348" lon="2.50286">
        <ele>447</ele>
        <time>2015-04-05T14:49:55Z</time>
      </trkpt>
      <trkpt lat="46.16346" lon="2.50282">
        <ele>447</ele>
        <time>2015-04-05T14:49:58Z</time>
      </trkpt>
      <trkpt lat="46.16344" lon="2.5028">
        <ele>447</ele>
        <time>2015-04-05T14:50:01Z</time>
      </trkpt>
      <trkpt lat="46.16342" lon="2.50275">
        <ele>447</ele>
        <time>2015-04-05T14:50:04Z</time>
      </trkpt>
      <trkpt lat="46.16341" lon="2.50272">
        <ele>447</ele>
        <time>2015-04-05T14:50:07Z</time>
      </trkpt>
      <trkpt lat="46.16339" lon="2.50268">
        <ele>447</ele>
        <time>2015-04-05T14:50:10Z</time>
      </trkpt>
      <trkpt lat="46.16338" lon="2.50265">
        <ele>447</ele>
        <time>2015-04-05T14:50:13Z</time>
      </trkpt>
      <trkpt lat="46.16335" lon="2.50261">
        <ele>446</ele>
        <time>2015-04-05T14:50:16Z</time>
      </trkpt>
      <trkpt lat="46.16334" lon="2.50259">
        <ele>446</ele>
        <time>2015-04-05T14:50:19Z</time>
      </trkpt>
      <trkpt lat="46.16331" lon="2.50255">
        <ele>446</ele>
        <time>2015-04-05T14:50:22Z</time>
      </trkpt>
      <trkpt lat="46.1633" lon="2.50253">
        <ele>446</ele>
        <time>2015-04-05T14:50:25Z</time>
      </trkpt>
      <trkpt lat="46.16328" lon="2.50249">
        <ele>446</ele>
        <time>2015-04-05T14:50:28Z</time>
      </trkpt>
      <trkpt lat="46.16327" lon="2.50247">
        <ele>446</ele>
        <time>2015-04-05T14:50:31Z</time>
      </trkpt>
      <trkpt lat="46.16325" lon="2.50242">
        <ele>446</ele>
        <time>2015-04-05T14:50:34Z</time>
      </trkpt>
      <trkpt lat="46.16323" lon="2.50241">
        <ele>446</ele>
        <time>2015-04-05T14:50:37Z</time>
      </trkpt>
      <trkpt lat="46.16322" lon="2.50239">
        <ele>446</ele>
        <time>2015-04-05T14:50:39Z</time>
      </trkpt>
      <trkpt lat="46.1632" lon="2.50235">
        <ele>446</ele>
        <time>2015-04-05T14:50:42Z</time>
      </trkpt>
      <trkpt lat="46.16318" lon="2.50233">
        <ele>446</ele>
        <time>2015-04-05T14:50:45Z</time>
      </trkpt>
      <trkpt lat="46.16314" lon="2.5023">
        <ele>446</ele>
        <time>2015-04-05T14:50:48Z</time>
      </trkpt>
      <trkpt lat="46.16312" lon="2.50228">
        <ele>446</ele>
        <time>2015-04-05T14:50:50Z</time>
      </trkpt>
      <trkpt lat="46.16311" lon="2.50226">
        <ele>446</ele>
        <time>2015-04-05T14:50:52Z</time>
      </trkpt>
      <trkpt lat="46.16309" lon="2.50225">
        <ele>446</ele>
        <time>2015-04-05T14:50:55Z</time>
      </trkpt>
      <trkpt lat="46.16305" lon="2.50222">
        <ele>446</ele>
        <time>2015-04-05T14:50:58Z</time>
      </trkpt>
      <trkpt lat="46.16303" lon="2.50221">
        <ele>446</ele>
        <time>2015-04-05T14:51:01Z</time>
      </trkpt>
      <trkpt lat="46.16299" lon="2.50219">
        <ele>446</ele>
        <time>2015-04-05T14:51:04Z</time>
      </trkpt>
      <trkpt lat="46.16298" lon="2.50218">
        <ele>446</ele>
        <time>2015-04-05T14:51:07Z</time>
      </trkpt>
      <trkpt lat="46.16296" lon="2.50217">
        <ele>446</ele>
        <time>2015-04-05T14:51:09Z</time>
      </trkpt>
      <trkpt lat="46.16292" lon="2.50216">
        <ele>446</ele>
        <time>2015-04-05T14:51:13Z</time>
      </trkpt>
      <trkpt lat="46.16289" lon="2.50215">
        <ele>446</ele>
        <time>2015-04-05T14:51:15Z</time>
      </trkpt>
      <trkpt lat="46.16287" lon="2.50213">
        <ele>446</ele>
        <time>2015-04-05T14:51:17Z</time>
      </trkpt>
      <trkpt lat="46.16285" lon="2.50212">
        <ele>446</ele>
        <time>2015-04-05T14:51:19Z</time>
      </trkpt>
      <trkpt lat="46.16283" lon="2.50212">
        <ele>446</ele>
        <time>2015-04-05T14:51:21Z</time>
      </trkpt>
      <trkpt lat="46.16282" lon="2.50212">
        <ele>446</ele>
        <time>2015-04-05T14:51:23Z</time>
      </trkpt>
      <trkpt lat="46.1628" lon="2.50212">
        <ele>446</ele>
        <time>2015-04-05T14:51:25Z</time>
      </trkpt>
      <trkpt lat="46.16278" lon="2.50211">
        <ele>446</ele>
        <time>2015-04-05T14:51:27Z</time>
      </trkpt>
      <trkpt lat="46.16275" lon="2.5021">
        <ele>446</ele>
        <time>2015-04-05T14:51:30Z</time>
      </trkpt>
      <trkpt lat="46.16273" lon="2.50209">
        <ele>446</ele>
        <time>2015-04-05T14:51:32Z</time>
      </trkpt>
      <trkpt lat="46.16272" lon="2.50209">
        <ele>446</ele>
        <time>2015-04-05T14:51:34Z</time>
      </trkpt>
      <trkpt lat="46.1627" lon="2.50209">
        <ele>446</ele>
        <time>2015-04-05T14:51:45Z</time>
      </trkpt>
      <trkpt lat="46.16267" lon="2.50208">
        <ele>446</ele>
        <time>2015-04-05T14:51:48Z</time>
      </trkpt>
      <trkpt lat="46.16265" lon="2.50208">
        <ele>446</ele>
        <time>2015-04-05T14:51:51Z</time>
      </trkpt>
      <trkpt lat="46.16262" lon="2.50208">
        <ele>446</ele>
        <time>2015-04-05T14:51:54Z</time>
      </trkpt>
      <trkpt lat="46.1626" lon="2.50208">
        <ele>446</ele>
        <time>2015-04-05T14:51:57Z</time>
      </trkpt>
      <trkpt lat="46.16257" lon="2.50208">
        <ele>446</ele>
        <time>2015-04-05T14:52:00Z</time>
      </trkpt>
      <trkpt lat="46.16255" lon="2.50209">
        <ele>446</ele>
        <time>2015-04-05T14:52:03Z</time>
      </trkpt>
      <trkpt lat="46.16251" lon="2.50209">
        <ele>446</ele>
        <time>2015-04-05T14:52:06Z</time>
      </trkpt>
      <trkpt lat="46.16249" lon="2.50209">
        <ele>446</ele>
        <time>2015-04-05T14:52:09Z</time>
      </trkpt>
      <trkpt lat="46.16246" lon="2.5021">
        <ele>446</ele>
        <time>2015-04-05T14:52:12Z</time>
      </trkpt>
      <trkpt lat="46.16244" lon="2.5021">
        <ele>446</ele>
        <time>2015-04-05T14:52:15Z</time>
      </trkpt>
      <trkpt lat="46.1624" lon="2.50211">
        <ele>446</ele>
        <time>2015-04-05T14:52:18Z</time>
      </trkpt>
      <trkpt lat="46.16239" lon="2.50211">
        <ele>446</ele>
        <time>2015-04-05T14:52:21Z</time>
      </trkpt>
      <trkpt lat="46.16235" lon="2.50212">
        <ele>446</ele>
        <time>2015-04-05T14:52:24Z</time>
      </trkpt>
      <trkpt lat="46.16232" lon="2.50213">
        <ele>446</ele>
        <time>2015-04-05T14:52:27Z</time>
      </trkpt>
      <trkpt lat="46.1623" lon="2.50213">
        <ele>446</ele>
        <time>2015-04-05T14:52:29Z</time>
      </trkpt>
      <trkpt lat="46.16228" lon="2.50214">
        <ele>446</ele>
        <time>2015-04-05T14:52:32Z</time>
      </trkpt>
      <trkpt lat="46.16225" lon="2.50216">
        <ele>446</ele>
        <time>2015-04-05T14:52:35Z</time>
      </trkpt>
      <trkpt lat="46.16224" lon="2.50216">
        <ele>446</ele>
        <time>2015-04-05T14:52:37Z</time>
      </trkpt>
      <trkpt lat="46.16222" lon="2.50217">
        <ele>446</ele>
        <time>2015-04-05T14:52:52Z</time>
      </trkpt>
      <trkpt lat="46.16221" lon="2.50218">
        <ele>446</ele>
        <time>2015-04-05T14:52:54Z</time>
      </trkpt>
      <trkpt lat="46.1622" lon="2.50219">
        <ele>446</ele>
        <time>2015-04-05T14:52:56Z</time>
      </trkpt>
      <trkpt lat="46.16218" lon="2.5022">
        <ele>446</ele>
        <time>2015-04-05T14:52:58Z</time>
      </trkpt>
      <trkpt lat="46.16217" lon="2.50221">
        <ele>446</ele>
        <time>2015-04-05T14:53:00Z</time>
      </trkpt>
      <trkpt lat="46.16215" lon="2.50223">
        <ele>446</ele>
        <time>2015-04-05T14:53:02Z</time>
      </trkpt>
      <trkpt lat="46.16214" lon="2.50225">
        <ele>446</ele>
        <time>2015-04-05T14:53:04Z</time>
      </trkpt>
      <trkpt lat="46.16212" lon="2.50226">
        <ele>446</ele>
        <time>2015-04-05T14:53:06Z</time>
      </trkpt>
      <trkpt lat="46.16211" lon="2.50229">
        <ele>446</ele>
        <time>2015-04-05T14:53:08Z</time>
      </trkpt>
      <trkpt lat="46.16209" lon="2.5023">
        <ele>446</ele>
        <time>2015-04-05T14:53:10Z</time>
      </trkpt>
      <trkpt lat="46.16208" lon="2.50232">
        <ele>446</ele>
        <time>2015-04-05T14:53:12Z</time>
      </trkpt>
      <trkpt lat="46.16206" lon="2.50234">
        <ele>446</ele>
        <time>2015-04-05T14:53:14Z</time>
      </trkpt>
      <trkpt lat="46.16205" lon="2.50236">
        <ele>446</ele>
        <time>2015-04-05T14:53:16Z</time>
      </trkpt>
      <trkpt lat="46.16204" lon="2.50238">
        <ele>446</ele>
        <time>2015-04-05T14:53:18Z</time>
      </trkpt>
      <trkpt lat="46.16202" lon="2.50239">
        <ele>446</ele>
        <time>2015-04-05T14:53:20Z</time>
      </trkpt>
      <trkpt lat="46.16201" lon="2.50241">
        <ele>446</ele>
        <time>2015-04-05T14:53:22Z</time>
      </trkpt>
      <trkpt lat="46.162" lon="2.50243">
        <ele>446</ele>
        <time>2015-04-05T14:53:24Z</time>
      </trkpt>
      <trkpt lat="46.16198" lon="2.50244">
        <ele>446</ele>
        <time>2015-04-05T14:53:26Z</time>
      </trkpt>
      <trkpt lat="46.16197" lon="2.50245">
        <ele>446</ele>
        <time>2015-04-05T14:53:28Z</time>
      </trkpt>
      <trkpt lat="46.16195" lon="2.50247">
        <ele>446</ele>
        <time>2015-04-05T14:53:30Z</time>
      </trkpt>
      <trkpt lat="46.16193" lon="2.50248">
        <ele>446</ele>
        <time>2015-04-05T14:53:32Z</time>
      </trkpt>
      <trkpt lat="46.16192" lon="2.50249">
        <ele>446</ele>
        <time>2015-04-05T14:53:34Z</time>
      </trkpt>
      <trkpt lat="46.16189" lon="2.5025">
        <ele>446</ele>
        <time>2015-04-05T14:53:37Z</time>
      </trkpt>
      <trkpt lat="46.16187" lon="2.50251">
        <ele>446</ele>
        <time>2015-04-05T14:53:39Z</time>
      </trkpt>
      <trkpt lat="46.16185" lon="2.50253">
        <ele>446</ele>
        <time>2015-04-05T14:53:41Z</time>
      </trkpt>
      <trkpt lat="46.16184" lon="2.50254">
        <ele>446</ele>
        <time>2015-04-05T14:53:43Z</time>
      </trkpt>
      <trkpt lat="46.16185" lon="2.50252">
        <ele>446</ele>
        <time>2015-04-05T14:53:56Z</time>
      </trkpt>
      <trkpt lat="46.16185" lon="2.50254">
        <ele>446</ele>
        <time>2015-04-05T14:54:08Z</time>
      </trkpt>
      <trkpt lat="46.15969" lon="2.50522">
        <ele>459</ele>
        <time>2015-04-05T14:54:15Z</time>
      </trkpt>
      <trkpt lat="46.15968" lon="2.50524">
        <ele>459</ele>
        <time>2015-04-05T14:54:17Z</time>
      </trkpt>
      <trkpt lat="46.15967" lon="2.50526">
        <ele>459</ele>
        <time>2015-04-05T14:54:19Z</time>
      </trkpt>
      <trkpt lat="46.15966" lon="2.50527">
        <ele>459</ele>
        <time>2015-04-05T14:54:21Z</time>
      </trkpt>
      <trkpt lat="46.15965" lon="2.50529">
        <ele>459</ele>
        <time>2015-04-05T14:54:23Z</time>
      </trkpt>
      <trkpt lat="46.15964" lon="2.50531">
        <ele>459</ele>
        <time>2015-04-05T14:54:25Z</time>
      </trkpt>
      <trkpt lat="46.15963" lon="2.50532">
        <ele>459</ele>
        <time>2015-04-05T14:54:27Z</time>
      </trkpt>
      <trkpt lat="46.15962" lon="2.50534">
        <ele>459</ele>
        <time>2015-04-05T14:54:29Z</time>
      </trkpt>
      <trkpt lat="46.15961" lon="2.50535">
        <ele>459</ele>
        <time>2015-04-05T14:54:31Z</time>
      </trkpt>
      <trkpt lat="46.15959" lon="2.50537">
        <ele>459</ele>
        <time>2015-04-05T14:54:33Z</time>
      </trkpt>
      <trkpt lat="46.15958" lon="2.50538">
        <ele>459</ele>
        <time>2015-04-05T14:54:35Z</time>
      </trkpt>
      <trkpt lat="46.15957" lon="2.5054">
        <ele>459</ele>
        <time>2015-04-05T14:54:37Z</time>
      </trkpt>
      <trkpt lat="46.15956" lon="2.50541">
        <ele>459</ele>
        <time>2015-04-05T14:54:39Z</time>
      </trkpt>
      <trkpt lat="46.15956" lon="2.50543">
        <ele>459</ele>
        <time>2015-04-05T14:54:41Z</time>
      </trkpt>
      <trkpt lat="46.15955" lon="2.50545">
        <ele>459</ele>
        <time>2015-04-05T14:54:43Z</time>
      </trkpt>
      <trkpt lat="46.15953" lon="2.50547">
        <ele>459</ele>
        <time>2015-04-05T14:54:45Z</time>
      </trkpt>
      <trkpt lat="46.15952" lon="2.50548">
        <ele>459</ele>
        <time>2015-04-05T14:54:47Z</time>
      </trkpt>
      <trkpt lat="46.1595" lon="2.5055">
        <ele>459</ele>
        <time>2015-04-05T14:54:49Z</time>
      </trkpt>
      <trkpt lat="46.15949" lon="2.50551">
        <ele>459</ele>
        <time>2015-04-05T14:54:51Z</time>
      </trkpt>
      <trkpt lat="46.15948" lon="2.50553">
        <ele>459</ele>
        <time>2015-04-05T14:54:53Z</time>
      </trkpt>
      <trkpt lat="46.15947" lon="2.50554">
        <ele>459</ele>
        <time>2015-04-05T14:54:55Z</time>
      </trkpt>
      <trkpt lat="46.15945" lon="2.50556">
        <ele>459</ele>
        <time>2015-04-05T14:54:57Z</time>
      </trkpt>
      <trkpt lat="46.15944" lon="2.50557">
        <ele>459</ele>
        <time>2015-04-05T14:54:59Z</time>
      </trkpt>
      <trkpt lat="46.15943" lon="2.50559">
        <ele>459</ele>
        <time>2015-04-05T14:55:01Z</time>
      </trkpt>
      <trkpt lat="46.15941" lon="2.50561">
        <ele>459</ele>
        <time>2015-04-05T14:55:03Z</time>
      </trkpt>
      <trkpt lat="46.1594" lon="2.50563">
        <ele>459</ele>
        <time>2015-04-05T14:55:05Z</time>
      </trkpt>
      <trkpt lat="46.15939" lon="2.50565">
        <ele>459</ele>
        <time>2015-04-05T14:55:07Z</time>
      </trkpt>
      <trkpt lat="46.15937" lon="2.50566">
        <ele>459</ele>
        <time>2015-04-05T14:55:09Z</time>
      </trkpt>
      <trkpt lat="46.15936" lon="2.50568">
        <ele>459</ele>
        <time>2015-04-05T14:55:11Z</time>
      </trkpt>
      <trkpt lat="46.15935" lon="2.5057">
        <ele>459</ele>
        <time>2015-04-05T14:55:13Z</time>
      </trkpt>
      <trkpt lat="46.15933" lon="2.50572">
        <ele>459</ele>
        <time>2015-04-05T14:55:15Z</time>
      </trkpt>
      <trkpt lat="46.15931" lon="2.50573">
        <ele>459</ele>
        <time>2015-04-05T14:55:17Z</time>
      </trkpt>
      <trkpt lat="46.1593" lon="2.50574">
        <ele>459</ele>
        <time>2015-04-05T14:55:19Z</time>
      </trkpt>
      <trkpt lat="46.15928" lon="2.50574">
        <ele>459</ele>
        <time>2015-04-05T14:55:21Z</time>
      </trkpt>
      <trkpt lat="46.15926" lon="2.50574">
        <ele>459</ele>
        <time>2015-04-05T14:55:23Z</time>
      </trkpt>
      <trkpt lat="46.15925" lon="2.50572">
        <ele>459</ele>
        <time>2015-04-05T14:55:25Z</time>
      </trkpt>
      <trkpt lat="46.15923" lon="2.50571">
        <ele>459</ele>
        <time>2015-04-05T14:55:27Z</time>
      </trkpt>
      <trkpt lat="46.15922" lon="2.50569">
        <ele>459</ele>
        <time>2015-04-05T14:55:29Z</time>
      </trkpt>
      <trkpt lat="46.15921" lon="2.50567">
        <ele>459</ele>
        <time>2015-04-05T14:55:31Z</time>
      </trkpt>
      <trkpt lat="46.15919" lon="2.50566">
        <ele>459</ele>
        <time>2015-04-05T14:55:33Z</time>
      </trkpt>
      <trkpt lat="46.15918" lon="2.50564">
        <ele>459</ele>
        <time>2015-04-05T14:55:35Z</time>
      </trkpt>
      <trkpt lat="46.15917" lon="2.50562">
        <ele>459</ele>
        <time>2015-04-05T14:55:37Z</time>
      </trkpt>
      <trkpt lat="46.15916" lon="2.5056">
        <ele>459</ele>
        <time>2015-04-05T14:55:39Z</time>
      </trkpt>
      <trkpt lat="46.15915" lon="2.50557">
        <ele>459</ele>
        <time>2015-04-05T14:55:41Z</time>
      </trkpt>
      <trkpt lat="46.15914" lon="2.50556">
        <ele>459</ele>
        <time>2015-04-05T14:55:43Z</time>
      </trkpt>
      <trkpt lat="46.15913" lon="2.50554">
        <ele>459</ele>
        <time>2015-04-05T14:55:45Z</time>
      </trkpt>
      <trkpt lat="46.15911" lon="2.50552">
        <ele>459</ele>
        <time>2015-04-05T14:55:47Z</time>
      </trkpt>
      <trkpt lat="46.1591" lon="2.5055">
        <ele>459</ele>
        <time>2015-04-05T14:55:49Z</time>
      </trkpt>
      <trkpt lat="46.15909" lon="2.50548">
        <ele>459</ele>
        <time>2015-04-05T14:55:51Z</time>
      </trkpt>
      <trkpt lat="46.15908" lon="2.50546">
        <ele>459</ele>
        <time>2015-04-05T14:55:53Z</time>
      </trkpt>
      <trkpt lat="46.15906" lon="2.50543">
        <ele>459</ele>
        <time>2015-04-05T14:55:55Z</time>
      </trkpt>
      <trkpt lat="46.15905" lon="2.5054">
        <ele>459</ele>
        <time>2015-04-05T14:55:57Z</time>
      </trkpt>
      <trkpt lat="46.15904" lon="2.50539">
        <ele>459</ele>
        <time>2015-04-05T14:55:59Z</time>
      </trkpt>
      <trkpt lat="46.15903" lon="2.50536">
        <ele>459</ele>
        <time>2015-04-05T14:56:01Z</time>
      </trkpt>
      <trkpt lat="46.15901" lon="2.50535">
        <ele>459</ele>
        <time>2015-04-05T14:56:03Z</time>
      </trkpt>
      <trkpt lat="46.159" lon="2.50532">
        <ele>459</ele>
        <time>2015-04-05T14:56:05Z</time>
      </trkpt>
      <trkpt lat="46.15899" lon="2.5053">
        <ele>459</ele>
        <time>2015-04-05T14:56:07Z</time>
      </trkpt>
      <trkpt lat="46.15898" lon="2.50528">
        <ele>459</ele>
        <time>2015-04-05T14:56:09Z</time>
      </trkpt>
      <trkpt lat="46.15896" lon="2.50525">
        <ele>459</ele>
        <time>2015-04-05T14:56:11Z</time>
      </trkpt>
      <trkpt lat="46.15895" lon="2.50523">
        <ele>459</ele>
        <time>2015-04-05T14:56:13Z</time>
      </trkpt>
      <trkpt lat="46.15894" lon="2.50521">
        <ele>459</ele>
        <time>2015-04-05T14:56:15Z</time>
      </trkpt>
      <trkpt lat="46.15893" lon="2.50518">
        <ele>459</ele>
        <time>2015-04-05T14:56:17Z</time>
      </trkpt>
      <trkpt lat="46.15892" lon="2.50516">
        <ele>459</ele>
        <time>2015-04-05T14:56:19Z</time>
      </trkpt>
      <trkpt lat="46.1589" lon="2.50514">
        <ele>459</ele>
        <time>2015-04-05T14:56:21Z</time>
      </trkpt>
      <trkpt lat="46.15889" lon="2.50512">
        <ele>459</ele>
        <time>2015-04-05T14:56:23Z</time>
      </trkpt>
      <trkpt lat="46.15888" lon="2.5051">
        <ele>459</ele>
        <time>2015-04-05T14:56:25Z</time>
      </trkpt>
      <trkpt lat="46.15887" lon="2.50508">
        <ele>459</ele>
        <time>2015-04-05T14:56:27Z</time>
      </trkpt>
      <trkpt lat="46.15886" lon="2.50506">
        <ele>459</ele>
        <time>2015-04-05T14:56:29Z</time>
      </trkpt>
      <trkpt lat="46.15884" lon="2.50504">
        <ele>459</ele>
        <time>2015-04-05T14:56:31Z</time>
      </trkpt>
      <trkpt lat="46.15883" lon="2.50502">
        <ele>459</ele>
        <time>2015-04-05T14:56:33Z</time>
      </trkpt>
      <trkpt lat="46.15882" lon="2.505">
        <ele>459</ele>
        <time>2015-04-05T14:56:35Z</time>
      </trkpt>
      <trkpt lat="46.15881" lon="2.50497">
        <ele>459</ele>
        <time>2015-04-05T14:56:37Z</time>
      </trkpt>
      <trkpt lat="46.15879" lon="2.50496">
        <ele>459</ele>
        <time>2015-04-05T14:56:39Z</time>
      </trkpt>
      <trkpt lat="46.15879" lon="2.50493">
        <ele>459</ele>
        <time>2015-04-05T14:56:41Z</time>
      </trkpt>
      <trkpt lat="46.15877" lon="2.50491">
        <ele>459</ele>
        <time>2015-04-05T14:56:43Z</time>
      </trkpt>
      <trkpt lat="46.15876" lon="2.50489">
        <ele>459</ele>
        <time>2015-04-05T14:56:45Z</time>
      </trkpt>
      <trkpt lat="46.15875" lon="2.50487">
        <ele>459</ele>
        <time>2015-04-05T14:56:47Z</time>
      </trkpt>
      <trkpt lat="46.15874" lon="2.50485">
        <ele>459</ele>
        <time>2015-04-05T14:56:49Z</time>
      </trkpt>
      <trkpt lat="46.15873" lon="2.50483">
        <ele>459</ele>
        <time>2015-04-05T14:56:51Z</time>
      </trkpt>
      <trkpt lat="46.15871" lon="2.50481">
        <ele>459</ele>
        <time>2015-04-05T14:56:53Z</time>
      </trkpt>
      <trkpt lat="46.1587" lon="2.50479">
        <ele>459</ele>
        <time>2015-04-05T14:56:55Z</time>
      </trkpt>
      <trkpt lat="46.15869" lon="2.50477">
        <ele>459</ele>
        <time>2015-04-05T14:56:57Z</time>
      </trkpt>
      <trkpt lat="46.15868" lon="2.50474">
        <ele>459</ele>
        <time>2015-04-05T14:56:59Z</time>
      </trkpt>
      <trkpt lat="46.15866" lon="2.50472">
        <ele>459</ele>
        <time>2015-04-05T14:57:01Z</time>
      </trkpt>
      <trkpt lat="46.15865" lon="2.5047">
        <ele>459</ele>
        <time>2015-04-05T14:57:03Z</time>
      </trkpt>
      <trkpt lat="46.15864" lon="2.50468">
        <ele>459</ele>
        <time>2015-04-05T14:57:05Z</time>
      </trkpt>
      <trkpt lat="46.15863" lon="2.50466">
        <ele>459</ele>
        <time>2015-04-05T14:57:07Z</time>
      </trkpt>
      <trkpt lat="46.15861" lon="2.50464">
        <ele>459</ele>
        <time>2015-04-05T14:57:09Z</time>
      </trkpt>
      <trkpt lat="46.1586" lon="2.50462">
        <ele>459</ele>
        <time>2015-04-05T14:57:11Z</time>
      </trkpt>
      <trkpt lat="46.15859" lon="2.5046">
        <ele>459</ele>
        <time>2015-04-05T14:57:13Z</time>
      </trkpt>
      <trkpt lat="46.15858" lon="2.50457">
        <ele>459</ele>
        <time>2015-04-05T14:57:15Z</time>
      </trkpt>
      <trkpt lat="46.15857" lon="2.50455">
        <ele>459</ele>
        <time>2015-04-05T14:57:17Z</time>
      </trkpt>
      <trkpt lat="46.15856" lon="2.50453">
        <ele>459</ele>
        <time>2015-04-05T14:57:19Z</time>
      </trkpt>
      <trkpt lat="46.15855" lon="2.50451">
        <ele>459</ele>
        <time>2015-04-05T14:57:21Z</time>
      </trkpt>
      <trkpt lat="46.15854" lon="2.5045">
        <ele>459</ele>
        <time>2015-04-05T14:57:23Z</time>
      </trkpt>
      <trkpt lat="46.15853" lon="2.50447">
        <ele>459</ele>
        <time>2015-04-05T14:57:25Z</time>
      </trkpt>
      <trkpt lat="46.15852" lon="2.50445">
        <ele>459</ele>
        <time>2015-04-05T14:57:27Z</time>
      </trkpt>
      <trkpt lat="46.1585" lon="2.50443">
        <ele>459</ele>
        <time>2015-04-05T14:57:29Z</time>
      </trkpt>
      <trkpt lat="46.15849" lon="2.50441">
        <ele>459</ele>
        <time>2015-04-05T14:57:31Z</time>
      </trkpt>
      <trkpt lat="46.15848" lon="2.50439">
        <ele>459</ele>
        <time>2015-04-05T14:57:33Z</time>
      </trkpt>
      <trkpt lat="46.15847" lon="2.50437">
        <ele>459</ele>
        <time>2015-04-05T14:57:35Z</time>
      </trkpt>
      <trkpt lat="46.15846" lon="2.50435">
        <ele>459</ele>
        <time>2015-04-05T14:57:37Z</time>
      </trkpt>
      <trkpt lat="46.15844" lon="2.50432">
        <ele>459</ele>
        <time>2015-04-05T14:57:39Z</time>
      </trkpt>
      <trkpt lat="46.15844" lon="2.5043">
        <ele>459</ele>
        <time>2015-04-05T14:57:41Z</time>
      </trkpt>
      <trkpt lat="46.15842" lon="2.50428">
        <ele>459</ele>
        <time>2015-04-05T14:57:43Z</time>
      </trkpt>
      <trkpt lat="46.15841" lon="2.50426">
        <ele>459</ele>
        <time>2015-04-05T14:57:45Z</time>
      </trkpt>
      <trkpt lat="46.1584" lon="2.50424">
        <ele>459</ele>
        <time>2015-04-05T14:57:47Z</time>
      </trkpt>
      <trkpt lat="46.15839" lon="2.50422">
        <ele>459</ele>
        <time>2015-04-05T14:57:49Z</time>
      </trkpt>
      <trkpt lat="46.15838" lon="2.5042">
        <ele>459</ele>
        <time>2015-04-05T14:57:51Z</time>
      </trkpt>
      <trkpt lat="46.15837" lon="2.50418">
        <ele>459</ele>
        <time>2015-04-05T14:57:53Z</time>
      </trkpt>
      <trkpt lat="46.15836" lon="2.50416">
        <ele>459</ele>
        <time>2015-04-05T14:57:55Z</time>
      </trkpt>
      <trkpt lat="46.15834" lon="2.50414">
        <ele>459</ele>
        <time>2015-04-05T14:57:57Z</time>
      </trkpt>
      <trkpt lat="46.15833" lon="2.50412">
        <ele>459</ele>
        <time>2015-04-05T14:57:59Z</time>
      </trkpt>
      <trkpt lat="46.15832" lon="2.5041">
        <ele>459</ele>
        <time>2015-04-05T14:58:01Z</time>
      </trkpt>
      <trkpt lat="46.15831" lon="2.50408">
        <ele>459</ele>
        <time>2015-04-05T14:58:03Z</time>
      </trkpt>
      <trkpt lat="46.1583" lon="2.50406">
        <ele>459</ele>
        <time>2015-04-05T14:58:05Z</time>
      </trkpt>
      <trkpt lat="46.15829" lon="2.50404">
        <ele>459</ele>
        <time>2015-04-05T14:58:07Z</time>
      </trkpt>
      <trkpt lat="46.15827" lon="2.50402">
        <ele>459</ele>
        <time>2015-04-05T14:58:09Z</time>
      </trkpt>
      <trkpt lat="46.15826" lon="2.504">
        <ele>459</ele>
        <time>2015-04-05T14:58:11Z</time>
      </trkpt>
      <trkpt lat="46.15825" lon="2.50398">
        <ele>459</ele>
        <time>2015-04-05T14:58:13Z</time>
      </trkpt>
      <trkpt lat="46.15824" lon="2.50395">
        <ele>459</ele>
        <time>2015-04-05T14:58:15Z</time>
      </trkpt>
      <trkpt lat="46.15823" lon="2.50393">
        <ele>459</ele>
        <time>2015-04-05T14:58:17Z</time>
      </trkpt>
      <trkpt lat="46.15821" lon="2.50391">
        <ele>459</ele>
        <time>2015-04-05T14:58:19Z</time>
      </trkpt>
      <trkpt lat="46.1582" lon="2.50389">
        <ele>459</ele>
        <time>2015-04-05T14:58:21Z</time>
      </trkpt>
      <trkpt lat="46.15819" lon="2.50387">
        <ele>459</ele>
        <time>2015-04-05T14:58:23Z</time>
      </trkpt>
      <trkpt lat="46.15818" lon="2.50385">
        <ele>459</ele>
        <time>2015-04-05T14:58:25Z</time>
      </trkpt>
      <trkpt lat="46.15817" lon="2.50383">
        <ele>459</ele>
        <time>2015-04-05T14:58:27Z</time>
      </trkpt>
      <trkpt lat="46.15815" lon="2.50382">
        <ele>459</ele>
        <time>2015-04-05T14:58:29Z</time>
      </trkpt>
      <trkpt lat="46.15814" lon="2.5038">
        <ele>459</ele>
        <time>2015-04-05T14:58:31Z</time>
      </trkpt>
      <trkpt lat="46.15813" lon="2.50377">
        <ele>459</ele>
        <time>2015-04-05T14:58:33Z</time>
      </trkpt>
      <trkpt lat="46.15813" lon="2.50376">
        <ele>459</ele>
        <time>2015-04-05T14:58:35Z</time>
      </trkpt>
      <trkpt lat="46.15811" lon="2.50374">
        <ele>459</ele>
        <time>2015-04-05T14:58:37Z</time>
      </trkpt>
      <trkpt lat="46.1581" lon="2.50371">
        <ele>459</ele>
        <time>2015-04-05T14:58:39Z</time>
      </trkpt>
      <trkpt lat="46.15808" lon="2.50369">
        <ele>458</ele>
        <time>2015-04-05T14:58:41Z</time>
      </trkpt>
      <trkpt lat="46.15807" lon="2.50367">
        <ele>458</ele>
        <time>2015-04-05T14:58:43Z</time>
      </trkpt>
      <trkpt lat="46.15806" lon="2.50365">
        <ele>458</ele>
        <time>2015-04-05T14:58:45Z</time>
      </trkpt>
      <trkpt lat="46.15805" lon="2.50363">
        <ele>458</ele>
        <time>2015-04-05T14:58:47Z</time>
      </trkpt>
      <trkpt lat="46.15804" lon="2.50361">
        <ele>458</ele>
        <time>2015-04-05T14:58:49Z</time>
      </trkpt>
      <trkpt lat="46.15802" lon="2.50359">
        <ele>458</ele>
        <time>2015-04-05T14:58:51Z</time>
      </trkpt>
      <trkpt lat="46.15801" lon="2.50356">
        <ele>458</ele>
        <time>2015-04-05T14:58:53Z</time>
      </trkpt>
      <trkpt lat="46.158" lon="2.50354">
        <ele>457</ele>
        <time>2015-04-05T14:58:55Z</time>
      </trkpt>
      <trkpt lat="46.15799" lon="2.50352">
        <ele>457</ele>
        <time>2015-04-05T14:58:57Z</time>
      </trkpt>
      <trkpt lat="46.15797" lon="2.5035">
        <ele>457</ele>
        <time>2015-04-05T14:58:59Z</time>
      </trkpt>
      <trkpt lat="46.15796" lon="2.50348">
        <ele>457</ele>
        <time>2015-04-05T14:59:01Z</time>
      </trkpt>
      <trkpt lat="46.15795" lon="2.50346">
        <ele>457</ele>
        <time>2015-04-05T14:59:03Z</time>
      </trkpt>
      <trkpt lat="46.15794" lon="2.50344">
        <ele>457</ele>
        <time>2015-04-05T14:59:05Z</time>
      </trkpt>
      <trkpt lat="46.15793" lon="2.50342">
        <ele>457</ele>
        <time>2015-04-05T14:59:07Z</time>
      </trkpt>
      <trkpt lat="46.15792" lon="2.5034">
        <ele>457</ele>
        <time>2015-04-05T14:59:09Z</time>
      </trkpt>
      <trkpt lat="46.15791" lon="2.50338">
        <ele>457</ele>
        <time>2015-04-05T14:59:11Z</time>
      </trkpt>
      <trkpt lat="46.1579" lon="2.50336">
        <ele>456</ele>
        <time>2015-04-05T14:59:13Z</time>
      </trkpt>
      <trkpt lat="46.15789" lon="2.50334">
        <ele>456</ele>
        <time>2015-04-05T14:59:15Z</time>
      </trkpt>
      <trkpt lat="46.15788" lon="2.50332">
        <ele>456</ele>
        <time>2015-04-05T14:59:17Z</time>
      </trkpt>
      <trkpt lat="46.15785" lon="2.50328">
        <ele>456</ele>
        <time>2015-04-05T14:59:21Z</time>
      </trkpt>
      <trkpt lat="46.15784" lon="2.50326">
        <ele>456</ele>
        <time>2015-04-05T14:59:23Z</time>
      </trkpt>
      <trkpt lat="46.15783" lon="2.50324">
        <ele>455</ele>
        <time>2015-04-05T14:59:25Z</time>
      </trkpt>
      <trkpt lat="46.15782" lon="2.50322">
        <ele>455</ele>
        <time>2015-04-05T14:59:27Z</time>
      </trkpt>
      <trkpt lat="46.15781" lon="2.5032">
        <ele>455</ele>
        <time>2015-04-05T14:59:29Z</time>
      </trkpt>
      <trkpt lat="46.15779" lon="2.50318">
        <ele>455</ele>
        <time>2015-04-05T14:59:31Z</time>
      </trkpt>
      <trkpt lat="46.15778" lon="2.50316">
        <ele>455</ele>
        <time>2015-04-05T14:59:33Z</time>
      </trkpt>
      <trkpt lat="46.15777" lon="2.50314">
        <ele>454</ele>
        <time>2015-04-05T14:59:35Z</time>
      </trkpt>
      <trkpt lat="46.15776" lon="2.50311">
        <ele>454</ele>
        <time>2015-04-05T14:59:37Z</time>
      </trkpt>
      <trkpt lat="46.15775" lon="2.50309">
        <ele>454</ele>
        <time>2015-04-05T14:59:39Z</time>
      </trkpt>
      <trkpt lat="46.15773" lon="2.50307">
        <ele>454</ele>
        <time>2015-04-05T14:59:41Z</time>
      </trkpt>
      <trkpt lat="46.15772" lon="2.50305">
        <ele>454</ele>
        <time>2015-04-05T14:59:43Z</time>
      </trkpt>
      <trkpt lat="46.15771" lon="2.50303">
        <ele>454</ele>
        <time>2015-04-05T14:59:45Z</time>
      </trkpt>
      <trkpt lat="46.1577" lon="2.503">
        <ele>453</ele>
        <time>2015-04-05T14:59:47Z</time>
      </trkpt>
      <trkpt lat="46.15769" lon="2.50298">
        <ele>453</ele>
        <time>2015-04-05T14:59:49Z</time>
      </trkpt>
      <trkpt lat="46.15768" lon="2.50296">
        <ele>453</ele>
        <time>2015-04-05T14:59:51Z</time>
      </trkpt>
      <trkpt lat="46.15766" lon="2.50294">
        <ele>453</ele>
        <time>2015-04-05T14:59:53Z</time>
      </trkpt>
      <trkpt lat="46.15765" lon="2.50292">
        <ele>453</ele>
        <time>2015-04-05T14:59:56Z</time>
      </trkpt>
      <trkpt lat="46.15764" lon="2.5029">
        <ele>453</ele>
        <time>2015-04-05T14:59:58Z</time>
      </trkpt>
      <trkpt lat="46.15763" lon="2.50288">
        <ele>453</ele>
        <time>2015-04-05T15:00:00Z</time>
      </trkpt>
      <trkpt lat="46.15762" lon="2.50286">
        <ele>453</ele>
        <time>2015-04-05T15:00:02Z</time>
      </trkpt>
      <trkpt lat="46.1576" lon="2.50284">
        <ele>453</ele>
        <time>2015-04-05T15:00:04Z</time>
      </trkpt>
      <trkpt lat="46.15759" lon="2.50281">
        <ele>453</ele>
        <time>2015-04-05T15:00:06Z</time>
      </trkpt>
      <trkpt lat="46.15758" lon="2.50279">
        <ele>453</ele>
        <time>2015-04-05T15:00:08Z</time>
      </trkpt>
      <trkpt lat="46.15757" lon="2.50277">
        <ele>453</ele>
        <time>2015-04-05T15:00:10Z</time>
      </trkpt>
      <trkpt lat="46.15756" lon="2.50275">
        <ele>453</ele>
        <time>2015-04-05T15:00:12Z</time>
      </trkpt>
      <trkpt lat="46.15755" lon="2.50272">
        <ele>453</ele>
        <time>2015-04-05T15:00:14Z</time>
      </trkpt>
      <trkpt lat="46.15754" lon="2.50271">
        <ele>452</ele>
        <time>2015-04-05T15:00:16Z</time>
      </trkpt>
      <trkpt lat="46.15752" lon="2.50269">
        <ele>452</ele>
        <time>2015-04-05T15:00:18Z</time>
      </trkpt>
      <trkpt lat="46.15751" lon="2.50266">
        <ele>452</ele>
        <time>2015-04-05T15:00:20Z</time>
      </trkpt>
      <trkpt lat="46.1575" lon="2.50264">
        <ele>452</ele>
        <time>2015-04-05T15:00:22Z</time>
      </trkpt>
      <trkpt lat="46.15749" lon="2.50262">
        <ele>452</ele>
        <time>2015-04-05T15:00:24Z</time>
      </trkpt>
      <trkpt lat="46.15748" lon="2.50259">
        <ele>452</ele>
        <time>2015-04-05T15:00:26Z</time>
      </trkpt>
      <trkpt lat="46.15747" lon="2.50257">
        <ele>452</ele>
        <time>2015-04-05T15:00:28Z</time>
      </trkpt>
      <trkpt lat="46.15746" lon="2.50255">
        <ele>452</ele>
        <time>2015-04-05T15:00:30Z</time>
      </trkpt>
      <trkpt lat="46.15745" lon="2.50253">
        <ele>452</ele>
        <time>2015-04-05T15:00:32Z</time>
      </trkpt>
      <trkpt lat="46.15744" lon="2.5025">
        <ele>452</ele>
        <time>2015-04-05T15:00:34Z</time>
      </trkpt>
      <trkpt lat="46.15743" lon="2.50248">
        <ele>452</ele>
        <time>2015-04-05T15:00:36Z</time>
      </trkpt>
      <trkpt lat="46.15742" lon="2.50247">
        <ele>452</ele>
        <time>2015-04-05T15:00:38Z</time>
      </trkpt>
      <trkpt lat="46.15743" lon="2.50245">
        <ele>452</ele>
        <time>2015-04-05T15:00:41Z</time>
      </trkpt>
      <trkpt lat="46.15741" lon="2.50244">
        <ele>452</ele>
        <time>2015-04-05T15:00:47Z</time>
      </trkpt>
      <trkpt lat="46.1574" lon="2.50243">
        <ele>452</ele>
        <time>2015-04-05T15:00:49Z</time>
      </trkpt>
      <trkpt lat="46.15739" lon="2.50241">
        <ele>452</ele>
        <time>2015-04-05T15:00:51Z</time>
      </trkpt>
      <trkpt lat="46.15738" lon="2.5024">
        <ele>452</ele>
        <time>2015-04-05T15:00:54Z</time>
      </trkpt>
      <trkpt lat="46.15736" lon="2.50238">
        <ele>452</ele>
        <time>2015-04-05T15:01:07Z</time>
      </trkpt>
      <trkpt lat="46.15735" lon="2.50236">
        <ele>452</ele>
        <time>2015-04-05T15:01:09Z</time>
      </trkpt>
      <trkpt lat="46.15734" lon="2.50234">
        <ele>452</ele>
        <time>2015-04-05T15:01:11Z</time>
      </trkpt>
      <trkpt lat="46.15733" lon="2.50232">
        <ele>452</ele>
        <time>2015-04-05T15:01:13Z</time>
      </trkpt>
      <trkpt lat="46.15732" lon="2.5023">
        <ele>452</ele>
        <time>2015-04-05T15:01:15Z</time>
      </trkpt>
      <trkpt lat="46.15731" lon="2.50227">
        <ele>452</ele>
        <time>2015-04-05T15:01:17Z</time>
      </trkpt>
      <trkpt lat="46.15731" lon="2.50225">
        <ele>452</ele>
        <time>2015-04-05T15:01:19Z</time>
      </trkpt>
      <trkpt lat="46.1573" lon="2.50222">
        <ele>452</ele>
        <time>2015-04-05T15:01:21Z</time>
      </trkpt>
      <trkpt lat="46.15728" lon="2.5022">
        <ele>452</ele>
        <time>2015-04-05T15:01:23Z</time>
      </trkpt>
      <trkpt lat="46.15727" lon="2.50218">
        <ele>452</ele>
        <time>2015-04-05T15:01:25Z</time>
      </trkpt>
      <trkpt lat="46.15726" lon="2.50216">
        <ele>452</ele>
        <time>2015-04-05T15:01:27Z</time>
      </trkpt>
      <trkpt lat="46.15725" lon="2.50213">
        <ele>452</ele>
        <time>2015-04-05T15:01:29Z</time>
      </trkpt>
      <trkpt lat="46.15724" lon="2.50211">
        <ele>452</ele>
        <time>2015-04-05T15:01:31Z</time>
      </trkpt>
      <trkpt lat="46.15723" lon="2.50208">
        <ele>452</ele>
        <time>2015-04-05T15:01:33Z</time>
      </trkpt>
      <trkpt lat="46.15722" lon="2.50206">
        <ele>452</ele>
        <time>2015-04-05T15:01:35Z</time>
      </trkpt>
      <trkpt lat="46.15721" lon="2.50204">
        <ele>452</ele>
        <time>2015-04-05T15:01:37Z</time>
      </trkpt>
      <trkpt lat="46.1572" lon="2.50202">
        <ele>452</ele>
        <time>2015-04-05T15:01:39Z</time>
      </trkpt>
      <trkpt lat="46.15719" lon="2.502">
        <ele>452</ele>
        <time>2015-04-05T15:01:41Z</time>
      </trkpt>
      <trkpt lat="46.15718" lon="2.50198">
        <ele>452</ele>
        <time>2015-04-05T15:01:43Z</time>
      </trkpt>
      <trkpt lat="46.15717" lon="2.50196">
        <ele>452</ele>
        <time>2015-04-05T15:01:45Z</time>
      </trkpt>
      <trkpt lat="46.15716" lon="2.50194">
        <ele>452</ele>
        <time>2015-04-05T15:01:47Z</time>
      </trkpt>
      <trkpt lat="46.15715" lon="2.50191">
        <ele>452</ele>
        <time>2015-04-05T15:01:49Z</time>
      </trkpt>
      <trkpt lat="46.15715" lon="2.50189">
        <ele>452</ele>
        <time>2015-04-05T15:01:51Z</time>
      </trkpt>
      <trkpt lat="46.15714" lon="2.50187">
        <ele>452</ele>
        <time>2015-04-05T15:01:53Z</time>
      </trkpt>
      <trkpt lat="46.15713" lon="2.50185">
        <ele>452</ele>
        <time>2015-04-05T15:01:55Z</time>
      </trkpt>
      <trkpt lat="46.15712" lon="2.50183">
        <ele>452</ele>
        <time>2015-04-05T15:01:57Z</time>
      </trkpt>
      <trkpt lat="46.15711" lon="2.5018">
        <ele>452</ele>
        <time>2015-04-05T15:01:59Z</time>
      </trkpt>
      <trkpt lat="46.1571" lon="2.50178">
        <ele>452</ele>
        <time>2015-04-05T15:02:01Z</time>
      </trkpt>
      <trkpt lat="46.1571" lon="2.50176">
        <ele>452</ele>
        <time>2015-04-05T15:02:03Z</time>
      </trkpt>
      <trkpt lat="46.15709" lon="2.50174">
        <ele>452</ele>
        <time>2015-04-05T15:02:05Z</time>
      </trkpt>
      <trkpt lat="46.15708" lon="2.50172">
        <ele>452</ele>
        <time>2015-04-05T15:02:07Z</time>
      </trkpt>
      <trkpt lat="46.15707" lon="2.50169">
        <ele>452</ele>
        <time>2015-04-05T15:02:09Z</time>
      </trkpt>
      <trkpt lat="46.15706" lon="2.50167">
        <ele>452</ele>
        <time>2015-04-05T15:02:11Z</time>
      </trkpt>
      <trkpt lat="46.15705" lon="2.50165">
        <ele>452</ele>
        <time>2015-04-05T15:02:13Z</time>
      </trkpt>
      <trkpt lat="46.15704" lon="2.50163">
        <ele>452</ele>
        <time>2015-04-05T15:02:15Z</time>
      </trkpt>
      <trkpt lat="46.15704" lon="2.5016">
        <ele>452</ele>
        <time>2015-04-05T15:02:17Z</time>
      </trkpt>
      <trkpt lat="46.15702" lon="2.50158">
        <ele>452</ele>
        <time>2015-04-05T15:02:19Z</time>
      </trkpt>
      <trkpt lat="46.15701" lon="2.50156">
        <ele>452</ele>
        <time>2015-04-05T15:02:21Z</time>
      </trkpt>
      <trkpt lat="46.157" lon="2.50154">
        <ele>452</ele>
        <time>2015-04-05T15:02:23Z</time>
      </trkpt>
      <trkpt lat="46.15699" lon="2.50152">
        <ele>452</ele>
        <time>2015-04-05T15:02:25Z</time>
      </trkpt>
      <trkpt lat="46.15699" lon="2.5015">
        <ele>452</ele>
        <time>2015-04-05T15:02:27Z</time>
      </trkpt>
      <trkpt lat="46.15698" lon="2.50148">
        <ele>452</ele>
        <time>2015-04-05T15:02:29Z</time>
      </trkpt>
      <trkpt lat="46.15696" lon="2.50146">
        <ele>452</ele>
        <time>2015-04-05T15:02:31Z</time>
      </trkpt>
      <trkpt lat="46.15695" lon="2.50144">
        <ele>452</ele>
        <time>2015-04-05T15:02:33Z</time>
      </trkpt>
      <trkpt lat="46.15694" lon="2.50143">
        <ele>452</ele>
        <time>2015-04-05T15:02:35Z</time>
      </trkpt>
      <trkpt lat="46.15694" lon="2.50141">
        <ele>452</ele>
        <time>2015-04-05T15:02:37Z</time>
      </trkpt>
      <trkpt lat="46.15693" lon="2.50138">
        <ele>452</ele>
        <time>2015-04-05T15:02:39Z</time>
      </trkpt>
      <trkpt lat="46.15693" lon="2.50136">
        <ele>452</ele>
        <time>2015-04-05T15:02:41Z</time>
      </trkpt>
      <trkpt lat="46.15691" lon="2.50134">
        <ele>452</ele>
        <time>2015-04-05T15:02:43Z</time>
      </trkpt>
      <trkpt lat="46.15691" lon="2.50133">
        <ele>452</ele>
        <time>2015-04-05T15:02:45Z</time>
      </trkpt>
      <trkpt lat="46.1569" lon="2.50131">
        <ele>452</ele>
        <time>2015-04-05T15:02:49Z</time>
      </trkpt>
      <trkpt lat="46.15689" lon="2.50129">
        <ele>452</ele>
        <time>2015-04-05T15:02:51Z</time>
      </trkpt>
      <trkpt lat="46.15688" lon="2.50127">
        <ele>452</ele>
        <time>2015-04-05T15:02:53Z</time>
      </trkpt>
      <trkpt lat="46.15688" lon="2.50125">
        <ele>452</ele>
        <time>2015-04-05T15:02:55Z</time>
      </trkpt>
      <trkpt lat="46.15687" lon="2.50124">
        <ele>452</ele>
        <time>2015-04-05T15:02:57Z</time>
      </trkpt>
      <trkpt lat="46.15686" lon="2.50122">
        <ele>452</ele>
        <time>2015-04-05T15:02:59Z</time>
      </trkpt>
      <trkpt lat="46.15686" lon="2.5012">
        <ele>452</ele>
        <time>2015-04-05T15:03:01Z</time>
      </trkpt>
      <trkpt lat="46.15685" lon="2.50118">
        <ele>452</ele>
        <time>2015-04-05T15:03:03Z</time>
      </trkpt>
      <trkpt lat="46.15684" lon="2.50117">
        <ele>452</ele>
        <time>2015-04-05T15:03:05Z</time>
      </trkpt>
      <trkpt lat="46.15683" lon="2.50115">
        <ele>453</ele>
        <time>2015-04-05T15:03:07Z</time>
      </trkpt>
      <trkpt lat="46.15683" lon="2.50114">
        <ele>453</ele>
        <time>2015-04-05T15:03:09Z</time>
      </trkpt>
      <trkpt lat="46.15682" lon="2.50112">
        <ele>453</ele>
        <time>2015-04-05T15:03:11Z</time>
      </trkpt>
      <trkpt lat="46.15681" lon="2.50111">
        <ele>453</ele>
        <time>2015-04-05T15:03:13Z</time>
      </trkpt>
      <trkpt lat="46.15681" lon="2.50109">
        <ele>453</ele>
        <time>2015-04-05T15:03:15Z</time>
      </trkpt>
      <trkpt lat="46.1568" lon="2.50107">
        <ele>453</ele>
        <time>2015-04-05T15:03:17Z</time>
      </trkpt>
      <trkpt lat="46.15679" lon="2.50105">
        <ele>453</ele>
        <time>2015-04-05T15:03:19Z</time>
      </trkpt>
      <trkpt lat="46.15678" lon="2.50103">
        <ele>453</ele>
        <time>2015-04-05T15:03:21Z</time>
      </trkpt>
      <trkpt lat="46.15677" lon="2.50101">
        <ele>453</ele>
        <time>2015-04-05T15:03:23Z</time>
      </trkpt>
      <trkpt lat="46.15675" lon="2.501">
        <ele>453</ele>
        <time>2015-04-05T15:03:25Z</time>
      </trkpt>
      <trkpt lat="46.15674" lon="2.50098">
        <ele>453</ele>
        <time>2015-04-05T15:03:27Z</time>
      </trkpt>
      <trkpt lat="46.15673" lon="2.50098">
        <ele>453</ele>
        <time>2015-04-05T15:03:29Z</time>
      </trkpt>
      <trkpt lat="46.1567" lon="2.50098">
        <ele>453</ele>
        <time>2015-04-05T15:03:31Z</time>
      </trkpt>
      <trkpt lat="46.15668" lon="2.50099">
        <ele>454</ele>
        <time>2015-04-05T15:03:33Z</time>
      </trkpt>
      <trkpt lat="46.15666" lon="2.50099">
        <ele>454</ele>
        <time>2015-04-05T15:03:35Z</time>
      </trkpt>
      <trkpt lat="46.15664" lon="2.501">
        <ele>454</ele>
        <time>2015-04-05T15:03:37Z</time>
      </trkpt>
      <trkpt lat="46.15665" lon="2.50098">
        <ele>455</ele>
        <time>2015-04-05T15:03:44Z</time>
      </trkpt>
      <trkpt lat="46.15667" lon="2.50097">
        <ele>455</ele>
        <time>2015-04-05T15:03:46Z</time>
      </trkpt>
      <trkpt lat="46.15667" lon="2.50094">
        <ele>455</ele>
        <time>2015-04-05T15:03:48Z</time>
      </trkpt>
      <trkpt lat="46.15668" lon="2.50092">
        <ele>455</ele>
        <time>2015-04-05T15:03:50Z</time>
      </trkpt>
      <trkpt lat="46.1567" lon="2.5009">
        <ele>455</ele>
        <time>2015-04-05T15:03:52Z</time>
      </trkpt>
      <trkpt lat="46.15672" lon="2.50087">
        <ele>455</ele>
        <time>2015-04-05T15:03:54Z</time>
      </trkpt>
      <trkpt lat="46.15673" lon="2.50085">
        <ele>455</ele>
        <time>2015-04-05T15:03:56Z</time>
      </trkpt>
      <trkpt lat="46.15675" lon="2.50084">
        <ele>455</ele>
        <time>2015-04-05T15:03:58Z</time>
      </trkpt>
      <trkpt lat="46.15677" lon="2.50082">
        <ele>455</ele>
        <time>2015-04-05T15:04:00Z</time>
      </trkpt>
      <trkpt lat="46.15679" lon="2.50081">
        <ele>455</ele>
        <time>2015-04-05T15:04:02Z</time>
      </trkpt>
      <trkpt lat="46.1568" lon="2.50079">
        <ele>455</ele>
        <time>2015-04-05T15:04:04Z</time>
      </trkpt>
      <trkpt lat="46.15681" lon="2.50077">
        <ele>455</ele>
        <time>2015-04-05T15:04:06Z</time>
      </trkpt>
      <trkpt lat="46.15683" lon="2.50076">
        <ele>455</ele>
        <time>2015-04-05T15:04:08Z</time>
      </trkpt>
      <trkpt lat="46.15684" lon="2.50074">
        <ele>455</ele>
        <time>2015-04-05T15:04:10Z</time>
      </trkpt>
      <trkpt lat="46.15686" lon="2.50072">
        <ele>455</ele>
        <time>2015-04-05T15:04:12Z</time>
      </trkpt>
      <trkpt lat="46.15687" lon="2.5007">
        <ele>455</ele>
        <time>2015-04-05T15:04:14Z</time>
      </trkpt>
      <trkpt lat="46.15689" lon="2.50069">
        <ele>455</ele>
        <time>2015-04-05T15:04:16Z</time>
      </trkpt>
      <trkpt lat="46.1569" lon="2.50067">
        <ele>455</ele>
        <time>2015-04-05T15:04:18Z</time>
      </trkpt>
      <trkpt lat="46.15692" lon="2.50065">
        <ele>455</ele>
        <time>2015-04-05T15:04:20Z</time>
      </trkpt>
      <trkpt lat="46.15693" lon="2.50064">
        <ele>455</ele>
        <time>2015-04-05T15:04:22Z</time>
      </trkpt>
      <trkpt lat="46.15695" lon="2.50062">
        <ele>455</ele>
        <time>2015-04-05T15:04:24Z</time>
      </trkpt>
      <trkpt lat="46.15696" lon="2.50061">
        <ele>455</ele>
        <time>2015-04-05T15:04:26Z</time>
      </trkpt>
      <trkpt lat="46.15698" lon="2.50059">
        <ele>455</ele>
        <time>2015-04-05T15:04:28Z</time>
      </trkpt>
      <trkpt lat="46.15699" lon="2.50058">
        <ele>455</ele>
        <time>2015-04-05T15:04:30Z</time>
      </trkpt>
      <trkpt lat="46.15701" lon="2.50056">
        <ele>455</ele>
        <time>2015-04-05T15:04:32Z</time>
      </trkpt>
      <trkpt lat="46.15702" lon="2.50055">
        <ele>455</ele>
        <time>2015-04-05T15:04:34Z</time>
      </trkpt>
      <trkpt lat="46.15704" lon="2.50053">
        <ele>455</ele>
        <time>2015-04-05T15:04:36Z</time>
      </trkpt>
      <trkpt lat="46.15706" lon="2.50052">
        <ele>455</ele>
        <time>2015-04-05T15:04:38Z</time>
      </trkpt>
      <trkpt lat="46.15707" lon="2.5005">
        <ele>455</ele>
        <time>2015-04-05T15:04:40Z</time>
      </trkpt>
      <trkpt lat="46.15708" lon="2.50049">
        <ele>455</ele>
        <time>2015-04-05T15:04:42Z</time>
      </trkpt>
      <trkpt lat="46.1571" lon="2.50047">
        <ele>455</ele>
        <time>2015-04-05T15:04:44Z</time>
      </trkpt>
      <trkpt lat="46.15711" lon="2.50046">
        <ele>455</ele>
        <time>2015-04-05T15:04:46Z</time>
      </trkpt>
      <trkpt lat="46.15713" lon="2.50045">
        <ele>455</ele>
        <time>2015-04-05T15:04:48Z</time>
      </trkpt>
      <trkpt lat="46.15715" lon="2.50044">
        <ele>455</ele>
        <time>2015-04-05T15:04:50Z</time>
      </trkpt>
      <trkpt lat="46.15716" lon="2.50042">
        <ele>455</ele>
        <time>2015-04-05T15:04:52Z</time>
      </trkpt>
      <trkpt lat="46.15718" lon="2.50042">
        <ele>455</ele>
        <time>2015-04-05T15:04:54Z</time>
      </trkpt>
      <trkpt lat="46.1572" lon="2.50041">
        <ele>455</ele>
        <time>2015-04-05T15:04:56Z</time>
      </trkpt>
      <trkpt lat="46.15721" lon="2.5004">
        <ele>455</ele>
        <time>2015-04-05T15:04:58Z</time>
      </trkpt>
      <trkpt lat="46.15723" lon="2.50038">
        <ele>455</ele>
        <time>2015-04-05T15:05:00Z</time>
      </trkpt>
      <trkpt lat="46.15724" lon="2.50037">
        <ele>455</ele>
        <time>2015-04-05T15:05:02Z</time>
      </trkpt>
      <trkpt lat="46.15725" lon="2.50035">
        <ele>455</ele>
        <time>2015-04-05T15:05:05Z</time>
      </trkpt>
      <trkpt lat="46.15726" lon="2.50033">
        <ele>455</ele>
        <time>2015-04-05T15:05:08Z</time>
      </trkpt>
      <trkpt lat="46.15727" lon="2.50031">
        <ele>455</ele>
        <time>2015-04-05T15:05:10Z</time>
      </trkpt>
      <trkpt lat="46.15728" lon="2.5003">
        <ele>455</ele>
        <time>2015-04-05T15:05:12Z</time>
      </trkpt>
      <trkpt lat="46.1573" lon="2.50029">
        <ele>455</ele>
        <time>2015-04-05T15:05:14Z</time>
      </trkpt>
      <trkpt lat="46.15731" lon="2.50027">
        <ele>455</ele>
        <time>2015-04-05T15:05:16Z</time>
      </trkpt>
      <trkpt lat="46.15733" lon="2.50026">
        <ele>455</ele>
        <time>2015-04-05T15:05:18Z</time>
      </trkpt>
      <trkpt lat="46.15734" lon="2.50024">
        <ele>455</ele>
        <time>2015-04-05T15:05:20Z</time>
      </trkpt>
      <trkpt lat="46.15735" lon="2.50023">
        <ele>455</ele>
        <time>2015-04-05T15:05:22Z</time>
      </trkpt>
      <trkpt lat="46.15737" lon="2.50022">
        <ele>455</ele>
        <time>2015-04-05T15:05:24Z</time>
      </trkpt>
      <trkpt lat="46.15738" lon="2.5002">
        <ele>455</ele>
        <time>2015-04-05T15:05:26Z</time>
      </trkpt>
      <trkpt lat="46.1574" lon="2.50019">
        <ele>455</ele>
        <time>2015-04-05T15:05:28Z</time>
      </trkpt>
      <trkpt lat="46.15741" lon="2.50017">
        <ele>455</ele>
        <time>2015-04-05T15:05:30Z</time>
      </trkpt>
      <trkpt lat="46.15743" lon="2.50016">
        <ele>455</ele>
        <time>2015-04-05T15:05:32Z</time>
      </trkpt>
      <trkpt lat="46.15744" lon="2.50014">
        <ele>455</ele>
        <time>2015-04-05T15:05:34Z</time>
      </trkpt>
      <trkpt lat="46.15746" lon="2.50013">
        <ele>455</ele>
        <time>2015-04-05T15:05:36Z</time>
      </trkpt>
      <trkpt lat="46.15747" lon="2.50011">
        <ele>455</ele>
        <time>2015-04-05T15:05:38Z</time>
      </trkpt>
      <trkpt lat="46.15749" lon="2.5001">
        <ele>455</ele>
        <time>2015-04-05T15:05:40Z</time>
      </trkpt>
      <trkpt lat="46.1575" lon="2.50009">
        <ele>455</ele>
        <time>2015-04-05T15:05:42Z</time>
      </trkpt>
      <trkpt lat="46.15752" lon="2.50007">
        <ele>455</ele>
        <time>2015-04-05T15:05:44Z</time>
      </trkpt>
      <trkpt lat="46.15753" lon="2.50006">
        <ele>455</ele>
        <time>2015-04-05T15:05:46Z</time>
      </trkpt>
      <trkpt lat="46.15754" lon="2.50004">
        <ele>455</ele>
        <time>2015-04-05T15:05:48Z</time>
      </trkpt>
      <trkpt lat="46.15756" lon="2.50003">
        <ele>455</ele>
        <time>2015-04-05T15:05:50Z</time>
      </trkpt>
      <trkpt lat="46.15757" lon="2.50001">
        <ele>455</ele>
        <time>2015-04-05T15:05:52Z</time>
      </trkpt>
      <trkpt lat="46.15759" lon="2.5">
        <ele>455</ele>
        <time>2015-04-05T15:05:54Z</time>
      </trkpt>
      <trkpt lat="46.1576" lon="2.49999">
        <ele>455</ele>
        <time>2015-04-05T15:05:56Z</time>
      </trkpt>
      <trkpt lat="46.15762" lon="2.5">
        <ele>455</ele>
        <time>2015-04-05T15:06:02Z</time>
      </trkpt>
      <trkpt lat="46.15763" lon="2.49998">
        <ele>455</ele>
        <time>2015-04-05T15:06:08Z</time>
      </trkpt>
      <trkpt lat="46.15764" lon="2.49996">
        <ele>455</ele>
        <time>2015-04-05T15:06:10Z</time>
      </trkpt>
      <trkpt lat="46.15765" lon="2.49995">
        <ele>455</ele>
        <time>2015-04-05T15:06:12Z</time>
      </trkpt>
      <trkpt lat="46.15766" lon="2.49994">
        <ele>455</ele>
        <time>2015-04-05T15:06:14Z</time>
      </trkpt>
      <trkpt lat="46.15767" lon="2.49993">
        <ele>455</ele>
        <time>2015-04-05T15:06:16Z</time>
      </trkpt>
      <trkpt lat="46.15768" lon="2.49991">
        <ele>455</ele>
        <time>2015-04-05T15:06:18Z</time>
      </trkpt>
      <trkpt lat="46.1577" lon="2.4999">
        <ele>455</ele>
        <time>2015-04-05T15:06:20Z</time>
      </trkpt>
      <trkpt lat="46.15771" lon="2.49988">
        <ele>455</ele>
        <time>2015-04-05T15:06:22Z</time>
      </trkpt>
      <trkpt lat="46.15773" lon="2.49987">
        <ele>455</ele>
        <time>2015-04-05T15:06:24Z</time>
      </trkpt>
      <trkpt lat="46.15774" lon="2.49986">
        <ele>455</ele>
        <time>2015-04-05T15:06:26Z</time>
      </trkpt>
      <trkpt lat="46.15776" lon="2.49984">
        <ele>455</ele>
        <time>2015-04-05T15:06:28Z</time>
      </trkpt>
      <trkpt lat="46.15777" lon="2.49983">
        <ele>455</ele>
        <time>2015-04-05T15:06:30Z</time>
      </trkpt>
      <trkpt lat="46.15778" lon="2.49981">
        <ele>455</ele>
        <time>2015-04-05T15:06:32Z</time>
      </trkpt>
      <trkpt lat="46.1578" lon="2.4998">
        <ele>455</ele>
        <time>2015-04-05T15:06:34Z</time>
      </trkpt>
      <trkpt lat="46.15781" lon="2.49978">
        <ele>455</ele>
        <time>2015-04-05T15:06:36Z</time>
      </trkpt>
      <trkpt lat="46.15783" lon="2.49977">
        <ele>455</ele>
        <time>2015-04-05T15:06:38Z</time>
      </trkpt>
      <trkpt lat="46.15784" lon="2.49975">
        <ele>455</ele>
        <time>2015-04-05T15:06:40Z</time>
      </trkpt>
      <trkpt lat="46.15786" lon="2.49974">
        <ele>455</ele>
        <time>2015-04-05T15:06:42Z</time>
      </trkpt>
      <trkpt lat="46.15787" lon="2.49972">
        <ele>455</ele>
        <time>2015-04-05T15:06:44Z</time>
      </trkpt>
      <trkpt lat="46.15789" lon="2.49971">
        <ele>455</ele>
        <time>2015-04-05T15:06:46Z</time>
      </trkpt>
      <trkpt lat="46.1579" lon="2.4997">
        <ele>455</ele>
        <time>2015-04-05T15:06:48Z</time>
      </trkpt>
      <trkpt lat="46.15791" lon="2.49968">
        <ele>455</ele>
        <time>2015-04-05T15:06:50Z</time>
      </trkpt>
      <trkpt lat="46.15793" lon="2.49967">
        <ele>455</ele>
        <time>2015-04-05T15:06:52Z</time>
      </trkpt>
      <trkpt lat="46.15795" lon="2.49965">
        <ele>455</ele>
        <time>2015-04-05T15:06:54Z</time>
      </trkpt>
      <trkpt lat="46.15796" lon="2.49963">
        <ele>455</ele>
        <time>2015-04-05T15:06:56Z</time>
      </trkpt>
      <trkpt lat="46.15797" lon="2.49962">
        <ele>455</ele>
        <time>2015-04-05T15:06:58Z</time>
      </trkpt>
      <trkpt lat="46.15799" lon="2.4996">
        <ele>455</ele>
        <time>2015-04-05T15:07:00Z</time>
      </trkpt>
      <trkpt lat="46.15801" lon="2.49959">
        <ele>455</ele>
        <time>2015-04-05T15:07:02Z</time>
      </trkpt>
      <trkpt lat="46.15802" lon="2.49957">
        <ele>455</ele>
        <time>2015-04-05T15:07:04Z</time>
      </trkpt>
      <trkpt lat="46.15804" lon="2.49956">
        <ele>455</ele>
        <time>2015-04-05T15:07:06Z</time>
      </trkpt>
      <trkpt lat="46.15805" lon="2.49954">
        <ele>455</ele>
        <time>2015-04-05T15:07:08Z</time>
      </trkpt>
      <trkpt lat="46.15807" lon="2.49953">
        <ele>455</ele>
        <time>2015-04-05T15:07:10Z</time>
      </trkpt>
      <trkpt lat="46.15808" lon="2.49951">
        <ele>455</ele>
        <time>2015-04-05T15:07:12Z</time>
      </trkpt>
      <trkpt lat="46.1581" lon="2.4995">
        <ele>455</ele>
        <time>2015-04-05T15:07:14Z</time>
      </trkpt>
      <trkpt lat="46.15812" lon="2.49948">
        <ele>455</ele>
        <time>2015-04-05T15:07:16Z</time>
      </trkpt>
      <trkpt lat="46.15813" lon="2.49946">
        <ele>455</ele>
        <time>2015-04-05T15:07:18Z</time>
      </trkpt>
      <trkpt lat="46.15814" lon="2.49945">
        <ele>455</ele>
        <time>2015-04-05T15:07:20Z</time>
      </trkpt>
      <trkpt lat="46.15816" lon="2.49944">
        <ele>455</ele>
        <time>2015-04-05T15:07:22Z</time>
      </trkpt>
      <trkpt lat="46.15818" lon="2.49942">
        <ele>455</ele>
        <time>2015-04-05T15:07:24Z</time>
      </trkpt>
      <trkpt lat="46.1582" lon="2.49941">
        <ele>455</ele>
        <time>2015-04-05T15:07:26Z</time>
      </trkpt>
      <trkpt lat="46.15821" lon="2.49939">
        <ele>455</ele>
        <time>2015-04-05T15:07:28Z</time>
      </trkpt>
      <trkpt lat="46.15823" lon="2.49937">
        <ele>455</ele>
        <time>2015-04-05T15:07:30Z</time>
      </trkpt>
      <trkpt lat="46.15824" lon="2.49936">
        <ele>455</ele>
        <time>2015-04-05T15:07:32Z</time>
      </trkpt>
      <trkpt lat="46.15826" lon="2.49934">
        <ele>455</ele>
        <time>2015-04-05T15:07:34Z</time>
      </trkpt>
      <trkpt lat="46.15827" lon="2.49933">
        <ele>455</ele>
        <time>2015-04-05T15:07:36Z</time>
      </trkpt>
      <trkpt lat="46.15829" lon="2.49931">
        <ele>455</ele>
        <time>2015-04-05T15:07:38Z</time>
      </trkpt>
      <trkpt lat="46.1583" lon="2.49929">
        <ele>455</ele>
        <time>2015-04-05T15:07:40Z</time>
      </trkpt>
      <trkpt lat="46.15831" lon="2.49928">
        <ele>455</ele>
        <time>2015-04-05T15:07:42Z</time>
      </trkpt>
      <trkpt lat="46.15833" lon="2.49927">
        <ele>455</ele>
        <time>2015-04-05T15:07:44Z</time>
      </trkpt>
      <trkpt lat="46.15835" lon="2.49925">
        <ele>455</ele>
        <time>2015-04-05T15:07:46Z</time>
      </trkpt>
      <trkpt lat="46.15836" lon="2.49923">
        <ele>455</ele>
        <time>2015-04-05T15:07:48Z</time>
      </trkpt>
      <trkpt lat="46.15838" lon="2.49922">
        <ele>455</ele>
        <time>2015-04-05T15:07:50Z</time>
      </trkpt>
      <trkpt lat="46.15839" lon="2.49921">
        <ele>455</ele>
        <time>2015-04-05T15:07:52Z</time>
      </trkpt>
      <trkpt lat="46.15841" lon="2.49919">
        <ele>455</ele>
        <time>2015-04-05T15:07:54Z</time>
      </trkpt>
      <trkpt lat="46.15842" lon="2.49917">
        <ele>455</ele>
        <time>2015-04-05T15:07:56Z</time>
      </trkpt>
      <trkpt lat="46.15844" lon="2.49916">
        <ele>455</ele>
        <time>2015-04-05T15:07:58Z</time>
      </trkpt>
      <trkpt lat="46.15845" lon="2.49915">
        <ele>455</ele>
        <time>2015-04-05T15:08:00Z</time>
      </trkpt>
      <trkpt lat="46.15847" lon="2.49913">
        <ele>455</ele>
        <time>2015-04-05T15:08:02Z</time>
      </trkpt>
      <trkpt lat="46.15848" lon="2.49911">
        <ele>455</ele>
        <time>2015-04-05T15:08:04Z</time>
      </trkpt>
      <trkpt lat="46.1585" lon="2.4991">
        <ele>455</ele>
        <time>2015-04-05T15:08:06Z</time>
      </trkpt>
      <trkpt lat="46.15851" lon="2.49908">
        <ele>455</ele>
        <time>2015-04-05T15:08:08Z</time>
      </trkpt>
      <trkpt lat="46.15853" lon="2.49907">
        <ele>455</ele>
        <time>2015-04-05T15:08:10Z</time>
      </trkpt>
      <trkpt lat="46.15855" lon="2.49905">
        <ele>455</ele>
        <time>2015-04-05T15:08:12Z</time>
      </trkpt>
      <trkpt lat="46.15857" lon="2.49902">
        <ele>455</ele>
        <time>2015-04-05T15:08:15Z</time>
      </trkpt>
      <trkpt lat="46.15859" lon="2.49901">
        <ele>455</ele>
        <time>2015-04-05T15:08:17Z</time>
      </trkpt>
      <trkpt lat="46.1586" lon="2.49899">
        <ele>455</ele>
        <time>2015-04-05T15:08:19Z</time>
      </trkpt>
      <trkpt lat="46.15862" lon="2.49898">
        <ele>455</ele>
        <time>2015-04-05T15:08:21Z</time>
      </trkpt>
      <trkpt lat="46.15864" lon="2.49897">
        <ele>455</ele>
        <time>2015-04-05T15:08:23Z</time>
      </trkpt>
      <trkpt lat="46.15865" lon="2.49895">
        <ele>455</ele>
        <time>2015-04-05T15:08:25Z</time>
      </trkpt>
      <trkpt lat="46.15867" lon="2.49894">
        <ele>455</ele>
        <time>2015-04-05T15:08:27Z</time>
      </trkpt>
      <trkpt lat="46.15868" lon="2.49892">
        <ele>455</ele>
        <time>2015-04-05T15:08:29Z</time>
      </trkpt>
      <trkpt lat="46.1587" lon="2.49891">
        <ele>455</ele>
        <time>2015-04-05T15:08:31Z</time>
      </trkpt>
      <trkpt lat="46.15871" lon="2.49889">
        <ele>455</ele>
        <time>2015-04-05T15:08:33Z</time>
      </trkpt>
      <trkpt lat="46.15872" lon="2.49888">
        <ele>455</ele>
        <time>2015-04-05T15:08:35Z</time>
      </trkpt>
      <trkpt lat="46.15874" lon="2.49887">
        <ele>455</ele>
        <time>2015-04-05T15:08:37Z</time>
      </trkpt>
      <trkpt lat="46.15875" lon="2.49886">
        <ele>455</ele>
        <time>2015-04-05T15:08:39Z</time>
      </trkpt>
      <trkpt lat="46.15877" lon="2.49884">
        <ele>455</ele>
        <time>2015-04-05T15:08:41Z</time>
      </trkpt>
      <trkpt lat="46.15878" lon="2.49883">
        <ele>455</ele>
        <time>2015-04-05T15:08:43Z</time>
      </trkpt>
      <trkpt lat="46.15879" lon="2.49881">
        <ele>455</ele>
        <time>2015-04-05T15:08:45Z</time>
      </trkpt>
      <trkpt lat="46.15879" lon="2.49878">
        <ele>455</ele>
        <time>2015-04-05T15:08:47Z</time>
      </trkpt>
      <trkpt lat="46.15879" lon="2.49876">
        <ele>455</ele>
        <time>2015-04-05T15:08:49Z</time>
      </trkpt>
      <trkpt lat="46.1588" lon="2.49877">
        <ele>455</ele>
        <time>2015-04-05T15:09:01Z</time>
      </trkpt>
      <trkpt lat="46.15882" lon="2.49877">
        <ele>455</ele>
        <time>2015-04-05T15:09:03Z</time>
      </trkpt>
      <trkpt lat="46.15884" lon="2.49876">
        <ele>455</ele>
        <time>2015-04-05T15:09:05Z</time>
      </trkpt>
      <trkpt lat="46.15885" lon="2.49874">
        <ele>455</ele>
        <time>2015-04-05T15:09:07Z</time>
      </trkpt>
      <trkpt lat="46.15887" lon="2.49872">
        <ele>455</ele>
        <time>2015-04-05T15:09:09Z</time>
      </trkpt>
      <trkpt lat="46.15889" lon="2.49871">
        <ele>455</ele>
        <time>2015-04-05T15:09:11Z</time>
      </trkpt>
      <trkpt lat="46.15891" lon="2.49869">
        <ele>455</ele>
        <time>2015-04-05T15:09:13Z</time>
      </trkpt>
      <trkpt lat="46.15893" lon="2.49867">
        <ele>455</ele>
        <time>2015-04-05T15:09:15Z</time>
      </trkpt>
      <trkpt lat="46.15895" lon="2.49865">
        <ele>455</ele>
        <time>2015-04-05T15:09:17Z</time>
      </trkpt>
      <trkpt lat="46.15898" lon="2.49862">
        <ele>455</ele>
        <time>2015-04-05T15:09:20Z</time>
      </trkpt>
      <trkpt lat="46.159" lon="2.4986">
        <ele>455</ele>
        <time>2015-04-05T15:09:22Z</time>
      </trkpt>
      <trkpt lat="46.15902" lon="2.49858">
        <ele>455</ele>
        <time>2015-04-05T15:09:24Z</time>
      </trkpt>
      <trkpt lat="46.15904" lon="2.49856">
        <ele>455</ele>
        <time>2015-04-05T15:09:26Z</time>
      </trkpt>
      <trkpt lat="46.15905" lon="2.49854">
        <ele>455</ele>
        <time>2015-04-05T15:09:28Z</time>
      </trkpt>
      <trkpt lat="46.15907" lon="2.49852">
        <ele>455</ele>
        <time>2015-04-05T15:09:30Z</time>
      </trkpt>
      <trkpt lat="46.15909" lon="2.49851">
        <ele>455</ele>
        <time>2015-04-05T15:09:32Z</time>
      </trkpt>
      <trkpt lat="46.15911" lon="2.49849">
        <ele>455</ele>
        <time>2015-04-05T15:09:34Z</time>
      </trkpt>
      <trkpt lat="46.15913" lon="2.49847">
        <ele>455</ele>
        <time>2015-04-05T15:09:36Z</time>
      </trkpt>
      <trkpt lat="46.15915" lon="2.49846">
        <ele>455</ele>
        <time>2015-04-05T15:09:38Z</time>
      </trkpt>
      <trkpt lat="46.15917" lon="2.49844">
        <ele>455</ele>
        <time>2015-04-05T15:09:40Z</time>
      </trkpt>
      <trkpt lat="46.15918" lon="2.49843">
        <ele>455</ele>
        <time>2015-04-05T15:09:42Z</time>
      </trkpt>
      <trkpt lat="46.1592" lon="2.49841">
        <ele>455</ele>
        <time>2015-04-05T15:09:44Z</time>
      </trkpt>
      <trkpt lat="46.15921" lon="2.49839">
        <ele>455</ele>
        <time>2015-04-05T15:09:46Z</time>
      </trkpt>
      <trkpt lat="46.15923" lon="2.49838">
        <ele>455</ele>
        <time>2015-04-05T15:09:48Z</time>
      </trkpt>
      <trkpt lat="46.15925" lon="2.49836">
        <ele>455</ele>
        <time>2015-04-05T15:09:50Z</time>
      </trkpt>
      <trkpt lat="46.15929" lon="2.49833">
        <ele>455</ele>
        <time>2015-04-05T15:09:53Z</time>
      </trkpt>
      <trkpt lat="46.1593" lon="2.49832">
        <ele>455</ele>
        <time>2015-04-05T15:09:55Z</time>
      </trkpt>
      <trkpt lat="46.15932" lon="2.4983">
        <ele>455</ele>
        <time>2015-04-05T15:09:57Z</time>
      </trkpt>
      <trkpt lat="46.15934" lon="2.49828">
        <ele>455</ele>
        <time>2015-04-05T15:09:59Z</time>
      </trkpt>
      <trkpt lat="46.15935" lon="2.49827">
        <ele>455</ele>
        <time>2015-04-05T15:10:01Z</time>
      </trkpt>
      <trkpt lat="46.15937" lon="2.49825">
        <ele>455</ele>
        <time>2015-04-05T15:10:03Z</time>
      </trkpt>
      <trkpt lat="46.15938" lon="2.49823">
        <ele>455</ele>
        <time>2015-04-05T15:10:05Z</time>
      </trkpt>
      <trkpt lat="46.1594" lon="2.49821">
        <ele>455</ele>
        <time>2015-04-05T15:10:07Z</time>
      </trkpt>
      <trkpt lat="46.15941" lon="2.49819">
        <ele>455</ele>
        <time>2015-04-05T15:10:09Z</time>
      </trkpt>
      <trkpt lat="46.15943" lon="2.49818">
        <ele>455</ele>
        <time>2015-04-05T15:10:11Z</time>
      </trkpt>
      <trkpt lat="46.15944" lon="2.49817">
        <ele>454</ele>
        <time>2015-04-05T15:10:13Z</time>
      </trkpt>
      <trkpt lat="46.15946" lon="2.49816">
        <ele>454</ele>
        <time>2015-04-05T15:10:15Z</time>
      </trkpt>
      <trkpt lat="46.15947" lon="2.49814">
        <ele>454</ele>
        <time>2015-04-05T15:10:17Z</time>
      </trkpt>
      <trkpt lat="46.15948" lon="2.49813">
        <ele>453</ele>
        <time>2015-04-05T15:10:19Z</time>
      </trkpt>
      <trkpt lat="46.1595" lon="2.49811">
        <ele>453</ele>
        <time>2015-04-05T15:10:21Z</time>
      </trkpt>
      <trkpt lat="46.15951" lon="2.4981">
        <ele>453</ele>
        <time>2015-04-05T15:10:23Z</time>
      </trkpt>
      <trkpt lat="46.15953" lon="2.49808">
        <ele>453</ele>
        <time>2015-04-05T15:10:25Z</time>
      </trkpt>
      <trkpt lat="46.15954" lon="2.49807">
        <ele>452</ele>
        <time>2015-04-05T15:10:27Z</time>
      </trkpt>
      <trkpt lat="46.15956" lon="2.49805">
        <ele>452</ele>
        <time>2015-04-05T15:10:29Z</time>
      </trkpt>
      <trkpt lat="46.15957" lon="2.49804">
        <ele>452</ele>
        <time>2015-04-05T15:10:31Z</time>
      </trkpt>
      <trkpt lat="46.15958" lon="2.49803">
        <ele>451</ele>
        <time>2015-04-05T15:10:33Z</time>
      </trkpt>
      <trkpt lat="46.1596" lon="2.49801">
        <ele>451</ele>
        <time>2015-04-05T15:10:35Z</time>
      </trkpt>
      <trkpt lat="46.15961" lon="2.498">
        <ele>451</ele>
        <time>2015-04-05T15:10:37Z</time>
      </trkpt>
      <trkpt lat="46.15963" lon="2.49798">
        <ele>450</ele>
        <time>2015-04-05T15:10:39Z</time>
      </trkpt>
      <trkpt lat="46.15964" lon="2.49797">
        <ele>450</ele>
        <time>2015-04-05T15:10:41Z</time>
      </trkpt>
      <trkpt lat="46.15966" lon="2.49795">
        <ele>450</ele>
        <time>2015-04-05T15:10:43Z</time>
      </trkpt>
      <trkpt lat="46.15967" lon="2.49794">
        <ele>450</ele>
        <time>2015-04-05T15:10:45Z</time>
      </trkpt>
      <trkpt lat="46.15968" lon="2.49792">
        <ele>450</ele>
        <time>2015-04-05T15:10:47Z</time>
      </trkpt>
      <trkpt lat="46.1597" lon="2.4979">
        <ele>450</ele>
        <time>2015-04-05T15:10:49Z</time>
      </trkpt>
      <trkpt lat="46.15972" lon="2.49788">
        <ele>450</ele>
        <time>2015-04-05T15:10:51Z</time>
      </trkpt>
      <trkpt lat="46.15974" lon="2.49787">
        <ele>450</ele>
        <time>2015-04-05T15:10:53Z</time>
      </trkpt>
      <trkpt lat="46.15975" lon="2.49785">
        <ele>450</ele>
        <time>2015-04-05T15:10:55Z</time>
      </trkpt>
      <trkpt lat="46.15977" lon="2.49783">
        <ele>450</ele>
        <time>2015-04-05T15:10:57Z</time>
      </trkpt>
      <trkpt lat="46.15979" lon="2.49782">
        <ele>450</ele>
        <time>2015-04-05T15:10:59Z</time>
      </trkpt>
      <trkpt lat="46.1598" lon="2.49781">
        <ele>450</ele>
        <time>2015-04-05T15:11:01Z</time>
      </trkpt>
      <trkpt lat="46.15982" lon="2.49779">
        <ele>450</ele>
        <time>2015-04-05T15:11:03Z</time>
      </trkpt>
      <trkpt lat="46.15983" lon="2.49778">
        <ele>450</ele>
        <time>2015-04-05T15:11:05Z</time>
      </trkpt>
      <trkpt lat="46.15984" lon="2.49776">
        <ele>450</ele>
        <time>2015-04-05T15:11:07Z</time>
      </trkpt>
      <trkpt lat="46.15986" lon="2.49775">
        <ele>450</ele>
        <time>2015-04-05T15:11:09Z</time>
      </trkpt>
      <trkpt lat="46.15987" lon="2.49773">
        <ele>450</ele>
        <time>2015-04-05T15:11:11Z</time>
      </trkpt>
      <trkpt lat="46.15989" lon="2.49772">
        <ele>450</ele>
        <time>2015-04-05T15:11:13Z</time>
      </trkpt>
      <trkpt lat="46.1599" lon="2.4977">
        <ele>450</ele>
        <time>2015-04-05T15:11:15Z</time>
      </trkpt>
      <trkpt lat="46.15992" lon="2.49769">
        <ele>449</ele>
        <time>2015-04-05T15:11:17Z</time>
      </trkpt>
      <trkpt lat="46.15993" lon="2.49767">
        <ele>449</ele>
        <time>2015-04-05T15:11:19Z</time>
      </trkpt>
      <trkpt lat="46.15995" lon="2.49766">
        <ele>449</ele>
        <time>2015-04-05T15:11:21Z</time>
      </trkpt>
      <trkpt lat="46.15996" lon="2.49764">
        <ele>449</ele>
        <time>2015-04-05T15:11:23Z</time>
      </trkpt>
      <trkpt lat="46.15997" lon="2.49763">
        <ele>449</ele>
        <time>2015-04-05T15:11:25Z</time>
      </trkpt>
      <trkpt lat="46.15999" lon="2.49761">
        <ele>449</ele>
        <time>2015-04-05T15:11:27Z</time>
      </trkpt>
      <trkpt lat="46.16" lon="2.4976">
        <ele>449</ele>
        <time>2015-04-05T15:11:29Z</time>
      </trkpt>
      <trkpt lat="46.16002" lon="2.49758">
        <ele>449</ele>
        <time>2015-04-05T15:11:31Z</time>
      </trkpt>
      <trkpt lat="46.16004" lon="2.49756">
        <ele>448</ele>
        <time>2015-04-05T15:11:33Z</time>
      </trkpt>
      <trkpt lat="46.16006" lon="2.49755">
        <ele>448</ele>
        <time>2015-04-05T15:11:35Z</time>
      </trkpt>
      <trkpt lat="46.16008" lon="2.49753">
        <ele>448</ele>
        <time>2015-04-05T15:11:37Z</time>
      </trkpt>
      <trkpt lat="46.16009" lon="2.49751">
        <ele>448</ele>
        <time>2015-04-05T15:11:39Z</time>
      </trkpt>
      <trkpt lat="46.16011" lon="2.49749">
        <ele>448</ele>
        <time>2015-04-05T15:11:41Z</time>
      </trkpt>
      <trkpt lat="46.16012" lon="2.49747">
        <ele>448</ele>
        <time>2015-04-05T15:11:43Z</time>
      </trkpt>
      <trkpt lat="46.16014" lon="2.49746">
        <ele>448</ele>
        <time>2015-04-05T15:11:45Z</time>
      </trkpt>
      <trkpt lat="46.16015" lon="2.49744">
        <ele>448</ele>
        <time>2015-04-05T15:11:47Z</time>
      </trkpt>
      <trkpt lat="46.16017" lon="2.49743">
        <ele>448</ele>
        <time>2015-04-05T15:11:49Z</time>
      </trkpt>
      <trkpt lat="46.16018" lon="2.49741">
        <ele>447</ele>
        <time>2015-04-05T15:11:51Z</time>
      </trkpt>
      <trkpt lat="46.1602" lon="2.49739">
        <ele>447</ele>
        <time>2015-04-05T15:11:53Z</time>
      </trkpt>
      <trkpt lat="46.16021" lon="2.49738">
        <ele>447</ele>
        <time>2015-04-05T15:11:55Z</time>
      </trkpt>
      <trkpt lat="46.16023" lon="2.49736">
        <ele>447</ele>
        <time>2015-04-05T15:11:57Z</time>
      </trkpt>
      <trkpt lat="46.16025" lon="2.49735">
        <ele>447</ele>
        <time>2015-04-05T15:11:59Z</time>
      </trkpt>
      <trkpt lat="46.16027" lon="2.49733">
        <ele>447</ele>
        <time>2015-04-05T15:12:01Z</time>
      </trkpt>
      <trkpt lat="46.16028" lon="2.49732">
        <ele>447</ele>
        <time>2015-04-05T15:12:03Z</time>
      </trkpt>
      <trkpt lat="46.1603" lon="2.4973">
        <ele>446</ele>
        <time>2015-04-05T15:12:05Z</time>
      </trkpt>
      <trkpt lat="46.16031" lon="2.49728">
        <ele>446</ele>
        <time>2015-04-05T15:12:07Z</time>
      </trkpt>
      <trkpt lat="46.16032" lon="2.49728">
        <ele>446</ele>
        <time>2015-04-05T15:12:09Z</time>
      </trkpt>
      <trkpt lat="46.16034" lon="2.49726">
        <ele>446</ele>
        <time>2015-04-05T15:12:12Z</time>
      </trkpt>
      <trkpt lat="46.16036" lon="2.49724">
        <ele>446</ele>
        <time>2015-04-05T15:12:14Z</time>
      </trkpt>
      <trkpt lat="46.16037" lon="2.49722">
        <ele>446</ele>
        <time>2015-04-05T15:12:16Z</time>
      </trkpt>
      <trkpt lat="46.16039" lon="2.49721">
        <ele>446</ele>
        <time>2015-04-05T15:12:18Z</time>
      </trkpt>
      <trkpt lat="46.1604" lon="2.49719">
        <ele>446</ele>
        <time>2015-04-05T15:12:20Z</time>
      </trkpt>
      <trkpt lat="46.16042" lon="2.49718">
        <ele>446</ele>
        <time>2015-04-05T15:12:22Z</time>
      </trkpt>
      <trkpt lat="46.16043" lon="2.49716">
        <ele>446</ele>
        <time>2015-04-05T15:12:24Z</time>
      </trkpt>
      <trkpt lat="46.16045" lon="2.49715">
        <ele>446</ele>
        <time>2015-04-05T15:12:26Z</time>
      </trkpt>
      <trkpt lat="46.16046" lon="2.49713">
        <ele>446</ele>
        <time>2015-04-05T15:12:28Z</time>
      </trkpt>
      <trkpt lat="46.16048" lon="2.49712">
        <ele>446</ele>
        <time>2015-04-05T15:12:30Z</time>
      </trkpt>
      <trkpt lat="46.16049" lon="2.49711">
        <ele>446</ele>
        <time>2015-04-05T15:12:32Z</time>
      </trkpt>
      <trkpt lat="46.16051" lon="2.49709">
        <ele>446</ele>
        <time>2015-04-05T15:12:34Z</time>
      </trkpt>
      <trkpt lat="46.16052" lon="2.49708">
        <ele>446</ele>
        <time>2015-04-05T15:12:36Z</time>
      </trkpt>
      <trkpt lat="46.16054" lon="2.49706">
        <ele>446</ele>
        <time>2015-04-05T15:12:38Z</time>
      </trkpt>
      <trkpt lat="46.16055" lon="2.49705">
        <ele>446</ele>
        <time>2015-04-05T15:12:40Z</time>
      </trkpt>
      <trkpt lat="46.16057" lon="2.49703">
        <ele>446</ele>
        <time>2015-04-05T15:12:42Z</time>
      </trkpt>
      <trkpt lat="46.16058" lon="2.49701">
        <ele>446</ele>
        <time>2015-04-05T15:12:44Z</time>
      </trkpt>
      <trkpt lat="46.1606" lon="2.497">
        <ele>446</ele>
        <time>2015-04-05T15:12:46Z</time>
      </trkpt>
      <trkpt lat="46.16061" lon="2.49698">
        <ele>446</ele>
        <time>2015-04-05T15:12:48Z</time>
      </trkpt>
      <trkpt lat="46.16063" lon="2.49697">
        <ele>445</ele>
        <time>2015-04-05T15:12:50Z</time>
      </trkpt>
      <trkpt lat="46.16064" lon="2.49695">
        <ele>445</ele>
        <time>2015-04-05T15:12:52Z</time>
      </trkpt>
      <trkpt lat="46.16065" lon="2.49694">
        <ele>445</ele>
        <time>2015-04-05T15:12:54Z</time>
      </trkpt>
      <trkpt lat="46.16067" lon="2.49692">
        <ele>445</ele>
        <time>2015-04-05T15:12:56Z</time>
      </trkpt>
      <trkpt lat="46.16068" lon="2.49691">
        <ele>445</ele>
        <time>2015-04-05T15:12:58Z</time>
      </trkpt>
      <trkpt lat="46.1607" lon="2.49689">
        <ele>445</ele>
        <time>2015-04-05T15:13:00Z</time>
      </trkpt>
      <trkpt lat="46.16071" lon="2.49688">
        <ele>445</ele>
        <time>2015-04-05T15:13:02Z</time>
      </trkpt>
      <trkpt lat="46.16073" lon="2.49686">
        <ele>445</ele>
        <time>2015-04-05T15:13:04Z</time>
      </trkpt>
      <trkpt lat="46.16074" lon="2.49684">
        <ele>445</ele>
        <time>2015-04-05T15:13:06Z</time>
      </trkpt>
      <trkpt lat="46.16076" lon="2.49682">
        <ele>444</ele>
        <time>2015-04-05T15:13:08Z</time>
      </trkpt>
      <trkpt lat="46.16077" lon="2.4968">
        <ele>444</ele>
        <time>2015-04-05T15:13:10Z</time>
      </trkpt>
      <trkpt lat="46.16079" lon="2.49678">
        <ele>444</ele>
        <time>2015-04-05T15:13:12Z</time>
      </trkpt>
      <trkpt lat="46.16081" lon="2.49676">
        <ele>444</ele>
        <time>2015-04-05T15:13:14Z</time>
      </trkpt>
      <trkpt lat="46.16082" lon="2.49675">
        <ele>444</ele>
        <time>2015-04-05T15:13:16Z</time>
      </trkpt>
      <trkpt lat="46.16085" lon="2.49672">
        <ele>444</ele>
        <time>2015-04-05T15:13:19Z</time>
      </trkpt>
      <trkpt lat="46.16087" lon="2.4967">
        <ele>444</ele>
        <time>2015-04-05T15:13:21Z</time>
      </trkpt>
      <trkpt lat="46.16089" lon="2.49669">
        <ele>444</ele>
        <time>2015-04-05T15:13:23Z</time>
      </trkpt>
      <trkpt lat="46.1609" lon="2.49667">
        <ele>444</ele>
        <time>2015-04-05T15:13:25Z</time>
      </trkpt>
      <trkpt lat="46.16092" lon="2.49665">
        <ele>444</ele>
        <time>2015-04-05T15:13:27Z</time>
      </trkpt>
      <trkpt lat="46.16093" lon="2.49664">
        <ele>444</ele>
        <time>2015-04-05T15:13:29Z</time>
      </trkpt>
      <trkpt lat="46.16095" lon="2.49663">
        <ele>444</ele>
        <time>2015-04-05T15:13:31Z</time>
      </trkpt>
      <trkpt lat="46.16096" lon="2.49661">
        <ele>444</ele>
        <time>2015-04-05T15:13:33Z</time>
      </trkpt>
      <trkpt lat="46.16098" lon="2.49659">
        <ele>444</ele>
        <time>2015-04-05T15:13:35Z</time>
      </trkpt>
      <trkpt lat="46.16099" lon="2.49658">
        <ele>444</ele>
        <time>2015-04-05T15:13:37Z</time>
      </trkpt>
      <trkpt lat="46.16101" lon="2.49657">
        <ele>444</ele>
        <time>2015-04-05T15:13:39Z</time>
      </trkpt>
      <trkpt lat="46.16102" lon="2.49655">
        <ele>444</ele>
        <time>2015-04-05T15:13:41Z</time>
      </trkpt>
      <trkpt lat="46.16103" lon="2.49654">
        <ele>444</ele>
        <time>2015-04-05T15:13:43Z</time>
      </trkpt>
      <trkpt lat="46.16105" lon="2.49654">
        <ele>444</ele>
        <time>2015-04-05T15:13:45Z</time>
      </trkpt>
      <trkpt lat="46.16106" lon="2.49653">
        <ele>444</ele>
        <time>2015-04-05T15:13:47Z</time>
      </trkpt>
      <trkpt lat="46.16108" lon="2.49651">
        <ele>444</ele>
        <time>2015-04-05T15:13:49Z</time>
      </trkpt>
      <trkpt lat="46.16109" lon="2.4965">
        <ele>444</ele>
        <time>2015-04-05T15:13:51Z</time>
      </trkpt>
      <trkpt lat="46.1611" lon="2.49648">
        <ele>444</ele>
        <time>2015-04-05T15:13:53Z</time>
      </trkpt>
      <trkpt lat="46.16112" lon="2.49647">
        <ele>444</ele>
        <time>2015-04-05T15:13:55Z</time>
      </trkpt>
      <trkpt lat="46.16113" lon="2.49645">
        <ele>444</ele>
        <time>2015-04-05T15:13:57Z</time>
      </trkpt>
      <trkpt lat="46.16114" lon="2.49644">
        <ele>444</ele>
        <time>2015-04-05T15:13:59Z</time>
      </trkpt>
      <trkpt lat="46.16116" lon="2.49642">
        <ele>444</ele>
        <time>2015-04-05T15:14:01Z</time>
      </trkpt>
      <trkpt lat="46.16117" lon="2.4964">
        <ele>444</ele>
        <time>2015-04-05T15:14:03Z</time>
      </trkpt>
      <trkpt lat="46.16119" lon="2.49639">
        <ele>444</ele>
        <time>2015-04-05T15:14:05Z</time>
      </trkpt>
      <trkpt lat="46.1612" lon="2.49637">
        <ele>444</ele>
        <time>2015-04-05T15:14:07Z</time>
      </trkpt>
      <trkpt lat="46.16122" lon="2.49636">
        <ele>444</ele>
        <time>2015-04-05T15:14:09Z</time>
      </trkpt>
      <trkpt lat="46.16123" lon="2.49634">
        <ele>444</ele>
        <time>2015-04-05T15:14:11Z</time>
      </trkpt>
      <trkpt lat="46.16124" lon="2.49632">
        <ele>444</ele>
        <time>2015-04-05T15:14:13Z</time>
      </trkpt>
      <trkpt lat="46.16125" lon="2.4963">
        <ele>444</ele>
        <time>2015-04-05T15:14:15Z</time>
      </trkpt>
      <trkpt lat="46.16127" lon="2.49629">
        <ele>444</ele>
        <time>2015-04-05T15:14:17Z</time>
      </trkpt>
      <trkpt lat="46.16128" lon="2.49627">
        <ele>444</ele>
        <time>2015-04-05T15:14:19Z</time>
      </trkpt>
      <trkpt lat="46.1613" lon="2.49626">
        <ele>444</ele>
        <time>2015-04-05T15:14:21Z</time>
      </trkpt>
      <trkpt lat="46.16131" lon="2.49624">
        <ele>444</ele>
        <time>2015-04-05T15:14:23Z</time>
      </trkpt>
      <trkpt lat="46.16132" lon="2.49623">
        <ele>443</ele>
        <time>2015-04-05T15:14:25Z</time>
      </trkpt>
      <trkpt lat="46.16134" lon="2.49621">
        <ele>443</ele>
        <time>2015-04-05T15:14:27Z</time>
      </trkpt>
      <trkpt lat="46.16135" lon="2.49619">
        <ele>443</ele>
        <time>2015-04-05T15:14:29Z</time>
      </trkpt>
      <trkpt lat="46.16137" lon="2.49618">
        <ele>443</ele>
        <time>2015-04-05T15:14:31Z</time>
      </trkpt>
      <trkpt lat="46.16138" lon="2.49617">
        <ele>442</ele>
        <time>2015-04-05T15:14:33Z</time>
      </trkpt>
      <trkpt lat="46.1614" lon="2.49615">
        <ele>442</ele>
        <time>2015-04-05T15:14:35Z</time>
      </trkpt>
      <trkpt lat="46.16142" lon="2.49613">
        <ele>442</ele>
        <time>2015-04-05T15:14:37Z</time>
      </trkpt>
      <trkpt lat="46.16143" lon="2.49612">
        <ele>442</ele>
        <time>2015-04-05T15:14:39Z</time>
      </trkpt>
      <trkpt lat="46.16144" lon="2.4961">
        <ele>442</ele>
        <time>2015-04-05T15:14:41Z</time>
      </trkpt>
      <trkpt lat="46.16146" lon="2.49609">
        <ele>441</ele>
        <time>2015-04-05T15:14:43Z</time>
      </trkpt>
      <trkpt lat="46.16147" lon="2.49608">
        <ele>441</ele>
        <time>2015-04-05T15:14:45Z</time>
      </trkpt>
      <trkpt lat="46.16149" lon="2.49606">
        <ele>441</ele>
        <time>2015-04-05T15:14:47Z</time>
      </trkpt>
      <trkpt lat="46.1615" lon="2.49605">
        <ele>441</ele>
        <time>2015-04-05T15:14:49Z</time>
      </trkpt>
      <trkpt lat="46.16152" lon="2.49604">
        <ele>441</ele>
        <time>2015-04-05T15:14:51Z</time>
      </trkpt>
      <trkpt lat="46.16154" lon="2.49603">
        <ele>441</ele>
        <time>2015-04-05T15:14:53Z</time>
      </trkpt>
      <trkpt lat="46.16155" lon="2.49602">
        <ele>440</ele>
        <time>2015-04-05T15:14:55Z</time>
      </trkpt>
      <trkpt lat="46.16157" lon="2.49601">
        <ele>440</ele>
        <time>2015-04-05T15:14:57Z</time>
      </trkpt>
      <trkpt lat="46.16159" lon="2.496">
        <ele>440</ele>
        <time>2015-04-05T15:14:59Z</time>
      </trkpt>
      <trkpt lat="46.16161" lon="2.49598">
        <ele>440</ele>
        <time>2015-04-05T15:15:01Z</time>
      </trkpt>
      <trkpt lat="46.16163" lon="2.49598">
        <ele>440</ele>
        <time>2015-04-05T15:15:03Z</time>
      </trkpt>
      <trkpt lat="46.16164" lon="2.49598">
        <ele>440</ele>
        <time>2015-04-05T15:15:05Z</time>
      </trkpt>
      <trkpt lat="46.16166" lon="2.49597">
        <ele>440</ele>
        <time>2015-04-05T15:15:07Z</time>
      </trkpt>
      <trkpt lat="46.16167" lon="2.49596">
        <ele>440</ele>
        <time>2015-04-05T15:15:09Z</time>
      </trkpt>
      <trkpt lat="46.16169" lon="2.49595">
        <ele>440</ele>
        <time>2015-04-05T15:15:11Z</time>
      </trkpt>
      <trkpt lat="46.1617" lon="2.49594">
        <ele>440</ele>
        <time>2015-04-05T15:15:13Z</time>
      </trkpt>
      <trkpt lat="46.16172" lon="2.49593">
        <ele>440</ele>
        <time>2015-04-05T15:15:15Z</time>
      </trkpt>
      <trkpt lat="46.16173" lon="2.49592">
        <ele>440</ele>
        <time>2015-04-05T15:15:17Z</time>
      </trkpt>
      <trkpt lat="46.16175" lon="2.49591">
        <ele>440</ele>
        <time>2015-04-05T15:15:19Z</time>
      </trkpt>
      <trkpt lat="46.16176" lon="2.49589">
        <ele>440</ele>
        <time>2015-04-05T15:15:21Z</time>
      </trkpt>
      <trkpt lat="46.16178" lon="2.49588">
        <ele>440</ele>
        <time>2015-04-05T15:15:23Z</time>
      </trkpt>
      <trkpt lat="46.16179" lon="2.49587">
        <ele>440</ele>
        <time>2015-04-05T15:15:26Z</time>
      </trkpt>
      <trkpt lat="46.1618" lon="2.49585">
        <ele>440</ele>
        <time>2015-04-05T15:15:32Z</time>
      </trkpt>
      <trkpt lat="46.16182" lon="2.49585">
        <ele>440</ele>
        <time>2015-04-05T15:15:34Z</time>
      </trkpt>
      <trkpt lat="46.16183" lon="2.49583">
        <ele>440</ele>
        <time>2015-04-05T15:15:36Z</time>
      </trkpt>
      <trkpt lat="46.16184" lon="2.49581">
        <ele>440</ele>
        <time>2015-04-05T15:15:38Z</time>
      </trkpt>
      <trkpt lat="46.16185" lon="2.49579">
        <ele>440</ele>
        <time>2015-04-05T15:15:40Z</time>
      </trkpt>
      <trkpt lat="46.16186" lon="2.49577">
        <ele>440</ele>
        <time>2015-04-05T15:15:42Z</time>
      </trkpt>
      <trkpt lat="46.16187" lon="2.49575">
        <ele>440</ele>
        <time>2015-04-05T15:15:44Z</time>
      </trkpt>
      <trkpt lat="46.16189" lon="2.49573">
        <ele>440</ele>
        <time>2015-04-05T15:15:46Z</time>
      </trkpt>
      <trkpt lat="46.1619" lon="2.49572">
        <ele>440</ele>
        <time>2015-04-05T15:15:54Z</time>
      </trkpt>
      <trkpt lat="46.16191" lon="2.49571">
        <ele>440</ele>
        <time>2015-04-05T15:15:57Z</time>
      </trkpt>
      <trkpt lat="46.16192" lon="2.49569">
        <ele>440</ele>
        <time>2015-04-05T15:15:59Z</time>
      </trkpt>
      <trkpt lat="46.16193" lon="2.49567">
        <ele>440</ele>
        <time>2015-04-05T15:16:01Z</time>
      </trkpt>
      <trkpt lat="46.16194" lon="2.49565">
        <ele>440</ele>
        <time>2015-04-05T15:16:03Z</time>
      </trkpt>
      <trkpt lat="46.16195" lon="2.49562">
        <ele>440</ele>
        <time>2015-04-05T15:16:05Z</time>
      </trkpt>
      <trkpt lat="46.16194" lon="2.49558">
        <ele>440</ele>
        <time>2015-04-05T15:16:08Z</time>
      </trkpt>
      <trkpt lat="46.16194" lon="2.49554">
        <ele>440</ele>
        <time>2015-04-05T15:16:11Z</time>
      </trkpt>
      <trkpt lat="46.16193" lon="2.49552">
        <ele>440</ele>
        <time>2015-04-05T15:16:16Z</time>
      </trkpt>
      <trkpt lat="46.16195" lon="2.49551">
        <ele>440</ele>
        <time>2015-04-05T15:16:23Z</time>
      </trkpt>
      <trkpt lat="46.16196" lon="2.4955">
        <ele>440</ele>
        <time>2015-04-05T15:16:33Z</time>
      </trkpt>
      <trkpt lat="46.16197" lon="2.49548">
        <ele>440</ele>
        <time>2015-04-05T15:16:36Z</time>
      </trkpt>
      <trkpt lat="46.16197" lon="2.49546">
        <ele>440</ele>
        <time>2015-04-05T15:16:38Z</time>
      </trkpt>
      <trkpt lat="46.16198" lon="2.49545">
        <ele>440</ele>
        <time>2015-04-05T15:16:40Z</time>
      </trkpt>
      <trkpt lat="46.16199" lon="2.49542">
        <ele>440</ele>
        <time>2015-04-05T15:16:42Z</time>
      </trkpt>
      <trkpt lat="46.162" lon="2.4954">
        <ele>440</ele>
        <time>2015-04-05T15:16:44Z</time>
      </trkpt>
      <trkpt lat="46.16201" lon="2.49538">
        <ele>440</ele>
        <time>2015-04-05T15:16:46Z</time>
      </trkpt>
      <trkpt lat="46.16201" lon="2.49536">
        <ele>440</ele>
        <time>2015-04-05T15:16:48Z</time>
      </trkpt>
      <trkpt lat="46.16202" lon="2.49535">
        <ele>440</ele>
        <time>2015-04-05T15:16:57Z</time>
      </trkpt>
      <trkpt lat="46.16204" lon="2.49533">
        <ele>440</ele>
        <time>2015-04-05T15:17:03Z</time>
      </trkpt>
      <trkpt lat="46.16205" lon="2.49531">
        <ele>440</ele>
        <time>2015-04-05T15:17:05Z</time>
      </trkpt>
      <trkpt lat="46.16206" lon="2.49529">
        <ele>440</ele>
        <time>2015-04-05T15:17:07Z</time>
      </trkpt>
      <trkpt lat="46.16206" lon="2.49527">
        <ele>440</ele>
        <time>2015-04-05T15:17:09Z</time>
      </trkpt>
      <trkpt lat="46.16208" lon="2.49525">
        <ele>440</ele>
        <time>2015-04-05T15:17:11Z</time>
      </trkpt>
      <trkpt lat="46.16209" lon="2.49524">
        <ele>440</ele>
        <time>2015-04-05T15:17:13Z</time>
      </trkpt>
      <trkpt lat="46.16211" lon="2.49524">
        <ele>440</ele>
        <time>2015-04-05T15:17:15Z</time>
      </trkpt>
      <trkpt lat="46.16212" lon="2.49525">
        <ele>440</ele>
        <time>2015-04-05T15:17:18Z</time>
      </trkpt>
      <trkpt lat="46.16211" lon="2.49525">
        <ele>440</ele>
        <time>2015-04-05T15:17:30Z</time>
      </trkpt>
      <trkpt lat="46.16212" lon="2.49527">
        <ele>440</ele>
        <time>2015-04-05T15:17:53Z</time>
      </trkpt>
      <trkpt lat="46.16212" lon="2.49529">
        <ele>440</ele>
        <time>2015-04-05T15:18:03Z</time>
      </trkpt>
      <trkpt lat="46.16211" lon="2.49529">
        <ele>440</ele>
        <time>2015-04-05T15:18:40Z</time>
      </trkpt>
      <trkpt lat="46.16211" lon="2.49527">
        <ele>440</ele>
        <time>2015-04-05T15:18:54Z</time>
      </trkpt>
      <trkpt lat="46.1621" lon="2.49525">
        <ele>440</ele>
        <time>2015-04-05T15:18:56Z</time>
      </trkpt>
      <trkpt lat="46.16211" lon="2.49527">
        <ele>440</ele>
        <time>2015-04-05T15:19:06Z</time>
      </trkpt>
      <trkpt lat="46.16211" lon="2.49524">
        <ele>440</ele>
        <time>2015-04-05T15:19:31Z</time>
      </trkpt>
      <trkpt lat="46.16212" lon="2.49521">
        <ele>440</ele>
        <time>2015-04-05T15:19:33Z</time>
      </trkpt>
      <trkpt lat="46.16213" lon="2.49518">
        <ele>440</ele>
        <time>2015-04-05T15:19:35Z</time>
      </trkpt>
      <trkpt lat="46.16214" lon="2.49516">
        <ele>440</ele>
        <time>2015-04-05T15:19:37Z</time>
      </trkpt>
      <trkpt lat="46.16215" lon="2.49513">
        <ele>440</ele>
        <time>2015-04-05T15:19:39Z</time>
      </trkpt>
      <trkpt lat="46.16216" lon="2.4951">
        <ele>440</ele>
        <time>2015-04-05T15:19:41Z</time>
      </trkpt>
      <trkpt lat="46.16217" lon="2.49508">
        <ele>440</ele>
        <time>2015-04-05T15:19:43Z</time>
      </trkpt>
      <trkpt lat="46.16217" lon="2.49505">
        <ele>440</ele>
        <time>2015-04-05T15:19:45Z</time>
      </trkpt>
      <trkpt lat="46.16218" lon="2.49502">
        <ele>440</ele>
        <time>2015-04-05T15:19:47Z</time>
      </trkpt>
      <trkpt lat="46.16219" lon="2.495">
        <ele>440</ele>
        <time>2015-04-05T15:19:49Z</time>
      </trkpt>
      <trkpt lat="46.1622" lon="2.49498">
        <ele>440</ele>
        <time>2015-04-05T15:19:51Z</time>
      </trkpt>
      <trkpt lat="46.16221" lon="2.49495">
        <ele>440</ele>
        <time>2015-04-05T15:19:53Z</time>
      </trkpt>
      <trkpt lat="46.16222" lon="2.49493">
        <ele>440</ele>
        <time>2015-04-05T15:19:55Z</time>
      </trkpt>
      <trkpt lat="46.16223" lon="2.49491">
        <ele>440</ele>
        <time>2015-04-05T15:19:57Z</time>
      </trkpt>
      <trkpt lat="46.16224" lon="2.49489">
        <ele>440</ele>
        <time>2015-04-05T15:19:59Z</time>
      </trkpt>
      <trkpt lat="46.16225" lon="2.49486">
        <ele>440</ele>
        <time>2015-04-05T15:20:01Z</time>
      </trkpt>
      <trkpt lat="46.16225" lon="2.49484">
        <ele>440</ele>
        <time>2015-04-05T15:20:03Z</time>
      </trkpt>
      <trkpt lat="46.16226" lon="2.49482">
        <ele>440</ele>
        <time>2015-04-05T15:20:05Z</time>
      </trkpt>
      <trkpt lat="46.16227" lon="2.4948">
        <ele>440</ele>
        <time>2015-04-05T15:20:07Z</time>
      </trkpt>
      <trkpt lat="46.16228" lon="2.49477">
        <ele>440</ele>
        <time>2015-04-05T15:20:09Z</time>
      </trkpt>
      <trkpt lat="46.1623" lon="2.49473">
        <ele>440</ele>
        <time>2015-04-05T15:20:12Z</time>
      </trkpt>
      <trkpt lat="46.1623" lon="2.49471">
        <ele>440</ele>
        <time>2015-04-05T15:20:14Z</time>
      </trkpt>
      <trkpt lat="46.16232" lon="2.49469">
        <ele>440</ele>
        <time>2015-04-05T15:20:16Z</time>
      </trkpt>
      <trkpt lat="46.16233" lon="2.49466">
        <ele>440</ele>
        <time>2015-04-05T15:20:18Z</time>
      </trkpt>
      <trkpt lat="46.16233" lon="2.49465">
        <ele>440</ele>
        <time>2015-04-05T15:20:39Z</time>
      </trkpt>
      <trkpt lat="46.16233" lon="2.49463">
        <ele>440</ele>
        <time>2015-04-05T15:20:42Z</time>
      </trkpt>
      <trkpt lat="46.16234" lon="2.4946">
        <ele>440</ele>
        <time>2015-04-05T15:20:44Z</time>
      </trkpt>
      <trkpt lat="46.16235" lon="2.49458">
        <ele>440</ele>
        <time>2015-04-05T15:20:46Z</time>
      </trkpt>
      <trkpt lat="46.16235" lon="2.49456">
        <ele>440</ele>
        <time>2015-04-05T15:20:48Z</time>
      </trkpt>
      <trkpt lat="46.16236" lon="2.49453">
        <ele>440</ele>
        <time>2015-04-05T15:20:50Z</time>
      </trkpt>
      <trkpt lat="46.16237" lon="2.4945">
        <ele>440</ele>
        <time>2015-04-05T15:20:52Z</time>
      </trkpt>
      <trkpt lat="46.16238" lon="2.49448">
        <ele>440</ele>
        <time>2015-04-05T15:20:54Z</time>
      </trkpt>
      <trkpt lat="46.16239" lon="2.49446">
        <ele>440</ele>
        <time>2015-04-05T15:20:56Z</time>
      </trkpt>
      <trkpt lat="46.1624" lon="2.49443">
        <ele>440</ele>
        <time>2015-04-05T15:20:58Z</time>
      </trkpt>
      <trkpt lat="46.1624" lon="2.4944">
        <ele>440</ele>
        <time>2015-04-05T15:21:00Z</time>
      </trkpt>
      <trkpt lat="46.16241" lon="2.49438">
        <ele>440</ele>
        <time>2015-04-05T15:21:02Z</time>
      </trkpt>
      <trkpt lat="46.16242" lon="2.49435">
        <ele>440</ele>
        <time>2015-04-05T15:21:04Z</time>
      </trkpt>
      <trkpt lat="46.16243" lon="2.49433">
        <ele>440</ele>
        <time>2015-04-05T15:21:06Z</time>
      </trkpt>
      <trkpt lat="46.16244" lon="2.4943">
        <ele>440</ele>
        <time>2015-04-05T15:21:08Z</time>
      </trkpt>
      <trkpt lat="46.16245" lon="2.49428">
        <ele>440</ele>
        <time>2015-04-05T15:21:10Z</time>
      </trkpt>
      <trkpt lat="46.16246" lon="2.49425">
        <ele>440</ele>
        <time>2015-04-05T15:21:12Z</time>
      </trkpt>
      <trkpt lat="46.16247" lon="2.49423">
        <ele>440</ele>
        <time>2015-04-05T15:21:14Z</time>
      </trkpt>
      <trkpt lat="46.16248" lon="2.4942">
        <ele>440</ele>
        <time>2015-04-05T15:21:16Z</time>
      </trkpt>
      <trkpt lat="46.16249" lon="2.49418">
        <ele>440</ele>
        <time>2015-04-05T15:21:18Z</time>
      </trkpt>
      <trkpt lat="46.1625" lon="2.49416">
        <ele>440</ele>
        <time>2015-04-05T15:21:20Z</time>
      </trkpt>
      <trkpt lat="46.16251" lon="2.49413">
        <ele>440</ele>
        <time>2015-04-05T15:21:22Z</time>
      </trkpt>
      <trkpt lat="46.16253" lon="2.49409">
        <ele>440</ele>
        <time>2015-04-05T15:21:25Z</time>
      </trkpt>
      <trkpt lat="46.16255" lon="2.49405">
        <ele>440</ele>
        <time>2015-04-05T15:21:28Z</time>
      </trkpt>
      <trkpt lat="46.16256" lon="2.49402">
        <ele>440</ele>
        <time>2015-04-05T15:21:30Z</time>
      </trkpt>
      <trkpt lat="46.16257" lon="2.494">
        <ele>440</ele>
        <time>2015-04-05T15:21:32Z</time>
      </trkpt>
      <trkpt lat="46.16259" lon="2.49398">
        <ele>440</ele>
        <time>2015-04-05T15:21:34Z</time>
      </trkpt>
      <trkpt lat="46.16259" lon="2.49396">
        <ele>440</ele>
        <time>2015-04-05T15:21:36Z</time>
      </trkpt>
      <trkpt lat="46.1626" lon="2.49394">
        <ele>440</ele>
        <time>2015-04-05T15:21:38Z</time>
      </trkpt>
      <trkpt lat="46.16261" lon="2.49391">
        <ele>440</ele>
        <time>2015-04-05T15:21:40Z</time>
      </trkpt>
      <trkpt lat="46.16262" lon="2.49389">
        <ele>440</ele>
        <time>2015-04-05T15:21:42Z</time>
      </trkpt>
      <trkpt lat="46.16264" lon="2.49387">
        <ele>440</ele>
        <time>2015-04-05T15:21:44Z</time>
      </trkpt>
      <trkpt lat="46.16265" lon="2.49385">
        <ele>440</ele>
        <time>2015-04-05T15:21:46Z</time>
      </trkpt>
      <trkpt lat="46.16266" lon="2.49383">
        <ele>440</ele>
        <time>2015-04-05T15:22:01Z</time>
      </trkpt>
      <trkpt lat="46.16267" lon="2.49382">
        <ele>440</ele>
        <time>2015-04-05T15:22:03Z</time>
      </trkpt>
      <trkpt lat="46.16268" lon="2.4938">
        <ele>440</ele>
        <time>2015-04-05T15:22:06Z</time>
      </trkpt>
      <trkpt lat="46.16269" lon="2.49378">
        <ele>440</ele>
        <time>2015-04-05T15:22:09Z</time>
      </trkpt>
      <trkpt lat="46.1627" lon="2.49376">
        <ele>440</ele>
        <time>2015-04-05T15:22:11Z</time>
      </trkpt>
      <trkpt lat="46.1627" lon="2.49375">
        <ele>440</ele>
        <time>2015-04-05T15:22:13Z</time>
      </trkpt>
      <trkpt lat="46.16271" lon="2.49373">
        <ele>440</ele>
        <time>2015-04-05T15:22:15Z</time>
      </trkpt>
      <trkpt lat="46.16272" lon="2.49372">
        <ele>440</ele>
        <time>2015-04-05T15:22:17Z</time>
      </trkpt>
      <trkpt lat="46.16273" lon="2.49371">
        <ele>440</ele>
        <time>2015-04-05T15:22:19Z</time>
      </trkpt>
      <trkpt lat="46.16274" lon="2.4937">
        <ele>440</ele>
        <time>2015-04-05T15:22:21Z</time>
      </trkpt>
      <trkpt lat="46.16275" lon="2.49368">
        <ele>440</ele>
        <time>2015-04-05T15:22:23Z</time>
      </trkpt>
      <trkpt lat="46.16277" lon="2.49366">
        <ele>440</ele>
        <time>2015-04-05T15:22:25Z</time>
      </trkpt>
      <trkpt lat="46.16278" lon="2.49365">
        <ele>440</ele>
        <time>2015-04-05T15:22:27Z</time>
      </trkpt>
      <trkpt lat="46.1628" lon="2.49363">
        <ele>440</ele>
        <time>2015-04-05T15:22:29Z</time>
      </trkpt>
      <trkpt lat="46.16281" lon="2.49362">
        <ele>440</ele>
        <time>2015-04-05T15:22:31Z</time>
      </trkpt>
      <trkpt lat="46.16282" lon="2.4936">
        <ele>440</ele>
        <time>2015-04-05T15:22:33Z</time>
      </trkpt>
      <trkpt lat="46.16283" lon="2.49359">
        <ele>440</ele>
        <time>2015-04-05T15:22:35Z</time>
      </trkpt>
      <trkpt lat="46.16285" lon="2.49358">
        <ele>440</ele>
        <time>2015-04-05T15:22:37Z</time>
      </trkpt>
      <trkpt lat="46.16286" lon="2.49357">
        <ele>440</ele>
        <time>2015-04-05T15:22:39Z</time>
      </trkpt>
      <trkpt lat="46.16288" lon="2.49356">
        <ele>440</ele>
        <time>2015-04-05T15:22:41Z</time>
      </trkpt>
      <trkpt lat="46.16289" lon="2.49355">
        <ele>440</ele>
        <time>2015-04-05T15:22:43Z</time>
      </trkpt>
      <trkpt lat="46.16291" lon="2.49354">
        <ele>440</ele>
        <time>2015-04-05T15:22:45Z</time>
      </trkpt>
      <trkpt lat="46.16292" lon="2.49353">
        <ele>440</ele>
        <time>2015-04-05T15:22:47Z</time>
      </trkpt>
      <trkpt lat="46.16293" lon="2.49352">
        <ele>440</ele>
        <time>2015-04-05T15:22:49Z</time>
      </trkpt>
      <trkpt lat="46.16295" lon="2.49351">
        <ele>440</ele>
        <time>2015-04-05T15:22:51Z</time>
      </trkpt>
      <trkpt lat="46.16295" lon="2.49349">
        <ele>440</ele>
        <time>2015-04-05T15:22:55Z</time>
      </trkpt>
      <trkpt lat="46.16296" lon="2.49348">
        <ele>440</ele>
        <time>2015-04-05T15:22:57Z</time>
      </trkpt>
      <trkpt lat="46.16297" lon="2.49346">
        <ele>440</ele>
        <time>2015-04-05T15:22:59Z</time>
      </trkpt>
      <trkpt lat="46.16298" lon="2.49345">
        <ele>440</ele>
        <time>2015-04-05T15:23:09Z</time>
      </trkpt>
      <trkpt lat="46.16297" lon="2.49343">
        <ele>440</ele>
        <time>2015-04-05T15:23:12Z</time>
      </trkpt>
      <trkpt lat="46.16299" lon="2.49342">
        <ele>440</ele>
        <time>2015-04-05T15:23:15Z</time>
      </trkpt>
      <trkpt lat="46.16299" lon="2.49344">
        <ele>440</ele>
        <time>2015-04-05T15:23:32Z</time>
      </trkpt>
      <trkpt lat="46.16299" lon="2.49347">
        <ele>440</ele>
        <time>2015-04-05T15:23:36Z</time>
      </trkpt>
      <trkpt lat="46.163" lon="2.49348">
        <ele>440</ele>
        <time>2015-04-05T15:23:38Z</time>
      </trkpt>
      <trkpt lat="46.16301" lon="2.49346">
        <ele>440</ele>
        <time>2015-04-05T15:23:58Z</time>
      </trkpt>
      <trkpt lat="46.16299" lon="2.49346">
        <ele>440</ele>
        <time>2015-04-05T15:24:14Z</time>
      </trkpt>
      <trkpt lat="46.16298" lon="2.49345">
        <ele>440</ele>
        <time>2015-04-05T15:24:17Z</time>
      </trkpt>
      <trkpt lat="46.16297" lon="2.49343">
        <ele>440</ele>
        <time>2015-04-05T15:24:19Z</time>
      </trkpt>
      <trkpt lat="46.16297" lon="2.49345">
        <ele>440</ele>
        <time>2015-04-05T15:24:28Z</time>
      </trkpt>
      <trkpt lat="46.16298" lon="2.49346">
        <ele>440</ele>
        <time>2015-04-05T15:24:30Z</time>
      </trkpt>
      <trkpt lat="46.16299" lon="2.49348">
        <ele>440</ele>
        <time>2015-04-05T15:24:33Z</time>
      </trkpt>
      <trkpt lat="46.16301" lon="2.49347">
        <ele>440</ele>
        <time>2015-04-05T15:24:42Z</time>
      </trkpt>
      <trkpt lat="46.16302" lon="2.49347">
        <ele>440</ele>
        <time>2015-04-05T15:24:44Z</time>
      </trkpt>
      <trkpt lat="46.16304" lon="2.49347">
        <ele>440</ele>
        <time>2015-04-05T15:24:46Z</time>
      </trkpt>
      <trkpt lat="46.16305" lon="2.49346">
        <ele>440</ele>
        <time>2015-04-05T15:24:48Z</time>
      </trkpt>
      <trkpt lat="46.16307" lon="2.49346">
        <ele>440</ele>
        <time>2015-04-05T15:24:50Z</time>
      </trkpt>
      <trkpt lat="46.16309" lon="2.49346">
        <ele>440</ele>
        <time>2015-04-05T15:24:52Z</time>
      </trkpt>
      <trkpt lat="46.16311" lon="2.49346">
        <ele>440</ele>
        <time>2015-04-05T15:24:54Z</time>
      </trkpt>
      <trkpt lat="46.16312" lon="2.49346">
        <ele>440</ele>
        <time>2015-04-05T15:24:56Z</time>
      </trkpt>
      <trkpt lat="46.16314" lon="2.49346">
        <ele>440</ele>
        <time>2015-04-05T15:24:58Z</time>
      </trkpt>
      <trkpt lat="46.16315" lon="2.49346">
        <ele>440</ele>
        <time>2015-04-05T15:25:00Z</time>
      </trkpt>
      <trkpt lat="46.16317" lon="2.49347">
        <ele>440</ele>
        <time>2015-04-05T15:25:02Z</time>
      </trkpt>
      <trkpt lat="46.16319" lon="2.49348">
        <ele>440</ele>
        <time>2015-04-05T15:25:04Z</time>
      </trkpt>
      <trkpt lat="46.16319" lon="2.49349">
        <ele>440</ele>
        <time>2015-04-05T15:25:10Z</time>
      </trkpt>
      <trkpt lat="46.1632" lon="2.49349">
        <ele>440</ele>
        <time>2015-04-05T15:25:16Z</time>
      </trkpt>
      <trkpt lat="46.16322" lon="2.49348">
        <ele>440</ele>
        <time>2015-04-05T15:25:18Z</time>
      </trkpt>
      <trkpt lat="46.16324" lon="2.49348">
        <ele>440</ele>
        <time>2015-04-05T15:25:20Z</time>
      </trkpt>
      <trkpt lat="46.16325" lon="2.49348">
        <ele>440</ele>
        <time>2015-04-05T15:25:22Z</time>
      </trkpt>
      <trkpt lat="46.16327" lon="2.49349">
        <ele>440</ele>
        <time>2015-04-05T15:25:24Z</time>
      </trkpt>
      <trkpt lat="46.16329" lon="2.4935">
        <ele>440</ele>
        <time>2015-04-05T15:25:26Z</time>
      </trkpt>
      <trkpt lat="46.16331" lon="2.49351">
        <ele>440</ele>
        <time>2015-04-05T15:25:28Z</time>
      </trkpt>
      <trkpt lat="46.16333" lon="2.49352">
        <ele>440</ele>
        <time>2015-04-05T15:25:30Z</time>
      </trkpt>
      <trkpt lat="46.16335" lon="2.49353">
        <ele>440</ele>
        <time>2015-04-05T15:25:32Z</time>
      </trkpt>
      <trkpt lat="46.16336" lon="2.49353">
        <ele>440</ele>
        <time>2015-04-05T15:25:34Z</time>
      </trkpt>
      <trkpt lat="46.16338" lon="2.49353">
        <ele>440</ele>
        <time>2015-04-05T15:25:36Z</time>
      </trkpt>
      <trkpt lat="46.1634" lon="2.49354">
        <ele>440</ele>
        <time>2015-04-05T15:25:38Z</time>
      </trkpt>
      <trkpt lat="46.16341" lon="2.49354">
        <ele>440</ele>
        <time>2015-04-05T15:25:40Z</time>
      </trkpt>
      <trkpt lat="46.16343" lon="2.49355">
        <ele>440</ele>
        <time>2015-04-05T15:25:42Z</time>
      </trkpt>
      <trkpt lat="46.16345" lon="2.49355">
        <ele>440</ele>
        <time>2015-04-05T15:25:44Z</time>
      </trkpt>
      <trkpt lat="46.16347" lon="2.49356">
        <ele>440</ele>
        <time>2015-04-05T15:25:46Z</time>
      </trkpt>
      <trkpt lat="46.16349" lon="2.49356">
        <ele>440</ele>
        <time>2015-04-05T15:25:48Z</time>
      </trkpt>
      <trkpt lat="46.16351" lon="2.49356">
        <ele>440</ele>
        <time>2015-04-05T15:25:50Z</time>
      </trkpt>
      <trkpt lat="46.16352" lon="2.49357">
        <ele>440</ele>
        <time>2015-04-05T15:25:52Z</time>
      </trkpt>
      <trkpt lat="46.16354" lon="2.49357">
        <ele>440</ele>
        <time>2015-04-05T15:25:54Z</time>
      </trkpt>
      <trkpt lat="46.16356" lon="2.49358">
        <ele>440</ele>
        <time>2015-04-05T15:25:56Z</time>
      </trkpt>
      <trkpt lat="46.16358" lon="2.49358">
        <ele>440</ele>
        <time>2015-04-05T15:25:58Z</time>
      </trkpt>
      <trkpt lat="46.16359" lon="2.49358">
        <ele>440</ele>
        <time>2015-04-05T15:26:00Z</time>
      </trkpt>
      <trkpt lat="46.16361" lon="2.49358">
        <ele>440</ele>
        <time>2015-04-05T15:26:02Z</time>
      </trkpt>
      <trkpt lat="46.16363" lon="2.49359">
        <ele>440</ele>
        <time>2015-04-05T15:26:04Z</time>
      </trkpt>
      <trkpt lat="46.16365" lon="2.49359">
        <ele>440</ele>
        <time>2015-04-05T15:26:06Z</time>
      </trkpt>
      <trkpt lat="46.16367" lon="2.4936">
        <ele>440</ele>
        <time>2015-04-05T15:26:08Z</time>
      </trkpt>
      <trkpt lat="46.16369" lon="2.4936">
        <ele>440</ele>
        <time>2015-04-05T15:26:10Z</time>
      </trkpt>
      <trkpt lat="46.16371" lon="2.4936">
        <ele>440</ele>
        <time>2015-04-05T15:26:12Z</time>
      </trkpt>
      <trkpt lat="46.16373" lon="2.49361">
        <ele>440</ele>
        <time>2015-04-05T15:26:14Z</time>
      </trkpt>
      <trkpt lat="46.16375" lon="2.49361">
        <ele>440</ele>
        <time>2015-04-05T15:26:16Z</time>
      </trkpt>
      <trkpt lat="46.16377" lon="2.49361">
        <ele>440</ele>
        <time>2015-04-05T15:26:18Z</time>
      </trkpt>
      <trkpt lat="46.16379" lon="2.49362">
        <ele>440</ele>
        <time>2015-04-05T15:26:20Z</time>
      </trkpt>
      <trkpt lat="46.16381" lon="2.49362">
        <ele>440</ele>
        <time>2015-04-05T15:26:22Z</time>
      </trkpt>
      <trkpt lat="46.16383" lon="2.49362">
        <ele>440</ele>
        <time>2015-04-05T15:26:24Z</time>
      </trkpt>
      <trkpt lat="46.16385" lon="2.49362">
        <ele>440</ele>
        <time>2015-04-05T15:26:26Z</time>
      </trkpt>
      <trkpt lat="46.16387" lon="2.49363">
        <ele>440</ele>
        <time>2015-04-05T15:26:28Z</time>
      </trkpt>
      <trkpt lat="46.16388" lon="2.49362">
        <ele>440</ele>
        <time>2015-04-05T15:26:30Z</time>
      </trkpt>
      <trkpt lat="46.1639" lon="2.49362">
        <ele>440</ele>
        <time>2015-04-05T15:26:32Z</time>
      </trkpt>
      <trkpt lat="46.16392" lon="2.49362">
        <ele>440</ele>
        <time>2015-04-05T15:26:34Z</time>
      </trkpt>
      <trkpt lat="46.16394" lon="2.49362">
        <ele>440</ele>
        <time>2015-04-05T15:26:36Z</time>
      </trkpt>
      <trkpt lat="46.16396" lon="2.49362">
        <ele>440</ele>
        <time>2015-04-05T15:26:38Z</time>
      </trkpt>
      <trkpt lat="46.16397" lon="2.49361">
        <ele>440</ele>
        <time>2015-04-05T15:26:40Z</time>
      </trkpt>
      <trkpt lat="46.16399" lon="2.49361">
        <ele>440</ele>
        <time>2015-04-05T15:26:42Z</time>
      </trkpt>
      <trkpt lat="46.16401" lon="2.49361">
        <ele>440</ele>
        <time>2015-04-05T15:26:44Z</time>
      </trkpt>
      <trkpt lat="46.16402" lon="2.49361">
        <ele>440</ele>
        <time>2015-04-05T15:26:46Z</time>
      </trkpt>
      <trkpt lat="46.16404" lon="2.49361">
        <ele>440</ele>
        <time>2015-04-05T15:26:48Z</time>
      </trkpt>
      <trkpt lat="46.16406" lon="2.49361">
        <ele>440</ele>
        <time>2015-04-05T15:26:50Z</time>
      </trkpt>
      <trkpt lat="46.16408" lon="2.49361">
        <ele>440</ele>
        <time>2015-04-05T15:26:52Z</time>
      </trkpt>
      <trkpt lat="46.1641" lon="2.49361">
        <ele>440</ele>
        <time>2015-04-05T15:26:54Z</time>
      </trkpt>
      <trkpt lat="46.16412" lon="2.49361">
        <ele>440</ele>
        <time>2015-04-05T15:26:56Z</time>
      </trkpt>
      <trkpt lat="46.16414" lon="2.49361">
        <ele>440</ele>
        <time>2015-04-05T15:26:58Z</time>
      </trkpt>
      <trkpt lat="46.16416" lon="2.49361">
        <ele>440</ele>
        <time>2015-04-05T15:27:00Z</time>
      </trkpt>
      <trkpt lat="46.16418" lon="2.49361">
        <ele>440</ele>
        <time>2015-04-05T15:27:02Z</time>
      </trkpt>
      <trkpt lat="46.1642" lon="2.49361">
        <ele>440</ele>
        <time>2015-04-05T15:27:04Z</time>
      </trkpt>
      <trkpt lat="46.16421" lon="2.4936">
        <ele>440</ele>
        <time>2015-04-05T15:27:06Z</time>
      </trkpt>
      <trkpt lat="46.16423" lon="2.4936">
        <ele>440</ele>
        <time>2015-04-05T15:27:08Z</time>
      </trkpt>
      <trkpt lat="46.16426" lon="2.49361">
        <ele>440</ele>
        <time>2015-04-05T15:27:11Z</time>
      </trkpt>
      <trkpt lat="46.16428" lon="2.4936">
        <ele>440</ele>
        <time>2015-04-05T15:27:13Z</time>
      </trkpt>
      <trkpt lat="46.1643" lon="2.4936">
        <ele>440</ele>
        <time>2015-04-05T15:27:15Z</time>
      </trkpt>
      <trkpt lat="46.16431" lon="2.49361">
        <ele>440</ele>
        <time>2015-04-05T15:27:17Z</time>
      </trkpt>
      <trkpt lat="46.16433" lon="2.4936">
        <ele>440</ele>
        <time>2015-04-05T15:27:19Z</time>
      </trkpt>
      <trkpt lat="46.16434" lon="2.4936">
        <ele>440</ele>
        <time>2015-04-05T15:27:21Z</time>
      </trkpt>
      <trkpt lat="46.16436" lon="2.4936">
        <ele>440</ele>
        <time>2015-04-05T15:27:23Z</time>
      </trkpt>
      <trkpt lat="46.16438" lon="2.4936">
        <ele>440</ele>
        <time>2015-04-05T15:27:25Z</time>
      </trkpt>
      <trkpt lat="46.1644" lon="2.4936">
        <ele>440</ele>
        <time>2015-04-05T15:27:27Z</time>
      </trkpt>
      <trkpt lat="46.16442" lon="2.4936">
        <ele>440</ele>
        <time>2015-04-05T15:27:29Z</time>
      </trkpt>
      <trkpt lat="46.16444" lon="2.49359">
        <ele>440</ele>
        <time>2015-04-05T15:27:31Z</time>
      </trkpt>
      <trkpt lat="46.16446" lon="2.49359">
        <ele>440</ele>
        <time>2015-04-05T15:27:33Z</time>
      </trkpt>
      <trkpt lat="46.16448" lon="2.49359">
        <ele>440</ele>
        <time>2015-04-05T15:27:35Z</time>
      </trkpt>
      <trkpt lat="46.1645" lon="2.49359">
        <ele>440</ele>
        <time>2015-04-05T15:27:37Z</time>
      </trkpt>
      <trkpt lat="46.16451" lon="2.49358">
        <ele>440</ele>
        <time>2015-04-05T15:27:39Z</time>
      </trkpt>
      <trkpt lat="46.16453" lon="2.49357">
        <ele>440</ele>
        <time>2015-04-05T15:27:41Z</time>
      </trkpt>
      <trkpt lat="46.16454" lon="2.49357">
        <ele>440</ele>
        <time>2015-04-05T15:27:43Z</time>
      </trkpt>
      <trkpt lat="46.16456" lon="2.49356">
        <ele>440</ele>
        <time>2015-04-05T15:27:45Z</time>
      </trkpt>
      <trkpt lat="46.16458" lon="2.49356">
        <ele>440</ele>
        <time>2015-04-05T15:27:47Z</time>
      </trkpt>
      <trkpt lat="46.1646" lon="2.49355">
        <ele>440</ele>
        <time>2015-04-05T15:27:49Z</time>
      </trkpt>
      <trkpt lat="46.16461" lon="2.49354">
        <ele>440</ele>
        <time>2015-04-05T15:27:51Z</time>
      </trkpt>
      <trkpt lat="46.16463" lon="2.49354">
        <ele>440</ele>
        <time>2015-04-05T15:27:53Z</time>
      </trkpt>
      <trkpt lat="46.16465" lon="2.49353">
        <ele>440</ele>
        <time>2015-04-05T15:27:55Z</time>
      </trkpt>
      <trkpt lat="46.16467" lon="2.49352">
        <ele>440</ele>
        <time>2015-04-05T15:27:57Z</time>
      </trkpt>
      <trkpt lat="46.16468" lon="2.49351">
        <ele>440</ele>
        <time>2015-04-05T15:27:59Z</time>
      </trkpt>
      <trkpt lat="46.1647" lon="2.49351">
        <ele>440</ele>
        <time>2015-04-05T15:28:01Z</time>
      </trkpt>
      <trkpt lat="46.16473" lon="2.49349">
        <ele>440</ele>
        <time>2015-04-05T15:28:03Z</time>
      </trkpt>
      <trkpt lat="46.16475" lon="2.49348">
        <ele>440</ele>
        <time>2015-04-05T15:28:05Z</time>
      </trkpt>
      <trkpt lat="46.16478" lon="2.49348">
        <ele>440</ele>
        <time>2015-04-05T15:28:07Z</time>
      </trkpt>
      <trkpt lat="46.16481" lon="2.49347">
        <ele>440</ele>
        <time>2015-04-05T15:28:09Z</time>
      </trkpt>
      <trkpt lat="46.16485" lon="2.49345">
        <ele>440</ele>
        <time>2015-04-05T15:28:12Z</time>
      </trkpt>
      <trkpt lat="46.16487" lon="2.49345">
        <ele>440</ele>
        <time>2015-04-05T15:28:14Z</time>
      </trkpt>
      <trkpt lat="46.16489" lon="2.49344">
        <ele>440</ele>
        <time>2015-04-05T15:28:16Z</time>
      </trkpt>
      <trkpt lat="46.16491" lon="2.49344">
        <ele>440</ele>
        <time>2015-04-05T15:28:18Z</time>
      </trkpt>
      <trkpt lat="46.16493" lon="2.49344">
        <ele>440</ele>
        <time>2015-04-05T15:28:20Z</time>
      </trkpt>
      <trkpt lat="46.16495" lon="2.49343">
        <ele>440</ele>
        <time>2015-04-05T15:28:22Z</time>
      </trkpt>
      <trkpt lat="46.16497" lon="2.49343">
        <ele>440</ele>
        <time>2015-04-05T15:28:24Z</time>
      </trkpt>
      <trkpt lat="46.16498" lon="2.49343">
        <ele>440</ele>
        <time>2015-04-05T15:28:26Z</time>
      </trkpt>
      <trkpt lat="46.16501" lon="2.49343">
        <ele>440</ele>
        <time>2015-04-05T15:28:29Z</time>
      </trkpt>
      <trkpt lat="46.16503" lon="2.49343">
        <ele>440</ele>
        <time>2015-04-05T15:28:31Z</time>
      </trkpt>
      <trkpt lat="46.16505" lon="2.49343">
        <ele>440</ele>
        <time>2015-04-05T15:28:33Z</time>
      </trkpt>
      <trkpt lat="46.16507" lon="2.49343">
        <ele>440</ele>
        <time>2015-04-05T15:28:35Z</time>
      </trkpt>
      <trkpt lat="46.16508" lon="2.49342">
        <ele>440</ele>
        <time>2015-04-05T15:28:37Z</time>
      </trkpt>
      <trkpt lat="46.1651" lon="2.49342">
        <ele>440</ele>
        <time>2015-04-05T15:28:39Z</time>
      </trkpt>
      <trkpt lat="46.16512" lon="2.49341">
        <ele>440</ele>
        <time>2015-04-05T15:28:41Z</time>
      </trkpt>
      <trkpt lat="46.16513" lon="2.49341">
        <ele>440</ele>
        <time>2015-04-05T15:28:43Z</time>
      </trkpt>
      <trkpt lat="46.16515" lon="2.49341">
        <ele>440</ele>
        <time>2015-04-05T15:28:45Z</time>
      </trkpt>
      <trkpt lat="46.16516" lon="2.49341">
        <ele>440</ele>
        <time>2015-04-05T15:28:47Z</time>
      </trkpt>
      <trkpt lat="46.16518" lon="2.49341">
        <ele>440</ele>
        <time>2015-04-05T15:28:49Z</time>
      </trkpt>
      <trkpt lat="46.16519" lon="2.49341">
        <ele>440</ele>
        <time>2015-04-05T15:28:51Z</time>
      </trkpt>
      <trkpt lat="46.16521" lon="2.49341">
        <ele>440</ele>
        <time>2015-04-05T15:28:59Z</time>
      </trkpt>
      <trkpt lat="46.16522" lon="2.4934">
        <ele>440</ele>
        <time>2015-04-05T15:29:01Z</time>
      </trkpt>
      <trkpt lat="46.16524" lon="2.4934">
        <ele>440</ele>
        <time>2015-04-05T15:29:03Z</time>
      </trkpt>
      <trkpt lat="46.16526" lon="2.4934">
        <ele>440</ele>
        <time>2015-04-05T15:29:05Z</time>
      </trkpt>
      <trkpt lat="46.16527" lon="2.4934">
        <ele>440</ele>
        <time>2015-04-05T15:29:07Z</time>
      </trkpt>
      <trkpt lat="46.16528" lon="2.4934">
        <ele>440</ele>
        <time>2015-04-05T15:29:09Z</time>
      </trkpt>
      <trkpt lat="46.1653" lon="2.4934">
        <ele>440</ele>
        <time>2015-04-05T15:29:11Z</time>
      </trkpt>
      <trkpt lat="46.16531" lon="2.4934">
        <ele>440</ele>
        <time>2015-04-05T15:29:13Z</time>
      </trkpt>
      <trkpt lat="46.16533" lon="2.49339">
        <ele>440</ele>
        <time>2015-04-05T15:29:15Z</time>
      </trkpt>
      <trkpt lat="46.16534" lon="2.49339">
        <ele>440</ele>
        <time>2015-04-05T15:29:17Z</time>
      </trkpt>
      <trkpt lat="46.16536" lon="2.49339">
        <ele>440</ele>
        <time>2015-04-05T15:29:19Z</time>
      </trkpt>
      <trkpt lat="46.16538" lon="2.49339">
        <ele>439</ele>
        <time>2015-04-05T15:29:21Z</time>
      </trkpt>
      <trkpt lat="46.1654" lon="2.49339">
        <ele>439</ele>
        <time>2015-04-05T15:29:23Z</time>
      </trkpt>
      <trkpt lat="46.16542" lon="2.49339">
        <ele>438</ele>
        <time>2015-04-05T15:29:25Z</time>
      </trkpt>
      <trkpt lat="46.16543" lon="2.49339">
        <ele>438</ele>
        <time>2015-04-05T15:29:27Z</time>
      </trkpt>
      <trkpt lat="46.16545" lon="2.49339">
        <ele>438</ele>
        <time>2015-04-05T15:29:29Z</time>
      </trkpt>
      <trkpt lat="46.16548" lon="2.49339">
        <ele>437</ele>
        <time>2015-04-05T15:29:32Z</time>
      </trkpt>
      <trkpt lat="46.1655" lon="2.49339">
        <ele>437</ele>
        <time>2015-04-05T15:29:34Z</time>
      </trkpt>
      <trkpt lat="46.16551" lon="2.4934">
        <ele>437</ele>
        <time>2015-04-05T15:29:36Z</time>
      </trkpt>
      <trkpt lat="46.16553" lon="2.4934">
        <ele>437</ele>
        <time>2015-04-05T15:29:38Z</time>
      </trkpt>
      <trkpt lat="46.16555" lon="2.4934">
        <ele>437</ele>
        <time>2015-04-05T15:29:40Z</time>
      </trkpt>
      <trkpt lat="46.16558" lon="2.4934">
        <ele>437</ele>
        <time>2015-04-05T15:29:43Z</time>
      </trkpt>
      <trkpt lat="46.1656" lon="2.49341">
        <ele>437</ele>
        <time>2015-04-05T15:29:45Z</time>
      </trkpt>
      <trkpt lat="46.16562" lon="2.49341">
        <ele>436</ele>
        <time>2015-04-05T15:29:47Z</time>
      </trkpt>
      <trkpt lat="46.16563" lon="2.49341">
        <ele>436</ele>
        <time>2015-04-05T15:29:49Z</time>
      </trkpt>
      <trkpt lat="46.16565" lon="2.49341">
        <ele>436</ele>
        <time>2015-04-05T15:29:51Z</time>
      </trkpt>
      <trkpt lat="46.16567" lon="2.49342">
        <ele>436</ele>
        <time>2015-04-05T15:29:53Z</time>
      </trkpt>
      <trkpt lat="46.16569" lon="2.49342">
        <ele>436</ele>
        <time>2015-04-05T15:29:55Z</time>
      </trkpt>
      <trkpt lat="46.16571" lon="2.49342">
        <ele>436</ele>
        <time>2015-04-05T15:29:57Z</time>
      </trkpt>
      <trkpt lat="46.16573" lon="2.49342">
        <ele>436</ele>
        <time>2015-04-05T15:29:59Z</time>
      </trkpt>
      <trkpt lat="46.16574" lon="2.49342">
        <ele>436</ele>
        <time>2015-04-05T15:30:01Z</time>
      </trkpt>
      <trkpt lat="46.16576" lon="2.49342">
        <ele>436</ele>
        <time>2015-04-05T15:30:03Z</time>
      </trkpt>
      <trkpt lat="46.16578" lon="2.49342">
        <ele>436</ele>
        <time>2015-04-05T15:30:05Z</time>
      </trkpt>
      <trkpt lat="46.16582" lon="2.49342">
        <ele>436</ele>
        <time>2015-04-05T15:30:07Z</time>
      </trkpt>
      <trkpt lat="46.16584" lon="2.49342">
        <ele>436</ele>
        <time>2015-04-05T15:30:09Z</time>
      </trkpt>
      <trkpt lat="46.16586" lon="2.49342">
        <ele>436</ele>
        <time>2015-04-05T15:30:11Z</time>
      </trkpt>
      <trkpt lat="46.16589" lon="2.49342">
        <ele>436</ele>
        <time>2015-04-05T15:30:13Z</time>
      </trkpt>
      <trkpt lat="46.16592" lon="2.49342">
        <ele>436</ele>
        <time>2015-04-05T15:30:16Z</time>
      </trkpt>
      <trkpt lat="46.16595" lon="2.49342">
        <ele>437</ele>
        <time>2015-04-05T15:30:19Z</time>
      </trkpt>
      <trkpt lat="46.16597" lon="2.49342">
        <ele>438</ele>
        <time>2015-04-05T15:30:21Z</time>
      </trkpt>
      <trkpt lat="46.166" lon="2.49342">
        <ele>438</ele>
        <time>2015-04-05T15:30:24Z</time>
      </trkpt>
      <trkpt lat="46.16601" lon="2.49342">
        <ele>438</ele>
        <time>2015-04-05T15:30:26Z</time>
      </trkpt>
      <trkpt lat="46.16603" lon="2.49342">
        <ele>438</ele>
        <time>2015-04-05T15:30:28Z</time>
      </trkpt>
      <trkpt lat="46.16605" lon="2.49343">
        <ele>439</ele>
        <time>2015-04-05T15:30:30Z</time>
      </trkpt>
      <trkpt lat="46.16608" lon="2.49344">
        <ele>439</ele>
        <time>2015-04-05T15:30:32Z</time>
      </trkpt>
      <trkpt lat="46.1661" lon="2.49346">
        <ele>439</ele>
        <time>2015-04-05T15:30:34Z</time>
      </trkpt>
      <trkpt lat="46.16612" lon="2.49347">
        <ele>439</ele>
        <time>2015-04-05T15:30:36Z</time>
      </trkpt>
      <trkpt lat="46.16615" lon="2.49348">
        <ele>439</ele>
        <time>2015-04-05T15:30:39Z</time>
      </trkpt>
      <trkpt lat="46.16616" lon="2.49348">
        <ele>439</ele>
        <time>2015-04-05T15:30:41Z</time>
      </trkpt>
      <trkpt lat="46.16618" lon="2.49349">
        <ele>439</ele>
        <time>2015-04-05T15:30:43Z</time>
      </trkpt>
      <trkpt lat="46.16619" lon="2.49349">
        <ele>439</ele>
        <time>2015-04-05T15:30:45Z</time>
      </trkpt>
      <trkpt lat="46.16621" lon="2.4935">
        <ele>439</ele>
        <time>2015-04-05T15:30:47Z</time>
      </trkpt>
      <trkpt lat="46.16624" lon="2.49349">
        <ele>439</ele>
        <time>2015-04-05T15:30:49Z</time>
      </trkpt>
      <trkpt lat="46.16625" lon="2.4935">
        <ele>439</ele>
        <time>2015-04-05T15:30:51Z</time>
      </trkpt>
      <trkpt lat="46.16626" lon="2.4935">
        <ele>439</ele>
        <time>2015-04-05T15:30:54Z</time>
      </trkpt>
      <trkpt lat="46.16628" lon="2.4935">
        <ele>439</ele>
        <time>2015-04-05T15:30:56Z</time>
      </trkpt>
      <trkpt lat="46.16629" lon="2.4935">
        <ele>439</ele>
        <time>2015-04-05T15:30:58Z</time>
      </trkpt>
      <trkpt lat="46.1663" lon="2.4935">
        <ele>439</ele>
        <time>2015-04-05T15:31:00Z</time>
      </trkpt>
      <trkpt lat="46.16631" lon="2.4935">
        <ele>439</ele>
        <time>2015-04-05T15:31:02Z</time>
      </trkpt>
      <trkpt lat="46.16633" lon="2.49349">
        <ele>439</ele>
        <time>2015-04-05T15:31:04Z</time>
      </trkpt>
      <trkpt lat="46.16634" lon="2.49349">
        <ele>439</ele>
        <time>2015-04-05T15:31:06Z</time>
      </trkpt>
      <trkpt lat="46.16636" lon="2.49348">
        <ele>440</ele>
        <time>2015-04-05T15:31:08Z</time>
      </trkpt>
      <trkpt lat="46.16637" lon="2.49349">
        <ele>441</ele>
        <time>2015-04-05T15:31:10Z</time>
      </trkpt>
      <trkpt lat="46.1664" lon="2.49349">
        <ele>441</ele>
        <time>2015-04-05T15:31:13Z</time>
      </trkpt>
      <trkpt lat="46.16641" lon="2.49349">
        <ele>441</ele>
        <time>2015-04-05T15:31:15Z</time>
      </trkpt>
      <trkpt lat="46.16643" lon="2.49348">
        <ele>441</ele>
        <time>2015-04-05T15:31:18Z</time>
      </trkpt>
      <trkpt lat="46.16645" lon="2.49349">
        <ele>441</ele>
        <time>2015-04-05T15:31:20Z</time>
      </trkpt>
      <trkpt lat="46.16646" lon="2.4935">
        <ele>441</ele>
        <time>2015-04-05T15:31:23Z</time>
      </trkpt>
      <trkpt lat="46.16647" lon="2.49349">
        <ele>441</ele>
        <time>2015-04-05T15:31:30Z</time>
      </trkpt>
      <trkpt lat="46.16649" lon="2.4935">
        <ele>441</ele>
        <time>2015-04-05T15:31:33Z</time>
      </trkpt>
      <trkpt lat="46.1665" lon="2.4935">
        <ele>441</ele>
        <time>2015-04-05T15:31:35Z</time>
      </trkpt>
      <trkpt lat="46.16653" lon="2.4935">
        <ele>441</ele>
        <time>2015-04-05T15:31:38Z</time>
      </trkpt>
      <trkpt lat="46.16655" lon="2.4935">
        <ele>441</ele>
        <time>2015-04-05T15:31:40Z</time>
      </trkpt>
      <trkpt lat="46.16656" lon="2.49351">
        <ele>441</ele>
        <time>2015-04-05T15:31:42Z</time>
      </trkpt>
      <trkpt lat="46.16658" lon="2.49351">
        <ele>441</ele>
        <time>2015-04-05T15:31:44Z</time>
      </trkpt>
      <trkpt lat="46.1666" lon="2.49351">
        <ele>441</ele>
        <time>2015-04-05T15:31:47Z</time>
      </trkpt>
      <trkpt lat="46.16662" lon="2.49352">
        <ele>441</ele>
        <time>2015-04-05T15:31:49Z</time>
      </trkpt>
      <trkpt lat="46.16663" lon="2.49352">
        <ele>441</ele>
        <time>2015-04-05T15:31:51Z</time>
      </trkpt>
      <trkpt lat="46.16665" lon="2.49353">
        <ele>441</ele>
        <time>2015-04-05T15:31:53Z</time>
      </trkpt>
      <trkpt lat="46.16667" lon="2.49354">
        <ele>441</ele>
        <time>2015-04-05T15:31:55Z</time>
      </trkpt>
      <trkpt lat="46.16669" lon="2.49356">
        <ele>441</ele>
        <time>2015-04-05T15:31:57Z</time>
      </trkpt>
      <trkpt lat="46.16671" lon="2.49357">
        <ele>441</ele>
        <time>2015-04-05T15:32:00Z</time>
      </trkpt>
      <trkpt lat="46.16672" lon="2.49358">
        <ele>441</ele>
        <time>2015-04-05T15:32:04Z</time>
      </trkpt>
      <trkpt lat="46.16674" lon="2.49358">
        <ele>441</ele>
        <time>2015-04-05T15:32:06Z</time>
      </trkpt>
      <trkpt lat="46.16675" lon="2.49358">
        <ele>441</ele>
        <time>2015-04-05T15:32:08Z</time>
      </trkpt>
      <trkpt lat="46.16677" lon="2.49359">
        <ele>441</ele>
        <time>2015-04-05T15:32:10Z</time>
      </trkpt>
      <trkpt lat="46.16676" lon="2.49361">
        <ele>441</ele>
        <time>2015-04-05T15:32:16Z</time>
      </trkpt>
      <trkpt lat="46.16677" lon="2.49362">
        <ele>441</ele>
        <time>2015-04-05T15:32:25Z</time>
      </trkpt>
      <trkpt lat="46.16679" lon="2.49361">
        <ele>441</ele>
        <time>2015-04-05T15:32:27Z</time>
      </trkpt>
      <trkpt lat="46.1668" lon="2.49362">
        <ele>441</ele>
        <time>2015-04-05T15:32:33Z</time>
      </trkpt>
      <trkpt lat="46.16681" lon="2.49362">
        <ele>441</ele>
        <time>2015-04-05T15:32:35Z</time>
      </trkpt>
      <trkpt lat="46.16683" lon="2.49362">
        <ele>441</ele>
        <time>2015-04-05T15:32:39Z</time>
      </trkpt>
      <trkpt lat="46.16684" lon="2.49362">
        <ele>441</ele>
        <time>2015-04-05T15:32:41Z</time>
      </trkpt>
      <trkpt lat="46.16685" lon="2.49363">
        <ele>441</ele>
        <time>2015-04-05T15:32:49Z</time>
      </trkpt>
      <trkpt lat="46.16687" lon="2.49363">
        <ele>442</ele>
        <time>2015-04-05T15:32:51Z</time>
      </trkpt>
      <trkpt lat="46.16688" lon="2.49363">
        <ele>442</ele>
        <time>2015-04-05T15:32:54Z</time>
      </trkpt>
      <trkpt lat="46.16689" lon="2.49363">
        <ele>442</ele>
        <time>2015-04-05T15:32:57Z</time>
      </trkpt>
      <trkpt lat="46.16691" lon="2.49363">
        <ele>442</ele>
        <time>2015-04-05T15:32:59Z</time>
      </trkpt>
      <trkpt lat="46.16693" lon="2.49363">
        <ele>442</ele>
        <time>2015-04-05T15:33:01Z</time>
      </trkpt>
      <trkpt lat="46.16694" lon="2.49364">
        <ele>442</ele>
        <time>2015-04-05T15:33:14Z</time>
      </trkpt>
      <trkpt lat="46.16696" lon="2.49363">
        <ele>442</ele>
        <time>2015-04-05T15:33:16Z</time>
      </trkpt>
      <trkpt lat="46.16697" lon="2.49363">
        <ele>442</ele>
        <time>2015-04-05T15:33:18Z</time>
      </trkpt>
      <trkpt lat="46.16699" lon="2.49363">
        <ele>442</ele>
        <time>2015-04-05T15:33:20Z</time>
      </trkpt>
      <trkpt lat="46.167" lon="2.49363">
        <ele>442</ele>
        <time>2015-04-05T15:33:22Z</time>
      </trkpt>
      <trkpt lat="46.16702" lon="2.49363">
        <ele>442</ele>
        <time>2015-04-05T15:33:24Z</time>
      </trkpt>
      <trkpt lat="46.16703" lon="2.49363">
        <ele>442</ele>
        <time>2015-04-05T15:33:26Z</time>
      </trkpt>
      <trkpt lat="46.16705" lon="2.49363">
        <ele>442</ele>
        <time>2015-04-05T15:33:29Z</time>
      </trkpt>
      <trkpt lat="46.16706" lon="2.49364">
        <ele>442</ele>
        <time>2015-04-05T15:33:32Z</time>
      </trkpt>
      <trkpt lat="46.16708" lon="2.49364">
        <ele>442</ele>
        <time>2015-04-05T15:33:34Z</time>
      </trkpt>
      <trkpt lat="46.1671" lon="2.49364">
        <ele>442</ele>
        <time>2015-04-05T15:33:36Z</time>
      </trkpt>
      <trkpt lat="46.16712" lon="2.49365">
        <ele>442</ele>
        <time>2015-04-05T15:33:38Z</time>
      </trkpt>
      <trkpt lat="46.16713" lon="2.49365">
        <ele>441</ele>
        <time>2015-04-05T15:33:40Z</time>
      </trkpt>
      <trkpt lat="46.16715" lon="2.49365">
        <ele>441</ele>
        <time>2015-04-05T15:33:42Z</time>
      </trkpt>
      <trkpt lat="46.16717" lon="2.49366">
        <ele>441</ele>
        <time>2015-04-05T15:33:44Z</time>
      </trkpt>
      <trkpt lat="46.16718" lon="2.49367">
        <ele>441</ele>
        <time>2015-04-05T15:33:46Z</time>
      </trkpt>
      <trkpt lat="46.16721" lon="2.49367">
        <ele>440</ele>
        <time>2015-04-05T15:33:49Z</time>
      </trkpt>
      <trkpt lat="46.16723" lon="2.49368">
        <ele>440</ele>
        <time>2015-04-05T15:33:51Z</time>
      </trkpt>
      <trkpt lat="46.16725" lon="2.49368">
        <ele>440</ele>
        <time>2015-04-05T15:33:53Z</time>
      </trkpt>
      <trkpt lat="46.16727" lon="2.49368">
        <ele>440</ele>
        <time>2015-04-05T15:33:55Z</time>
      </trkpt>
      <trkpt lat="46.16729" lon="2.49368">
        <ele>440</ele>
        <time>2015-04-05T15:33:57Z</time>
      </trkpt>
      <trkpt lat="46.16731" lon="2.49368">
        <ele>440</ele>
        <time>2015-04-05T15:33:59Z</time>
      </trkpt>
      <trkpt lat="46.16732" lon="2.49369">
        <ele>439</ele>
        <time>2015-04-05T15:34:01Z</time>
      </trkpt>
      <trkpt lat="46.16735" lon="2.49369">
        <ele>439</ele>
        <time>2015-04-05T15:34:03Z</time>
      </trkpt>
      <trkpt lat="46.16738" lon="2.4937">
        <ele>439</ele>
        <time>2015-04-05T15:34:06Z</time>
      </trkpt>
      <trkpt lat="46.16739" lon="2.4937">
        <ele>439</ele>
        <time>2015-04-05T15:34:08Z</time>
      </trkpt>
      <trkpt lat="46.16741" lon="2.49371">
        <ele>439</ele>
        <time>2015-04-05T15:34:10Z</time>
      </trkpt>
      <trkpt lat="46.16743" lon="2.49371">
        <ele>439</ele>
        <time>2015-04-05T15:34:12Z</time>
      </trkpt>
      <trkpt lat="46.16746" lon="2.49371">
        <ele>439</ele>
        <time>2015-04-05T15:34:15Z</time>
      </trkpt>
      <trkpt lat="46.16748" lon="2.49372">
        <ele>439</ele>
        <time>2015-04-05T15:34:17Z</time>
      </trkpt>
      <trkpt lat="46.1675" lon="2.49373">
        <ele>438</ele>
        <time>2015-04-05T15:34:19Z</time>
      </trkpt>
      <trkpt lat="46.16752" lon="2.49373">
        <ele>438</ele>
        <time>2015-04-05T15:34:21Z</time>
      </trkpt>
      <trkpt lat="46.16754" lon="2.49374">
        <ele>437</ele>
        <time>2015-04-05T15:34:23Z</time>
      </trkpt>
      <trkpt lat="46.16756" lon="2.49375">
        <ele>436</ele>
        <time>2015-04-05T15:34:25Z</time>
      </trkpt>
      <trkpt lat="46.16757" lon="2.49375">
        <ele>436</ele>
        <time>2015-04-05T15:34:27Z</time>
      </trkpt>
      <trkpt lat="46.1676" lon="2.49375">
        <ele>436</ele>
        <time>2015-04-05T15:34:29Z</time>
      </trkpt>
      <trkpt lat="46.16762" lon="2.49377">
        <ele>436</ele>
        <time>2015-04-05T15:34:31Z</time>
      </trkpt>
      <trkpt lat="46.16765" lon="2.49377">
        <ele>436</ele>
        <time>2015-04-05T15:34:33Z</time>
      </trkpt>
      <trkpt lat="46.16767" lon="2.49377">
        <ele>436</ele>
        <time>2015-04-05T15:34:35Z</time>
      </trkpt>
      <trkpt lat="46.16769" lon="2.49377">
        <ele>436</ele>
        <time>2015-04-05T15:34:37Z</time>
      </trkpt>
      <trkpt lat="46.16772" lon="2.49377">
        <ele>436</ele>
        <time>2015-04-05T15:34:40Z</time>
      </trkpt>
      <trkpt lat="46.16774" lon="2.49378">
        <ele>436</ele>
        <time>2015-04-05T15:34:42Z</time>
      </trkpt>
      <trkpt lat="46.16776" lon="2.49378">
        <ele>436</ele>
        <time>2015-04-05T15:34:44Z</time>
      </trkpt>
      <trkpt lat="46.16777" lon="2.49379">
        <ele>436</ele>
        <time>2015-04-05T15:34:46Z</time>
      </trkpt>
      <trkpt lat="46.16779" lon="2.49379">
        <ele>436</ele>
        <time>2015-04-05T15:34:48Z</time>
      </trkpt>
      <trkpt lat="46.16781" lon="2.4938">
        <ele>436</ele>
        <time>2015-04-05T15:34:50Z</time>
      </trkpt>
      <trkpt lat="46.16782" lon="2.49381">
        <ele>436</ele>
        <time>2015-04-05T15:34:52Z</time>
      </trkpt>
      <trkpt lat="46.16784" lon="2.49382">
        <ele>436</ele>
        <time>2015-04-05T15:34:54Z</time>
      </trkpt>
      <trkpt lat="46.16787" lon="2.49383">
        <ele>436</ele>
        <time>2015-04-05T15:34:56Z</time>
      </trkpt>
      <trkpt lat="46.16788" lon="2.49385">
        <ele>436</ele>
        <time>2015-04-05T15:34:58Z</time>
      </trkpt>
      <trkpt lat="46.1679" lon="2.49385">
        <ele>436</ele>
        <time>2015-04-05T15:35:00Z</time>
      </trkpt>
      <trkpt lat="46.16792" lon="2.49386">
        <ele>436</ele>
        <time>2015-04-05T15:35:02Z</time>
      </trkpt>
      <trkpt lat="46.16795" lon="2.49387">
        <ele>436</ele>
        <time>2015-04-05T15:35:05Z</time>
      </trkpt>
      <trkpt lat="46.16796" lon="2.49388">
        <ele>436</ele>
        <time>2015-04-05T15:35:07Z</time>
      </trkpt>
      <trkpt lat="46.16798" lon="2.49388">
        <ele>436</ele>
        <time>2015-04-05T15:35:09Z</time>
      </trkpt>
      <trkpt lat="46.168" lon="2.49389">
        <ele>436</ele>
        <time>2015-04-05T15:35:11Z</time>
      </trkpt>
      <trkpt lat="46.16801" lon="2.49389">
        <ele>436</ele>
        <time>2015-04-05T15:35:13Z</time>
      </trkpt>
      <trkpt lat="46.16803" lon="2.49389">
        <ele>436</ele>
        <time>2015-04-05T15:35:15Z</time>
      </trkpt>
      <trkpt lat="46.16805" lon="2.4939">
        <ele>436</ele>
        <time>2015-04-05T15:35:17Z</time>
      </trkpt>
      <trkpt lat="46.16806" lon="2.4939">
        <ele>436</ele>
        <time>2015-04-05T15:35:19Z</time>
      </trkpt>
      <trkpt lat="46.16808" lon="2.49391">
        <ele>436</ele>
        <time>2015-04-05T15:35:21Z</time>
      </trkpt>
      <trkpt lat="46.16811" lon="2.49393">
        <ele>436</ele>
        <time>2015-04-05T15:35:24Z</time>
      </trkpt>
      <trkpt lat="46.16812" lon="2.49394">
        <ele>436</ele>
        <time>2015-04-05T15:35:26Z</time>
      </trkpt>
      <trkpt lat="46.16814" lon="2.49395">
        <ele>436</ele>
        <time>2015-04-05T15:35:28Z</time>
      </trkpt>
      <trkpt lat="46.16816" lon="2.49394">
        <ele>436</ele>
        <time>2015-04-05T15:35:30Z</time>
      </trkpt>
      <trkpt lat="46.16817" lon="2.49395">
        <ele>436</ele>
        <time>2015-04-05T15:35:32Z</time>
      </trkpt>
      <trkpt lat="46.16818" lon="2.49397">
        <ele>436</ele>
        <time>2015-04-05T15:35:35Z</time>
      </trkpt>
      <trkpt lat="46.16818" lon="2.49399">
        <ele>436</ele>
        <time>2015-04-05T15:35:38Z</time>
      </trkpt>
      <trkpt lat="46.1682" lon="2.494">
        <ele>436</ele>
        <time>2015-04-05T15:35:43Z</time>
      </trkpt>
      <trkpt lat="46.16822" lon="2.49399">
        <ele>436</ele>
        <time>2015-04-05T15:35:45Z</time>
      </trkpt>
      <trkpt lat="46.16823" lon="2.49399">
        <ele>436</ele>
        <time>2015-04-05T15:35:47Z</time>
      </trkpt>
      <trkpt lat="46.16825" lon="2.49399">
        <ele>436</ele>
        <time>2015-04-05T15:35:49Z</time>
      </trkpt>
      <trkpt lat="46.16826" lon="2.49399">
        <ele>436</ele>
        <time>2015-04-05T15:35:57Z</time>
      </trkpt>
      <trkpt lat="46.16828" lon="2.49399">
        <ele>436</ele>
        <time>2015-04-05T15:35:59Z</time>
      </trkpt>
      <trkpt lat="46.16829" lon="2.49398">
        <ele>436</ele>
        <time>2015-04-05T15:36:01Z</time>
      </trkpt>
      <trkpt lat="46.16831" lon="2.49398">
        <ele>436</ele>
        <time>2015-04-05T15:36:03Z</time>
      </trkpt>
      <trkpt lat="46.16833" lon="2.49397">
        <ele>436</ele>
        <time>2015-04-05T15:36:05Z</time>
      </trkpt>
      <trkpt lat="46.16835" lon="2.49396">
        <ele>436</ele>
        <time>2015-04-05T15:36:07Z</time>
      </trkpt>
      <trkpt lat="46.16837" lon="2.49394">
        <ele>436</ele>
        <time>2015-04-05T15:36:09Z</time>
      </trkpt>
      <trkpt lat="46.16838" lon="2.49393">
        <ele>436</ele>
        <time>2015-04-05T15:36:11Z</time>
      </trkpt>
      <trkpt lat="46.1684" lon="2.49392">
        <ele>436</ele>
        <time>2015-04-05T15:36:13Z</time>
      </trkpt>
      <trkpt lat="46.16841" lon="2.4939">
        <ele>436</ele>
        <time>2015-04-05T15:36:16Z</time>
      </trkpt>
      <trkpt lat="46.16843" lon="2.49389">
        <ele>436</ele>
        <time>2015-04-05T15:36:18Z</time>
      </trkpt>
      <trkpt lat="46.16844" lon="2.49387">
        <ele>436</ele>
        <time>2015-04-05T15:36:20Z</time>
      </trkpt>
      <trkpt lat="46.16846" lon="2.49385">
        <ele>436</ele>
        <time>2015-04-05T15:36:22Z</time>
      </trkpt>
      <trkpt lat="46.16847" lon="2.49384">
        <ele>436</ele>
        <time>2015-04-05T15:36:24Z</time>
      </trkpt>
      <trkpt lat="46.16849" lon="2.49382">
        <ele>436</ele>
        <time>2015-04-05T15:36:26Z</time>
      </trkpt>
      <trkpt lat="46.1685" lon="2.49381">
        <ele>436</ele>
        <time>2015-04-05T15:36:28Z</time>
      </trkpt>
      <trkpt lat="46.16852" lon="2.49379">
        <ele>436</ele>
        <time>2015-04-05T15:36:30Z</time>
      </trkpt>
      <trkpt lat="46.16853" lon="2.49377">
        <ele>436</ele>
        <time>2015-04-05T15:36:32Z</time>
      </trkpt>
      <trkpt lat="46.16854" lon="2.49375">
        <ele>436</ele>
        <time>2015-04-05T15:36:34Z</time>
      </trkpt>
      <trkpt lat="46.16856" lon="2.49374">
        <ele>435</ele>
        <time>2015-04-05T15:36:36Z</time>
      </trkpt>
      <trkpt lat="46.16858" lon="2.49372">
        <ele>435</ele>
        <time>2015-04-05T15:36:38Z</time>
      </trkpt>
      <trkpt lat="46.16859" lon="2.4937">
        <ele>435</ele>
        <time>2015-04-05T15:36:40Z</time>
      </trkpt>
      <trkpt lat="46.16861" lon="2.49369">
        <ele>435</ele>
        <time>2015-04-05T15:36:42Z</time>
      </trkpt>
      <trkpt lat="46.16862" lon="2.49367">
        <ele>435</ele>
        <time>2015-04-05T15:36:44Z</time>
      </trkpt>
      <trkpt lat="46.16864" lon="2.49365">
        <ele>435</ele>
        <time>2015-04-05T15:36:46Z</time>
      </trkpt>
      <trkpt lat="46.16865" lon="2.49363">
        <ele>435</ele>
        <time>2015-04-05T15:36:48Z</time>
      </trkpt>
      <trkpt lat="46.16867" lon="2.49362">
        <ele>435</ele>
        <time>2015-04-05T15:36:50Z</time>
      </trkpt>
      <trkpt lat="46.16869" lon="2.49361">
        <ele>435</ele>
        <time>2015-04-05T15:36:52Z</time>
      </trkpt>
      <trkpt lat="46.16871" lon="2.49359">
        <ele>435</ele>
        <time>2015-04-05T15:36:54Z</time>
      </trkpt>
      <trkpt lat="46.16872" lon="2.49357">
        <ele>435</ele>
        <time>2015-04-05T15:36:56Z</time>
      </trkpt>
      <trkpt lat="46.16874" lon="2.49355">
        <ele>435</ele>
        <time>2015-04-05T15:36:58Z</time>
      </trkpt>
      <trkpt lat="46.16875" lon="2.49354">
        <ele>435</ele>
        <time>2015-04-05T15:37:00Z</time>
      </trkpt>
      <trkpt lat="46.16877" lon="2.49352">
        <ele>435</ele>
        <time>2015-04-05T15:37:02Z</time>
      </trkpt>
      <trkpt lat="46.16878" lon="2.4935">
        <ele>435</ele>
        <time>2015-04-05T15:37:04Z</time>
      </trkpt>
      <trkpt lat="46.1688" lon="2.49348">
        <ele>435</ele>
        <time>2015-04-05T15:37:06Z</time>
      </trkpt>
      <trkpt lat="46.16881" lon="2.49346">
        <ele>435</ele>
        <time>2015-04-05T15:37:08Z</time>
      </trkpt>
      <trkpt lat="46.16883" lon="2.49345">
        <ele>435</ele>
        <time>2015-04-05T15:37:10Z</time>
      </trkpt>
      <trkpt lat="46.16884" lon="2.49343">
        <ele>435</ele>
        <time>2015-04-05T15:37:12Z</time>
      </trkpt>
      <trkpt lat="46.16886" lon="2.49341">
        <ele>435</ele>
        <time>2015-04-05T15:37:14Z</time>
      </trkpt>
      <trkpt lat="46.16887" lon="2.4934">
        <ele>435</ele>
        <time>2015-04-05T15:37:16Z</time>
      </trkpt>
      <trkpt lat="46.16889" lon="2.49338">
        <ele>435</ele>
        <time>2015-04-05T15:37:18Z</time>
      </trkpt>
      <trkpt lat="46.1689" lon="2.49336">
        <ele>434</ele>
        <time>2015-04-05T15:37:20Z</time>
      </trkpt>
      <trkpt lat="46.16892" lon="2.49334">
        <ele>434</ele>
        <time>2015-04-05T15:37:22Z</time>
      </trkpt>
      <trkpt lat="46.16893" lon="2.49332">
        <ele>434</ele>
        <time>2015-04-05T15:37:24Z</time>
      </trkpt>
      <trkpt lat="46.16895" lon="2.4933">
        <ele>434</ele>
        <time>2015-04-05T15:37:26Z</time>
      </trkpt>
      <trkpt lat="46.16897" lon="2.49328">
        <ele>434</ele>
        <time>2015-04-05T15:37:28Z</time>
      </trkpt>
      <trkpt lat="46.16898" lon="2.49327">
        <ele>434</ele>
        <time>2015-04-05T15:37:30Z</time>
      </trkpt>
      <trkpt lat="46.169" lon="2.49326">
        <ele>434</ele>
        <time>2015-04-05T15:37:32Z</time>
      </trkpt>
      <trkpt lat="46.16902" lon="2.49324">
        <ele>434</ele>
        <time>2015-04-05T15:37:34Z</time>
      </trkpt>
      <trkpt lat="46.16903" lon="2.49323">
        <ele>434</ele>
        <time>2015-04-05T15:37:36Z</time>
      </trkpt>
      <trkpt lat="46.16905" lon="2.49322">
        <ele>433</ele>
        <time>2015-04-05T15:37:38Z</time>
      </trkpt>
      <trkpt lat="46.16906" lon="2.49321">
        <ele>433</ele>
        <time>2015-04-05T15:37:40Z</time>
      </trkpt>
      <trkpt lat="46.16908" lon="2.49319">
        <ele>433</ele>
        <time>2015-04-05T15:37:42Z</time>
      </trkpt>
      <trkpt lat="46.16909" lon="2.49318">
        <ele>432</ele>
        <time>2015-04-05T15:37:44Z</time>
      </trkpt>
      <trkpt lat="46.16911" lon="2.49316">
        <ele>432</ele>
        <time>2015-04-05T15:37:46Z</time>
      </trkpt>
      <trkpt lat="46.16912" lon="2.49315">
        <ele>432</ele>
        <time>2015-04-05T15:37:48Z</time>
      </trkpt>
      <trkpt lat="46.16914" lon="2.49314">
        <ele>432</ele>
        <time>2015-04-05T15:37:50Z</time>
      </trkpt>
      <trkpt lat="46.16916" lon="2.49312">
        <ele>432</ele>
        <time>2015-04-05T15:37:52Z</time>
      </trkpt>
      <trkpt lat="46.16917" lon="2.49311">
        <ele>432</ele>
        <time>2015-04-05T15:37:54Z</time>
      </trkpt>
      <trkpt lat="46.16919" lon="2.4931">
        <ele>432</ele>
        <time>2015-04-05T15:37:56Z</time>
      </trkpt>
      <trkpt lat="46.16921" lon="2.49309">
        <ele>432</ele>
        <time>2015-04-05T15:37:58Z</time>
      </trkpt>
      <trkpt lat="46.16922" lon="2.49307">
        <ele>432</ele>
        <time>2015-04-05T15:38:00Z</time>
      </trkpt>
      <trkpt lat="46.16924" lon="2.49306">
        <ele>432</ele>
        <time>2015-04-05T15:38:02Z</time>
      </trkpt>
      <trkpt lat="46.16925" lon="2.49304">
        <ele>432</ele>
        <time>2015-04-05T15:38:04Z</time>
      </trkpt>
      <trkpt lat="46.16927" lon="2.49303">
        <ele>432</ele>
        <time>2015-04-05T15:38:06Z</time>
      </trkpt>
      <trkpt lat="46.16929" lon="2.49302">
        <ele>431</ele>
        <time>2015-04-05T15:38:08Z</time>
      </trkpt>
      <trkpt lat="46.16931" lon="2.49301">
        <ele>431</ele>
        <time>2015-04-05T15:38:10Z</time>
      </trkpt>
      <trkpt lat="46.16932" lon="2.493">
        <ele>431</ele>
        <time>2015-04-05T15:38:12Z</time>
      </trkpt>
      <trkpt lat="46.16934" lon="2.49299">
        <ele>431</ele>
        <time>2015-04-05T15:38:14Z</time>
      </trkpt>
      <trkpt lat="46.16936" lon="2.49298">
        <ele>431</ele>
        <time>2015-04-05T15:38:16Z</time>
      </trkpt>
      <trkpt lat="46.16937" lon="2.49297">
        <ele>431</ele>
        <time>2015-04-05T15:38:18Z</time>
      </trkpt>
      <trkpt lat="46.16939" lon="2.49296">
        <ele>431</ele>
        <time>2015-04-05T15:38:20Z</time>
      </trkpt>
      <trkpt lat="46.16941" lon="2.49295">
        <ele>431</ele>
        <time>2015-04-05T15:38:22Z</time>
      </trkpt>
      <trkpt lat="46.16943" lon="2.49294">
        <ele>431</ele>
        <time>2015-04-05T15:38:24Z</time>
      </trkpt>
      <trkpt lat="46.16944" lon="2.49293">
        <ele>431</ele>
        <time>2015-04-05T15:38:26Z</time>
      </trkpt>
      <trkpt lat="46.16946" lon="2.49292">
        <ele>431</ele>
        <time>2015-04-05T15:38:28Z</time>
      </trkpt>
      <trkpt lat="46.16947" lon="2.49291">
        <ele>430</ele>
        <time>2015-04-05T15:38:30Z</time>
      </trkpt>
      <trkpt lat="46.16949" lon="2.4929">
        <ele>430</ele>
        <time>2015-04-05T15:38:32Z</time>
      </trkpt>
      <trkpt lat="46.16951" lon="2.49289">
        <ele>430</ele>
        <time>2015-04-05T15:38:34Z</time>
      </trkpt>
      <trkpt lat="46.16953" lon="2.49289">
        <ele>430</ele>
        <time>2015-04-05T15:38:36Z</time>
      </trkpt>
      <trkpt lat="46.16954" lon="2.49288">
        <ele>430</ele>
        <time>2015-04-05T15:38:38Z</time>
      </trkpt>
      <trkpt lat="46.16956" lon="2.49287">
        <ele>430</ele>
        <time>2015-04-05T15:38:40Z</time>
      </trkpt>
      <trkpt lat="46.16957" lon="2.49286">
        <ele>430</ele>
        <time>2015-04-05T15:38:42Z</time>
      </trkpt>
      <trkpt lat="46.16959" lon="2.49286">
        <ele>430</ele>
        <time>2015-04-05T15:38:44Z</time>
      </trkpt>
      <trkpt lat="46.16961" lon="2.49285">
        <ele>430</ele>
        <time>2015-04-05T15:38:46Z</time>
      </trkpt>
      <trkpt lat="46.16962" lon="2.49284">
        <ele>429</ele>
        <time>2015-04-05T15:38:48Z</time>
      </trkpt>
      <trkpt lat="46.16964" lon="2.49283">
        <ele>429</ele>
        <time>2015-04-05T15:38:50Z</time>
      </trkpt>
      <trkpt lat="46.16966" lon="2.49283">
        <ele>429</ele>
        <time>2015-04-05T15:38:52Z</time>
      </trkpt>
      <trkpt lat="46.16968" lon="2.49282">
        <ele>429</ele>
        <time>2015-04-05T15:38:54Z</time>
      </trkpt>
      <trkpt lat="46.1697" lon="2.49281">
        <ele>429</ele>
        <time>2015-04-05T15:38:56Z</time>
      </trkpt>
      <trkpt lat="46.16971" lon="2.49281">
        <ele>429</ele>
        <time>2015-04-05T15:38:58Z</time>
      </trkpt>
      <trkpt lat="46.16973" lon="2.4928">
        <ele>429</ele>
        <time>2015-04-05T15:39:00Z</time>
      </trkpt>
      <trkpt lat="46.16975" lon="2.49279">
        <ele>428</ele>
        <time>2015-04-05T15:39:02Z</time>
      </trkpt>
      <trkpt lat="46.16976" lon="2.49279">
        <ele>428</ele>
        <time>2015-04-05T15:39:04Z</time>
      </trkpt>
      <trkpt lat="46.16978" lon="2.49279">
        <ele>428</ele>
        <time>2015-04-05T15:39:06Z</time>
      </trkpt>
      <trkpt lat="46.1698" lon="2.49278">
        <ele>428</ele>
        <time>2015-04-05T15:39:08Z</time>
      </trkpt>
      <trkpt lat="46.16982" lon="2.49278">
        <ele>428</ele>
        <time>2015-04-05T15:39:10Z</time>
      </trkpt>
      <trkpt lat="46.16984" lon="2.49277">
        <ele>428</ele>
        <time>2015-04-05T15:39:12Z</time>
      </trkpt>
      <trkpt lat="46.16986" lon="2.49277">
        <ele>428</ele>
        <time>2015-04-05T15:39:14Z</time>
      </trkpt>
      <trkpt lat="46.16988" lon="2.49276">
        <ele>428</ele>
        <time>2015-04-05T15:39:16Z</time>
      </trkpt>
      <trkpt lat="46.1699" lon="2.49276">
        <ele>428</ele>
        <time>2015-04-05T15:39:18Z</time>
      </trkpt>
      <trkpt lat="46.16991" lon="2.49276">
        <ele>428</ele>
        <time>2015-04-05T15:39:20Z</time>
      </trkpt>
      <trkpt lat="46.16993" lon="2.49276">
        <ele>428</ele>
        <time>2015-04-05T15:39:22Z</time>
      </trkpt>
      <trkpt lat="46.16995" lon="2.49275">
        <ele>428</ele>
        <time>2015-04-05T15:39:24Z</time>
      </trkpt>
      <trkpt lat="46.16997" lon="2.49276">
        <ele>428</ele>
        <time>2015-04-05T15:39:26Z</time>
      </trkpt>
      <trkpt lat="46.16999" lon="2.49275">
        <ele>428</ele>
        <time>2015-04-05T15:39:28Z</time>
      </trkpt>
      <trkpt lat="46.17" lon="2.49275">
        <ele>428</ele>
        <time>2015-04-05T15:39:30Z</time>
      </trkpt>
      <trkpt lat="46.17002" lon="2.49275">
        <ele>428</ele>
        <time>2015-04-05T15:39:32Z</time>
      </trkpt>
      <trkpt lat="46.17004" lon="2.49274">
        <ele>428</ele>
        <time>2015-04-05T15:39:34Z</time>
      </trkpt>
      <trkpt lat="46.17006" lon="2.49274">
        <ele>428</ele>
        <time>2015-04-05T15:39:36Z</time>
      </trkpt>
      <trkpt lat="46.17007" lon="2.49274">
        <ele>428</ele>
        <time>2015-04-05T15:39:38Z</time>
      </trkpt>
      <trkpt lat="46.17009" lon="2.49273">
        <ele>427</ele>
        <time>2015-04-05T15:39:40Z</time>
      </trkpt>
      <trkpt lat="46.17011" lon="2.49273">
        <ele>427</ele>
        <time>2015-04-05T15:39:42Z</time>
      </trkpt>
      <trkpt lat="46.17013" lon="2.49272">
        <ele>427</ele>
        <time>2015-04-05T15:39:44Z</time>
      </trkpt>
      <trkpt lat="46.17015" lon="2.49272">
        <ele>427</ele>
        <time>2015-04-05T15:39:46Z</time>
      </trkpt>
      <trkpt lat="46.17017" lon="2.49271">
        <ele>427</ele>
        <time>2015-04-05T15:39:48Z</time>
      </trkpt>
      <trkpt lat="46.17018" lon="2.4927">
        <ele>427</ele>
        <time>2015-04-05T15:39:50Z</time>
      </trkpt>
      <trkpt lat="46.17019" lon="2.49268">
        <ele>427</ele>
        <time>2015-04-05T15:39:52Z</time>
      </trkpt>
      <trkpt lat="46.1702" lon="2.49267">
        <ele>427</ele>
        <time>2015-04-05T15:40:00Z</time>
      </trkpt>
      <trkpt lat="46.17022" lon="2.49268">
        <ele>427</ele>
        <time>2015-04-05T15:40:02Z</time>
      </trkpt>
      <trkpt lat="46.17024" lon="2.49268">
        <ele>427</ele>
        <time>2015-04-05T15:40:04Z</time>
      </trkpt>
      <trkpt lat="46.17026" lon="2.49267">
        <ele>427</ele>
        <time>2015-04-05T15:40:06Z</time>
      </trkpt>
      <trkpt lat="46.17028" lon="2.49267">
        <ele>427</ele>
        <time>2015-04-05T15:40:08Z</time>
      </trkpt>
      <trkpt lat="46.1703" lon="2.49266">
        <ele>427</ele>
        <time>2015-04-05T15:40:10Z</time>
      </trkpt>
      <trkpt lat="46.17032" lon="2.49264">
        <ele>427</ele>
        <time>2015-04-05T15:40:12Z</time>
      </trkpt>
      <trkpt lat="46.17033" lon="2.49264">
        <ele>427</ele>
        <time>2015-04-05T15:40:14Z</time>
      </trkpt>
      <trkpt lat="46.17035" lon="2.49262">
        <ele>427</ele>
        <time>2015-04-05T15:40:16Z</time>
      </trkpt>
      <trkpt lat="46.17037" lon="2.49261">
        <ele>427</ele>
        <time>2015-04-05T15:40:18Z</time>
      </trkpt>
      <trkpt lat="46.17039" lon="2.4926">
        <ele>427</ele>
        <time>2015-04-05T15:40:20Z</time>
      </trkpt>
      <trkpt lat="46.1704" lon="2.49259">
        <ele>427</ele>
        <time>2015-04-05T15:40:22Z</time>
      </trkpt>
      <trkpt lat="46.17041" lon="2.49259">
        <ele>427</ele>
        <time>2015-04-05T15:40:27Z</time>
      </trkpt>
      <trkpt lat="46.17043" lon="2.49258">
        <ele>427</ele>
        <time>2015-04-05T15:40:30Z</time>
      </trkpt>
      <trkpt lat="46.17044" lon="2.49257">
        <ele>427</ele>
        <time>2015-04-05T15:40:32Z</time>
      </trkpt>
      <trkpt lat="46.17046" lon="2.49255">
        <ele>427</ele>
        <time>2015-04-05T15:40:34Z</time>
      </trkpt>
      <trkpt lat="46.17048" lon="2.49253">
        <ele>427</ele>
        <time>2015-04-05T15:40:36Z</time>
      </trkpt>
      <trkpt lat="46.1705" lon="2.49252">
        <ele>427</ele>
        <time>2015-04-05T15:40:38Z</time>
      </trkpt>
      <trkpt lat="46.17051" lon="2.4925">
        <ele>427</ele>
        <time>2015-04-05T15:40:40Z</time>
      </trkpt>
      <trkpt lat="46.17053" lon="2.49249">
        <ele>427</ele>
        <time>2015-04-05T15:40:42Z</time>
      </trkpt>
      <trkpt lat="46.17055" lon="2.49247">
        <ele>427</ele>
        <time>2015-04-05T15:40:44Z</time>
      </trkpt>
      <trkpt lat="46.17056" lon="2.49245">
        <ele>427</ele>
        <time>2015-04-05T15:40:46Z</time>
      </trkpt>
      <trkpt lat="46.17058" lon="2.49243">
        <ele>427</ele>
        <time>2015-04-05T15:40:48Z</time>
      </trkpt>
      <trkpt lat="46.17059" lon="2.49241">
        <ele>427</ele>
        <time>2015-04-05T15:40:50Z</time>
      </trkpt>
      <trkpt lat="46.17061" lon="2.4924">
        <ele>427</ele>
        <time>2015-04-05T15:40:52Z</time>
      </trkpt>
      <trkpt lat="46.17062" lon="2.49238">
        <ele>427</ele>
        <time>2015-04-05T15:40:54Z</time>
      </trkpt>
      <trkpt lat="46.17064" lon="2.49236">
        <ele>427</ele>
        <time>2015-04-05T15:40:56Z</time>
      </trkpt>
      <trkpt lat="46.17065" lon="2.49235">
        <ele>427</ele>
        <time>2015-04-05T15:40:58Z</time>
      </trkpt>
      <trkpt lat="46.17067" lon="2.49233">
        <ele>427</ele>
        <time>2015-04-05T15:41:00Z</time>
      </trkpt>
      <trkpt lat="46.17068" lon="2.49231">
        <ele>427</ele>
        <time>2015-04-05T15:41:02Z</time>
      </trkpt>
      <trkpt lat="46.1707" lon="2.4923">
        <ele>427</ele>
        <time>2015-04-05T15:41:04Z</time>
      </trkpt>
      <trkpt lat="46.17071" lon="2.49228">
        <ele>427</ele>
        <time>2015-04-05T15:41:06Z</time>
      </trkpt>
      <trkpt lat="46.17073" lon="2.49226">
        <ele>427</ele>
        <time>2015-04-05T15:41:08Z</time>
      </trkpt>
      <trkpt lat="46.17074" lon="2.49225">
        <ele>427</ele>
        <time>2015-04-05T15:41:10Z</time>
      </trkpt>
      <trkpt lat="46.17075" lon="2.49223">
        <ele>427</ele>
        <time>2015-04-05T15:41:12Z</time>
      </trkpt>
      <trkpt lat="46.17077" lon="2.49222">
        <ele>427</ele>
        <time>2015-04-05T15:41:14Z</time>
      </trkpt>
      <trkpt lat="46.17078" lon="2.4922">
        <ele>427</ele>
        <time>2015-04-05T15:41:16Z</time>
      </trkpt>
      <trkpt lat="46.1708" lon="2.49218">
        <ele>427</ele>
        <time>2015-04-05T15:41:18Z</time>
      </trkpt>
      <trkpt lat="46.17081" lon="2.49217">
        <ele>427</ele>
        <time>2015-04-05T15:41:20Z</time>
      </trkpt>
      <trkpt lat="46.17085" lon="2.49216">
        <ele>427</ele>
        <time>2015-04-05T15:41:24Z</time>
      </trkpt>
      <trkpt lat="46.17086" lon="2.49215">
        <ele>427</ele>
        <time>2015-04-05T15:41:26Z</time>
      </trkpt>
      <trkpt lat="46.1709" lon="2.49212">
        <ele>427</ele>
        <time>2015-04-05T15:41:30Z</time>
      </trkpt>
      <trkpt lat="46.17091" lon="2.4921">
        <ele>427</ele>
        <time>2015-04-05T15:41:32Z</time>
      </trkpt>
      <trkpt lat="46.17093" lon="2.49208">
        <ele>427</ele>
        <time>2015-04-05T15:41:34Z</time>
      </trkpt>
      <trkpt lat="46.17095" lon="2.49205">
        <ele>427</ele>
        <time>2015-04-05T15:41:38Z</time>
      </trkpt>
      <trkpt lat="46.17098" lon="2.49201">
        <ele>427</ele>
        <time>2015-04-05T15:41:42Z</time>
      </trkpt>
      <trkpt lat="46.171" lon="2.492">
        <ele>427</ele>
        <time>2015-04-05T15:41:44Z</time>
      </trkpt>
      <trkpt lat="46.17102" lon="2.49196">
        <ele>427</ele>
        <time>2015-04-05T15:41:48Z</time>
      </trkpt>
      <trkpt lat="46.17103" lon="2.49195">
        <ele>427</ele>
        <time>2015-04-05T15:41:50Z</time>
      </trkpt>
      <trkpt lat="46.17106" lon="2.49191">
        <ele>428</ele>
        <time>2015-04-05T15:41:54Z</time>
      </trkpt>
      <trkpt lat="46.17107" lon="2.4919">
        <ele>428</ele>
        <time>2015-04-05T15:41:56Z</time>
      </trkpt>
      <trkpt lat="46.17109" lon="2.49187">
        <ele>428</ele>
        <time>2015-04-05T15:42:00Z</time>
      </trkpt>
      <trkpt lat="46.17111" lon="2.49185">
        <ele>428</ele>
        <time>2015-04-05T15:42:02Z</time>
      </trkpt>
      <trkpt lat="46.17112" lon="2.49184">
        <ele>428</ele>
        <time>2015-04-05T15:42:04Z</time>
      </trkpt>
      <trkpt lat="46.17113" lon="2.49182">
        <ele>428</ele>
        <time>2015-04-05T15:42:07Z</time>
      </trkpt>
      <trkpt lat="46.17114" lon="2.4918">
        <ele>428</ele>
        <time>2015-04-05T15:42:09Z</time>
      </trkpt>
      <trkpt lat="46.17116" lon="2.49178">
        <ele>428</ele>
        <time>2015-04-05T15:42:12Z</time>
      </trkpt>
      <trkpt lat="46.17117" lon="2.49176">
        <ele>428</ele>
        <time>2015-04-05T15:42:14Z</time>
      </trkpt>
      <trkpt lat="46.1712" lon="2.49173">
        <ele>428</ele>
        <time>2015-04-05T15:42:18Z</time>
      </trkpt>
      <trkpt lat="46.17121" lon="2.49172">
        <ele>428</ele>
        <time>2015-04-05T15:42:20Z</time>
      </trkpt>
      <trkpt lat="46.17122" lon="2.4917">
        <ele>428</ele>
        <time>2015-04-05T15:42:22Z</time>
      </trkpt>
      <trkpt lat="46.17124" lon="2.49167">
        <ele>428</ele>
        <time>2015-04-05T15:42:26Z</time>
      </trkpt>
      <trkpt lat="46.17127" lon="2.49165">
        <ele>428</ele>
        <time>2015-04-05T15:42:30Z</time>
      </trkpt>
      <trkpt lat="46.17128" lon="2.49163">
        <ele>428</ele>
        <time>2015-04-05T15:42:32Z</time>
      </trkpt>
      <trkpt lat="46.1713" lon="2.4916">
        <ele>428</ele>
        <time>2015-04-05T15:42:36Z</time>
      </trkpt>
      <trkpt lat="46.17131" lon="2.49159">
        <ele>428</ele>
        <time>2015-04-05T15:42:38Z</time>
      </trkpt>
      <trkpt lat="46.17133" lon="2.49156">
        <ele>428</ele>
        <time>2015-04-05T15:42:42Z</time>
      </trkpt>
      <trkpt lat="46.17135" lon="2.49154">
        <ele>428</ele>
        <time>2015-04-05T15:42:44Z</time>
      </trkpt>
      <trkpt lat="46.17138" lon="2.49152">
        <ele>428</ele>
        <time>2015-04-05T15:42:47Z</time>
      </trkpt>
      <trkpt lat="46.17139" lon="2.4915">
        <ele>428</ele>
        <time>2015-04-05T15:42:49Z</time>
      </trkpt>
      <trkpt lat="46.17141" lon="2.49147">
        <ele>428</ele>
        <time>2015-04-05T15:42:53Z</time>
      </trkpt>
      <trkpt lat="46.17142" lon="2.49146">
        <ele>428</ele>
        <time>2015-04-05T15:42:55Z</time>
      </trkpt>
      <trkpt lat="46.17146" lon="2.49143">
        <ele>428</ele>
        <time>2015-04-05T15:42:59Z</time>
      </trkpt>
      <trkpt lat="46.17147" lon="2.49142">
        <ele>429</ele>
        <time>2015-04-05T15:43:01Z</time>
      </trkpt>
      <trkpt lat="46.1715" lon="2.4914">
        <ele>430</ele>
        <time>2015-04-05T15:43:05Z</time>
      </trkpt>
      <trkpt lat="46.17152" lon="2.49138">
        <ele>430</ele>
        <time>2015-04-05T15:43:07Z</time>
      </trkpt>
      <trkpt lat="46.17153" lon="2.49137">
        <ele>431</ele>
        <time>2015-04-05T15:43:13Z</time>
      </trkpt>
      <trkpt lat="46.17154" lon="2.49137">
        <ele>431</ele>
        <time>2015-04-05T15:43:16Z</time>
      </trkpt>
      <trkpt lat="46.17155" lon="2.49135">
        <ele>431</ele>
        <time>2015-04-05T15:43:19Z</time>
      </trkpt>
      <trkpt lat="46.17156" lon="2.49133">
        <ele>431</ele>
        <time>2015-04-05T15:43:21Z</time>
      </trkpt>
      <trkpt lat="46.17159" lon="2.4913">
        <ele>432</ele>
        <time>2015-04-05T15:43:25Z</time>
      </trkpt>
      <trkpt lat="46.1716" lon="2.49127">
        <ele>433</ele>
        <time>2015-04-05T15:43:29Z</time>
      </trkpt>
      <trkpt lat="46.17162" lon="2.49125">
        <ele>433</ele>
        <time>2015-04-05T15:43:32Z</time>
      </trkpt>
      <trkpt lat="46.17163" lon="2.49124">
        <ele>433</ele>
        <time>2015-04-05T15:43:35Z</time>
      </trkpt>
      <trkpt lat="46.17164" lon="2.49122">
        <ele>433</ele>
        <time>2015-04-05T15:43:38Z</time>
      </trkpt>
      <trkpt lat="46.17166" lon="2.4912">
        <ele>433</ele>
        <time>2015-04-05T15:43:41Z</time>
      </trkpt>
      <trkpt lat="46.17168" lon="2.49119">
        <ele>433</ele>
        <time>2015-04-05T15:43:44Z</time>
      </trkpt>
      <trkpt lat="46.17169" lon="2.49117">
        <ele>433</ele>
        <time>2015-04-05T15:43:47Z</time>
      </trkpt>
      <trkpt lat="46.17171" lon="2.49115">
        <ele>433</ele>
        <time>2015-04-05T15:43:50Z</time>
      </trkpt>
      <trkpt lat="46.17172" lon="2.49114">
        <ele>433</ele>
        <time>2015-04-05T15:43:54Z</time>
      </trkpt>
      <trkpt lat="46.17173" lon="2.49112">
        <ele>433</ele>
        <time>2015-04-05T15:43:57Z</time>
      </trkpt>
      <trkpt lat="46.17175" lon="2.49111">
        <ele>434</ele>
        <time>2015-04-05T15:44:00Z</time>
      </trkpt>
      <trkpt lat="46.17176" lon="2.4911">
        <ele>434</ele>
        <time>2015-04-05T15:44:02Z</time>
      </trkpt>
      <trkpt lat="46.17178" lon="2.49108">
        <ele>434</ele>
        <time>2015-04-05T15:44:05Z</time>
      </trkpt>
      <trkpt lat="46.17179" lon="2.49106">
        <ele>435</ele>
        <time>2015-04-05T15:44:08Z</time>
      </trkpt>
      <trkpt lat="46.17181" lon="2.49105">
        <ele>435</ele>
        <time>2015-04-05T15:44:11Z</time>
      </trkpt>
      <trkpt lat="46.17183" lon="2.49103">
        <ele>435</ele>
        <time>2015-04-05T15:44:14Z</time>
      </trkpt>
      <trkpt lat="46.17184" lon="2.49101">
        <ele>435</ele>
        <time>2015-04-05T15:44:17Z</time>
      </trkpt>
      <trkpt lat="46.17185" lon="2.491">
        <ele>435</ele>
        <time>2015-04-05T15:44:19Z</time>
      </trkpt>
      <trkpt lat="46.17187" lon="2.49097">
        <ele>435</ele>
        <time>2015-04-05T15:44:23Z</time>
      </trkpt>
      <trkpt lat="46.17188" lon="2.49095">
        <ele>435</ele>
        <time>2015-04-05T15:44:26Z</time>
      </trkpt>
      <trkpt lat="46.17189" lon="2.49091">
        <ele>435</ele>
        <time>2015-04-05T15:44:30Z</time>
      </trkpt>
      <trkpt lat="46.1719" lon="2.49089">
        <ele>436</ele>
        <time>2015-04-05T15:44:32Z</time>
      </trkpt>
      <trkpt lat="46.17192" lon="2.49086">
        <ele>436</ele>
        <time>2015-04-05T15:44:36Z</time>
      </trkpt>
      <trkpt lat="46.17192" lon="2.49084">
        <ele>436</ele>
        <time>2015-04-05T15:44:38Z</time>
      </trkpt>
      <trkpt lat="46.17194" lon="2.4908">
        <ele>436</ele>
        <time>2015-04-05T15:44:42Z</time>
      </trkpt>
      <trkpt lat="46.17194" lon="2.49078">
        <ele>436</ele>
        <time>2015-04-05T15:44:44Z</time>
      </trkpt>
      <trkpt lat="46.17196" lon="2.49073">
        <ele>436</ele>
        <time>2015-04-05T15:44:48Z</time>
      </trkpt>
      <trkpt lat="46.17197" lon="2.49071">
        <ele>436</ele>
        <time>2015-04-05T15:44:50Z</time>
      </trkpt>
      <trkpt lat="46.17198" lon="2.49067">
        <ele>436</ele>
        <time>2015-04-05T15:44:54Z</time>
      </trkpt>
      <trkpt lat="46.17199" lon="2.49064">
        <ele>436</ele>
        <time>2015-04-05T15:44:56Z</time>
      </trkpt>
      <trkpt lat="46.17201" lon="2.4906">
        <ele>437</ele>
        <time>2015-04-05T15:45:00Z</time>
      </trkpt>
      <trkpt lat="46.17202" lon="2.49058">
        <ele>437</ele>
        <time>2015-04-05T15:45:02Z</time>
      </trkpt>
      <trkpt lat="46.17203" lon="2.49053">
        <ele>437</ele>
        <time>2015-04-05T15:45:06Z</time>
      </trkpt>
      <trkpt lat="46.17204" lon="2.49051">
        <ele>437</ele>
        <time>2015-04-05T15:45:08Z</time>
      </trkpt>
      <trkpt lat="46.17205" lon="2.49047">
        <ele>437</ele>
        <time>2015-04-05T15:45:12Z</time>
      </trkpt>
      <trkpt lat="46.17205" lon="2.49045">
        <ele>437</ele>
        <time>2015-04-05T15:45:14Z</time>
      </trkpt>
      <trkpt lat="46.17207" lon="2.49041">
        <ele>437</ele>
        <time>2015-04-05T15:45:18Z</time>
      </trkpt>
      <trkpt lat="46.17207" lon="2.49039">
        <ele>437</ele>
        <time>2015-04-05T15:45:20Z</time>
      </trkpt>
      <trkpt lat="46.17208" lon="2.49036">
        <ele>437</ele>
        <time>2015-04-05T15:45:24Z</time>
      </trkpt>
      <trkpt lat="46.17209" lon="2.49033">
        <ele>437</ele>
        <time>2015-04-05T15:45:26Z</time>
      </trkpt>
      <trkpt lat="46.17211" lon="2.4903">
        <ele>438</ele>
        <time>2015-04-05T15:45:40Z</time>
      </trkpt>
      <trkpt lat="46.17212" lon="2.49026">
        <ele>438</ele>
        <time>2015-04-05T15:45:44Z</time>
      </trkpt>
      <trkpt lat="46.17212" lon="2.49025">
        <ele>438</ele>
        <time>2015-04-05T15:45:46Z</time>
      </trkpt>
      <trkpt lat="46.17213" lon="2.49021">
        <ele>438</ele>
        <time>2015-04-05T15:45:50Z</time>
      </trkpt>
      <trkpt lat="46.17214" lon="2.49019">
        <ele>438</ele>
        <time>2015-04-05T15:45:52Z</time>
      </trkpt>
      <trkpt lat="46.17215" lon="2.49016">
        <ele>438</ele>
        <time>2015-04-05T15:45:56Z</time>
      </trkpt>
      <trkpt lat="46.17216" lon="2.49014">
        <ele>438</ele>
        <time>2015-04-05T15:45:58Z</time>
      </trkpt>
      <trkpt lat="46.17217" lon="2.4901">
        <ele>438</ele>
        <time>2015-04-05T15:46:02Z</time>
      </trkpt>
      <trkpt lat="46.17218" lon="2.49009">
        <ele>438</ele>
        <time>2015-04-05T15:46:04Z</time>
      </trkpt>
      <trkpt lat="46.1722" lon="2.49006">
        <ele>438</ele>
        <time>2015-04-05T15:46:08Z</time>
      </trkpt>
      <trkpt lat="46.1722" lon="2.49004">
        <ele>438</ele>
        <time>2015-04-05T15:46:10Z</time>
      </trkpt>
      <trkpt lat="46.17221" lon="2.49">
        <ele>438</ele>
        <time>2015-04-05T15:46:14Z</time>
      </trkpt>
      <trkpt lat="46.17222" lon="2.48997">
        <ele>438</ele>
        <time>2015-04-05T15:46:16Z</time>
      </trkpt>
      <trkpt lat="46.17224" lon="2.48993">
        <ele>438</ele>
        <time>2015-04-05T15:46:20Z</time>
      </trkpt>
      <trkpt lat="46.17225" lon="2.48991">
        <ele>438</ele>
        <time>2015-04-05T15:46:22Z</time>
      </trkpt>
      <trkpt lat="46.17226" lon="2.48987">
        <ele>438</ele>
        <time>2015-04-05T15:46:26Z</time>
      </trkpt>
      <trkpt lat="46.17227" lon="2.48985">
        <ele>438</ele>
        <time>2015-04-05T15:46:28Z</time>
      </trkpt>
      <trkpt lat="46.17228" lon="2.48981">
        <ele>438</ele>
        <time>2015-04-05T15:46:32Z</time>
      </trkpt>
      <trkpt lat="46.17229" lon="2.48979">
        <ele>438</ele>
        <time>2015-04-05T15:46:34Z</time>
      </trkpt>
      <trkpt lat="46.1723" lon="2.48977">
        <ele>438</ele>
        <time>2015-04-05T15:46:36Z</time>
      </trkpt>
      <trkpt lat="46.17231" lon="2.48974">
        <ele>438</ele>
        <time>2015-04-05T15:46:38Z</time>
      </trkpt>
      <trkpt lat="46.17232" lon="2.48972">
        <ele>438</ele>
        <time>2015-04-05T15:46:40Z</time>
      </trkpt>
      <trkpt lat="46.17232" lon="2.48969">
        <ele>438</ele>
        <time>2015-04-05T15:46:42Z</time>
      </trkpt>
      <trkpt lat="46.17233" lon="2.48966">
        <ele>438</ele>
        <time>2015-04-05T15:46:44Z</time>
      </trkpt>
      <trkpt lat="46.17234" lon="2.48962">
        <ele>438</ele>
        <time>2015-04-05T15:46:48Z</time>
      </trkpt>
      <trkpt lat="46.17234" lon="2.4896">
        <ele>438</ele>
        <time>2015-04-05T15:46:50Z</time>
      </trkpt>
      <trkpt lat="46.17235" lon="2.48955">
        <ele>438</ele>
        <time>2015-04-05T15:46:54Z</time>
      </trkpt>
      <trkpt lat="46.17236" lon="2.48953">
        <ele>438</ele>
        <time>2015-04-05T15:46:56Z</time>
      </trkpt>
      <trkpt lat="46.17236" lon="2.48948">
        <ele>438</ele>
        <time>2015-04-05T15:47:00Z</time>
      </trkpt>
      <trkpt lat="46.17236" lon="2.48946">
        <ele>438</ele>
        <time>2015-04-05T15:47:02Z</time>
      </trkpt>
      <trkpt lat="46.17239" lon="2.48942">
        <ele>439</ele>
        <time>2015-04-05T15:47:06Z</time>
      </trkpt>
      <trkpt lat="46.1724" lon="2.48939">
        <ele>440</ele>
        <time>2015-04-05T15:47:08Z</time>
      </trkpt>
      <trkpt lat="46.17242" lon="2.48935">
        <ele>441</ele>
        <time>2015-04-05T15:47:12Z</time>
      </trkpt>
      <trkpt lat="46.17242" lon="2.48932">
        <ele>441</ele>
        <time>2015-04-05T15:47:14Z</time>
      </trkpt>
      <trkpt lat="46.17242" lon="2.48928">
        <ele>441</ele>
        <time>2015-04-05T15:47:18Z</time>
      </trkpt>
      <trkpt lat="46.17242" lon="2.48925">
        <ele>441</ele>
        <time>2015-04-05T15:47:20Z</time>
      </trkpt>
      <trkpt lat="46.17243" lon="2.48921">
        <ele>441</ele>
        <time>2015-04-05T15:47:24Z</time>
      </trkpt>
      <trkpt lat="46.17243" lon="2.48919">
        <ele>441</ele>
        <time>2015-04-05T15:47:26Z</time>
      </trkpt>
      <trkpt lat="46.17244" lon="2.48915">
        <ele>441</ele>
        <time>2015-04-05T15:47:30Z</time>
      </trkpt>
      <trkpt lat="46.17244" lon="2.48913">
        <ele>441</ele>
        <time>2015-04-05T15:47:32Z</time>
      </trkpt>
      <trkpt lat="46.17244" lon="2.48911">
        <ele>441</ele>
        <time>2015-04-05T15:47:34Z</time>
      </trkpt>
      <trkpt lat="46.17244" lon="2.48909">
        <ele>441</ele>
        <time>2015-04-05T15:47:36Z</time>
      </trkpt>
      <trkpt lat="46.17245" lon="2.48907">
        <ele>441</ele>
        <time>2015-04-05T15:47:38Z</time>
      </trkpt>
      <trkpt lat="46.17247" lon="2.48903">
        <ele>441</ele>
        <time>2015-04-05T15:47:42Z</time>
      </trkpt>
      <trkpt lat="46.17247" lon="2.48901">
        <ele>441</ele>
        <time>2015-04-05T15:47:50Z</time>
      </trkpt>
      <trkpt lat="46.17247" lon="2.489">
        <ele>441</ele>
        <time>2015-04-05T15:47:52Z</time>
      </trkpt>
      <trkpt lat="46.17247" lon="2.48897">
        <ele>441</ele>
        <time>2015-04-05T15:47:54Z</time>
      </trkpt>
      <trkpt lat="46.17249" lon="2.48895">
        <ele>441</ele>
        <time>2015-04-05T15:47:56Z</time>
      </trkpt>
      <trkpt lat="46.17249" lon="2.48889">
        <ele>441</ele>
        <time>2015-04-05T15:48:00Z</time>
      </trkpt>
      <trkpt lat="46.17249" lon="2.48887">
        <ele>441</ele>
        <time>2015-04-05T15:48:02Z</time>
      </trkpt>
      <trkpt lat="46.1725" lon="2.48883">
        <ele>441</ele>
        <time>2015-04-05T15:48:06Z</time>
      </trkpt>
      <trkpt lat="46.1725" lon="2.48881">
        <ele>441</ele>
        <time>2015-04-05T15:48:08Z</time>
      </trkpt>
      <trkpt lat="46.17252" lon="2.48876">
        <ele>441</ele>
        <time>2015-04-05T15:48:12Z</time>
      </trkpt>
      <trkpt lat="46.17253" lon="2.48873">
        <ele>441</ele>
        <time>2015-04-05T15:48:14Z</time>
      </trkpt>
      <trkpt lat="46.17255" lon="2.48868">
        <ele>441</ele>
        <time>2015-04-05T15:48:18Z</time>
      </trkpt>
      <trkpt lat="46.17255" lon="2.48865">
        <ele>441</ele>
        <time>2015-04-05T15:48:20Z</time>
      </trkpt>
      <trkpt lat="46.17256" lon="2.48863">
        <ele>441</ele>
        <time>2015-04-05T15:48:22Z</time>
      </trkpt>
      <trkpt lat="46.17257" lon="2.4886">
        <ele>441</ele>
        <time>2015-04-05T15:48:24Z</time>
      </trkpt>
      <trkpt lat="46.17258" lon="2.48858">
        <ele>441</ele>
        <time>2015-04-05T15:48:26Z</time>
      </trkpt>
      <trkpt lat="46.1726" lon="2.48854">
        <ele>441</ele>
        <time>2015-04-05T15:48:30Z</time>
      </trkpt>
      <trkpt lat="46.1726" lon="2.48851">
        <ele>441</ele>
        <time>2015-04-05T15:48:32Z</time>
      </trkpt>
      <trkpt lat="46.17261" lon="2.48849">
        <ele>441</ele>
        <time>2015-04-05T15:48:34Z</time>
      </trkpt>
      <trkpt lat="46.17262" lon="2.48845">
        <ele>441</ele>
        <time>2015-04-05T15:48:37Z</time>
      </trkpt>
      <trkpt lat="46.17263" lon="2.48841">
        <ele>441</ele>
        <time>2015-04-05T15:48:41Z</time>
      </trkpt>
      <trkpt lat="46.17264" lon="2.48839">
        <ele>441</ele>
        <time>2015-04-05T15:48:43Z</time>
      </trkpt>
      <trkpt lat="46.17265" lon="2.48837">
        <ele>441</ele>
        <time>2015-04-05T15:48:45Z</time>
      </trkpt>
      <trkpt lat="46.17266" lon="2.48836">
        <ele>441</ele>
        <time>2015-04-05T15:48:47Z</time>
      </trkpt>
      <trkpt lat="46.17267" lon="2.48834">
        <ele>441</ele>
        <time>2015-04-05T15:48:49Z</time>
      </trkpt>
      <trkpt lat="46.17268" lon="2.48833">
        <ele>441</ele>
        <time>2015-04-05T15:48:51Z</time>
      </trkpt>
      <trkpt lat="46.17268" lon="2.48831">
        <ele>441</ele>
        <time>2015-04-05T15:48:53Z</time>
      </trkpt>
      <trkpt lat="46.17269" lon="2.48828">
        <ele>441</ele>
        <time>2015-04-05T15:48:55Z</time>
      </trkpt>
      <trkpt lat="46.17271" lon="2.48824">
        <ele>441</ele>
        <time>2015-04-05T15:48:59Z</time>
      </trkpt>
      <trkpt lat="46.17272" lon="2.48823">
        <ele>441</ele>
        <time>2015-04-05T15:49:01Z</time>
      </trkpt>
      <trkpt lat="46.17274" lon="2.48819">
        <ele>441</ele>
        <time>2015-04-05T15:49:06Z</time>
      </trkpt>
      <trkpt lat="46.17276" lon="2.48817">
        <ele>441</ele>
        <time>2015-04-05T15:49:09Z</time>
      </trkpt>
      <trkpt lat="46.17277" lon="2.48815">
        <ele>441</ele>
        <time>2015-04-05T15:49:11Z</time>
      </trkpt>
      <trkpt lat="46.17278" lon="2.48813">
        <ele>441</ele>
        <time>2015-04-05T15:49:13Z</time>
      </trkpt>
      <trkpt lat="46.17278" lon="2.4881">
        <ele>441</ele>
        <time>2015-04-05T15:49:15Z</time>
      </trkpt>
      <trkpt lat="46.17279" lon="2.48808">
        <ele>441</ele>
        <time>2015-04-05T15:49:17Z</time>
      </trkpt>
      <trkpt lat="46.17281" lon="2.48803">
        <ele>441</ele>
        <time>2015-04-05T15:49:21Z</time>
      </trkpt>
      <trkpt lat="46.17282" lon="2.48802">
        <ele>442</ele>
        <time>2015-04-05T15:49:29Z</time>
      </trkpt>
      <trkpt lat="46.17282" lon="2.488">
        <ele>442</ele>
        <time>2015-04-05T15:49:31Z</time>
      </trkpt>
      <trkpt lat="46.17282" lon="2.48798">
        <ele>442</ele>
        <time>2015-04-05T15:49:37Z</time>
      </trkpt>
      <trkpt lat="46.17283" lon="2.48797">
        <ele>443</ele>
        <time>2015-04-05T15:49:42Z</time>
      </trkpt>
      <trkpt lat="46.17284" lon="2.48796">
        <ele>444</ele>
        <time>2015-04-05T15:49:48Z</time>
      </trkpt>
      <trkpt lat="46.17286" lon="2.48794">
        <ele>445</ele>
        <time>2015-04-05T15:49:51Z</time>
      </trkpt>
      <trkpt lat="46.17287" lon="2.48792">
        <ele>446</ele>
        <time>2015-04-05T15:49:54Z</time>
      </trkpt>
      <trkpt lat="46.17288" lon="2.4879">
        <ele>446</ele>
        <time>2015-04-05T15:49:56Z</time>
      </trkpt>
      <trkpt lat="46.17289" lon="2.48788">
        <ele>447</ele>
        <time>2015-04-05T15:50:06Z</time>
      </trkpt>
      <trkpt lat="46.17289" lon="2.48787">
        <ele>448</ele>
        <time>2015-04-05T15:50:08Z</time>
      </trkpt>
      <trkpt lat="46.1729" lon="2.48785">
        <ele>448</ele>
        <time>2015-04-05T15:50:15Z</time>
      </trkpt>
      <trkpt lat="46.17291" lon="2.48783">
        <ele>448</ele>
        <time>2015-04-05T15:50:18Z</time>
      </trkpt>
      <trkpt lat="46.17292" lon="2.48781">
        <ele>448</ele>
        <time>2015-04-05T15:50:20Z</time>
      </trkpt>
      <trkpt lat="46.17293" lon="2.4878">
        <ele>448</ele>
        <time>2015-04-05T15:50:22Z</time>
      </trkpt>
      <trkpt lat="46.17295" lon="2.48779">
        <ele>448</ele>
        <time>2015-04-05T15:50:24Z</time>
      </trkpt>
      <trkpt lat="46.17296" lon="2.48777">
        <ele>448</ele>
        <time>2015-04-05T15:50:26Z</time>
      </trkpt>
      <trkpt lat="46.17297" lon="2.48775">
        <ele>449</ele>
        <time>2015-04-05T15:50:28Z</time>
      </trkpt>
      <trkpt lat="46.17299" lon="2.48774">
        <ele>449</ele>
        <time>2015-04-05T15:50:30Z</time>
      </trkpt>
      <trkpt lat="46.173" lon="2.48773">
        <ele>449</ele>
        <time>2015-04-05T15:50:32Z</time>
      </trkpt>
      <trkpt lat="46.17302" lon="2.48772">
        <ele>449</ele>
        <time>2015-04-05T15:50:34Z</time>
      </trkpt>
      <trkpt lat="46.17303" lon="2.4877">
        <ele>449</ele>
        <time>2015-04-05T15:50:36Z</time>
      </trkpt>
      <trkpt lat="46.17305" lon="2.4877">
        <ele>449</ele>
        <time>2015-04-05T15:50:38Z</time>
      </trkpt>
      <trkpt lat="46.17307" lon="2.48769">
        <ele>449</ele>
        <time>2015-04-05T15:50:40Z</time>
      </trkpt>
      <trkpt lat="46.17308" lon="2.48768">
        <ele>449</ele>
        <time>2015-04-05T15:50:42Z</time>
      </trkpt>
      <trkpt lat="46.1731" lon="2.48766">
        <ele>449</ele>
        <time>2015-04-05T15:50:44Z</time>
      </trkpt>
      <trkpt lat="46.17311" lon="2.48765">
        <ele>449</ele>
        <time>2015-04-05T15:50:46Z</time>
      </trkpt>
      <trkpt lat="46.17313" lon="2.48764">
        <ele>450</ele>
        <time>2015-04-05T15:50:48Z</time>
      </trkpt>
      <trkpt lat="46.17314" lon="2.48763">
        <ele>451</ele>
        <time>2015-04-05T15:50:50Z</time>
      </trkpt>
      <trkpt lat="46.17316" lon="2.48762">
        <ele>451</ele>
        <time>2015-04-05T15:50:52Z</time>
      </trkpt>
      <trkpt lat="46.17317" lon="2.48762">
        <ele>452</ele>
        <time>2015-04-05T15:50:54Z</time>
      </trkpt>
      <trkpt lat="46.17319" lon="2.48761">
        <ele>453</ele>
        <time>2015-04-05T15:50:56Z</time>
      </trkpt>
      <trkpt lat="46.17321" lon="2.4876">
        <ele>453</ele>
        <time>2015-04-05T15:50:58Z</time>
      </trkpt>
      <trkpt lat="46.17323" lon="2.48759">
        <ele>453</ele>
        <time>2015-04-05T15:51:00Z</time>
      </trkpt>
      <trkpt lat="46.17325" lon="2.48758">
        <ele>453</ele>
        <time>2015-04-05T15:51:02Z</time>
      </trkpt>
      <trkpt lat="46.17326" lon="2.48757">
        <ele>453</ele>
        <time>2015-04-05T15:51:04Z</time>
      </trkpt>
      <trkpt lat="46.17328" lon="2.48756">
        <ele>453</ele>
        <time>2015-04-05T15:51:06Z</time>
      </trkpt>
      <trkpt lat="46.17329" lon="2.48755">
        <ele>453</ele>
        <time>2015-04-05T15:51:08Z</time>
      </trkpt>
      <trkpt lat="46.17331" lon="2.48755">
        <ele>453</ele>
        <time>2015-04-05T15:51:10Z</time>
      </trkpt>
      <trkpt lat="46.17333" lon="2.48754">
        <ele>453</ele>
        <time>2015-04-05T15:51:12Z</time>
      </trkpt>
      <trkpt lat="46.17334" lon="2.48753">
        <ele>453</ele>
        <time>2015-04-05T15:51:14Z</time>
      </trkpt>
      <trkpt lat="46.17336" lon="2.48752">
        <ele>453</ele>
        <time>2015-04-05T15:51:16Z</time>
      </trkpt>
      <trkpt lat="46.17337" lon="2.48751">
        <ele>453</ele>
        <time>2015-04-05T15:51:18Z</time>
      </trkpt>
      <trkpt lat="46.17339" lon="2.4875">
        <ele>453</ele>
        <time>2015-04-05T15:51:21Z</time>
      </trkpt>
      <trkpt lat="46.1734" lon="2.48749">
        <ele>453</ele>
        <time>2015-04-05T15:51:23Z</time>
      </trkpt>
      <trkpt lat="46.17341" lon="2.48748">
        <ele>453</ele>
        <time>2015-04-05T15:51:25Z</time>
      </trkpt>
      <trkpt lat="46.17343" lon="2.48747">
        <ele>453</ele>
        <time>2015-04-05T15:51:27Z</time>
      </trkpt>
      <trkpt lat="46.17344" lon="2.48746">
        <ele>453</ele>
        <time>2015-04-05T15:51:29Z</time>
      </trkpt>
      <trkpt lat="46.17346" lon="2.48746">
        <ele>453</ele>
        <time>2015-04-05T15:51:32Z</time>
      </trkpt>
      <trkpt lat="46.17347" lon="2.48745">
        <ele>453</ele>
        <time>2015-04-05T15:51:34Z</time>
      </trkpt>
      <trkpt lat="46.17349" lon="2.48745">
        <ele>453</ele>
        <time>2015-04-05T15:51:36Z</time>
      </trkpt>
      <trkpt lat="46.17351" lon="2.48745">
        <ele>453</ele>
        <time>2015-04-05T15:51:38Z</time>
      </trkpt>
      <trkpt lat="46.17352" lon="2.48744">
        <ele>453</ele>
        <time>2015-04-05T15:51:40Z</time>
      </trkpt>
      <trkpt lat="46.17354" lon="2.48744">
        <ele>453</ele>
        <time>2015-04-05T15:51:42Z</time>
      </trkpt>
      <trkpt lat="46.17355" lon="2.48743">
        <ele>453</ele>
        <time>2015-04-05T15:51:44Z</time>
      </trkpt>
      <trkpt lat="46.17357" lon="2.48743">
        <ele>453</ele>
        <time>2015-04-05T15:51:46Z</time>
      </trkpt>
      <trkpt lat="46.17359" lon="2.48742">
        <ele>453</ele>
        <time>2015-04-05T15:51:48Z</time>
      </trkpt>
      <trkpt lat="46.17361" lon="2.48742">
        <ele>453</ele>
        <time>2015-04-05T15:51:50Z</time>
      </trkpt>
      <trkpt lat="46.17363" lon="2.48741">
        <ele>453</ele>
        <time>2015-04-05T15:51:52Z</time>
      </trkpt>
      <trkpt lat="46.17364" lon="2.4874">
        <ele>453</ele>
        <time>2015-04-05T15:51:54Z</time>
      </trkpt>
      <trkpt lat="46.17366" lon="2.4874">
        <ele>453</ele>
        <time>2015-04-05T15:51:56Z</time>
      </trkpt>
      <trkpt lat="46.17368" lon="2.4874">
        <ele>453</ele>
        <time>2015-04-05T15:51:58Z</time>
      </trkpt>
      <trkpt lat="46.17369" lon="2.48739">
        <ele>453</ele>
        <time>2015-04-05T15:52:00Z</time>
      </trkpt>
      <trkpt lat="46.1737" lon="2.48739">
        <ele>453</ele>
        <time>2015-04-05T15:52:02Z</time>
      </trkpt>
      <trkpt lat="46.17373" lon="2.48739">
        <ele>453</ele>
        <time>2015-04-05T15:52:05Z</time>
      </trkpt>
      <trkpt lat="46.17375" lon="2.48738">
        <ele>453</ele>
        <time>2015-04-05T15:52:07Z</time>
      </trkpt>
      <trkpt lat="46.17378" lon="2.48738">
        <ele>453</ele>
        <time>2015-04-05T15:52:10Z</time>
      </trkpt>
      <trkpt lat="46.17379" lon="2.48737">
        <ele>453</ele>
        <time>2015-04-05T15:52:12Z</time>
      </trkpt>
      <trkpt lat="46.17381" lon="2.48736">
        <ele>453</ele>
        <time>2015-04-05T15:52:14Z</time>
      </trkpt>
      <trkpt lat="46.17382" lon="2.48735">
        <ele>453</ele>
        <time>2015-04-05T15:52:16Z</time>
      </trkpt>
      <trkpt lat="46.17384" lon="2.48735">
        <ele>453</ele>
        <time>2015-04-05T15:52:18Z</time>
      </trkpt>
      <trkpt lat="46.17386" lon="2.48734">
        <ele>453</ele>
        <time>2015-04-05T15:52:20Z</time>
      </trkpt>
      <trkpt lat="46.17387" lon="2.48733">
        <ele>453</ele>
        <time>2015-04-05T15:52:22Z</time>
      </trkpt>
      <trkpt lat="46.17389" lon="2.48733">
        <ele>453</ele>
        <time>2015-04-05T15:52:24Z</time>
      </trkpt>
      <trkpt lat="46.1739" lon="2.48734">
        <ele>453</ele>
        <time>2015-04-05T15:52:26Z</time>
      </trkpt>
      <trkpt lat="46.17391" lon="2.48734">
        <ele>453</ele>
        <time>2015-04-05T15:52:28Z</time>
      </trkpt>
      <trkpt lat="46.17393" lon="2.48735">
        <ele>453</ele>
        <time>2015-04-05T15:52:30Z</time>
      </trkpt>
      <trkpt lat="46.17394" lon="2.48738">
        <ele>453</ele>
        <time>2015-04-05T15:52:32Z</time>
      </trkpt>
      <trkpt lat="46.17395" lon="2.48739">
        <ele>453</ele>
        <time>2015-04-05T15:52:34Z</time>
      </trkpt>
      <trkpt lat="46.17395" lon="2.48741">
        <ele>453</ele>
        <time>2015-04-05T15:52:37Z</time>
      </trkpt>
      <trkpt lat="46.17395" lon="2.48743">
        <ele>453</ele>
        <time>2015-04-05T15:52:39Z</time>
      </trkpt>
      <trkpt lat="46.17397" lon="2.48744">
        <ele>453</ele>
        <time>2015-04-05T15:52:42Z</time>
      </trkpt>
      <trkpt lat="46.17398" lon="2.48746">
        <ele>453</ele>
        <time>2015-04-05T15:52:44Z</time>
      </trkpt>
      <trkpt lat="46.17398" lon="2.48747">
        <ele>453</ele>
        <time>2015-04-05T15:52:46Z</time>
      </trkpt>
      <trkpt lat="46.174" lon="2.48749">
        <ele>453</ele>
        <time>2015-04-05T15:52:48Z</time>
      </trkpt>
      <trkpt lat="46.174" lon="2.48752">
        <ele>453</ele>
        <time>2015-04-05T15:52:50Z</time>
      </trkpt>
      <trkpt lat="46.17403" lon="2.48756">
        <ele>453</ele>
        <time>2015-04-05T15:52:53Z</time>
      </trkpt>
      <trkpt lat="46.17403" lon="2.48761">
        <ele>454</ele>
        <time>2015-04-05T15:52:56Z</time>
      </trkpt>
      <trkpt lat="46.17403" lon="2.48765">
        <ele>455</ele>
        <time>2015-04-05T15:52:59Z</time>
      </trkpt>
      <trkpt lat="46.17404" lon="2.48767">
        <ele>455</ele>
        <time>2015-04-05T15:53:01Z</time>
      </trkpt>
      <trkpt lat="46.17404" lon="2.4877">
        <ele>455</ele>
        <time>2015-04-05T15:53:03Z</time>
      </trkpt>
      <trkpt lat="46.17405" lon="2.48772">
        <ele>455</ele>
        <time>2015-04-05T15:53:05Z</time>
      </trkpt>
      <trkpt lat="46.17405" lon="2.48774">
        <ele>455</ele>
        <time>2015-04-05T15:53:07Z</time>
      </trkpt>
      <trkpt lat="46.17406" lon="2.48776">
        <ele>455</ele>
        <time>2015-04-05T15:53:09Z</time>
      </trkpt>
      <trkpt lat="46.17407" lon="2.48778">
        <ele>455</ele>
        <time>2015-04-05T15:53:11Z</time>
      </trkpt>
      <trkpt lat="46.17409" lon="2.4878">
        <ele>455</ele>
        <time>2015-04-05T15:53:13Z</time>
      </trkpt>
      <trkpt lat="46.17409" lon="2.48782">
        <ele>455</ele>
        <time>2015-04-05T15:53:15Z</time>
      </trkpt>
      <trkpt lat="46.17409" lon="2.48785">
        <ele>455</ele>
        <time>2015-04-05T15:53:17Z</time>
      </trkpt>
      <trkpt lat="46.1741" lon="2.48788">
        <ele>455</ele>
        <time>2015-04-05T15:53:19Z</time>
      </trkpt>
      <trkpt lat="46.17412" lon="2.4879">
        <ele>455</ele>
        <time>2015-04-05T15:53:22Z</time>
      </trkpt>
      <trkpt lat="46.17413" lon="2.48791">
        <ele>455</ele>
        <time>2015-04-05T15:53:24Z</time>
      </trkpt>
      <trkpt lat="46.17414" lon="2.48792">
        <ele>455</ele>
        <time>2015-04-05T15:53:26Z</time>
      </trkpt>
      <trkpt lat="46.17416" lon="2.48793">
        <ele>455</ele>
        <time>2015-04-05T15:53:29Z</time>
      </trkpt>
      <trkpt lat="46.17417" lon="2.48794">
        <ele>455</ele>
        <time>2015-04-05T15:53:31Z</time>
      </trkpt>
      <trkpt lat="46.17418" lon="2.48795">
        <ele>455</ele>
        <time>2015-04-05T15:53:33Z</time>
      </trkpt>
      <trkpt lat="46.17419" lon="2.48797">
        <ele>455</ele>
        <time>2015-04-05T15:53:35Z</time>
      </trkpt>
      <trkpt lat="46.1742" lon="2.48799">
        <ele>455</ele>
        <time>2015-04-05T15:53:37Z</time>
      </trkpt>
      <trkpt lat="46.17421" lon="2.48802">
        <ele>455</ele>
        <time>2015-04-05T15:53:41Z</time>
      </trkpt>
      <trkpt lat="46.17423" lon="2.48804">
        <ele>455</ele>
        <time>2015-04-05T15:53:43Z</time>
      </trkpt>
      <trkpt lat="46.17425" lon="2.48805">
        <ele>455</ele>
        <time>2015-04-05T15:53:45Z</time>
      </trkpt>
      <trkpt lat="46.17428" lon="2.48809">
        <ele>455</ele>
        <time>2015-04-05T15:53:48Z</time>
      </trkpt>
      <trkpt lat="46.1743" lon="2.48811">
        <ele>455</ele>
        <time>2015-04-05T15:53:50Z</time>
      </trkpt>
      <trkpt lat="46.17432" lon="2.48813">
        <ele>455</ele>
        <time>2015-04-05T15:53:52Z</time>
      </trkpt>
      <trkpt lat="46.17433" lon="2.48814">
        <ele>455</ele>
        <time>2015-04-05T15:53:54Z</time>
      </trkpt>
      <trkpt lat="46.17435" lon="2.48815">
        <ele>455</ele>
        <time>2015-04-05T15:53:56Z</time>
      </trkpt>
      <trkpt lat="46.17436" lon="2.48817">
        <ele>455</ele>
        <time>2015-04-05T15:53:58Z</time>
      </trkpt>
      <trkpt lat="46.17437" lon="2.4882">
        <ele>455</ele>
        <time>2015-04-05T15:54:00Z</time>
      </trkpt>
      <trkpt lat="46.1744" lon="2.48824">
        <ele>455</ele>
        <time>2015-04-05T15:54:03Z</time>
      </trkpt>
      <trkpt lat="46.17441" lon="2.48825">
        <ele>455</ele>
        <time>2015-04-05T15:54:05Z</time>
      </trkpt>
      <trkpt lat="46.17442" lon="2.48827">
        <ele>455</ele>
        <time>2015-04-05T15:54:07Z</time>
      </trkpt>
      <trkpt lat="46.17443" lon="2.48828">
        <ele>455</ele>
        <time>2015-04-05T15:54:09Z</time>
      </trkpt>
      <trkpt lat="46.17445" lon="2.4883">
        <ele>454</ele>
        <time>2015-04-05T15:54:12Z</time>
      </trkpt>
      <trkpt lat="46.17446" lon="2.48832">
        <ele>453</ele>
        <time>2015-04-05T15:54:14Z</time>
      </trkpt>
      <trkpt lat="46.17448" lon="2.48833">
        <ele>452</ele>
        <time>2015-04-05T15:54:17Z</time>
      </trkpt>
      <trkpt lat="46.17449" lon="2.48834">
        <ele>451</ele>
        <time>2015-04-05T15:54:19Z</time>
      </trkpt>
      <trkpt lat="46.17451" lon="2.48836">
        <ele>451</ele>
        <time>2015-04-05T15:54:21Z</time>
      </trkpt>
      <trkpt lat="46.17453" lon="2.48837">
        <ele>451</ele>
        <time>2015-04-05T15:54:23Z</time>
      </trkpt>
      <trkpt lat="46.17456" lon="2.48839">
        <ele>451</ele>
        <time>2015-04-05T15:54:26Z</time>
      </trkpt>
      <trkpt lat="46.17458" lon="2.48839">
        <ele>451</ele>
        <time>2015-04-05T15:54:28Z</time>
      </trkpt>
      <trkpt lat="46.17459" lon="2.48842">
        <ele>451</ele>
        <time>2015-04-05T15:54:31Z</time>
      </trkpt>
      <trkpt lat="46.17461" lon="2.48844">
        <ele>451</ele>
        <time>2015-04-05T15:54:33Z</time>
      </trkpt>
      <trkpt lat="46.17463" lon="2.48844">
        <ele>451</ele>
        <time>2015-04-05T15:54:35Z</time>
      </trkpt>
      <trkpt lat="46.17464" lon="2.48846">
        <ele>451</ele>
        <time>2015-04-05T15:54:38Z</time>
      </trkpt>
      <trkpt lat="46.17467" lon="2.48847">
        <ele>451</ele>
        <time>2015-04-05T15:54:40Z</time>
      </trkpt>
      <trkpt lat="46.1747" lon="2.48849">
        <ele>451</ele>
        <time>2015-04-05T15:54:43Z</time>
      </trkpt>
      <trkpt lat="46.17473" lon="2.48852">
        <ele>451</ele>
        <time>2015-04-05T15:54:45Z</time>
      </trkpt>
      <trkpt lat="46.17475" lon="2.48854">
        <ele>451</ele>
        <time>2015-04-05T15:54:47Z</time>
      </trkpt>
      <trkpt lat="46.17477" lon="2.48856">
        <ele>451</ele>
        <time>2015-04-05T15:54:49Z</time>
      </trkpt>
      <trkpt lat="46.1748" lon="2.48859">
        <ele>451</ele>
        <time>2015-04-05T15:54:51Z</time>
      </trkpt>
      <trkpt lat="46.17481" lon="2.48861">
        <ele>451</ele>
        <time>2015-04-05T15:54:53Z</time>
      </trkpt>
      <trkpt lat="46.17484" lon="2.48865">
        <ele>451</ele>
        <time>2015-04-05T15:54:57Z</time>
      </trkpt>
      <trkpt lat="46.17485" lon="2.48865">
        <ele>451</ele>
        <time>2015-04-05T15:54:59Z</time>
      </trkpt>
      <trkpt lat="46.17487" lon="2.48865">
        <ele>451</ele>
        <time>2015-04-05T15:55:01Z</time>
      </trkpt>
      <trkpt lat="46.17487" lon="2.48867">
        <ele>451</ele>
        <time>2015-04-05T15:55:06Z</time>
      </trkpt>
      <trkpt lat="46.17488" lon="2.48869">
        <ele>451</ele>
        <time>2015-04-05T15:55:08Z</time>
      </trkpt>
      <trkpt lat="46.17491" lon="2.48871">
        <ele>451</ele>
        <time>2015-04-05T15:55:10Z</time>
      </trkpt>
      <trkpt lat="46.17493" lon="2.48873">
        <ele>452</ele>
        <time>2015-04-05T15:55:12Z</time>
      </trkpt>
      <trkpt lat="46.17496" lon="2.48874">
        <ele>452</ele>
        <time>2015-04-05T15:55:14Z</time>
      </trkpt>
      <trkpt lat="46.17497" lon="2.48874">
        <ele>453</ele>
        <time>2015-04-05T15:55:16Z</time>
      </trkpt>
      <trkpt lat="46.17499" lon="2.48875">
        <ele>453</ele>
        <time>2015-04-05T15:55:18Z</time>
      </trkpt>
      <trkpt lat="46.175" lon="2.48877">
        <ele>453</ele>
        <time>2015-04-05T15:55:20Z</time>
      </trkpt>
      <trkpt lat="46.17502" lon="2.48877">
        <ele>453</ele>
        <time>2015-04-05T15:55:23Z</time>
      </trkpt>
      <trkpt lat="46.17503" lon="2.48877">
        <ele>453</ele>
        <time>2015-04-05T15:55:25Z</time>
      </trkpt>
      <trkpt lat="46.17505" lon="2.48877">
        <ele>453</ele>
        <time>2015-04-05T15:55:27Z</time>
      </trkpt>
      <trkpt lat="46.17508" lon="2.48877">
        <ele>453</ele>
        <time>2015-04-05T15:55:30Z</time>
      </trkpt>
      <trkpt lat="46.17511" lon="2.48877">
        <ele>453</ele>
        <time>2015-04-05T15:55:32Z</time>
      </trkpt>
      <trkpt lat="46.17514" lon="2.48878">
        <ele>453</ele>
        <time>2015-04-05T15:55:34Z</time>
      </trkpt>
      <trkpt lat="46.17516" lon="2.48877">
        <ele>453</ele>
        <time>2015-04-05T15:55:36Z</time>
      </trkpt>
      <trkpt lat="46.17519" lon="2.48877">
        <ele>454</ele>
        <time>2015-04-05T15:55:38Z</time>
      </trkpt>
      <trkpt lat="46.1752" lon="2.48873">
        <ele>454</ele>
        <time>2015-04-05T15:55:41Z</time>
      </trkpt>
      <trkpt lat="46.17522" lon="2.48871">
        <ele>454</ele>
        <time>2015-04-05T15:55:44Z</time>
      </trkpt>
      <trkpt lat="46.17523" lon="2.4887">
        <ele>454</ele>
        <time>2015-04-05T15:55:46Z</time>
      </trkpt>
      <trkpt lat="46.17524" lon="2.48868">
        <ele>454</ele>
        <time>2015-04-05T15:55:48Z</time>
      </trkpt>
      <trkpt lat="46.17524" lon="2.48866">
        <ele>454</ele>
        <time>2015-04-05T15:55:50Z</time>
      </trkpt>
      <trkpt lat="46.17525" lon="2.48865">
        <ele>453</ele>
        <time>2015-04-05T15:55:53Z</time>
      </trkpt>
      <trkpt lat="46.17527" lon="2.48863">
        <ele>451</ele>
        <time>2015-04-05T15:55:56Z</time>
      </trkpt>
      <trkpt lat="46.17528" lon="2.48861">
        <ele>449</ele>
        <time>2015-04-05T15:55:59Z</time>
      </trkpt>
      <trkpt lat="46.1753" lon="2.48859">
        <ele>449</ele>
        <time>2015-04-05T15:56:01Z</time>
      </trkpt>
      <trkpt lat="46.17532" lon="2.48858">
        <ele>449</ele>
        <time>2015-04-05T15:56:03Z</time>
      </trkpt>
      <trkpt lat="46.17534" lon="2.48856">
        <ele>449</ele>
        <time>2015-04-05T15:56:05Z</time>
      </trkpt>
      <trkpt lat="46.17537" lon="2.48854">
        <ele>449</ele>
        <time>2015-04-05T15:56:09Z</time>
      </trkpt>
      <trkpt lat="46.17539" lon="2.48853">
        <ele>449</ele>
        <time>2015-04-05T15:56:11Z</time>
      </trkpt>
      <trkpt lat="46.17542" lon="2.48853">
        <ele>449</ele>
        <time>2015-04-05T15:56:13Z</time>
      </trkpt>
      <trkpt lat="46.17545" lon="2.48852">
        <ele>449</ele>
        <time>2015-04-05T15:56:15Z</time>
      </trkpt>
      <trkpt lat="46.17547" lon="2.48851">
        <ele>449</ele>
        <time>2015-04-05T15:56:17Z</time>
      </trkpt>
      <trkpt lat="46.1755" lon="2.48849">
        <ele>450</ele>
        <time>2015-04-05T15:56:20Z</time>
      </trkpt>
      <trkpt lat="46.17553" lon="2.48848">
        <ele>450</ele>
        <time>2015-04-05T15:56:22Z</time>
      </trkpt>
      <trkpt lat="46.17556" lon="2.48847">
        <ele>451</ele>
        <time>2015-04-05T15:56:24Z</time>
      </trkpt>
      <trkpt lat="46.17558" lon="2.48846">
        <ele>451</ele>
        <time>2015-04-05T15:56:26Z</time>
      </trkpt>
      <trkpt lat="46.17559" lon="2.48844">
        <ele>451</ele>
        <time>2015-04-05T15:56:28Z</time>
      </trkpt>
      <trkpt lat="46.17561" lon="2.48842">
        <ele>451</ele>
        <time>2015-04-05T15:56:31Z</time>
      </trkpt>
      <trkpt lat="46.1756" lon="2.48838">
        <ele>451</ele>
        <time>2015-04-05T15:56:33Z</time>
      </trkpt>
      <trkpt lat="46.17559" lon="2.48834">
        <ele>451</ele>
        <time>2015-04-05T15:56:36Z</time>
      </trkpt>
      <trkpt lat="46.17561" lon="2.4883">
        <ele>451</ele>
        <time>2015-04-05T15:56:39Z</time>
      </trkpt>
      <trkpt lat="46.17562" lon="2.48829">
        <ele>451</ele>
        <time>2015-04-05T15:56:41Z</time>
      </trkpt>
      <trkpt lat="46.17563" lon="2.48828">
        <ele>451</ele>
        <time>2015-04-05T15:56:43Z</time>
      </trkpt>
      <trkpt lat="46.17564" lon="2.48826">
        <ele>451</ele>
        <time>2015-04-05T15:56:45Z</time>
      </trkpt>
      <trkpt lat="46.17566" lon="2.48824">
        <ele>451</ele>
        <time>2015-04-05T15:56:47Z</time>
      </trkpt>
      <trkpt lat="46.17567" lon="2.48822">
        <ele>450</ele>
        <time>2015-04-05T15:56:49Z</time>
      </trkpt>
      <trkpt lat="46.17568" lon="2.4882">
        <ele>450</ele>
        <time>2015-04-05T15:56:51Z</time>
      </trkpt>
      <trkpt lat="46.17569" lon="2.48816">
        <ele>450</ele>
        <time>2015-04-05T15:56:54Z</time>
      </trkpt>
      <trkpt lat="46.17571" lon="2.48814">
        <ele>450</ele>
        <time>2015-04-05T15:56:56Z</time>
      </trkpt>
      <trkpt lat="46.17571" lon="2.48812">
        <ele>450</ele>
        <time>2015-04-05T15:56:58Z</time>
      </trkpt>
      <trkpt lat="46.17572" lon="2.4881">
        <ele>449</ele>
        <time>2015-04-05T15:57:00Z</time>
      </trkpt>
      <trkpt lat="46.17573" lon="2.48808">
        <ele>448</ele>
        <time>2015-04-05T15:57:02Z</time>
      </trkpt>
      <trkpt lat="46.17576" lon="2.48805">
        <ele>448</ele>
        <time>2015-04-05T15:57:05Z</time>
      </trkpt>
      <trkpt lat="46.17577" lon="2.48802">
        <ele>447</ele>
        <time>2015-04-05T15:57:07Z</time>
      </trkpt>
      <trkpt lat="46.17579" lon="2.488">
        <ele>447</ele>
        <time>2015-04-05T15:57:09Z</time>
      </trkpt>
      <trkpt lat="46.1758" lon="2.48799">
        <ele>446</ele>
        <time>2015-04-05T15:57:11Z</time>
      </trkpt>
      <trkpt lat="46.17582" lon="2.48798">
        <ele>446</ele>
        <time>2015-04-05T15:57:13Z</time>
      </trkpt>
      <trkpt lat="46.17583" lon="2.48796">
        <ele>446</ele>
        <time>2015-04-05T15:57:15Z</time>
      </trkpt>
      <trkpt lat="46.17585" lon="2.48795">
        <ele>446</ele>
        <time>2015-04-05T15:57:17Z</time>
      </trkpt>
      <trkpt lat="46.17587" lon="2.48793">
        <ele>446</ele>
        <time>2015-04-05T15:57:19Z</time>
      </trkpt>
      <trkpt lat="46.17588" lon="2.48791">
        <ele>446</ele>
        <time>2015-04-05T15:57:21Z</time>
      </trkpt>
      <trkpt lat="46.1759" lon="2.48789">
        <ele>446</ele>
        <time>2015-04-05T15:57:23Z</time>
      </trkpt>
      <trkpt lat="46.17592" lon="2.48787">
        <ele>446</ele>
        <time>2015-04-05T15:57:25Z</time>
      </trkpt>
      <trkpt lat="46.17593" lon="2.48785">
        <ele>445</ele>
        <time>2015-04-05T15:57:27Z</time>
      </trkpt>
      <trkpt lat="46.17595" lon="2.48783">
        <ele>445</ele>
        <time>2015-04-05T15:57:29Z</time>
      </trkpt>
      <trkpt lat="46.17596" lon="2.48782">
        <ele>445</ele>
        <time>2015-04-05T15:57:31Z</time>
      </trkpt>
      <trkpt lat="46.17598" lon="2.4878">
        <ele>445</ele>
        <time>2015-04-05T15:57:33Z</time>
      </trkpt>
      <trkpt lat="46.17599" lon="2.48779">
        <ele>445</ele>
        <time>2015-04-05T15:57:35Z</time>
      </trkpt>
      <trkpt lat="46.17601" lon="2.48778">
        <ele>445</ele>
        <time>2015-04-05T15:57:37Z</time>
      </trkpt>
      <trkpt lat="46.17604" lon="2.48777">
        <ele>445</ele>
        <time>2015-04-05T15:57:40Z</time>
      </trkpt>
      <trkpt lat="46.17606" lon="2.48776">
        <ele>444</ele>
        <time>2015-04-05T15:57:42Z</time>
      </trkpt>
      <trkpt lat="46.17608" lon="2.48775">
        <ele>444</ele>
        <time>2015-04-05T15:57:44Z</time>
      </trkpt>
      <trkpt lat="46.17611" lon="2.48775">
        <ele>444</ele>
        <time>2015-04-05T15:57:46Z</time>
      </trkpt>
      <trkpt lat="46.17612" lon="2.48774">
        <ele>444</ele>
        <time>2015-04-05T15:57:48Z</time>
      </trkpt>
      <trkpt lat="46.17615" lon="2.48772">
        <ele>444</ele>
        <time>2015-04-05T15:57:51Z</time>
      </trkpt>
      <trkpt lat="46.17617" lon="2.48771">
        <ele>444</ele>
        <time>2015-04-05T15:57:53Z</time>
      </trkpt>
      <trkpt lat="46.1762" lon="2.4877">
        <ele>446</ele>
        <time>2015-04-05T15:57:56Z</time>
      </trkpt>
      <trkpt lat="46.17622" lon="2.4877">
        <ele>447</ele>
        <time>2015-04-05T15:57:58Z</time>
      </trkpt>
      <trkpt lat="46.17625" lon="2.4877">
        <ele>447</ele>
        <time>2015-04-05T15:58:00Z</time>
      </trkpt>
      <trkpt lat="46.17626" lon="2.48769">
        <ele>448</ele>
        <time>2015-04-05T15:58:02Z</time>
      </trkpt>
      <trkpt lat="46.17628" lon="2.48768">
        <ele>449</ele>
        <time>2015-04-05T15:58:04Z</time>
      </trkpt>
      <trkpt lat="46.1763" lon="2.48767">
        <ele>449</ele>
        <time>2015-04-05T15:58:06Z</time>
      </trkpt>
      <trkpt lat="46.17631" lon="2.48767">
        <ele>449</ele>
        <time>2015-04-05T15:58:08Z</time>
      </trkpt>
      <trkpt lat="46.17633" lon="2.48767">
        <ele>449</ele>
        <time>2015-04-05T15:58:10Z</time>
      </trkpt>
      <trkpt lat="46.17636" lon="2.48767">
        <ele>449</ele>
        <time>2015-04-05T15:58:13Z</time>
      </trkpt>
      <trkpt lat="46.17638" lon="2.48766">
        <ele>449</ele>
        <time>2015-04-05T15:58:15Z</time>
      </trkpt>
      <trkpt lat="46.17639" lon="2.48766">
        <ele>449</ele>
        <time>2015-04-05T15:58:17Z</time>
      </trkpt>
      <trkpt lat="46.1764" lon="2.48765">
        <ele>449</ele>
        <time>2015-04-05T15:58:19Z</time>
      </trkpt>
      <trkpt lat="46.17642" lon="2.48764">
        <ele>449</ele>
        <time>2015-04-05T15:58:21Z</time>
      </trkpt>
      <trkpt lat="46.17644" lon="2.48764">
        <ele>449</ele>
        <time>2015-04-05T15:58:23Z</time>
      </trkpt>
      <trkpt lat="46.17648" lon="2.48763">
        <ele>449</ele>
        <time>2015-04-05T15:58:26Z</time>
      </trkpt>
      <trkpt lat="46.17649" lon="2.48761">
        <ele>449</ele>
        <time>2015-04-05T15:58:28Z</time>
      </trkpt>
      <trkpt lat="46.17651" lon="2.4876">
        <ele>449</ele>
        <time>2015-04-05T15:58:30Z</time>
      </trkpt>
      <trkpt lat="46.17655" lon="2.48759">
        <ele>450</ele>
        <time>2015-04-05T15:58:33Z</time>
      </trkpt>
      <trkpt lat="46.17657" lon="2.48757">
        <ele>450</ele>
        <time>2015-04-05T15:58:35Z</time>
      </trkpt>
      <trkpt lat="46.17658" lon="2.48756">
        <ele>451</ele>
        <time>2015-04-05T15:58:37Z</time>
      </trkpt>
      <trkpt lat="46.17661" lon="2.48754">
        <ele>452</ele>
        <time>2015-04-05T15:58:40Z</time>
      </trkpt>
      <trkpt lat="46.17664" lon="2.48754">
        <ele>452</ele>
        <time>2015-04-05T15:58:42Z</time>
      </trkpt>
      <trkpt lat="46.17665" lon="2.48754">
        <ele>454</ele>
        <time>2015-04-05T15:58:46Z</time>
      </trkpt>
      <trkpt lat="46.17667" lon="2.48754">
        <ele>456</ele>
        <time>2015-04-05T15:58:49Z</time>
      </trkpt>
      <trkpt lat="46.1767" lon="2.48754">
        <ele>456</ele>
        <time>2015-04-05T15:58:51Z</time>
      </trkpt>
      <trkpt lat="46.17673" lon="2.48754">
        <ele>456</ele>
        <time>2015-04-05T15:58:54Z</time>
      </trkpt>
      <trkpt lat="46.17676" lon="2.48753">
        <ele>456</ele>
        <time>2015-04-05T15:58:57Z</time>
      </trkpt>
      <trkpt lat="46.17678" lon="2.48753">
        <ele>456</ele>
        <time>2015-04-05T15:58:59Z</time>
      </trkpt>
      <trkpt lat="46.1768" lon="2.48754">
        <ele>456</ele>
        <time>2015-04-05T15:59:01Z</time>
      </trkpt>
      <trkpt lat="46.17681" lon="2.48753">
        <ele>456</ele>
        <time>2015-04-05T15:59:03Z</time>
      </trkpt>
      <trkpt lat="46.17683" lon="2.48751">
        <ele>456</ele>
        <time>2015-04-05T15:59:05Z</time>
      </trkpt>
      <trkpt lat="46.17685" lon="2.4875">
        <ele>456</ele>
        <time>2015-04-05T15:59:07Z</time>
      </trkpt>
      <trkpt lat="46.17686" lon="2.48749">
        <ele>456</ele>
        <time>2015-04-05T15:59:09Z</time>
      </trkpt>
      <trkpt lat="46.17689" lon="2.4875">
        <ele>456</ele>
        <time>2015-04-05T15:59:12Z</time>
      </trkpt>
      <trkpt lat="46.17691" lon="2.4875">
        <ele>456</ele>
        <time>2015-04-05T15:59:14Z</time>
      </trkpt>
      <trkpt lat="46.17692" lon="2.4875">
        <ele>456</ele>
        <time>2015-04-05T15:59:16Z</time>
      </trkpt>
      <trkpt lat="46.17693" lon="2.48749">
        <ele>456</ele>
        <time>2015-04-05T15:59:20Z</time>
      </trkpt>
      <trkpt lat="46.17695" lon="2.48748">
        <ele>456</ele>
        <time>2015-04-05T15:59:22Z</time>
      </trkpt>
      <trkpt lat="46.17697" lon="2.48747">
        <ele>456</ele>
        <time>2015-04-05T15:59:24Z</time>
      </trkpt>
      <trkpt lat="46.17698" lon="2.48746">
        <ele>456</ele>
        <time>2015-04-05T15:59:26Z</time>
      </trkpt>
      <trkpt lat="46.17699" lon="2.48745">
        <ele>456</ele>
        <time>2015-04-05T15:59:28Z</time>
      </trkpt>
      <trkpt lat="46.17701" lon="2.48744">
        <ele>456</ele>
        <time>2015-04-05T15:59:31Z</time>
      </trkpt>
      <trkpt lat="46.17702" lon="2.48744">
        <ele>456</ele>
        <time>2015-04-05T15:59:37Z</time>
      </trkpt>
      <trkpt lat="46.17706" lon="2.48742">
        <ele>455</ele>
        <time>2015-04-05T15:59:42Z</time>
      </trkpt>
      <trkpt lat="46.17707" lon="2.48741">
        <ele>454</ele>
        <time>2015-04-05T15:59:44Z</time>
      </trkpt>
      <trkpt lat="46.17708" lon="2.4874">
        <ele>454</ele>
        <time>2015-04-05T15:59:46Z</time>
      </trkpt>
      <trkpt lat="46.1771" lon="2.48738">
        <ele>454</ele>
        <time>2015-04-05T15:59:49Z</time>
      </trkpt>
      <trkpt lat="46.17711" lon="2.48738">
        <ele>453</ele>
        <time>2015-04-05T15:59:51Z</time>
      </trkpt>
      <trkpt lat="46.17712" lon="2.48737">
        <ele>453</ele>
        <time>2015-04-05T15:59:55Z</time>
      </trkpt>
      <trkpt lat="46.17714" lon="2.48738">
        <ele>453</ele>
        <time>2015-04-05T15:59:57Z</time>
      </trkpt>
      <trkpt lat="46.17715" lon="2.4874">
        <ele>452</ele>
        <time>2015-04-05T15:59:59Z</time>
      </trkpt>
      <trkpt lat="46.17717" lon="2.48743">
        <ele>452</ele>
        <time>2015-04-05T16:00:01Z</time>
      </trkpt>
      <trkpt lat="46.17718" lon="2.48746">
        <ele>452</ele>
        <time>2015-04-05T16:00:03Z</time>
      </trkpt>
      <trkpt lat="46.17719" lon="2.48751">
        <ele>452</ele>
        <time>2015-04-05T16:00:06Z</time>
      </trkpt>
      <trkpt lat="46.17719" lon="2.48753">
        <ele>452</ele>
        <time>2015-04-05T16:00:08Z</time>
      </trkpt>
      <trkpt lat="46.17719" lon="2.48756">
        <ele>452</ele>
        <time>2015-04-05T16:00:10Z</time>
      </trkpt>
      <trkpt lat="46.1772" lon="2.4876">
        <ele>452</ele>
        <time>2015-04-05T16:00:13Z</time>
      </trkpt>
      <trkpt lat="46.1772" lon="2.48762">
        <ele>452</ele>
        <time>2015-04-05T16:00:15Z</time>
      </trkpt>
      <trkpt lat="46.17721" lon="2.48765">
        <ele>452</ele>
        <time>2015-04-05T16:00:17Z</time>
      </trkpt>
      <trkpt lat="46.17722" lon="2.48768">
        <ele>452</ele>
        <time>2015-04-05T16:00:19Z</time>
      </trkpt>
      <trkpt lat="46.17722" lon="2.4877">
        <ele>452</ele>
        <time>2015-04-05T16:00:21Z</time>
      </trkpt>
      <trkpt lat="46.17722" lon="2.48772">
        <ele>452</ele>
        <time>2015-04-05T16:00:23Z</time>
      </trkpt>
      <trkpt lat="46.17723" lon="2.48775">
        <ele>452</ele>
        <time>2015-04-05T16:00:25Z</time>
      </trkpt>
      <trkpt lat="46.17726" lon="2.48778">
        <ele>452</ele>
        <time>2015-04-05T16:00:28Z</time>
      </trkpt>
      <trkpt lat="46.17726" lon="2.48783">
        <ele>452</ele>
        <time>2015-04-05T16:00:30Z</time>
      </trkpt>
      <trkpt lat="46.17724" lon="2.48784">
        <ele>452</ele>
        <time>2015-04-05T16:00:32Z</time>
      </trkpt>
      <trkpt lat="46.17725" lon="2.48789">
        <ele>452</ele>
        <time>2015-04-05T16:00:35Z</time>
      </trkpt>
      <trkpt lat="46.17727" lon="2.48793">
        <ele>452</ele>
        <time>2015-04-05T16:00:37Z</time>
      </trkpt>
      <trkpt lat="46.17727" lon="2.48795">
        <ele>452</ele>
        <time>2015-04-05T16:00:39Z</time>
      </trkpt>
      <trkpt lat="46.17726" lon="2.48798">
        <ele>452</ele>
        <time>2015-04-05T16:00:41Z</time>
      </trkpt>
      <trkpt lat="46.17727" lon="2.48801">
        <ele>452</ele>
        <time>2015-04-05T16:00:43Z</time>
      </trkpt>
      <trkpt lat="46.17728" lon="2.48804">
        <ele>451</ele>
        <time>2015-04-05T16:00:45Z</time>
      </trkpt>
      <trkpt lat="46.17728" lon="2.48807">
        <ele>451</ele>
        <time>2015-04-05T16:00:47Z</time>
      </trkpt>
      <trkpt lat="46.17728" lon="2.4881">
        <ele>451</ele>
        <time>2015-04-05T16:00:49Z</time>
      </trkpt>
      <trkpt lat="46.17729" lon="2.48815">
        <ele>451</ele>
        <time>2015-04-05T16:00:52Z</time>
      </trkpt>
      <trkpt lat="46.17731" lon="2.48818">
        <ele>451</ele>
        <time>2015-04-05T16:00:54Z</time>
      </trkpt>
      <trkpt lat="46.17733" lon="2.48823">
        <ele>451</ele>
        <time>2015-04-05T16:00:57Z</time>
      </trkpt>
      <trkpt lat="46.17734" lon="2.48827">
        <ele>451</ele>
        <time>2015-04-05T16:00:59Z</time>
      </trkpt>
      <trkpt lat="46.17736" lon="2.48831">
        <ele>451</ele>
        <time>2015-04-05T16:01:01Z</time>
      </trkpt>
      <trkpt lat="46.17738" lon="2.48833">
        <ele>451</ele>
        <time>2015-04-05T16:01:03Z</time>
      </trkpt>
      <trkpt lat="46.1774" lon="2.48837">
        <ele>451</ele>
        <time>2015-04-05T16:01:06Z</time>
      </trkpt>
      <trkpt lat="46.17741" lon="2.4884">
        <ele>451</ele>
        <time>2015-04-05T16:01:08Z</time>
      </trkpt>
      <trkpt lat="46.17742" lon="2.48843">
        <ele>451</ele>
        <time>2015-04-05T16:01:10Z</time>
      </trkpt>
      <trkpt lat="46.17744" lon="2.48847">
        <ele>452</ele>
        <time>2015-04-05T16:01:12Z</time>
      </trkpt>
      <trkpt lat="46.17746" lon="2.48848">
        <ele>452</ele>
        <time>2015-04-05T16:01:14Z</time>
      </trkpt>
      <trkpt lat="46.17748" lon="2.48852">
        <ele>453</ele>
        <time>2015-04-05T16:01:16Z</time>
      </trkpt>
      <trkpt lat="46.1775" lon="2.48853">
        <ele>453</ele>
        <time>2015-04-05T16:01:18Z</time>
      </trkpt>
      <trkpt lat="46.17751" lon="2.48854">
        <ele>453</ele>
        <time>2015-04-05T16:01:20Z</time>
      </trkpt>
      <trkpt lat="46.17753" lon="2.48855">
        <ele>453</ele>
        <time>2015-04-05T16:01:22Z</time>
      </trkpt>
      <trkpt lat="46.17756" lon="2.48858">
        <ele>453</ele>
        <time>2015-04-05T16:01:25Z</time>
      </trkpt>
      <trkpt lat="46.17759" lon="2.48861">
        <ele>453</ele>
        <time>2015-04-05T16:01:28Z</time>
      </trkpt>
      <trkpt lat="46.1776" lon="2.48862">
        <ele>453</ele>
        <time>2015-04-05T16:01:30Z</time>
      </trkpt>
      <trkpt lat="46.17762" lon="2.48864">
        <ele>453</ele>
        <time>2015-04-05T16:01:33Z</time>
      </trkpt>
      <trkpt lat="46.17762" lon="2.48866">
        <ele>453</ele>
        <time>2015-04-05T16:01:35Z</time>
      </trkpt>
      <trkpt lat="46.17763" lon="2.48868">
        <ele>453</ele>
        <time>2015-04-05T16:01:37Z</time>
      </trkpt>
      <trkpt lat="46.17764" lon="2.48869">
        <ele>453</ele>
        <time>2015-04-05T16:01:39Z</time>
      </trkpt>
      <trkpt lat="46.17766" lon="2.48872">
        <ele>453</ele>
        <time>2015-04-05T16:01:41Z</time>
      </trkpt>
      <trkpt lat="46.17769" lon="2.48876">
        <ele>453</ele>
        <time>2015-04-05T16:01:44Z</time>
      </trkpt>
      <trkpt lat="46.1777" lon="2.48878">
        <ele>453</ele>
        <time>2015-04-05T16:01:46Z</time>
      </trkpt>
      <trkpt lat="46.17771" lon="2.48879">
        <ele>453</ele>
        <time>2015-04-05T16:01:48Z</time>
      </trkpt>
      <trkpt lat="46.17773" lon="2.48881">
        <ele>453</ele>
        <time>2015-04-05T16:01:50Z</time>
      </trkpt>
      <trkpt lat="46.17774" lon="2.48883">
        <ele>453</ele>
        <time>2015-04-05T16:01:52Z</time>
      </trkpt>
      <trkpt lat="46.17775" lon="2.48885">
        <ele>453</ele>
        <time>2015-04-05T16:01:55Z</time>
      </trkpt>
      <trkpt lat="46.17776" lon="2.48887">
        <ele>453</ele>
        <time>2015-04-05T16:01:57Z</time>
      </trkpt>
      <trkpt lat="46.17778" lon="2.48891">
        <ele>453</ele>
        <time>2015-04-05T16:01:59Z</time>
      </trkpt>
      <trkpt lat="46.1778" lon="2.48894">
        <ele>453</ele>
        <time>2015-04-05T16:02:01Z</time>
      </trkpt>
      <trkpt lat="46.17782" lon="2.48897">
        <ele>453</ele>
        <time>2015-04-05T16:02:04Z</time>
      </trkpt>
      <trkpt lat="46.17784" lon="2.48899">
        <ele>453</ele>
        <time>2015-04-05T16:02:07Z</time>
      </trkpt>
      <trkpt lat="46.17785" lon="2.48901">
        <ele>453</ele>
        <time>2015-04-05T16:02:10Z</time>
      </trkpt>
      <trkpt lat="46.17786" lon="2.48903">
        <ele>453</ele>
        <time>2015-04-05T16:02:12Z</time>
      </trkpt>
      <trkpt lat="46.17787" lon="2.48905">
        <ele>453</ele>
        <time>2015-04-05T16:02:14Z</time>
      </trkpt>
      <trkpt lat="46.17787" lon="2.48907">
        <ele>453</ele>
        <time>2015-04-05T16:02:16Z</time>
      </trkpt>
      <trkpt lat="46.17787" lon="2.48909">
        <ele>453</ele>
        <time>2015-04-05T16:02:18Z</time>
      </trkpt>
      <trkpt lat="46.17786" lon="2.48912">
        <ele>452</ele>
        <time>2015-04-05T16:02:20Z</time>
      </trkpt>
      <trkpt lat="46.17787" lon="2.48915">
        <ele>452</ele>
        <time>2015-04-05T16:02:22Z</time>
      </trkpt>
      <trkpt lat="46.17788" lon="2.48917">
        <ele>452</ele>
        <time>2015-04-05T16:02:24Z</time>
      </trkpt>
      <trkpt lat="46.17788" lon="2.4892">
        <ele>452</ele>
        <time>2015-04-05T16:02:26Z</time>
      </trkpt>
      <trkpt lat="46.17789" lon="2.48922">
        <ele>452</ele>
        <time>2015-04-05T16:02:28Z</time>
      </trkpt>
      <trkpt lat="46.17789" lon="2.48927">
        <ele>452</ele>
        <time>2015-04-05T16:02:31Z</time>
      </trkpt>
      <trkpt lat="46.17789" lon="2.48929">
        <ele>452</ele>
        <time>2015-04-05T16:02:33Z</time>
      </trkpt>
      <trkpt lat="46.1779" lon="2.48931">
        <ele>452</ele>
        <time>2015-04-05T16:02:35Z</time>
      </trkpt>
      <trkpt lat="46.1779" lon="2.48934">
        <ele>452</ele>
        <time>2015-04-05T16:02:37Z</time>
      </trkpt>
      <trkpt lat="46.17791" lon="2.48936">
        <ele>451</ele>
        <time>2015-04-05T16:02:39Z</time>
      </trkpt>
      <trkpt lat="46.17791" lon="2.48937">
        <ele>451</ele>
        <time>2015-04-05T16:02:41Z</time>
      </trkpt>
      <trkpt lat="46.17791" lon="2.4894">
        <ele>451</ele>
        <time>2015-04-05T16:02:43Z</time>
      </trkpt>
      <trkpt lat="46.17792" lon="2.48942">
        <ele>450</ele>
        <time>2015-04-05T16:02:45Z</time>
      </trkpt>
      <trkpt lat="46.17792" lon="2.48945">
        <ele>450</ele>
        <time>2015-04-05T16:02:47Z</time>
      </trkpt>
      <trkpt lat="46.17791" lon="2.48949">
        <ele>450</ele>
        <time>2015-04-05T16:02:49Z</time>
      </trkpt>
      <trkpt lat="46.17791" lon="2.48953">
        <ele>450</ele>
        <time>2015-04-05T16:02:52Z</time>
      </trkpt>
      <trkpt lat="46.17793" lon="2.48955">
        <ele>450</ele>
        <time>2015-04-05T16:02:54Z</time>
      </trkpt>
      <trkpt lat="46.17793" lon="2.48957">
        <ele>450</ele>
        <time>2015-04-05T16:02:56Z</time>
      </trkpt>
      <trkpt lat="46.17794" lon="2.4896">
        <ele>450</ele>
        <time>2015-04-05T16:02:58Z</time>
      </trkpt>
      <trkpt lat="46.17794" lon="2.48962">
        <ele>450</ele>
        <time>2015-04-05T16:03:00Z</time>
      </trkpt>
      <trkpt lat="46.17794" lon="2.48966">
        <ele>450</ele>
        <time>2015-04-05T16:03:02Z</time>
      </trkpt>
      <trkpt lat="46.17795" lon="2.48968">
        <ele>450</ele>
        <time>2015-04-05T16:03:04Z</time>
      </trkpt>
      <trkpt lat="46.17795" lon="2.48971">
        <ele>450</ele>
        <time>2015-04-05T16:03:06Z</time>
      </trkpt>
      <trkpt lat="46.17795" lon="2.48974">
        <ele>450</ele>
        <time>2015-04-05T16:03:08Z</time>
      </trkpt>
      <trkpt lat="46.17796" lon="2.48978">
        <ele>450</ele>
        <time>2015-04-05T16:03:10Z</time>
      </trkpt>
      <trkpt lat="46.17798" lon="2.48981">
        <ele>450</ele>
        <time>2015-04-05T16:03:14Z</time>
      </trkpt>
      <trkpt lat="46.17799" lon="2.48984">
        <ele>450</ele>
        <time>2015-04-05T16:03:16Z</time>
      </trkpt>
      <trkpt lat="46.178" lon="2.48987">
        <ele>450</ele>
        <time>2015-04-05T16:03:18Z</time>
      </trkpt>
      <trkpt lat="46.17802" lon="2.48988">
        <ele>450</ele>
        <time>2015-04-05T16:03:20Z</time>
      </trkpt>
      <trkpt lat="46.17803" lon="2.4899">
        <ele>450</ele>
        <time>2015-04-05T16:03:22Z</time>
      </trkpt>
      <trkpt lat="46.17804" lon="2.48991">
        <ele>450</ele>
        <time>2015-04-05T16:03:24Z</time>
      </trkpt>
      <trkpt lat="46.17804" lon="2.48993">
        <ele>450</ele>
        <time>2015-04-05T16:03:26Z</time>
      </trkpt>
      <trkpt lat="46.17805" lon="2.48995">
        <ele>450</ele>
        <time>2015-04-05T16:03:28Z</time>
      </trkpt>
      <trkpt lat="46.17807" lon="2.48997">
        <ele>450</ele>
        <time>2015-04-05T16:03:30Z</time>
      </trkpt>
      <trkpt lat="46.1781" lon="2.48999">
        <ele>450</ele>
        <time>2015-04-05T16:03:32Z</time>
      </trkpt>
      <trkpt lat="46.17811" lon="2.49001">
        <ele>450</ele>
        <time>2015-04-05T16:03:34Z</time>
      </trkpt>
      <trkpt lat="46.17812" lon="2.49003">
        <ele>450</ele>
        <time>2015-04-05T16:03:36Z</time>
      </trkpt>
      <trkpt lat="46.17814" lon="2.49005">
        <ele>450</ele>
        <time>2015-04-05T16:03:38Z</time>
      </trkpt>
      <trkpt lat="46.17815" lon="2.49006">
        <ele>450</ele>
        <time>2015-04-05T16:03:40Z</time>
      </trkpt>
      <trkpt lat="46.17817" lon="2.49007">
        <ele>450</ele>
        <time>2015-04-05T16:03:42Z</time>
      </trkpt>
      <trkpt lat="46.17818" lon="2.49007">
        <ele>450</ele>
        <time>2015-04-05T16:03:44Z</time>
      </trkpt>
      <trkpt lat="46.17821" lon="2.49008">
        <ele>450</ele>
        <time>2015-04-05T16:03:46Z</time>
      </trkpt>
      <trkpt lat="46.17822" lon="2.49009">
        <ele>450</ele>
        <time>2015-04-05T16:03:48Z</time>
      </trkpt>
      <trkpt lat="46.17824" lon="2.49009">
        <ele>449</ele>
        <time>2015-04-05T16:03:50Z</time>
      </trkpt>
      <trkpt lat="46.17825" lon="2.4901">
        <ele>449</ele>
        <time>2015-04-05T16:03:52Z</time>
      </trkpt>
      <trkpt lat="46.17827" lon="2.49011">
        <ele>448</ele>
        <time>2015-04-05T16:03:54Z</time>
      </trkpt>
      <trkpt lat="46.1783" lon="2.49012">
        <ele>448</ele>
        <time>2015-04-05T16:03:57Z</time>
      </trkpt>
      <trkpt lat="46.17832" lon="2.49013">
        <ele>448</ele>
        <time>2015-04-05T16:03:59Z</time>
      </trkpt>
      <trkpt lat="46.17834" lon="2.49012">
        <ele>447</ele>
        <time>2015-04-05T16:04:01Z</time>
      </trkpt>
      <trkpt lat="46.17836" lon="2.49012">
        <ele>447</ele>
        <time>2015-04-05T16:04:03Z</time>
      </trkpt>
      <trkpt lat="46.17839" lon="2.49012">
        <ele>447</ele>
        <time>2015-04-05T16:04:05Z</time>
      </trkpt>
      <trkpt lat="46.17841" lon="2.49011">
        <ele>447</ele>
        <time>2015-04-05T16:04:07Z</time>
      </trkpt>
      <trkpt lat="46.17842" lon="2.4901">
        <ele>447</ele>
        <time>2015-04-05T16:04:09Z</time>
      </trkpt>
      <trkpt lat="46.17843" lon="2.49009">
        <ele>447</ele>
        <time>2015-04-05T16:04:11Z</time>
      </trkpt>
      <trkpt lat="46.17845" lon="2.49008">
        <ele>447</ele>
        <time>2015-04-05T16:04:13Z</time>
      </trkpt>
      <trkpt lat="46.17847" lon="2.49007">
        <ele>446</ele>
        <time>2015-04-05T16:04:15Z</time>
      </trkpt>
      <trkpt lat="46.17847" lon="2.49005">
        <ele>446</ele>
        <time>2015-04-05T16:04:17Z</time>
      </trkpt>
      <trkpt lat="46.17849" lon="2.49003">
        <ele>446</ele>
        <time>2015-04-05T16:04:19Z</time>
      </trkpt>
      <trkpt lat="46.17849" lon="2.49001">
        <ele>446</ele>
        <time>2015-04-05T16:04:21Z</time>
      </trkpt>
      <trkpt lat="46.17852" lon="2.48999">
        <ele>446</ele>
        <time>2015-04-05T16:04:24Z</time>
      </trkpt>
      <trkpt lat="46.17853" lon="2.48998">
        <ele>446</ele>
        <time>2015-04-05T16:04:26Z</time>
      </trkpt>
      <trkpt lat="46.17854" lon="2.49">
        <ele>446</ele>
        <time>2015-04-05T16:04:29Z</time>
      </trkpt>
      <trkpt lat="46.17855" lon="2.48999">
        <ele>446</ele>
        <time>2015-04-05T16:04:31Z</time>
      </trkpt>
      <trkpt lat="46.17857" lon="2.48997">
        <ele>446</ele>
        <time>2015-04-05T16:04:34Z</time>
      </trkpt>
      <trkpt lat="46.17858" lon="2.48996">
        <ele>446</ele>
        <time>2015-04-05T16:04:36Z</time>
      </trkpt>
      <trkpt lat="46.1786" lon="2.48994">
        <ele>446</ele>
        <time>2015-04-05T16:04:38Z</time>
      </trkpt>
      <trkpt lat="46.17861" lon="2.48992">
        <ele>446</ele>
        <time>2015-04-05T16:04:40Z</time>
      </trkpt>
      <trkpt lat="46.17861" lon="2.4899">
        <ele>446</ele>
        <time>2015-04-05T16:04:42Z</time>
      </trkpt>
      <trkpt lat="46.17862" lon="2.48989">
        <ele>446</ele>
        <time>2015-04-05T16:04:44Z</time>
      </trkpt>
      <trkpt lat="46.17862" lon="2.48987">
        <ele>446</ele>
        <time>2015-04-05T16:04:46Z</time>
      </trkpt>
      <trkpt lat="46.17863" lon="2.48985">
        <ele>446</ele>
        <time>2015-04-05T16:04:48Z</time>
      </trkpt>
      <trkpt lat="46.17864" lon="2.48983">
        <ele>446</ele>
        <time>2015-04-05T16:04:50Z</time>
      </trkpt>
      <trkpt lat="46.17864" lon="2.48981">
        <ele>446</ele>
        <time>2015-04-05T16:04:52Z</time>
      </trkpt>
      <trkpt lat="46.17866" lon="2.48979">
        <ele>446</ele>
        <time>2015-04-05T16:04:55Z</time>
      </trkpt>
      <trkpt lat="46.17867" lon="2.48978">
        <ele>446</ele>
        <time>2015-04-05T16:04:57Z</time>
      </trkpt>
      <trkpt lat="46.17868" lon="2.48975">
        <ele>446</ele>
        <time>2015-04-05T16:05:00Z</time>
      </trkpt>
      <trkpt lat="46.17869" lon="2.48973">
        <ele>446</ele>
        <time>2015-04-05T16:05:02Z</time>
      </trkpt>
      <trkpt lat="46.1787" lon="2.48972">
        <ele>446</ele>
        <time>2015-04-05T16:05:05Z</time>
      </trkpt>
      <trkpt lat="46.17872" lon="2.48971">
        <ele>446</ele>
        <time>2015-04-05T16:05:07Z</time>
      </trkpt>
      <trkpt lat="46.17873" lon="2.48969">
        <ele>446</ele>
        <time>2015-04-05T16:05:09Z</time>
      </trkpt>
      <trkpt lat="46.17874" lon="2.48966">
        <ele>446</ele>
        <time>2015-04-05T16:05:11Z</time>
      </trkpt>
      <trkpt lat="46.17874" lon="2.48964">
        <ele>447</ele>
        <time>2015-04-05T16:05:13Z</time>
      </trkpt>
      <trkpt lat="46.17874" lon="2.48962">
        <ele>447</ele>
        <time>2015-04-05T16:05:15Z</time>
      </trkpt>
      <trkpt lat="46.17875" lon="2.4896">
        <ele>447</ele>
        <time>2015-04-05T16:05:17Z</time>
      </trkpt>
      <trkpt lat="46.17875" lon="2.48958">
        <ele>447</ele>
        <time>2015-04-05T16:05:19Z</time>
      </trkpt>
      <trkpt lat="46.17875" lon="2.48956">
        <ele>447</ele>
        <time>2015-04-05T16:05:21Z</time>
      </trkpt>
      <trkpt lat="46.17875" lon="2.48954">
        <ele>447</ele>
        <time>2015-04-05T16:05:23Z</time>
      </trkpt>
      <trkpt lat="46.17875" lon="2.48952">
        <ele>447</ele>
        <time>2015-04-05T16:05:25Z</time>
      </trkpt>
      <trkpt lat="46.17875" lon="2.4895">
        <ele>447</ele>
        <time>2015-04-05T16:05:27Z</time>
      </trkpt>
      <trkpt lat="46.17874" lon="2.48948">
        <ele>447</ele>
        <time>2015-04-05T16:05:29Z</time>
      </trkpt>
      <trkpt lat="46.17873" lon="2.48946">
        <ele>447</ele>
        <time>2015-04-05T16:05:31Z</time>
      </trkpt>
      <trkpt lat="46.17873" lon="2.48944">
        <ele>447</ele>
        <time>2015-04-05T16:05:33Z</time>
      </trkpt>
      <trkpt lat="46.17873" lon="2.48942">
        <ele>447</ele>
        <time>2015-04-05T16:05:35Z</time>
      </trkpt>
      <trkpt lat="46.17873" lon="2.4894">
        <ele>447</ele>
        <time>2015-04-05T16:05:37Z</time>
      </trkpt>
      <trkpt lat="46.17872" lon="2.48938">
        <ele>447</ele>
        <time>2015-04-05T16:05:39Z</time>
      </trkpt>
      <trkpt lat="46.17872" lon="2.48936">
        <ele>447</ele>
        <time>2015-04-05T16:05:41Z</time>
      </trkpt>
      <trkpt lat="46.17871" lon="2.48934">
        <ele>447</ele>
        <time>2015-04-05T16:05:43Z</time>
      </trkpt>
      <trkpt lat="46.1787" lon="2.48932">
        <ele>447</ele>
        <time>2015-04-05T16:05:45Z</time>
      </trkpt>
      <trkpt lat="46.17869" lon="2.48929">
        <ele>447</ele>
        <time>2015-04-05T16:05:47Z</time>
      </trkpt>
      <trkpt lat="46.17868" lon="2.48926">
        <ele>447</ele>
        <time>2015-04-05T16:05:50Z</time>
      </trkpt>
      <trkpt lat="46.17867" lon="2.48924">
        <ele>447</ele>
        <time>2015-04-05T16:05:52Z</time>
      </trkpt>
      <trkpt lat="46.17867" lon="2.48921">
        <ele>447</ele>
        <time>2015-04-05T16:05:54Z</time>
      </trkpt>
      <trkpt lat="46.17866" lon="2.48919">
        <ele>447</ele>
        <time>2015-04-05T16:05:56Z</time>
      </trkpt>
      <trkpt lat="46.17866" lon="2.48916">
        <ele>447</ele>
        <time>2015-04-05T16:05:58Z</time>
      </trkpt>
      <trkpt lat="46.17866" lon="2.48915">
        <ele>447</ele>
        <time>2015-04-05T16:06:00Z</time>
      </trkpt>
      <trkpt lat="46.17867" lon="2.48913">
        <ele>447</ele>
        <time>2015-04-05T16:06:02Z</time>
      </trkpt>
      <trkpt lat="46.17867" lon="2.48911">
        <ele>447</ele>
        <time>2015-04-05T16:06:04Z</time>
      </trkpt>
      <trkpt lat="46.17868" lon="2.48909">
        <ele>447</ele>
        <time>2015-04-05T16:06:06Z</time>
      </trkpt>
      <trkpt lat="46.17869" lon="2.48907">
        <ele>447</ele>
        <time>2015-04-05T16:06:08Z</time>
      </trkpt>
      <trkpt lat="46.1787" lon="2.48905">
        <ele>447</ele>
        <time>2015-04-05T16:06:10Z</time>
      </trkpt>
      <trkpt lat="46.17871" lon="2.48903">
        <ele>447</ele>
        <time>2015-04-05T16:06:13Z</time>
      </trkpt>
      <trkpt lat="46.17872" lon="2.48902">
        <ele>447</ele>
        <time>2015-04-05T16:06:17Z</time>
      </trkpt>
      <trkpt lat="46.17873" lon="2.48902">
        <ele>447</ele>
        <time>2015-04-05T16:06:25Z</time>
      </trkpt>
      <trkpt lat="46.17875" lon="2.48902">
        <ele>449</ele>
        <time>2015-04-05T16:06:39Z</time>
      </trkpt>
      <trkpt lat="46.17876" lon="2.48904">
        <ele>449</ele>
        <time>2015-04-05T16:06:41Z</time>
      </trkpt>
      <trkpt lat="46.17876" lon="2.48906">
        <ele>449</ele>
        <time>2015-04-05T16:06:44Z</time>
      </trkpt>
      <trkpt lat="46.17874" lon="2.48907">
        <ele>451</ele>
        <time>2015-04-05T16:06:49Z</time>
      </trkpt>
      <trkpt lat="46.17872" lon="2.48906">
        <ele>451</ele>
        <time>2015-04-05T16:06:51Z</time>
      </trkpt>
      <trkpt lat="46.17871" lon="2.48907">
        <ele>451</ele>
        <time>2015-04-05T16:06:56Z</time>
      </trkpt>
      <trkpt lat="46.17873" lon="2.48908">
        <ele>451</ele>
        <time>2015-04-05T16:07:00Z</time>
      </trkpt>
      <trkpt lat="46.17872" lon="2.48906">
        <ele>451</ele>
        <time>2015-04-05T16:07:07Z</time>
      </trkpt>
      <trkpt lat="46.1787" lon="2.48905">
        <ele>451</ele>
        <time>2015-04-05T16:07:26Z</time>
      </trkpt>
      <trkpt lat="46.17871" lon="2.48904">
        <ele>451</ele>
        <time>2015-04-05T16:07:28Z</time>
      </trkpt>
      <trkpt lat="46.17871" lon="2.48902">
        <ele>451</ele>
        <time>2015-04-05T16:07:33Z</time>
      </trkpt>
      <trkpt lat="46.17871" lon="2.48901">
        <ele>451</ele>
        <time>2015-04-05T16:07:35Z</time>
      </trkpt>
      <trkpt lat="46.17873" lon="2.48899">
        <ele>451</ele>
        <time>2015-04-05T16:07:37Z</time>
      </trkpt>
      <trkpt lat="46.17873" lon="2.48901">
        <ele>451</ele>
        <time>2015-04-05T16:07:45Z</time>
      </trkpt>
      <trkpt lat="46.17874" lon="2.48903">
        <ele>451</ele>
        <time>2015-04-05T16:07:55Z</time>
      </trkpt>
      <trkpt lat="46.17873" lon="2.48904">
        <ele>451</ele>
        <time>2015-04-05T16:07:58Z</time>
      </trkpt>
      <trkpt lat="46.17873" lon="2.48903">
        <ele>451</ele>
        <time>2015-04-05T16:08:04Z</time>
      </trkpt>
      <trkpt lat="46.17872" lon="2.48903">
        <ele>451</ele>
        <time>2015-04-05T16:08:10Z</time>
      </trkpt>
      <trkpt lat="46.17872" lon="2.48905">
        <ele>451</ele>
        <time>2015-04-05T16:08:13Z</time>
      </trkpt>
      <trkpt lat="46.17871" lon="2.48905">
        <ele>451</ele>
        <time>2015-04-05T16:08:29Z</time>
      </trkpt>
      <trkpt lat="46.17872" lon="2.48904">
        <ele>451</ele>
        <time>2015-04-05T16:08:34Z</time>
      </trkpt>
      <trkpt lat="46.17874" lon="2.48906">
        <ele>451</ele>
        <time>2015-04-05T16:08:47Z</time>
      </trkpt>
      <trkpt lat="46.17875" lon="2.48907">
        <ele>451</ele>
        <time>2015-04-05T16:08:49Z</time>
      </trkpt>
      <trkpt lat="46.17877" lon="2.4891">
        <ele>451</ele>
        <time>2015-04-05T16:08:51Z</time>
      </trkpt>
      <trkpt lat="46.17879" lon="2.48911">
        <ele>451</ele>
        <time>2015-04-05T16:08:53Z</time>
      </trkpt>
      <trkpt lat="46.17881" lon="2.48912">
        <ele>451</ele>
        <time>2015-04-05T16:08:55Z</time>
      </trkpt>
      <trkpt lat="46.17883" lon="2.48913">
        <ele>450</ele>
        <time>2015-04-05T16:08:57Z</time>
      </trkpt>
      <trkpt lat="46.17887" lon="2.48915">
        <ele>450</ele>
        <time>2015-04-05T16:09:00Z</time>
      </trkpt>
      <trkpt lat="46.1789" lon="2.48918">
        <ele>449</ele>
        <time>2015-04-05T16:09:03Z</time>
      </trkpt>
      <trkpt lat="46.17892" lon="2.48917">
        <ele>449</ele>
        <time>2015-04-05T16:09:05Z</time>
      </trkpt>
      <trkpt lat="46.17895" lon="2.48917">
        <ele>449</ele>
        <time>2015-04-05T16:09:07Z</time>
      </trkpt>
      <trkpt lat="46.17899" lon="2.48916">
        <ele>448</ele>
        <time>2015-04-05T16:09:10Z</time>
      </trkpt>
      <trkpt lat="46.17901" lon="2.48916">
        <ele>448</ele>
        <time>2015-04-05T16:09:12Z</time>
      </trkpt>
      <trkpt lat="46.17904" lon="2.48918">
        <ele>448</ele>
        <time>2015-04-05T16:09:15Z</time>
      </trkpt>
      <trkpt lat="46.17906" lon="2.48917">
        <ele>448</ele>
        <time>2015-04-05T16:09:17Z</time>
      </trkpt>
      <trkpt lat="46.17907" lon="2.48917">
        <ele>447</ele>
        <time>2015-04-05T16:09:20Z</time>
      </trkpt>
      <trkpt lat="46.17908" lon="2.48916">
        <ele>447</ele>
        <time>2015-04-05T16:09:24Z</time>
      </trkpt>
      <trkpt lat="46.17909" lon="2.48914">
        <ele>447</ele>
        <time>2015-04-05T16:09:26Z</time>
      </trkpt>
      <trkpt lat="46.17909" lon="2.48916">
        <ele>447</ele>
        <time>2015-04-05T16:09:31Z</time>
      </trkpt>
      <trkpt lat="46.1791" lon="2.48917">
        <ele>447</ele>
        <time>2015-04-05T16:09:35Z</time>
      </trkpt>
      <trkpt lat="46.1791" lon="2.48919">
        <ele>447</ele>
        <time>2015-04-05T16:09:41Z</time>
      </trkpt>
      <trkpt lat="46.17909" lon="2.4892">
        <ele>448</ele>
        <time>2015-04-05T16:09:43Z</time>
      </trkpt>
      <trkpt lat="46.17913" lon="2.48918">
        <ele>455</ele>
        <time>2015-04-05T16:09:59Z</time>
      </trkpt>
      <trkpt lat="46.17914" lon="2.48916">
        <ele>456</ele>
        <time>2015-04-05T16:10:01Z</time>
      </trkpt>
      <trkpt lat="46.17912" lon="2.48915">
        <ele>456</ele>
        <time>2015-04-05T16:10:06Z</time>
      </trkpt>
      <trkpt lat="46.1791" lon="2.48914">
        <ele>456</ele>
        <time>2015-04-05T16:10:08Z</time>
      </trkpt>
      <trkpt lat="46.1791" lon="2.48916">
        <ele>456</ele>
        <time>2015-04-05T16:10:10Z</time>
      </trkpt>
      <trkpt lat="46.17908" lon="2.48918">
        <ele>456</ele>
        <time>2015-04-05T16:10:12Z</time>
      </trkpt>
      <trkpt lat="46.17906" lon="2.48918">
        <ele>456</ele>
        <time>2015-04-05T16:10:15Z</time>
      </trkpt>
      <trkpt lat="46.17904" lon="2.48918">
        <ele>456</ele>
        <time>2015-04-05T16:10:17Z</time>
      </trkpt>
      <trkpt lat="46.17901" lon="2.48917">
        <ele>455</ele>
        <time>2015-04-05T16:10:20Z</time>
      </trkpt>
      <trkpt lat="46.17899" lon="2.48918">
        <ele>455</ele>
        <time>2015-04-05T16:10:22Z</time>
      </trkpt>
      <trkpt lat="46.17897" lon="2.48919">
        <ele>455</ele>
        <time>2015-04-05T16:10:24Z</time>
      </trkpt>
      <trkpt lat="46.17894" lon="2.48918">
        <ele>454</ele>
        <time>2015-04-05T16:10:26Z</time>
      </trkpt>
      <trkpt lat="46.17891" lon="2.48918">
        <ele>453</ele>
        <time>2015-04-05T16:10:29Z</time>
      </trkpt>
      <trkpt lat="46.1789" lon="2.48918">
        <ele>452</ele>
        <time>2015-04-05T16:10:31Z</time>
      </trkpt>
      <trkpt lat="46.17889" lon="2.48916">
        <ele>451</ele>
        <time>2015-04-05T16:10:33Z</time>
      </trkpt>
      <trkpt lat="46.17888" lon="2.48914">
        <ele>450</ele>
        <time>2015-04-05T16:10:35Z</time>
      </trkpt>
      <trkpt lat="46.17887" lon="2.48911">
        <ele>449</ele>
        <time>2015-04-05T16:10:37Z</time>
      </trkpt>
      <trkpt lat="46.17885" lon="2.48909">
        <ele>449</ele>
        <time>2015-04-05T16:10:39Z</time>
      </trkpt>
      <trkpt lat="46.17885" lon="2.48909">
        <ele>449</ele>
        <time>2015-04-05T16:10:39Z</time>
      </trkpt>
    </trkseg>
  </trk>
</gpx>